<?xml version='1.0' encoding='UTF-8'?><gpx version="1.1" creator="JPX - https://github.com/jenetics/jpx" xmlns="http://www.topografix.com/GPX/1/1"><trk><trkseg><trkpt lat="41.1075445" lon="14.3435165"><ele>313.99999999999994</ele><time>2026-05-03T07:26:14.981Z</time></trkpt><trkpt lat="41.1075001" lon="14.3436034"><ele>314.0</ele><time>2026-05-03T07:26:18.981Z</time></trkpt><trkpt lat="41.1074643" lon="14.3436772"><ele>314.0</ele><time>2026-05-03T07:26:21.981Z</time></trkpt><trkpt lat="41.1074232" lon="14.343743"><ele>314.0</ele><time>2026-05-03T07:26:24.981Z</time></trkpt><trkpt lat="41.1073793" lon="14.3438075"><ele>314.0</ele><time>2026-05-03T07:26:27.981Z</time></trkpt><trkpt lat="41.1073314" lon="14.3438645"><ele>313.99999999999994</ele><time>2026-05-03T07:26:30.982Z</time></trkpt><trkpt lat="41.1072805" lon="14.3439174"><ele>314.0</ele><time>2026-05-03T07:26:33.982Z</time></trkpt><trkpt lat="41.1072107" lon="14.3439815"><ele>316.1428571428571</ele><time>2026-05-03T07:26:37.981Z</time></trkpt><trkpt lat="41.1071531" lon="14.3440285"><ele>318.2857142857143</ele><time>2026-05-03T07:26:40.982Z</time></trkpt><trkpt lat="41.1070948" lon="14.3440804"><ele>320.42857142857144</ele><time>2026-05-03T07:26:43.982Z</time></trkpt><trkpt lat="41.1070308" lon="14.3441362"><ele>322.57142857142856</ele><time>2026-05-03T07:26:46.981Z</time></trkpt><trkpt lat="41.1069695" lon="14.344202"><ele>324.7142857142857</ele><time>2026-05-03T07:26:49.981Z</time></trkpt><trkpt lat="41.1069153" lon="14.3442687"><ele>326.85714285714283</ele><time>2026-05-03T07:26:52.981Z</time></trkpt><trkpt lat="41.1068583" lon="14.3443163"><ele>329.0</ele><time>2026-05-03T07:26:55.981Z</time></trkpt><trkpt lat="41.1067865" lon="14.3443559"><ele>329.0</ele><time>2026-05-03T07:26:59.982Z</time></trkpt><trkpt lat="41.10676" lon="14.3444436"><ele>329.0</ele><time>2026-05-03T07:27:03.981Z</time></trkpt><trkpt lat="41.1067393" lon="14.3445274"><ele>329.0</ele><time>2026-05-03T07:28:18.981Z</time></trkpt><trkpt lat="41.1067233" lon="14.3446194"><ele>329.0</ele><time>2026-05-03T07:28:22.982Z</time></trkpt><trkpt lat="41.1067071" lon="14.3447197"><ele>329.0</ele><time>2026-05-03T07:28:25.981Z</time></trkpt><trkpt lat="41.1066945" lon="14.3448037"><ele>329.0</ele><time>2026-05-03T07:28:27.981Z</time></trkpt><trkpt lat="41.1066835" lon="14.3449016"><ele>329.0</ele><time>2026-05-03T07:28:29.981Z</time></trkpt><trkpt lat="41.1066824" lon="14.3450163"><ele>328.0</ele><time>2026-05-03T07:28:31.981Z</time></trkpt><trkpt lat="41.1066837" lon="14.3451474"><ele>327.0</ele><time>2026-05-03T07:28:33.982Z</time></trkpt><trkpt lat="41.1066844" lon="14.3452976"><ele>326.0</ele><time>2026-05-03T07:28:35.981Z</time></trkpt><trkpt lat="41.1066912" lon="14.3454633"><ele>325.0</ele><time>2026-05-03T07:28:37.981Z</time></trkpt><trkpt lat="41.1066906" lon="14.3455517"><ele>324.0</ele><time>2026-05-03T07:28:38.981Z</time></trkpt><trkpt lat="41.1066913" lon="14.3456453"><ele>323.6666666666667</ele><time>2026-05-03T07:28:39.981Z</time></trkpt><trkpt lat="41.1067004" lon="14.3457437"><ele>323.3333333333333</ele><time>2026-05-03T07:28:40.981Z</time></trkpt><trkpt lat="41.1067027" lon="14.3458498"><ele>323.0</ele><time>2026-05-03T07:28:41.982Z</time></trkpt><trkpt lat="41.1067068" lon="14.3459597"><ele>322.66666666666663</ele><time>2026-05-03T07:28:42.981Z</time></trkpt><trkpt lat="41.10671" lon="14.3460712"><ele>322.3333333333333</ele><time>2026-05-03T07:28:43.981Z</time></trkpt><trkpt lat="41.1067131" lon="14.3461907"><ele>322.0</ele><time>2026-05-03T07:28:44.982Z</time></trkpt><trkpt lat="41.1067142" lon="14.3463137"><ele>320.6</ele><time>2026-05-03T07:28:45.981Z</time></trkpt><trkpt lat="41.1067215" lon="14.3464424"><ele>319.20000000000005</ele><time>2026-05-03T07:28:46.982Z</time></trkpt><trkpt lat="41.1067395" lon="14.3465747"><ele>317.8</ele><time>2026-05-03T07:28:47.981Z</time></trkpt><trkpt lat="41.1067716" lon="14.3467118"><ele>316.4</ele><time>2026-05-03T07:28:48.981Z</time></trkpt><trkpt lat="41.1068159" lon="14.3468432"><ele>315.0</ele><time>2026-05-03T07:28:49.981Z</time></trkpt><trkpt lat="41.1068665" lon="14.3469788"><ele>315.0</ele><time>2026-05-03T07:28:50.981Z</time></trkpt><trkpt lat="41.1069201" lon="14.3471137"><ele>315.0</ele><time>2026-05-03T07:28:51.981Z</time></trkpt><trkpt lat="41.1069768" lon="14.3472481"><ele>315.0</ele><time>2026-05-03T07:28:52.981Z</time></trkpt><trkpt lat="41.1070418" lon="14.3473791"><ele>315.0</ele><time>2026-05-03T07:28:53.981Z</time></trkpt><trkpt lat="41.1071078" lon="14.3475122"><ele>314.25</ele><time>2026-05-03T07:28:54.981Z</time></trkpt><trkpt lat="41.1071783" lon="14.3476473"><ele>313.5</ele><time>2026-05-03T07:28:55.981Z</time></trkpt><trkpt lat="41.1072548" lon="14.3477791"><ele>312.75</ele><time>2026-05-03T07:28:56.982Z</time></trkpt><trkpt lat="41.1073307" lon="14.3479128"><ele>312.0</ele><time>2026-05-03T07:28:57.981Z</time></trkpt><trkpt lat="41.1074071" lon="14.3480488"><ele>309.75</ele><time>2026-05-03T07:28:58.981Z</time></trkpt><trkpt lat="41.1074796" lon="14.3481893"><ele>307.5</ele><time>2026-05-03T07:28:59.981Z</time></trkpt><trkpt lat="41.1075544" lon="14.3483274"><ele>305.25</ele><time>2026-05-03T07:29:00.982Z</time></trkpt><trkpt lat="41.1076281" lon="14.3484614"><ele>303.0</ele><time>2026-05-03T07:29:01.982Z</time></trkpt><trkpt lat="41.1076958" lon="14.3485858"><ele>303.0</ele><time>2026-05-03T07:29:02.981Z</time></trkpt><trkpt lat="41.1077542" lon="14.3487015"><ele>303.0</ele><time>2026-05-03T07:29:03.981Z</time></trkpt><trkpt lat="41.107817" lon="14.3488132"><ele>303.0</ele><time>2026-05-03T07:29:04.982Z</time></trkpt><trkpt lat="41.1078791" lon="14.3489211"><ele>303.0</ele><time>2026-05-03T07:29:05.981Z</time></trkpt><trkpt lat="41.1079546" lon="14.3490214"><ele>303.0</ele><time>2026-05-03T07:29:06.981Z</time></trkpt><trkpt lat="41.1080418" lon="14.34911"><ele>301.5</ele><time>2026-05-03T07:29:07.982Z</time></trkpt><trkpt lat="41.1081423" lon="14.3491795"><ele>300.0</ele><time>2026-05-03T07:29:08.981Z</time></trkpt><trkpt lat="41.1082434" lon="14.3492445"><ele>298.5</ele><time>2026-05-03T07:29:09.981Z</time></trkpt><trkpt lat="41.1083463" lon="14.3493101"><ele>297.0</ele><time>2026-05-03T07:29:10.982Z</time></trkpt><trkpt lat="41.1084514" lon="14.3493712"><ele>296.1666666666667</ele><time>2026-05-03T07:29:11.981Z</time></trkpt><trkpt lat="41.1085476" lon="14.349417"><ele>295.3333333333333</ele><time>2026-05-03T07:29:12.982Z</time></trkpt><trkpt lat="41.1086339" lon="14.3494294"><ele>294.5</ele><time>2026-05-03T07:29:13.981Z</time></trkpt><trkpt lat="41.1087152" lon="14.3494168"><ele>293.66666666666663</ele><time>2026-05-03T07:29:14.982Z</time></trkpt><trkpt lat="41.1087888" lon="14.3493864"><ele>292.8333333333333</ele><time>2026-05-03T07:29:15.981Z</time></trkpt><trkpt lat="41.1088576" lon="14.349345"><ele>292.0</ele><time>2026-05-03T07:29:16.981Z</time></trkpt><trkpt lat="41.1089284" lon="14.3492955"><ele>292.0</ele><time>2026-05-03T07:29:17.981Z</time></trkpt><trkpt lat="41.1090015" lon="14.349272"><ele>292.0</ele><time>2026-05-03T07:29:18.982Z</time></trkpt><trkpt lat="41.1090824" lon="14.3492699"><ele>292.0</ele><time>2026-05-03T07:29:19.981Z</time></trkpt><trkpt lat="41.1091657" lon="14.3492886"><ele>292.0</ele><time>2026-05-03T07:29:20.981Z</time></trkpt><trkpt lat="41.1092492" lon="14.3493244"><ele>292.0</ele><time>2026-05-03T07:29:21.981Z</time></trkpt><trkpt lat="41.1093293" lon="14.3493795"><ele>292.0</ele><time>2026-05-03T07:29:22.981Z</time></trkpt><trkpt lat="41.1094045" lon="14.3494458"><ele>291.0</ele><time>2026-05-03T07:29:23.981Z</time></trkpt><trkpt lat="41.1094827" lon="14.3495073"><ele>290.0</ele><time>2026-05-03T07:29:24.981Z</time></trkpt><trkpt lat="41.1095666" lon="14.3495581"><ele>289.0</ele><time>2026-05-03T07:29:25.981Z</time></trkpt><trkpt lat="41.1096521" lon="14.3496037"><ele>288.0</ele><time>2026-05-03T07:29:26.981Z</time></trkpt><trkpt lat="41.1097368" lon="14.3496519"><ele>287.0</ele><time>2026-05-03T07:29:27.981Z</time></trkpt><trkpt lat="41.1098239" lon="14.3497096"><ele>284.4</ele><time>2026-05-03T07:29:28.982Z</time></trkpt><trkpt lat="41.109919" lon="14.3497511"><ele>281.79999999999995</ele><time>2026-05-03T07:29:29.981Z</time></trkpt><trkpt lat="41.1100104" lon="14.3498037"><ele>279.2</ele><time>2026-05-03T07:29:30.982Z</time></trkpt><trkpt lat="41.1101029" lon="14.3498594"><ele>276.59999999999997</ele><time>2026-05-03T07:29:31.981Z</time></trkpt><trkpt lat="41.1101938" lon="14.3499235"><ele>274.0</ele><time>2026-05-03T07:29:32.981Z</time></trkpt><trkpt lat="41.1102858" lon="14.3499842"><ele>274.0</ele><time>2026-05-03T07:29:33.982Z</time></trkpt><trkpt lat="41.1103797" lon="14.3500502"><ele>274.0</ele><time>2026-05-03T07:29:34.981Z</time></trkpt><trkpt lat="41.1104744" lon="14.3501187"><ele>274.0</ele><time>2026-05-03T07:29:35.982Z</time></trkpt><trkpt lat="41.1105721" lon="14.3501844"><ele>274.0</ele><time>2026-05-03T07:29:36.982Z</time></trkpt><trkpt lat="41.1106697" lon="14.3502529"><ele>274.0</ele><time>2026-05-03T07:29:37.981Z</time></trkpt><trkpt lat="41.1107652" lon="14.3503249"><ele>275.59999999999997</ele><time>2026-05-03T07:29:38.981Z</time></trkpt><trkpt lat="41.1108626" lon="14.3503983"><ele>277.2</ele><time>2026-05-03T07:29:39.982Z</time></trkpt><trkpt lat="41.1109594" lon="14.3504771"><ele>278.79999999999995</ele><time>2026-05-03T07:29:40.981Z</time></trkpt><trkpt lat="41.1110582" lon="14.3505469"><ele>280.4</ele><time>2026-05-03T07:29:41.981Z</time></trkpt><trkpt lat="41.1111467" lon="14.3506258"><ele>282.0</ele><time>2026-05-03T07:29:42.981Z</time></trkpt><trkpt lat="41.1112253" lon="14.3507134"><ele>279.8</ele><time>2026-05-03T07:29:43.981Z</time></trkpt><trkpt lat="41.1112998" lon="14.3508062"><ele>277.6</ele><time>2026-05-03T07:29:44.982Z</time></trkpt><trkpt lat="41.1113767" lon="14.3509018"><ele>275.40000000000003</ele><time>2026-05-03T07:29:45.981Z</time></trkpt><trkpt lat="41.1114584" lon="14.3509883"><ele>273.2</ele><time>2026-05-03T07:29:46.981Z</time></trkpt><trkpt lat="41.1115385" lon="14.3510825"><ele>271.0</ele><time>2026-05-03T07:29:47.981Z</time></trkpt><trkpt lat="41.1116144" lon="14.3511875"><ele>271.0</ele><time>2026-05-03T07:29:48.982Z</time></trkpt><trkpt lat="41.1116851" lon="14.3513019"><ele>271.0</ele><time>2026-05-03T07:29:49.981Z</time></trkpt><trkpt lat="41.1117467" lon="14.3514241"><ele>271.0</ele><time>2026-05-03T07:29:50.981Z</time></trkpt><trkpt lat="41.111813" lon="14.3515466"><ele>271.0</ele><time>2026-05-03T07:29:51.981Z</time></trkpt><trkpt lat="41.1118725" lon="14.3516756"><ele>269.0</ele><time>2026-05-03T07:29:52.981Z</time></trkpt><trkpt lat="41.1119308" lon="14.3518017"><ele>267.0</ele><time>2026-05-03T07:29:53.981Z</time></trkpt><trkpt lat="41.1119856" lon="14.35192"><ele>265.0</ele><time>2026-05-03T07:29:54.981Z</time></trkpt><trkpt lat="41.1120387" lon="14.3520343"><ele>263.0</ele><time>2026-05-03T07:29:55.981Z</time></trkpt><trkpt lat="41.1120899" lon="14.3521434"><ele>261.0</ele><time>2026-05-03T07:29:56.981Z</time></trkpt><trkpt lat="41.1121359" lon="14.3522469"><ele>259.8333333333333</ele><time>2026-05-03T07:29:57.981Z</time></trkpt><trkpt lat="41.1121797" lon="14.3523441"><ele>258.6666666666667</ele><time>2026-05-03T07:29:58.981Z</time></trkpt><trkpt lat="41.1122227" lon="14.3524432"><ele>257.5</ele><time>2026-05-03T07:29:59.981Z</time></trkpt><trkpt lat="41.1122688" lon="14.3525399"><ele>256.33333333333337</ele><time>2026-05-03T07:30:00.981Z</time></trkpt><trkpt lat="41.1123122" lon="14.3526435"><ele>255.16666666666669</ele><time>2026-05-03T07:30:01.982Z</time></trkpt><trkpt lat="41.1123454" lon="14.3527542"><ele>254.0</ele><time>2026-05-03T07:30:02.981Z</time></trkpt><trkpt lat="41.1123622" lon="14.3528698"><ele>254.0</ele><time>2026-05-03T07:30:03.982Z</time></trkpt><trkpt lat="41.1123617" lon="14.3529945"><ele>253.99999999999997</ele><time>2026-05-03T07:30:04.981Z</time></trkpt><trkpt lat="41.1123546" lon="14.3531164"><ele>253.99999999999997</ele><time>2026-05-03T07:30:05.982Z</time></trkpt><trkpt lat="41.1123334" lon="14.3532272"><ele>254.0</ele><time>2026-05-03T07:30:06.981Z</time></trkpt><trkpt lat="41.1123063" lon="14.35334"><ele>254.0</ele><time>2026-05-03T07:30:07.981Z</time></trkpt><trkpt lat="41.1122826" lon="14.353455"><ele>254.00000000000003</ele><time>2026-05-03T07:30:08.981Z</time></trkpt><trkpt lat="41.1122513" lon="14.3535617"><ele>254.0</ele><time>2026-05-03T07:30:09.981Z</time></trkpt><trkpt lat="41.1122266" lon="14.3536745"><ele>254.0</ele><time>2026-05-03T07:30:10.981Z</time></trkpt><trkpt lat="41.1122099" lon="14.3537894"><ele>254.0</ele><time>2026-05-03T07:30:11.982Z</time></trkpt><trkpt lat="41.112209" lon="14.3539022"><ele>254.00000000000003</ele><time>2026-05-03T07:30:12.981Z</time></trkpt><trkpt lat="41.1122199" lon="14.3540123"><ele>254.0</ele><time>2026-05-03T07:30:13.982Z</time></trkpt><trkpt lat="41.1122484" lon="14.3541202"><ele>254.00000000000003</ele><time>2026-05-03T07:30:14.981Z</time></trkpt><trkpt lat="41.1122853" lon="14.3542194"><ele>254.0</ele><time>2026-05-03T07:30:15.981Z</time></trkpt><trkpt lat="41.1123328" lon="14.3543126"><ele>254.0</ele><time>2026-05-03T07:30:16.981Z</time></trkpt><trkpt lat="41.1123825" lon="14.354402"><ele>254.0</ele><time>2026-05-03T07:30:17.981Z</time></trkpt><trkpt lat="41.1124324" lon="14.3544931"><ele>254.00000000000003</ele><time>2026-05-03T07:30:18.982Z</time></trkpt><trkpt lat="41.1124867" lon="14.3545829"><ele>254.0</ele><time>2026-05-03T07:30:19.981Z</time></trkpt><trkpt lat="41.1125414" lon="14.354667"><ele>253.33333333333334</ele><time>2026-05-03T07:30:20.981Z</time></trkpt><trkpt lat="41.1125996" lon="14.3547484"><ele>252.66666666666669</ele><time>2026-05-03T07:30:21.982Z</time></trkpt><trkpt lat="41.1126613" lon="14.354825"><ele>252.0</ele><time>2026-05-03T07:30:22.981Z</time></trkpt><trkpt lat="41.1127198" lon="14.3549035"><ele>251.33333333333331</ele><time>2026-05-03T07:30:23.982Z</time></trkpt><trkpt lat="41.1127752" lon="14.354985"><ele>250.66666666666666</ele><time>2026-05-03T07:30:24.981Z</time></trkpt><trkpt lat="41.112832" lon="14.3550622"><ele>250.0</ele><time>2026-05-03T07:30:25.981Z</time></trkpt><trkpt lat="41.1128812" lon="14.3551475"><ele>249.99999999999997</ele><time>2026-05-03T07:30:26.981Z</time></trkpt><trkpt lat="41.1129384" lon="14.355224"><ele>250.0</ele><time>2026-05-03T07:30:27.982Z</time></trkpt><trkpt lat="41.1129953" lon="14.3553007"><ele>250.0</ele><time>2026-05-03T07:30:28.981Z</time></trkpt><trkpt lat="41.1130525" lon="14.355378"><ele>250.0</ele><time>2026-05-03T07:30:29.981Z</time></trkpt><trkpt lat="41.1131112" lon="14.3554568"><ele>249.99999999999997</ele><time>2026-05-03T07:30:30.981Z</time></trkpt><trkpt lat="41.1131713" lon="14.3555361"><ele>250.0</ele><time>2026-05-03T07:30:31.982Z</time></trkpt><trkpt lat="41.1132315" lon="14.355609"><ele>249.33333333333331</ele><time>2026-05-03T07:30:32.981Z</time></trkpt><trkpt lat="41.113286" lon="14.3556885"><ele>248.66666666666666</ele><time>2026-05-03T07:30:33.982Z</time></trkpt><trkpt lat="41.1133477" lon="14.3557569"><ele>248.0</ele><time>2026-05-03T07:30:34.981Z</time></trkpt><trkpt lat="41.1134144" lon="14.3558209"><ele>247.33333333333331</ele><time>2026-05-03T07:30:35.981Z</time></trkpt><trkpt lat="41.113481" lon="14.3558863"><ele>246.66666666666666</ele><time>2026-05-03T07:30:36.981Z</time></trkpt><trkpt lat="41.1135494" lon="14.3559479"><ele>246.0</ele><time>2026-05-03T07:30:37.982Z</time></trkpt><trkpt lat="41.1136255" lon="14.3559935"><ele>246.0</ele><time>2026-05-03T07:30:38.982Z</time></trkpt><trkpt lat="41.1136977" lon="14.356047"><ele>246.0</ele><time>2026-05-03T07:30:39.982Z</time></trkpt><trkpt lat="41.1137723" lon="14.3561004"><ele>246.0</ele><time>2026-05-03T07:30:40.982Z</time></trkpt><trkpt lat="41.1138468" lon="14.3561503"><ele>246.0</ele><time>2026-05-03T07:30:41.981Z</time></trkpt><trkpt lat="41.1139238" lon="14.3561965"><ele>246.0</ele><time>2026-05-03T07:30:42.981Z</time></trkpt><trkpt lat="41.1139985" lon="14.3562479"><ele>246.0</ele><time>2026-05-03T07:30:43.981Z</time></trkpt><trkpt lat="41.1140791" lon="14.3562801"><ele>245.83333333333334</ele><time>2026-05-03T07:30:44.981Z</time></trkpt><trkpt lat="41.1141589" lon="14.3563198"><ele>245.66666666666669</ele><time>2026-05-03T07:30:45.982Z</time></trkpt><trkpt lat="41.1142389" lon="14.3563526"><ele>245.5</ele><time>2026-05-03T07:30:46.981Z</time></trkpt><trkpt lat="41.1143195" lon="14.3563852"><ele>245.33333333333334</ele><time>2026-05-03T07:30:47.981Z</time></trkpt><trkpt lat="41.1143996" lon="14.3564106"><ele>245.16666666666669</ele><time>2026-05-03T07:30:48.981Z</time></trkpt><trkpt lat="41.1144812" lon="14.3564371"><ele>245.0</ele><time>2026-05-03T07:30:49.981Z</time></trkpt><trkpt lat="41.1145655" lon="14.3564467"><ele>245.00000000000003</ele><time>2026-05-03T07:30:50.982Z</time></trkpt><trkpt lat="41.114648" lon="14.3564659"><ele>245.0</ele><time>2026-05-03T07:30:51.981Z</time></trkpt><trkpt lat="41.1147261" lon="14.3565047"><ele>245.0</ele><time>2026-05-03T07:30:52.981Z</time></trkpt><trkpt lat="41.1148049" lon="14.356537"><ele>245.0</ele><time>2026-05-03T07:30:53.981Z</time></trkpt><trkpt lat="41.114883" lon="14.3565697"><ele>245.00000000000003</ele><time>2026-05-03T07:30:54.981Z</time></trkpt><trkpt lat="41.1149568" lon="14.356615"><ele>245.0</ele><time>2026-05-03T07:30:55.982Z</time></trkpt><trkpt lat="41.1150251" lon="14.3566671"><ele>244.16666666666669</ele><time>2026-05-03T07:30:56.981Z</time></trkpt><trkpt lat="41.115093" lon="14.3567196"><ele>243.33333333333334</ele><time>2026-05-03T07:30:57.981Z</time></trkpt><trkpt lat="41.1151585" lon="14.3567789"><ele>242.5</ele><time>2026-05-03T07:30:58.981Z</time></trkpt><trkpt lat="41.1152203" lon="14.3568415"><ele>241.66666666666669</ele><time>2026-05-03T07:30:59.981Z</time></trkpt><trkpt lat="41.1152792" lon="14.3569108"><ele>240.83333333333334</ele><time>2026-05-03T07:31:00.982Z</time></trkpt><trkpt lat="41.115339" lon="14.3569804"><ele>240.0</ele><time>2026-05-03T07:31:01.981Z</time></trkpt><trkpt lat="41.1153989" lon="14.3570505"><ele>240.0</ele><time>2026-05-03T07:31:02.981Z</time></trkpt><trkpt lat="41.1154574" lon="14.3571198"><ele>240.0</ele><time>2026-05-03T07:31:03.982Z</time></trkpt><trkpt lat="41.1155115" lon="14.3571928"><ele>240.0</ele><time>2026-05-03T07:31:04.981Z</time></trkpt><trkpt lat="41.115561" lon="14.3572717"><ele>240.0</ele><time>2026-05-03T07:31:05.981Z</time></trkpt><trkpt lat="41.1156079" lon="14.3573507"><ele>240.0</ele><time>2026-05-03T07:31:06.981Z</time></trkpt><trkpt lat="41.1156518" lon="14.3574283"><ele>240.0</ele><time>2026-05-03T07:31:07.981Z</time></trkpt><trkpt lat="41.1156909" lon="14.35751"><ele>240.0</ele><time>2026-05-03T07:31:08.982Z</time></trkpt><trkpt lat="41.1157323" lon="14.3575841"><ele>240.0</ele><time>2026-05-03T07:31:09.982Z</time></trkpt><trkpt lat="41.1157692" lon="14.357658"><ele>240.0</ele><time>2026-05-03T07:31:10.981Z</time></trkpt><trkpt lat="41.1158037" lon="14.3577301"><ele>240.0</ele><time>2026-05-03T07:31:11.981Z</time></trkpt><trkpt lat="41.1158679" lon="14.3578683"><ele>240.0</ele><time>2026-05-03T07:31:13.982Z</time></trkpt><trkpt lat="41.1159216" lon="14.3580035"><ele>240.0</ele><time>2026-05-03T07:31:15.981Z</time></trkpt><trkpt lat="41.1159755" lon="14.3581309"><ele>239.75</ele><time>2026-05-03T07:31:17.981Z</time></trkpt><trkpt lat="41.1160402" lon="14.3582531"><ele>239.5</ele><time>2026-05-03T07:31:19.981Z</time></trkpt><trkpt lat="41.1161174" lon="14.358365"><ele>239.25</ele><time>2026-05-03T07:31:21.981Z</time></trkpt><trkpt lat="41.1162009" lon="14.3584661"><ele>239.0</ele><time>2026-05-03T07:31:23.982Z</time></trkpt><trkpt lat="41.1162932" lon="14.3585653"><ele>239.0</ele><time>2026-05-03T07:31:25.982Z</time></trkpt><trkpt lat="41.116382" lon="14.3586705"><ele>239.0</ele><time>2026-05-03T07:31:27.981Z</time></trkpt><trkpt lat="41.1164712" lon="14.3587716"><ele>239.0</ele><time>2026-05-03T07:31:29.981Z</time></trkpt><trkpt lat="41.116559" lon="14.3588741"><ele>239.0</ele><time>2026-05-03T07:31:31.981Z</time></trkpt><trkpt lat="41.116649" lon="14.3589747"><ele>239.2</ele><time>2026-05-03T07:31:33.981Z</time></trkpt><trkpt lat="41.1167319" lon="14.3590721"><ele>239.39999999999998</ele><time>2026-05-03T07:31:35.981Z</time></trkpt><trkpt lat="41.11681" lon="14.3591577"><ele>239.6</ele><time>2026-05-03T07:31:37.981Z</time></trkpt><trkpt lat="41.1168827" lon="14.3592371"><ele>239.8</ele><time>2026-05-03T07:31:39.981Z</time></trkpt><trkpt lat="41.1169532" lon="14.3593072"><ele>240.0</ele><time>2026-05-03T07:31:41.981Z</time></trkpt><trkpt lat="41.1170203" lon="14.3593789"><ele>240.0</ele><time>2026-05-03T07:31:43.981Z</time></trkpt><trkpt lat="41.1170833" lon="14.3594546"><ele>240.0</ele><time>2026-05-03T07:31:45.981Z</time></trkpt><trkpt lat="41.1171445" lon="14.3595305"><ele>240.0</ele><time>2026-05-03T07:31:47.981Z</time></trkpt><trkpt lat="41.1171961" lon="14.3596203"><ele>240.0</ele><time>2026-05-03T07:31:49.982Z</time></trkpt><trkpt lat="41.1172499" lon="14.3597069"><ele>240.0</ele><time>2026-05-03T07:31:51.982Z</time></trkpt><trkpt lat="41.1172998" lon="14.3597927"><ele>240.0</ele><time>2026-05-03T07:31:53.981Z</time></trkpt><trkpt lat="41.1173514" lon="14.35988"><ele>240.33333333333334</ele><time>2026-05-03T07:31:55.981Z</time></trkpt><trkpt lat="41.1174012" lon="14.3599702"><ele>240.66666666666669</ele><time>2026-05-03T07:31:57.982Z</time></trkpt><trkpt lat="41.1174523" lon="14.3600589"><ele>241.0</ele><time>2026-05-03T07:31:59.981Z</time></trkpt><trkpt lat="41.1175053" lon="14.3601466"><ele>241.33333333333334</ele><time>2026-05-03T07:32:01.982Z</time></trkpt><trkpt lat="41.1175598" lon="14.3602365"><ele>241.66666666666669</ele><time>2026-05-03T07:32:03.982Z</time></trkpt><trkpt lat="41.1176147" lon="14.3603259"><ele>242.0</ele><time>2026-05-03T07:32:05.981Z</time></trkpt><trkpt lat="41.1176699" lon="14.3604131"><ele>242.33333333333334</ele><time>2026-05-03T07:32:07.982Z</time></trkpt><trkpt lat="41.1177241" lon="14.360502"><ele>242.66666666666669</ele><time>2026-05-03T07:32:09.982Z</time></trkpt><trkpt lat="41.1177804" lon="14.3605913"><ele>243.0</ele><time>2026-05-03T07:32:11.981Z</time></trkpt><trkpt lat="41.1178388" lon="14.3606831"><ele>243.33333333333331</ele><time>2026-05-03T07:32:13.982Z</time></trkpt><trkpt lat="41.117893" lon="14.3607736"><ele>243.66666666666666</ele><time>2026-05-03T07:32:15.981Z</time></trkpt><trkpt lat="41.1179448" lon="14.3608647"><ele>244.0</ele><time>2026-05-03T07:32:17.981Z</time></trkpt><trkpt lat="41.1180056" lon="14.3609551"><ele>244.0</ele><time>2026-05-03T07:32:19.982Z</time></trkpt><trkpt lat="41.1180584" lon="14.3610539"><ele>243.99999999999997</ele><time>2026-05-03T07:32:21.981Z</time></trkpt><trkpt lat="41.1181142" lon="14.3611522"><ele>243.99999999999997</ele><time>2026-05-03T07:32:23.982Z</time></trkpt><trkpt lat="41.1181673" lon="14.3612599"><ele>244.0</ele><time>2026-05-03T07:32:25.981Z</time></trkpt><trkpt lat="41.1182196" lon="14.3613729"><ele>244.0</ele><time>2026-05-03T07:32:27.981Z</time></trkpt><trkpt lat="41.1182733" lon="14.3614928"><ele>244.2</ele><time>2026-05-03T07:32:29.981Z</time></trkpt><trkpt lat="41.1183301" lon="14.3616141"><ele>244.39999999999998</ele><time>2026-05-03T07:32:31.981Z</time></trkpt><trkpt lat="41.1183859" lon="14.3617393"><ele>244.6</ele><time>2026-05-03T07:32:33.982Z</time></trkpt><trkpt lat="41.1184424" lon="14.3618509"><ele>244.8</ele><time>2026-05-03T07:32:35.981Z</time></trkpt><trkpt lat="41.1184862" lon="14.3619697"><ele>245.0</ele><time>2026-05-03T07:32:37.981Z</time></trkpt><trkpt lat="41.1185371" lon="14.3620754"><ele>245.0</ele><time>2026-05-03T07:32:39.982Z</time></trkpt><trkpt lat="41.1185834" lon="14.3621877"><ele>245.0</ele><time>2026-05-03T07:32:41.981Z</time></trkpt><trkpt lat="41.1186329" lon="14.3622973"><ele>245.0</ele><time>2026-05-03T07:32:43.982Z</time></trkpt><trkpt lat="41.1186817" lon="14.3624043"><ele>245.0</ele><time>2026-05-03T07:32:45.981Z</time></trkpt><trkpt lat="41.1187325" lon="14.3625068"><ele>245.0</ele><time>2026-05-03T07:32:47.981Z</time></trkpt><trkpt lat="41.1187864" lon="14.3626144"><ele>244.8</ele><time>2026-05-03T07:32:49.981Z</time></trkpt><trkpt lat="41.1188489" lon="14.3627211"><ele>244.6</ele><time>2026-05-03T07:32:51.981Z</time></trkpt><trkpt lat="41.1189225" lon="14.3628121"><ele>244.39999999999998</ele><time>2026-05-03T07:32:53.981Z</time></trkpt><trkpt lat="41.1189992" lon="14.3628965"><ele>244.2</ele><time>2026-05-03T07:32:55.982Z</time></trkpt><trkpt lat="41.1190857" lon="14.3629809"><ele>244.0</ele><time>2026-05-03T07:32:57.981Z</time></trkpt><trkpt lat="41.1191676" lon="14.3630597"><ele>243.6</ele><time>2026-05-03T07:32:59.982Z</time></trkpt><trkpt lat="41.1192525" lon="14.3631294"><ele>243.2</ele><time>2026-05-03T07:33:01.981Z</time></trkpt><trkpt lat="41.1193472" lon="14.3631985"><ele>242.79999999999998</ele><time>2026-05-03T07:33:03.981Z</time></trkpt><trkpt lat="41.1194416" lon="14.3632773"><ele>242.39999999999998</ele><time>2026-05-03T07:33:05.981Z</time></trkpt><trkpt lat="41.1195225" lon="14.3633734"><ele>242.0</ele><time>2026-05-03T07:33:07.982Z</time></trkpt><trkpt lat="41.1195955" lon="14.363472"><ele>242.0</ele><time>2026-05-03T07:33:09.981Z</time></trkpt><trkpt lat="41.1196666" lon="14.3635745"><ele>242.0</ele><time>2026-05-03T07:33:11.981Z</time></trkpt><trkpt lat="41.1197334" lon="14.3636816"><ele>242.0</ele><time>2026-05-03T07:33:13.982Z</time></trkpt><trkpt lat="41.1197967" lon="14.3637814"><ele>242.0</ele><time>2026-05-03T07:33:15.981Z</time></trkpt><trkpt lat="41.1198586" lon="14.3638847"><ele>242.0</ele><time>2026-05-03T07:33:17.981Z</time></trkpt><trkpt lat="41.119917" lon="14.3639952"><ele>242.2</ele><time>2026-05-03T07:33:19.982Z</time></trkpt><trkpt lat="41.1199796" lon="14.3641093"><ele>242.39999999999998</ele><time>2026-05-03T07:33:21.981Z</time></trkpt><trkpt lat="41.1200499" lon="14.3642158"><ele>242.60000000000002</ele><time>2026-05-03T07:33:23.981Z</time></trkpt><trkpt lat="41.1201204" lon="14.364319"><ele>242.8</ele><time>2026-05-03T07:33:25.981Z</time></trkpt><trkpt lat="41.1201866" lon="14.364426"><ele>243.0</ele><time>2026-05-03T07:33:27.981Z</time></trkpt><trkpt lat="41.1202538" lon="14.3645302"><ele>243.0</ele><time>2026-05-03T07:33:29.981Z</time></trkpt><trkpt lat="41.1203236" lon="14.3646351"><ele>243.0</ele><time>2026-05-03T07:33:31.982Z</time></trkpt><trkpt lat="41.1203991" lon="14.3647329"><ele>243.0</ele><time>2026-05-03T07:33:33.982Z</time></trkpt><trkpt lat="41.1204712" lon="14.3648216"><ele>243.0</ele><time>2026-05-03T07:33:35.982Z</time></trkpt><trkpt lat="41.120538" lon="14.3649036"><ele>243.0</ele><time>2026-05-03T07:33:37.981Z</time></trkpt><trkpt lat="41.120602" lon="14.3649934"><ele>242.8</ele><time>2026-05-03T07:33:39.981Z</time></trkpt><trkpt lat="41.1206601" lon="14.3650886"><ele>242.60000000000002</ele><time>2026-05-03T07:33:41.981Z</time></trkpt><trkpt lat="41.1207134" lon="14.3651805"><ele>242.39999999999998</ele><time>2026-05-03T07:33:43.982Z</time></trkpt><trkpt lat="41.1207635" lon="14.36527"><ele>242.2</ele><time>2026-05-03T07:33:45.981Z</time></trkpt><trkpt lat="41.1208219" lon="14.3653633"><ele>242.0</ele><time>2026-05-03T07:33:47.982Z</time></trkpt><trkpt lat="41.12088" lon="14.3654715"><ele>242.2</ele><time>2026-05-03T07:33:49.981Z</time></trkpt><trkpt lat="41.1209417" lon="14.3655691"><ele>242.39999999999998</ele><time>2026-05-03T07:33:51.982Z</time></trkpt><trkpt lat="41.1210028" lon="14.3656662"><ele>242.60000000000002</ele><time>2026-05-03T07:33:53.981Z</time></trkpt><trkpt lat="41.121063" lon="14.3657553"><ele>242.8</ele><time>2026-05-03T07:33:55.981Z</time></trkpt><trkpt lat="41.1211171" lon="14.3658525"><ele>243.0</ele><time>2026-05-03T07:33:57.981Z</time></trkpt><trkpt lat="41.1211746" lon="14.365945"><ele>243.0</ele><time>2026-05-03T07:33:59.982Z</time></trkpt><trkpt lat="41.1212355" lon="14.3660395"><ele>243.0</ele><time>2026-05-03T07:34:01.981Z</time></trkpt><trkpt lat="41.1212963" lon="14.3661334"><ele>243.0</ele><time>2026-05-03T07:34:03.982Z</time></trkpt><trkpt lat="41.1213557" lon="14.3662276"><ele>243.0</ele><time>2026-05-03T07:34:05.981Z</time></trkpt><trkpt lat="41.12141" lon="14.3663283"><ele>243.0</ele><time>2026-05-03T07:34:07.981Z</time></trkpt><trkpt lat="41.1214682" lon="14.3664237"><ele>243.60000000000002</ele><time>2026-05-03T07:34:09.981Z</time></trkpt><trkpt lat="41.1215248" lon="14.3665198"><ele>244.20000000000002</ele><time>2026-05-03T07:34:11.981Z</time></trkpt><trkpt lat="41.1215824" lon="14.366614"><ele>244.8</ele><time>2026-05-03T07:34:13.981Z</time></trkpt><trkpt lat="41.1216437" lon="14.3667117"><ele>245.4</ele><time>2026-05-03T07:34:15.981Z</time></trkpt><trkpt lat="41.1217015" lon="14.3668052"><ele>246.0</ele><time>2026-05-03T07:34:17.981Z</time></trkpt><trkpt lat="41.1217555" lon="14.3668979"><ele>246.0</ele><time>2026-05-03T07:34:19.981Z</time></trkpt><trkpt lat="41.1218071" lon="14.3669868"><ele>246.00000000000003</ele><time>2026-05-03T07:34:21.981Z</time></trkpt><trkpt lat="41.1218667" lon="14.367077"><ele>246.00000000000003</ele><time>2026-05-03T07:34:23.982Z</time></trkpt><trkpt lat="41.1219299" lon="14.3671813"><ele>246.0</ele><time>2026-05-03T07:34:25.982Z</time></trkpt><trkpt lat="41.1219875" lon="14.3672846"><ele>246.0</ele><time>2026-05-03T07:34:27.981Z</time></trkpt><trkpt lat="41.1220447" lon="14.3673865"><ele>245.20000000000002</ele><time>2026-05-03T07:34:29.981Z</time></trkpt><trkpt lat="41.122103" lon="14.3674864"><ele>244.40000000000003</ele><time>2026-05-03T07:34:31.981Z</time></trkpt><trkpt lat="41.1221705" lon="14.3675949"><ele>243.6</ele><time>2026-05-03T07:34:33.981Z</time></trkpt><trkpt lat="41.1222389" lon="14.3677036"><ele>242.8</ele><time>2026-05-03T07:34:35.981Z</time></trkpt><trkpt lat="41.1223019" lon="14.3678086"><ele>242.0</ele><time>2026-05-03T07:34:37.982Z</time></trkpt><trkpt lat="41.1223677" lon="14.3679241"><ele>241.8</ele><time>2026-05-03T07:34:39.981Z</time></trkpt><trkpt lat="41.1224354" lon="14.3680362"><ele>241.6</ele><time>2026-05-03T07:34:41.981Z</time></trkpt><trkpt lat="41.1225019" lon="14.3681377"><ele>241.40000000000003</ele><time>2026-05-03T07:34:43.981Z</time></trkpt><trkpt lat="41.1225687" lon="14.3682296"><ele>241.20000000000002</ele><time>2026-05-03T07:34:45.981Z</time></trkpt><trkpt lat="41.1226355" lon="14.3683168"><ele>241.0</ele><time>2026-05-03T07:34:47.981Z</time></trkpt><trkpt lat="41.1227036" lon="14.3684026"><ele>241.0</ele><time>2026-05-03T07:34:49.981Z</time></trkpt><trkpt lat="41.122775" lon="14.368497"><ele>241.00000000000003</ele><time>2026-05-03T07:34:51.982Z</time></trkpt><trkpt lat="41.1228556" lon="14.3685941"><ele>241.00000000000003</ele><time>2026-05-03T07:34:53.981Z</time></trkpt><trkpt lat="41.1229349" lon="14.3686856"><ele>241.0</ele><time>2026-05-03T07:34:55.981Z</time></trkpt><trkpt lat="41.1230005" lon="14.3687756"><ele>241.0</ele><time>2026-05-03T07:34:57.982Z</time></trkpt><trkpt lat="41.1230638" lon="14.3688614"><ele>240.8</ele><time>2026-05-03T07:34:59.981Z</time></trkpt><trkpt lat="41.1231287" lon="14.3689432"><ele>240.60000000000002</ele><time>2026-05-03T07:35:01.981Z</time></trkpt><trkpt lat="41.1231994" lon="14.3690234"><ele>240.4</ele><time>2026-05-03T07:35:03.981Z</time></trkpt><trkpt lat="41.1232684" lon="14.3691062"><ele>240.2</ele><time>2026-05-03T07:35:05.981Z</time></trkpt><trkpt lat="41.1233349" lon="14.3691838"><ele>240.0</ele><time>2026-05-03T07:35:07.981Z</time></trkpt><trkpt lat="41.1233983" lon="14.3692661"><ele>240.0</ele><time>2026-05-03T07:35:09.981Z</time></trkpt><trkpt lat="41.1234725" lon="14.3693428"><ele>240.0</ele><time>2026-05-03T07:35:11.981Z</time></trkpt><trkpt lat="41.1235413" lon="14.3694385"><ele>240.0</ele><time>2026-05-03T07:35:13.981Z</time></trkpt><trkpt lat="41.1236186" lon="14.3695393"><ele>240.0</ele><time>2026-05-03T07:35:15.981Z</time></trkpt><trkpt lat="41.1237047" lon="14.3696476"><ele>240.0</ele><time>2026-05-03T07:35:17.981Z</time></trkpt><trkpt lat="41.1237917" lon="14.3697609"><ele>240.0</ele><time>2026-05-03T07:35:19.982Z</time></trkpt><trkpt lat="41.1238773" lon="14.3698777"><ele>240.0</ele><time>2026-05-03T07:35:21.981Z</time></trkpt><trkpt lat="41.1239239" lon="14.3699382"><ele>240.0</ele><time>2026-05-03T07:35:22.982Z</time></trkpt><trkpt lat="41.1239724" lon="14.3700015"><ele>240.0</ele><time>2026-05-03T07:35:23.982Z</time></trkpt><trkpt lat="41.1240228" lon="14.3700625"><ele>240.0</ele><time>2026-05-03T07:35:24.981Z</time></trkpt><trkpt lat="41.1240702" lon="14.3701296"><ele>240.0</ele><time>2026-05-03T07:35:25.981Z</time></trkpt><trkpt lat="41.1241269" lon="14.3701898"><ele>240.0</ele><time>2026-05-03T07:35:26.981Z</time></trkpt><trkpt lat="41.1241807" lon="14.3702562"><ele>240.0</ele><time>2026-05-03T07:35:27.981Z</time></trkpt><trkpt lat="41.1242328" lon="14.3703281"><ele>240.0</ele><time>2026-05-03T07:35:28.981Z</time></trkpt><trkpt lat="41.1242904" lon="14.3703948"><ele>240.0</ele><time>2026-05-03T07:35:29.981Z</time></trkpt><trkpt lat="41.1243523" lon="14.3704598"><ele>240.0</ele><time>2026-05-03T07:35:30.981Z</time></trkpt><trkpt lat="41.1244186" lon="14.3705165"><ele>240.0</ele><time>2026-05-03T07:35:31.982Z</time></trkpt><trkpt lat="41.1244897" lon="14.3705648"><ele>239.5</ele><time>2026-05-03T07:35:32.981Z</time></trkpt><trkpt lat="41.124561" lon="14.3706091"><ele>239.0</ele><time>2026-05-03T07:35:33.981Z</time></trkpt><trkpt lat="41.1246314" lon="14.3706572"><ele>238.5</ele><time>2026-05-03T07:35:34.981Z</time></trkpt><trkpt lat="41.1247055" lon="14.3706976"><ele>238.0</ele><time>2026-05-03T07:35:35.981Z</time></trkpt><trkpt lat="41.1247742" lon="14.370751"><ele>237.5</ele><time>2026-05-03T07:35:36.982Z</time></trkpt><trkpt lat="41.1248479" lon="14.3707978"><ele>237.0</ele><time>2026-05-03T07:35:37.982Z</time></trkpt><trkpt lat="41.1249205" lon="14.3708469"><ele>237.0</ele><time>2026-05-03T07:35:38.981Z</time></trkpt><trkpt lat="41.1249949" lon="14.3708972"><ele>237.0</ele><time>2026-05-03T07:35:39.981Z</time></trkpt><trkpt lat="41.1250737" lon="14.3709365"><ele>237.0</ele><time>2026-05-03T07:35:40.981Z</time></trkpt><trkpt lat="41.1251492" lon="14.3709835"><ele>237.0</ele><time>2026-05-03T07:35:41.982Z</time></trkpt><trkpt lat="41.1252244" lon="14.3710365"><ele>237.0</ele><time>2026-05-03T07:35:42.981Z</time></trkpt><trkpt lat="41.1253009" lon="14.3710844"><ele>237.0</ele><time>2026-05-03T07:35:43.981Z</time></trkpt><trkpt lat="41.1253766" lon="14.3711351"><ele>237.0</ele><time>2026-05-03T07:35:44.981Z</time></trkpt><trkpt lat="41.1254517" lon="14.3711877"><ele>237.0</ele><time>2026-05-03T07:35:45.982Z</time></trkpt><trkpt lat="41.1255281" lon="14.3712366"><ele>237.0</ele><time>2026-05-03T07:35:46.981Z</time></trkpt><trkpt lat="41.1256052" lon="14.371282"><ele>237.0</ele><time>2026-05-03T07:35:47.981Z</time></trkpt><trkpt lat="41.1256815" lon="14.3713294"><ele>237.0</ele><time>2026-05-03T07:35:48.981Z</time></trkpt><trkpt lat="41.1257543" lon="14.371375"><ele>237.0</ele><time>2026-05-03T07:35:49.982Z</time></trkpt><trkpt lat="41.1258271" lon="14.371423"><ele>236.16666666666666</ele><time>2026-05-03T07:35:50.981Z</time></trkpt><trkpt lat="41.1259015" lon="14.3714682"><ele>235.33333333333331</ele><time>2026-05-03T07:35:51.981Z</time></trkpt><trkpt lat="41.1259713" lon="14.3715154"><ele>234.5</ele><time>2026-05-03T07:35:52.981Z</time></trkpt><trkpt lat="41.1260414" lon="14.3715609"><ele>233.66666666666666</ele><time>2026-05-03T07:35:53.982Z</time></trkpt><trkpt lat="41.1261094" lon="14.3716083"><ele>232.83333333333331</ele><time>2026-05-03T07:35:54.981Z</time></trkpt><trkpt lat="41.126176" lon="14.3716489"><ele>232.0</ele><time>2026-05-03T07:35:55.981Z</time></trkpt><trkpt lat="41.126241" lon="14.371687"><ele>232.00000000000003</ele><time>2026-05-03T07:35:56.981Z</time></trkpt><trkpt lat="41.1263009" lon="14.3717274"><ele>232.0</ele><time>2026-05-03T07:35:57.981Z</time></trkpt><trkpt lat="41.1263628" lon="14.3717653"><ele>232.00000000000003</ele><time>2026-05-03T07:35:58.982Z</time></trkpt><trkpt lat="41.1264246" lon="14.3718049"><ele>232.00000000000003</ele><time>2026-05-03T07:35:59.981Z</time></trkpt><trkpt lat="41.1264872" lon="14.3718463"><ele>232.0</ele><time>2026-05-03T07:36:00.982Z</time></trkpt><trkpt lat="41.1265505" lon="14.3718844"><ele>232.00000000000003</ele><time>2026-05-03T07:36:01.981Z</time></trkpt><trkpt lat="41.1266138" lon="14.3719256"><ele>232.00000000000003</ele><time>2026-05-03T07:36:02.981Z</time></trkpt><trkpt lat="41.1266786" lon="14.3719622"><ele>232.28571428571433</ele><time>2026-05-03T07:36:03.981Z</time></trkpt><trkpt lat="41.1267414" lon="14.3720027"><ele>232.57142857142858</ele><time>2026-05-03T07:36:04.982Z</time></trkpt><trkpt lat="41.1267992" lon="14.3720428"><ele>232.8571428571429</ele><time>2026-05-03T07:36:05.981Z</time></trkpt><trkpt lat="41.1268593" lon="14.3720879"><ele>233.14285714285717</ele><time>2026-05-03T07:36:06.982Z</time></trkpt><trkpt lat="41.1269154" lon="14.3721305"><ele>233.42857142857144</ele><time>2026-05-03T07:36:07.981Z</time></trkpt><trkpt lat="41.1269747" lon="14.3721621"><ele>233.71428571428572</ele><time>2026-05-03T07:36:08.981Z</time></trkpt><trkpt lat="41.1270327" lon="14.3721977"><ele>234.0</ele><time>2026-05-03T07:36:09.981Z</time></trkpt><trkpt lat="41.1271378" lon="14.3722709"><ele>233.79999999999998</ele><time>2026-05-03T07:36:11.981Z</time></trkpt><trkpt lat="41.1272406" lon="14.3723404"><ele>233.59999999999997</ele><time>2026-05-03T07:36:13.981Z</time></trkpt><trkpt lat="41.1273353" lon="14.3723972"><ele>233.4</ele><time>2026-05-03T07:36:15.981Z</time></trkpt><trkpt lat="41.127427" lon="14.3724582"><ele>233.2</ele><time>2026-05-03T07:36:17.981Z</time></trkpt><trkpt lat="41.1275142" lon="14.3725155"><ele>233.0</ele><time>2026-05-03T07:36:19.981Z</time></trkpt><trkpt lat="41.1275963" lon="14.3725662"><ele>233.00000000000003</ele><time>2026-05-03T07:36:21.981Z</time></trkpt><trkpt lat="41.1276678" lon="14.372618"><ele>233.0</ele><time>2026-05-03T07:36:23.982Z</time></trkpt><trkpt lat="41.1277417" lon="14.3726629"><ele>233.0</ele><time>2026-05-03T07:36:25.981Z</time></trkpt><trkpt lat="41.1278174" lon="14.3727081"><ele>233.0</ele><time>2026-05-03T07:36:27.981Z</time></trkpt><trkpt lat="41.1278925" lon="14.3727543"><ele>233.00000000000003</ele><time>2026-05-03T07:36:29.982Z</time></trkpt><trkpt lat="41.1279661" lon="14.3728126"><ele>233.0</ele><time>2026-05-03T07:36:31.982Z</time></trkpt><trkpt lat="41.1280401" lon="14.3728719"><ele>233.00000000000003</ele><time>2026-05-03T07:36:33.981Z</time></trkpt><trkpt lat="41.1281177" lon="14.3729233"><ele>233.0</ele><time>2026-05-03T07:36:35.982Z</time></trkpt><trkpt lat="41.1281902" lon="14.3729805"><ele>233.0</ele><time>2026-05-03T07:36:37.981Z</time></trkpt><trkpt lat="41.1282562" lon="14.3730454"><ele>233.0</ele><time>2026-05-03T07:36:39.981Z</time></trkpt><trkpt lat="41.1283192" lon="14.3731102"><ele>233.00000000000003</ele><time>2026-05-03T07:36:41.981Z</time></trkpt><trkpt lat="41.1283822" lon="14.3731729"><ele>233.0</ele><time>2026-05-03T07:36:43.981Z</time></trkpt><trkpt lat="41.1284448" lon="14.3732369"><ele>233.50000000000003</ele><time>2026-05-03T07:36:45.981Z</time></trkpt><trkpt lat="41.1285087" lon="14.373299"><ele>234.0</ele><time>2026-05-03T07:36:47.981Z</time></trkpt><trkpt lat="41.1285711" lon="14.3733638"><ele>234.5</ele><time>2026-05-03T07:36:49.981Z</time></trkpt><trkpt lat="41.1286339" lon="14.3734272"><ele>235.0</ele><time>2026-05-03T07:36:51.981Z</time></trkpt><trkpt lat="41.1286963" lon="14.3734869"><ele>235.50000000000003</ele><time>2026-05-03T07:36:53.982Z</time></trkpt><trkpt lat="41.1287582" lon="14.3735475"><ele>236.0</ele><time>2026-05-03T07:36:55.981Z</time></trkpt><trkpt lat="41.1288187" lon="14.3736121"><ele>236.00000000000003</ele><time>2026-05-03T07:36:57.981Z</time></trkpt><trkpt lat="41.1288789" lon="14.3736788"><ele>236.0</ele><time>2026-05-03T07:36:59.981Z</time></trkpt><trkpt lat="41.1289419" lon="14.3737415"><ele>236.0</ele><time>2026-05-03T07:37:01.981Z</time></trkpt><trkpt lat="41.1290058" lon="14.3738003"><ele>236.0</ele><time>2026-05-03T07:37:03.981Z</time></trkpt><trkpt lat="41.1290688" lon="14.3738622"><ele>236.00000000000003</ele><time>2026-05-03T07:37:05.982Z</time></trkpt><trkpt lat="41.1291349" lon="14.3739214"><ele>236.0</ele><time>2026-05-03T07:37:07.981Z</time></trkpt><trkpt lat="41.1291966" lon="14.373991"><ele>236.66666666666669</ele><time>2026-05-03T07:37:09.981Z</time></trkpt><trkpt lat="41.1292615" lon="14.3740654"><ele>237.33333333333334</ele><time>2026-05-03T07:37:11.981Z</time></trkpt><trkpt lat="41.1293247" lon="14.3741385"><ele>238.0</ele><time>2026-05-03T07:37:13.982Z</time></trkpt><trkpt lat="41.1293843" lon="14.3742183"><ele>238.66666666666669</ele><time>2026-05-03T07:37:15.982Z</time></trkpt><trkpt lat="41.1294456" lon="14.3742987"><ele>239.33333333333334</ele><time>2026-05-03T07:37:17.981Z</time></trkpt><trkpt lat="41.1295124" lon="14.3743899"><ele>240.0</ele><time>2026-05-03T07:37:19.981Z</time></trkpt><trkpt lat="41.1295818" lon="14.3744944"><ele>240.0</ele><time>2026-05-03T07:37:21.981Z</time></trkpt><trkpt lat="41.1296537" lon="14.3745858"><ele>240.0</ele><time>2026-05-03T07:37:23.981Z</time></trkpt><trkpt lat="41.1297222" lon="14.3746889"><ele>240.0</ele><time>2026-05-03T07:37:25.981Z</time></trkpt><trkpt lat="41.1297969" lon="14.3747884"><ele>240.0</ele><time>2026-05-03T07:37:27.981Z</time></trkpt><trkpt lat="41.1298685" lon="14.3748895"><ele>240.0</ele><time>2026-05-03T07:37:29.981Z</time></trkpt><trkpt lat="41.1299418" lon="14.3749903"><ele>240.0</ele><time>2026-05-03T07:37:31.982Z</time></trkpt><trkpt lat="41.1300166" lon="14.3750916"><ele>240.0</ele><time>2026-05-03T07:37:33.981Z</time></trkpt><trkpt lat="41.1300982" lon="14.3751954"><ele>240.0</ele><time>2026-05-03T07:37:35.981Z</time></trkpt><trkpt lat="41.1301857" lon="14.3753028"><ele>240.0</ele><time>2026-05-03T07:37:37.981Z</time></trkpt><trkpt lat="41.1302567" lon="14.375417"><ele>239.6</ele><time>2026-05-03T07:37:39.981Z</time></trkpt><trkpt lat="41.1303364" lon="14.375526"><ele>239.2</ele><time>2026-05-03T07:37:41.981Z</time></trkpt><trkpt lat="41.1304056" lon="14.3756385"><ele>238.8</ele><time>2026-05-03T07:37:43.981Z</time></trkpt><trkpt lat="41.1304844" lon="14.3757404"><ele>238.4</ele><time>2026-05-03T07:37:45.981Z</time></trkpt><trkpt lat="41.1305645" lon="14.3758455"><ele>238.0</ele><time>2026-05-03T07:37:47.981Z</time></trkpt><trkpt lat="41.1306485" lon="14.3759477"><ele>237.75</ele><time>2026-05-03T07:37:49.982Z</time></trkpt><trkpt lat="41.1307285" lon="14.3760602"><ele>237.5</ele><time>2026-05-03T07:37:51.981Z</time></trkpt><trkpt lat="41.1308102" lon="14.3761696"><ele>237.25</ele><time>2026-05-03T07:37:53.981Z</time></trkpt><trkpt lat="41.130897" lon="14.3762735"><ele>237.0</ele><time>2026-05-03T07:37:55.981Z</time></trkpt><trkpt lat="41.130973" lon="14.376375"><ele>236.75</ele><time>2026-05-03T07:37:57.981Z</time></trkpt><trkpt lat="41.1310621" lon="14.3764723"><ele>236.5</ele><time>2026-05-03T07:37:59.982Z</time></trkpt><trkpt lat="41.1311579" lon="14.3765715"><ele>236.25</ele><time>2026-05-03T07:38:01.981Z</time></trkpt><trkpt lat="41.1312544" lon="14.3766781"><ele>236.0</ele><time>2026-05-03T07:38:03.981Z</time></trkpt><trkpt lat="41.1313461" lon="14.3767813"><ele>236.0</ele><time>2026-05-03T07:38:05.981Z</time></trkpt><trkpt lat="41.1313922" lon="14.3768392"><ele>236.0</ele><time>2026-05-03T07:38:06.982Z</time></trkpt><trkpt lat="41.1314391" lon="14.3768963"><ele>236.0</ele><time>2026-05-03T07:38:07.981Z</time></trkpt><trkpt lat="41.1314874" lon="14.3769528"><ele>236.0</ele><time>2026-05-03T07:38:08.982Z</time></trkpt><trkpt lat="41.131539" lon="14.3770083"><ele>236.0</ele><time>2026-05-03T07:38:09.982Z</time></trkpt><trkpt lat="41.1315893" lon="14.377067"><ele>236.0</ele><time>2026-05-03T07:38:10.981Z</time></trkpt><trkpt lat="41.1316411" lon="14.3771267"><ele>236.0</ele><time>2026-05-03T07:38:11.982Z</time></trkpt><trkpt lat="41.131694" lon="14.3771803"><ele>235.85714285714283</ele><time>2026-05-03T07:38:12.981Z</time></trkpt><trkpt lat="41.131749" lon="14.37724"><ele>235.71428571428572</ele><time>2026-05-03T07:38:13.982Z</time></trkpt><trkpt lat="41.1318022" lon="14.3773014"><ele>235.57142857142856</ele><time>2026-05-03T07:38:14.981Z</time></trkpt><trkpt lat="41.1318561" lon="14.3773585"><ele>235.42857142857142</ele><time>2026-05-03T07:38:15.982Z</time></trkpt><trkpt lat="41.1319103" lon="14.377419"><ele>235.28571428571428</ele><time>2026-05-03T07:38:16.982Z</time></trkpt><trkpt lat="41.131962" lon="14.3774787"><ele>235.14285714285714</ele><time>2026-05-03T07:38:17.981Z</time></trkpt><trkpt lat="41.132012" lon="14.3775404"><ele>235.0</ele><time>2026-05-03T07:38:18.981Z</time></trkpt><trkpt lat="41.1320668" lon="14.3776027"><ele>235.0</ele><time>2026-05-03T07:38:19.981Z</time></trkpt><trkpt lat="41.1321162" lon="14.3776669"><ele>234.99999999999997</ele><time>2026-05-03T07:38:20.981Z</time></trkpt><trkpt lat="41.1321681" lon="14.3777316"><ele>235.0</ele><time>2026-05-03T07:38:21.981Z</time></trkpt><trkpt lat="41.1322192" lon="14.3777957"><ele>235.0</ele><time>2026-05-03T07:38:22.981Z</time></trkpt><trkpt lat="41.1322678" lon="14.377861"><ele>234.99999999999997</ele><time>2026-05-03T07:38:23.981Z</time></trkpt><trkpt lat="41.1323178" lon="14.3779243"><ele>235.0</ele><time>2026-05-03T07:38:24.981Z</time></trkpt><trkpt lat="41.132369" lon="14.3779954"><ele>235.0</ele><time>2026-05-03T07:38:25.981Z</time></trkpt><trkpt lat="41.13242" lon="14.3780623"><ele>234.57142857142856</ele><time>2026-05-03T07:38:26.981Z</time></trkpt><trkpt lat="41.1324681" lon="14.3781329"><ele>234.1428571428571</ele><time>2026-05-03T07:38:27.981Z</time></trkpt><trkpt lat="41.1325205" lon="14.3782041"><ele>233.71428571428572</ele><time>2026-05-03T07:38:28.981Z</time></trkpt><trkpt lat="41.1325709" lon="14.3782758"><ele>233.28571428571428</ele><time>2026-05-03T07:38:29.981Z</time></trkpt><trkpt lat="41.1326176" lon="14.3783506"><ele>232.85714285714286</ele><time>2026-05-03T07:38:30.981Z</time></trkpt><trkpt lat="41.1326691" lon="14.3784172"><ele>232.42857142857144</ele><time>2026-05-03T07:38:31.981Z</time></trkpt><trkpt lat="41.1327209" lon="14.3784784"><ele>232.00000000000003</ele><time>2026-05-03T07:38:32.982Z</time></trkpt><trkpt lat="41.1327728" lon="14.3785448"><ele>232.00000000000003</ele><time>2026-05-03T07:38:33.981Z</time></trkpt><trkpt lat="41.1328263" lon="14.3786052"><ele>232.0</ele><time>2026-05-03T07:38:34.982Z</time></trkpt><trkpt lat="41.1328845" lon="14.3786616"><ele>232.00000000000003</ele><time>2026-05-03T07:38:35.981Z</time></trkpt><trkpt lat="41.1329409" lon="14.3787201"><ele>232.00000000000003</ele><time>2026-05-03T07:38:36.981Z</time></trkpt><trkpt lat="41.1329977" lon="14.3787719"><ele>232.0</ele><time>2026-05-03T07:38:37.981Z</time></trkpt><trkpt lat="41.1330494" lon="14.3788235"><ele>232.00000000000003</ele><time>2026-05-03T07:38:38.981Z</time></trkpt><trkpt lat="41.1331007" lon="14.3788737"><ele>232.00000000000003</ele><time>2026-05-03T07:38:39.981Z</time></trkpt><trkpt lat="41.1331485" lon="14.3789297"><ele>231.66666666666666</ele><time>2026-05-03T07:38:40.982Z</time></trkpt><trkpt lat="41.1331961" lon="14.3789869"><ele>231.33333333333331</ele><time>2026-05-03T07:38:41.981Z</time></trkpt><trkpt lat="41.1332848" lon="14.3791054"><ele>231.0</ele><time>2026-05-03T07:38:43.981Z</time></trkpt><trkpt lat="41.1333273" lon="14.3791709"><ele>230.66666666666669</ele><time>2026-05-03T07:38:44.981Z</time></trkpt><trkpt lat="41.1333705" lon="14.3792378"><ele>230.33333333333334</ele><time>2026-05-03T07:38:45.981Z</time></trkpt><trkpt lat="41.1334117" lon="14.3793087"><ele>230.0</ele><time>2026-05-03T07:38:46.981Z</time></trkpt><trkpt lat="41.1334517" lon="14.3793814"><ele>229.85714285714283</ele><time>2026-05-03T07:38:47.981Z</time></trkpt><trkpt lat="41.1334908" lon="14.3794573"><ele>229.71428571428572</ele><time>2026-05-03T07:38:48.981Z</time></trkpt><trkpt lat="41.1335304" lon="14.3795324"><ele>229.57142857142856</ele><time>2026-05-03T07:38:49.981Z</time></trkpt><trkpt lat="41.1335683" lon="14.3796124"><ele>229.42857142857142</ele><time>2026-05-03T07:38:50.981Z</time></trkpt><trkpt lat="41.1336077" lon="14.3796928"><ele>229.28571428571428</ele><time>2026-05-03T07:38:51.982Z</time></trkpt><trkpt lat="41.1336444" lon="14.3797772"><ele>229.14285714285714</ele><time>2026-05-03T07:38:52.981Z</time></trkpt><trkpt lat="41.133683" lon="14.3798512"><ele>229.0</ele><time>2026-05-03T07:38:53.982Z</time></trkpt><trkpt lat="41.1337246" lon="14.3799272"><ele>228.42857142857142</ele><time>2026-05-03T07:38:54.981Z</time></trkpt><trkpt lat="41.1337676" lon="14.3799918"><ele>227.8571428571429</ele><time>2026-05-03T07:38:55.982Z</time></trkpt><trkpt lat="41.1338093" lon="14.3800587"><ele>227.2857142857143</ele><time>2026-05-03T07:38:56.981Z</time></trkpt><trkpt lat="41.1338478" lon="14.3801277"><ele>226.71428571428572</ele><time>2026-05-03T07:38:57.981Z</time></trkpt><trkpt lat="41.1338895" lon="14.3801985"><ele>226.14285714285717</ele><time>2026-05-03T07:38:58.981Z</time></trkpt><trkpt lat="41.1339288" lon="14.3802747"><ele>225.5714285714286</ele><time>2026-05-03T07:38:59.981Z</time></trkpt><trkpt lat="41.1339668" lon="14.3803525"><ele>225.00000000000003</ele><time>2026-05-03T07:39:00.981Z</time></trkpt><trkpt lat="41.1340036" lon="14.3804334"><ele>225.0</ele><time>2026-05-03T07:39:01.981Z</time></trkpt><trkpt lat="41.1340436" lon="14.3805131"><ele>225.0</ele><time>2026-05-03T07:39:02.981Z</time></trkpt><trkpt lat="41.1340857" lon="14.3805981"><ele>225.0</ele><time>2026-05-03T07:39:03.981Z</time></trkpt><trkpt lat="41.134128" lon="14.3806826"><ele>225.0</ele><time>2026-05-03T07:39:04.982Z</time></trkpt><trkpt lat="41.1341684" lon="14.3807713"><ele>225.0</ele><time>2026-05-03T07:39:05.982Z</time></trkpt><trkpt lat="41.1342075" lon="14.3808644"><ele>225.0</ele><time>2026-05-03T07:39:06.981Z</time></trkpt><trkpt lat="41.1342392" lon="14.3809619"><ele>224.83333333333334</ele><time>2026-05-03T07:39:07.981Z</time></trkpt><trkpt lat="41.1342713" lon="14.3810621"><ele>224.66666666666669</ele><time>2026-05-03T07:39:08.981Z</time></trkpt><trkpt lat="41.134307" lon="14.38116"><ele>224.5</ele><time>2026-05-03T07:39:09.981Z</time></trkpt><trkpt lat="41.1343349" lon="14.3812643"><ele>224.33333333333334</ele><time>2026-05-03T07:39:10.981Z</time></trkpt><trkpt lat="41.1343657" lon="14.3813677"><ele>224.16666666666669</ele><time>2026-05-03T07:39:11.981Z</time></trkpt><trkpt lat="41.1343984" lon="14.3814709"><ele>224.0</ele><time>2026-05-03T07:39:12.981Z</time></trkpt><trkpt lat="41.1344309" lon="14.3815785"><ele>223.0</ele><time>2026-05-03T07:39:13.982Z</time></trkpt><trkpt lat="41.1344661" lon="14.3816864"><ele>221.99999999999997</ele><time>2026-05-03T07:39:14.982Z</time></trkpt><trkpt lat="41.1344985" lon="14.3817987"><ele>220.99999999999997</ele><time>2026-05-03T07:39:15.981Z</time></trkpt><trkpt lat="41.1345275" lon="14.3819117"><ele>220.0</ele><time>2026-05-03T07:39:16.981Z</time></trkpt><trkpt lat="41.1345606" lon="14.3820245"><ele>219.0</ele><time>2026-05-03T07:39:17.981Z</time></trkpt><trkpt lat="41.1345926" lon="14.3821359"><ele>219.66666666666666</ele><time>2026-05-03T07:39:18.981Z</time></trkpt><trkpt lat="41.1346273" lon="14.3822501"><ele>220.33333333333331</ele><time>2026-05-03T07:39:19.981Z</time></trkpt><trkpt lat="41.134661" lon="14.3823655"><ele>221.0</ele><time>2026-05-03T07:39:20.981Z</time></trkpt><trkpt lat="41.1346974" lon="14.3824765"><ele>221.66666666666666</ele><time>2026-05-03T07:39:21.981Z</time></trkpt><trkpt lat="41.1347312" lon="14.3825836"><ele>222.33333333333331</ele><time>2026-05-03T07:39:22.981Z</time></trkpt><trkpt lat="41.1347643" lon="14.3826746"><ele>223.0</ele><time>2026-05-03T07:39:23.982Z</time></trkpt><trkpt lat="41.1347996" lon="14.382759"><ele>222.99999999999997</ele><time>2026-05-03T07:39:24.982Z</time></trkpt><trkpt lat="41.1348318" lon="14.3828397"><ele>223.0</ele><time>2026-05-03T07:39:25.981Z</time></trkpt><trkpt lat="41.1348631" lon="14.3829165"><ele>223.0</ele><time>2026-05-03T07:39:26.981Z</time></trkpt><trkpt lat="41.1348972" lon="14.382999"><ele>223.0</ele><time>2026-05-03T07:39:27.981Z</time></trkpt><trkpt lat="41.1349379" lon="14.3830865"><ele>222.99999999999997</ele><time>2026-05-03T07:39:28.981Z</time></trkpt><trkpt lat="41.1349804" lon="14.3831834"><ele>223.0</ele><time>2026-05-03T07:39:29.981Z</time></trkpt><trkpt lat="41.1350299" lon="14.3832851"><ele>220.60000000000002</ele><time>2026-05-03T07:39:30.981Z</time></trkpt><trkpt lat="41.1350876" lon="14.3833859"><ele>218.20000000000002</ele><time>2026-05-03T07:39:31.982Z</time></trkpt><trkpt lat="41.1351472" lon="14.3834848"><ele>215.8</ele><time>2026-05-03T07:39:32.982Z</time></trkpt><trkpt lat="41.1352073" lon="14.3835866"><ele>213.4</ele><time>2026-05-03T07:39:33.982Z</time></trkpt><trkpt lat="41.1352692" lon="14.3836896"><ele>211.0</ele><time>2026-05-03T07:39:34.981Z</time></trkpt><trkpt lat="41.1353303" lon="14.3837897"><ele>211.16666666666666</ele><time>2026-05-03T07:39:35.981Z</time></trkpt><trkpt lat="41.1353934" lon="14.3838874"><ele>211.33333333333331</ele><time>2026-05-03T07:39:36.981Z</time></trkpt><trkpt lat="41.135451" lon="14.3839797"><ele>211.5</ele><time>2026-05-03T07:39:37.981Z</time></trkpt><trkpt lat="41.13551" lon="14.3840646"><ele>211.66666666666669</ele><time>2026-05-03T07:39:38.981Z</time></trkpt><trkpt lat="41.1355741" lon="14.3841476"><ele>211.83333333333334</ele><time>2026-05-03T07:39:39.981Z</time></trkpt><trkpt lat="41.1356315" lon="14.3842255"><ele>212.0</ele><time>2026-05-03T07:39:40.981Z</time></trkpt><trkpt lat="41.1356913" lon="14.3842977"><ele>209.50000000000003</ele><time>2026-05-03T07:39:41.981Z</time></trkpt><trkpt lat="41.1357478" lon="14.384369"><ele>207.0</ele><time>2026-05-03T07:39:42.981Z</time></trkpt><trkpt lat="41.1358084" lon="14.384438"><ele>204.5</ele><time>2026-05-03T07:39:43.981Z</time></trkpt><trkpt lat="41.1358704" lon="14.3845034"><ele>202.0</ele><time>2026-05-03T07:39:44.981Z</time></trkpt><trkpt lat="41.1359426" lon="14.3845673"><ele>199.50000000000003</ele><time>2026-05-03T07:39:45.982Z</time></trkpt><trkpt lat="41.1360186" lon="14.3846215"><ele>197.0</ele><time>2026-05-03T07:39:46.981Z</time></trkpt><trkpt lat="41.1360842" lon="14.3846738"><ele>195.83333333333334</ele><time>2026-05-03T07:39:47.981Z</time></trkpt><trkpt lat="41.1361456" lon="14.3847211"><ele>194.66666666666669</ele><time>2026-05-03T07:39:48.981Z</time></trkpt><trkpt lat="41.1362003" lon="14.3847713"><ele>193.5</ele><time>2026-05-03T07:39:49.981Z</time></trkpt><trkpt lat="41.1362465" lon="14.3848296"><ele>192.33333333333334</ele><time>2026-05-03T07:39:50.981Z</time></trkpt><trkpt lat="41.1363142" lon="14.3849619"><ele>191.16666666666669</ele><time>2026-05-03T07:39:52.981Z</time></trkpt><trkpt lat="41.1363657" lon="14.3850976"><ele>190.0</ele><time>2026-05-03T07:39:54.981Z</time></trkpt><trkpt lat="41.1364087" lon="14.3852346"><ele>190.0</ele><time>2026-05-03T07:39:56.981Z</time></trkpt><trkpt lat="41.1364721" lon="14.3853469"><ele>190.0</ele><time>2026-05-03T07:39:58.981Z</time></trkpt><trkpt lat="41.1365792" lon="14.3853856"><ele>190.0</ele><time>2026-05-03T07:40:00.981Z</time></trkpt><trkpt lat="41.1367003" lon="14.385328"><ele>190.0</ele><time>2026-05-03T07:40:02.981Z</time></trkpt><trkpt lat="41.1367636" lon="14.38528"><ele>190.0</ele><time>2026-05-03T07:40:03.982Z</time></trkpt><trkpt lat="41.1368355" lon="14.3852256"><ele>186.8</ele><time>2026-05-03T07:40:04.981Z</time></trkpt><trkpt lat="41.1369193" lon="14.3851759"><ele>183.6</ele><time>2026-05-03T07:40:05.982Z</time></trkpt><trkpt lat="41.1370099" lon="14.3851208"><ele>180.39999999999998</ele><time>2026-05-03T07:40:06.981Z</time></trkpt><trkpt lat="41.1371049" lon="14.3850576"><ele>177.2</ele><time>2026-05-03T07:40:07.981Z</time></trkpt><trkpt lat="41.1371977" lon="14.3850006"><ele>174.0</ele><time>2026-05-03T07:40:08.982Z</time></trkpt><trkpt lat="41.1372932" lon="14.3849449"><ele>170.66666666666666</ele><time>2026-05-03T07:40:09.982Z</time></trkpt><trkpt lat="41.1373913" lon="14.3849035"><ele>167.33333333333334</ele><time>2026-05-03T07:40:10.981Z</time></trkpt><trkpt lat="41.1374845" lon="14.3848774"><ele>164.0</ele><time>2026-05-03T07:40:11.981Z</time></trkpt><trkpt lat="41.1375676" lon="14.3848578"><ele>160.66666666666669</ele><time>2026-05-03T07:40:12.981Z</time></trkpt><trkpt lat="41.1376423" lon="14.3848415"><ele>157.33333333333334</ele><time>2026-05-03T07:40:13.981Z</time></trkpt><trkpt lat="41.1377138" lon="14.3848232"><ele>154.0</ele><time>2026-05-03T07:40:14.981Z</time></trkpt><trkpt lat="41.1377824" lon="14.3848072"><ele>154.0</ele><time>2026-05-03T07:40:15.981Z</time></trkpt><trkpt lat="41.1378485" lon="14.3847978"><ele>154.0</ele><time>2026-05-03T07:40:16.982Z</time></trkpt><trkpt lat="41.1379165" lon="14.3847951"><ele>154.0</ele><time>2026-05-03T07:40:17.981Z</time></trkpt><trkpt lat="41.1379822" lon="14.3848004"><ele>154.0</ele><time>2026-05-03T07:40:18.981Z</time></trkpt><trkpt lat="41.1380558" lon="14.3848105"><ele>154.0</ele><time>2026-05-03T07:40:19.981Z</time></trkpt><trkpt lat="41.1381339" lon="14.3848223"><ele>154.0</ele><time>2026-05-03T07:40:20.982Z</time></trkpt><trkpt lat="41.1382215" lon="14.384836"><ele>154.0</ele><time>2026-05-03T07:40:21.982Z</time></trkpt><trkpt lat="41.1383135" lon="14.3848438"><ele>152.6</ele><time>2026-05-03T07:40:22.981Z</time></trkpt><trkpt lat="41.138414" lon="14.3848574"><ele>151.2</ele><time>2026-05-03T07:40:23.982Z</time></trkpt><trkpt lat="41.1385191" lon="14.3848777"><ele>149.79999999999998</ele><time>2026-05-03T07:40:24.981Z</time></trkpt><trkpt lat="41.1386214" lon="14.3848942"><ele>148.4</ele><time>2026-05-03T07:40:25.981Z</time></trkpt><trkpt lat="41.138717" lon="14.3849065"><ele>147.0</ele><time>2026-05-03T07:40:26.981Z</time></trkpt><trkpt lat="41.138811" lon="14.3849232"><ele>147.0</ele><time>2026-05-03T07:40:27.982Z</time></trkpt><trkpt lat="41.138905" lon="14.3849429"><ele>147.0</ele><time>2026-05-03T07:40:28.981Z</time></trkpt><trkpt lat="41.138985" lon="14.3849616"><ele>147.0</ele><time>2026-05-03T07:40:29.981Z</time></trkpt><trkpt lat="41.1390614" lon="14.3849763"><ele>147.0</ele><time>2026-05-03T07:40:30.981Z</time></trkpt><trkpt lat="41.1391351" lon="14.3849828"><ele>147.0</ele><time>2026-05-03T07:40:31.981Z</time></trkpt><trkpt lat="41.1391986" lon="14.3849912"><ele>147.0</ele><time>2026-05-03T07:40:32.981Z</time></trkpt><trkpt lat="41.1393237" lon="14.3850067"><ele>144.4</ele><time>2026-05-03T07:40:34.982Z</time></trkpt><trkpt lat="41.1394371" lon="14.3850255"><ele>141.79999999999998</ele><time>2026-05-03T07:40:36.981Z</time></trkpt><trkpt lat="41.1395433" lon="14.3850028"><ele>139.2</ele><time>2026-05-03T07:40:38.982Z</time></trkpt><trkpt lat="41.1396291" lon="14.3850009"><ele>136.6</ele><time>2026-05-03T07:40:40.981Z</time></trkpt><trkpt lat="41.1396826" lon="14.3850899"><ele>134.0</ele><time>2026-05-03T07:40:42.981Z</time></trkpt><trkpt lat="41.139644" lon="14.3852193"><ele>134.0</ele><time>2026-05-03T07:40:44.981Z</time></trkpt><trkpt lat="41.1395728" lon="14.385346"><ele>134.0</ele><time>2026-05-03T07:40:46.981Z</time></trkpt><trkpt lat="41.1395219" lon="14.3854141"><ele>134.0</ele><time>2026-05-03T07:40:47.981Z</time></trkpt><trkpt lat="41.1394377" lon="14.3855476"><ele>134.0</ele><time>2026-05-03T07:40:49.982Z</time></trkpt><trkpt lat="41.1393881" lon="14.3856235"><ele>134.0</ele><time>2026-05-03T07:40:50.982Z</time></trkpt><trkpt lat="41.1393409" lon="14.3857073"><ele>132.5</ele><time>2026-05-03T07:40:51.981Z</time></trkpt><trkpt lat="41.1392955" lon="14.3857989"><ele>131.0</ele><time>2026-05-03T07:40:52.982Z</time></trkpt><trkpt lat="41.139254" lon="14.3858994"><ele>129.5</ele><time>2026-05-03T07:40:53.981Z</time></trkpt><trkpt lat="41.1392176" lon="14.3860054"><ele>128.0</ele><time>2026-05-03T07:40:54.981Z</time></trkpt><trkpt lat="41.1391894" lon="14.3861192"><ele>126.49999999999999</ele><time>2026-05-03T07:40:55.981Z</time></trkpt><trkpt lat="41.1391761" lon="14.3862441"><ele>125.0</ele><time>2026-05-03T07:40:56.981Z</time></trkpt><trkpt lat="41.1391757" lon="14.386367"><ele>123.6</ele><time>2026-05-03T07:40:57.981Z</time></trkpt><trkpt lat="41.1391779" lon="14.3864924"><ele>122.2</ele><time>2026-05-03T07:40:58.982Z</time></trkpt><trkpt lat="41.1391836" lon="14.3866194"><ele>120.80000000000001</ele><time>2026-05-03T07:40:59.981Z</time></trkpt><trkpt lat="41.1391843" lon="14.3867473"><ele>119.4</ele><time>2026-05-03T07:41:00.981Z</time></trkpt><trkpt lat="41.1391736" lon="14.3868743"><ele>118.0</ele><time>2026-05-03T07:41:01.981Z</time></trkpt><trkpt lat="41.1391561" lon="14.3870059"><ele>118.00000000000001</ele><time>2026-05-03T07:41:02.981Z</time></trkpt><trkpt lat="41.1391387" lon="14.3871264"><ele>118.0</ele><time>2026-05-03T07:41:03.981Z</time></trkpt><trkpt lat="41.1391201" lon="14.3872341"><ele>118.0</ele><time>2026-05-03T07:41:04.981Z</time></trkpt><trkpt lat="41.1390994" lon="14.3873301"><ele>118.0</ele><time>2026-05-03T07:41:05.982Z</time></trkpt><trkpt lat="41.1390735" lon="14.3874276"><ele>118.00000000000001</ele><time>2026-05-03T07:41:06.981Z</time></trkpt><trkpt lat="41.1390337" lon="14.3875288"><ele>118.0</ele><time>2026-05-03T07:41:07.981Z</time></trkpt><trkpt lat="41.1389794" lon="14.3876289"><ele>115.33333333333334</ele><time>2026-05-03T07:41:08.981Z</time></trkpt><trkpt lat="41.1389192" lon="14.3877337"><ele>112.66666666666667</ele><time>2026-05-03T07:41:09.981Z</time></trkpt><trkpt lat="41.1388637" lon="14.3878376"><ele>110.0</ele><time>2026-05-03T07:41:10.981Z</time></trkpt><trkpt lat="41.1388141" lon="14.3879346"><ele>107.33333333333334</ele><time>2026-05-03T07:41:11.981Z</time></trkpt><trkpt lat="41.1387823" lon="14.3880247"><ele>104.66666666666667</ele><time>2026-05-03T07:41:12.981Z</time></trkpt><trkpt lat="41.1387572" lon="14.3881034"><ele>102.0</ele><time>2026-05-03T07:41:13.981Z</time></trkpt><trkpt lat="41.1387214" lon="14.3882641"><ele>100.0</ele><time>2026-05-03T07:41:15.981Z</time></trkpt><trkpt lat="41.1387092" lon="14.3883613"><ele>98.0</ele><time>2026-05-03T07:41:16.981Z</time></trkpt><trkpt lat="41.1387045" lon="14.3884504"><ele>96.0</ele><time>2026-05-03T07:41:17.981Z</time></trkpt><trkpt lat="41.1387064" lon="14.3885957"><ele>94.0</ele><time>2026-05-03T07:41:19.981Z</time></trkpt><trkpt lat="41.1387099" lon="14.3887551"><ele>92.0</ele><time>2026-05-03T07:41:21.981Z</time></trkpt><trkpt lat="41.1387406" lon="14.3889159"><ele>90.39999999999999</ele><time>2026-05-03T07:41:23.982Z</time></trkpt><trkpt lat="41.1387648" lon="14.3890047"><ele>88.8</ele><time>2026-05-03T07:41:24.981Z</time></trkpt><trkpt lat="41.1387996" lon="14.3891502"><ele>87.2</ele><time>2026-05-03T07:41:26.981Z</time></trkpt><trkpt lat="41.1388333" lon="14.3892542"><ele>85.6</ele><time>2026-05-03T07:41:28.981Z</time></trkpt><trkpt lat="41.138867" lon="14.3893558"><ele>84.0</ele><time>2026-05-03T07:41:30.982Z</time></trkpt><trkpt lat="41.1389043" lon="14.389473"><ele>84.0</ele><time>2026-05-03T07:41:32.981Z</time></trkpt><trkpt lat="41.1389559" lon="14.3895865"><ele>84.0</ele><time>2026-05-03T07:41:34.981Z</time></trkpt><trkpt lat="41.1390422" lon="14.3896799"><ele>84.0</ele><time>2026-05-03T07:41:36.981Z</time></trkpt><trkpt lat="41.1391363" lon="14.3897537"><ele>84.0</ele><time>2026-05-03T07:41:38.981Z</time></trkpt><trkpt lat="41.1392427" lon="14.3898416"><ele>84.0</ele><time>2026-05-03T07:41:40.981Z</time></trkpt><trkpt lat="41.1393135" lon="14.3898915"><ele>85.33333333333333</ele><time>2026-05-03T07:41:41.981Z</time></trkpt><trkpt lat="41.13939" lon="14.3899452"><ele>86.66666666666667</ele><time>2026-05-03T07:41:42.981Z</time></trkpt><trkpt lat="41.1394713" lon="14.3899963"><ele>88.0</ele><time>2026-05-03T07:41:43.981Z</time></trkpt><trkpt lat="41.1395463" lon="14.3900472"><ele>89.33333333333334</ele><time>2026-05-03T07:41:44.982Z</time></trkpt><trkpt lat="41.1396173" lon="14.390096"><ele>90.66666666666667</ele><time>2026-05-03T07:41:45.981Z</time></trkpt><trkpt lat="41.1396781" lon="14.390141"><ele>92.0</ele><time>2026-05-03T07:41:46.981Z</time></trkpt><trkpt lat="41.1397828" lon="14.3902201"><ele>92.0</ele><time>2026-05-03T07:41:48.981Z</time></trkpt><trkpt lat="41.1398798" lon="14.3903286"><ele>92.0</ele><time>2026-05-03T07:41:50.981Z</time></trkpt><trkpt lat="41.1399607" lon="14.3904535"><ele>92.0</ele><time>2026-05-03T07:41:52.982Z</time></trkpt><trkpt lat="41.1400054" lon="14.3905198"><ele>92.0</ele><time>2026-05-03T07:41:53.981Z</time></trkpt><trkpt lat="41.1400508" lon="14.3905781"><ele>92.0</ele><time>2026-05-03T07:41:54.981Z</time></trkpt><trkpt lat="41.1400985" lon="14.3906389"><ele>92.0</ele><time>2026-05-03T07:41:55.981Z</time></trkpt><trkpt lat="41.1401508" lon="14.3907056"><ele>88.8</ele><time>2026-05-03T07:41:56.981Z</time></trkpt><trkpt lat="41.1402033" lon="14.3907814"><ele>85.6</ele><time>2026-05-03T07:41:57.981Z</time></trkpt><trkpt lat="41.1402585" lon="14.3908682"><ele>82.39999999999999</ele><time>2026-05-03T07:41:58.982Z</time></trkpt><trkpt lat="41.1403199" lon="14.3909666"><ele>79.19999999999999</ele><time>2026-05-03T07:41:59.981Z</time></trkpt><trkpt lat="41.1403796" lon="14.3910802"><ele>76.0</ele><time>2026-05-03T07:42:00.981Z</time></trkpt><trkpt lat="41.1404409" lon="14.3912071"><ele>76.0</ele><time>2026-05-03T07:42:01.981Z</time></trkpt><trkpt lat="41.1405014" lon="14.3913385"><ele>76.0</ele><time>2026-05-03T07:42:02.982Z</time></trkpt><trkpt lat="41.1405624" lon="14.3914687"><ele>76.0</ele><time>2026-05-03T07:42:03.981Z</time></trkpt><trkpt lat="41.1406172" lon="14.3915862"><ele>76.0</ele><time>2026-05-03T07:42:04.982Z</time></trkpt><trkpt lat="41.1406691" lon="14.3916868"><ele>76.0</ele><time>2026-05-03T07:42:05.981Z</time></trkpt><trkpt lat="41.1407208" lon="14.3917809"><ele>71.83333333333333</ele><time>2026-05-03T07:42:06.981Z</time></trkpt><trkpt lat="41.1407665" lon="14.3918813"><ele>67.66666666666666</ele><time>2026-05-03T07:42:07.981Z</time></trkpt><trkpt lat="41.1408048" lon="14.3919762"><ele>63.5</ele><time>2026-05-03T07:42:08.981Z</time></trkpt><trkpt lat="41.1408328" lon="14.392063"><ele>59.33333333333333</ele><time>2026-05-03T07:42:09.982Z</time></trkpt><trkpt lat="41.1408574" lon="14.3921491"><ele>55.166666666666664</ele><time>2026-05-03T07:42:10.981Z</time></trkpt><trkpt lat="41.1408766" lon="14.3922997"><ele>51.0</ele><time>2026-05-03T07:42:12.981Z</time></trkpt><trkpt lat="41.1408888" lon="14.3923944"><ele>50.666666666666664</ele><time>2026-05-03T07:42:14.981Z</time></trkpt><trkpt lat="41.140903" lon="14.3924791"><ele>50.33333333333333</ele><time>2026-05-03T07:42:16.981Z</time></trkpt><trkpt lat="41.1409527" lon="14.3925589"><ele>50.0</ele><time>2026-05-03T07:42:18.981Z</time></trkpt><trkpt lat="41.1410424" lon="14.3925684"><ele>49.666666666666664</ele><time>2026-05-03T07:42:20.981Z</time></trkpt><trkpt lat="41.1411397" lon="14.3925514"><ele>49.33333333333333</ele><time>2026-05-03T07:42:22.981Z</time></trkpt><trkpt lat="41.1412404" lon="14.3925687"><ele>49.0</ele><time>2026-05-03T07:42:24.981Z</time></trkpt><trkpt lat="41.1413353" lon="14.392616"><ele>48.99999999999999</ele><time>2026-05-03T07:42:26.982Z</time></trkpt><trkpt lat="41.14141" lon="14.3926832"><ele>49.0</ele><time>2026-05-03T07:42:28.981Z</time></trkpt><trkpt lat="41.1414736" lon="14.392767"><ele>49.0</ele><time>2026-05-03T07:42:30.981Z</time></trkpt><trkpt lat="41.1415464" lon="14.3928351"><ele>49.0</ele><time>2026-05-03T07:42:32.981Z</time></trkpt><trkpt lat="41.1416047" lon="14.392899"><ele>48.99999999999999</ele><time>2026-05-03T07:42:34.982Z</time></trkpt><trkpt lat="41.1416391" lon="14.3929924"><ele>49.0</ele><time>2026-05-03T07:42:37.981Z</time></trkpt><trkpt lat="41.14163" lon="14.3930989"><ele>47.800000000000004</ele><time>2026-05-03T07:42:40.981Z</time></trkpt><trkpt lat="41.1416218" lon="14.3931932"><ele>46.6</ele><time>2026-05-03T07:42:42.981Z</time></trkpt><trkpt lat="41.1416229" lon="14.3933033"><ele>45.4</ele><time>2026-05-03T07:42:44.982Z</time></trkpt><trkpt lat="41.1416222" lon="14.3934289"><ele>44.2</ele><time>2026-05-03T07:42:46.981Z</time></trkpt><trkpt lat="41.1416054" lon="14.3935602"><ele>43.0</ele><time>2026-05-03T07:42:48.981Z</time></trkpt><trkpt lat="41.1416033" lon="14.3936952"><ele>43.0</ele><time>2026-05-03T07:42:50.981Z</time></trkpt><trkpt lat="41.1416035" lon="14.3938233"><ele>43.0</ele><time>2026-05-03T07:42:52.981Z</time></trkpt><trkpt lat="41.1416055" lon="14.3939469"><ele>43.0</ele><time>2026-05-03T07:42:54.981Z</time></trkpt><trkpt lat="41.1415919" lon="14.3940663"><ele>43.0</ele><time>2026-05-03T07:42:56.982Z</time></trkpt><trkpt lat="41.1415614" lon="14.3941765"><ele>43.0</ele><time>2026-05-03T07:42:58.981Z</time></trkpt><trkpt lat="41.1415318" lon="14.3943001"><ele>43.2</ele><time>2026-05-03T07:43:00.981Z</time></trkpt><trkpt lat="41.1414956" lon="14.3944254"><ele>43.4</ele><time>2026-05-03T07:43:02.981Z</time></trkpt><trkpt lat="41.1414581" lon="14.3945594"><ele>43.6</ele><time>2026-05-03T07:43:04.982Z</time></trkpt><trkpt lat="41.1414143" lon="14.3946953"><ele>43.800000000000004</ele><time>2026-05-03T07:43:06.981Z</time></trkpt><trkpt lat="41.1413677" lon="14.3948381"><ele>44.0</ele><time>2026-05-03T07:43:08.982Z</time></trkpt><trkpt lat="41.1413337" lon="14.3949897"><ele>44.25</ele><time>2026-05-03T07:43:10.981Z</time></trkpt><trkpt lat="41.1413026" lon="14.3951402"><ele>44.5</ele><time>2026-05-03T07:43:12.981Z</time></trkpt><trkpt lat="41.1412772" lon="14.3952866"><ele>44.75</ele><time>2026-05-03T07:43:14.981Z</time></trkpt><trkpt lat="41.1412547" lon="14.3954314"><ele>45.0</ele><time>2026-05-03T07:43:16.982Z</time></trkpt><trkpt lat="41.1412336" lon="14.3955752"><ele>44.5</ele><time>2026-05-03T07:43:18.982Z</time></trkpt><trkpt lat="41.1412204" lon="14.3957142"><ele>44.0</ele><time>2026-05-03T07:43:20.981Z</time></trkpt><trkpt lat="41.1412096" lon="14.395809"><ele>43.5</ele><time>2026-05-03T07:43:22.982Z</time></trkpt><trkpt lat="41.1411963" lon="14.3959307"><ele>43.0</ele><time>2026-05-03T07:43:25.981Z</time></trkpt><trkpt lat="41.1412099" lon="14.3960289"><ele>42.5</ele><time>2026-05-03T07:43:28.982Z</time></trkpt><trkpt lat="41.1412814" lon="14.3961033"><ele>42.0</ele><time>2026-05-03T07:43:31.982Z</time></trkpt><trkpt lat="41.1413545" lon="14.3961131"><ele>42.0</ele><time>2026-05-03T07:43:33.981Z</time></trkpt><trkpt lat="41.1414388" lon="14.3961322"><ele>42.0</ele><time>2026-05-03T07:43:35.981Z</time></trkpt><trkpt lat="41.1415315" lon="14.3961626"><ele>42.0</ele><time>2026-05-03T07:43:37.981Z</time></trkpt><trkpt lat="41.1416309" lon="14.3961979"><ele>42.0</ele><time>2026-05-03T07:43:39.982Z</time></trkpt><trkpt lat="41.1417348" lon="14.3962361"><ele>42.0</ele><time>2026-05-03T07:43:41.982Z</time></trkpt><trkpt lat="41.1418363" lon="14.3962856"><ele>41.0</ele><time>2026-05-03T07:43:43.981Z</time></trkpt><trkpt lat="41.1419397" lon="14.3963435"><ele>40.0</ele><time>2026-05-03T07:43:45.981Z</time></trkpt><trkpt lat="41.1420458" lon="14.3963972"><ele>39.0</ele><time>2026-05-03T07:43:47.981Z</time></trkpt><trkpt lat="41.1421458" lon="14.39646"><ele>38.0</ele><time>2026-05-03T07:43:49.981Z</time></trkpt><trkpt lat="41.1422454" lon="14.3965208"><ele>37.0</ele><time>2026-05-03T07:43:51.982Z</time></trkpt><trkpt lat="41.1423385" lon="14.3965852"><ele>37.0</ele><time>2026-05-03T07:43:53.982Z</time></trkpt><trkpt lat="41.1424275" lon="14.3966423"><ele>37.0</ele><time>2026-05-03T07:43:55.981Z</time></trkpt><trkpt lat="41.1425208" lon="14.3966839"><ele>37.0</ele><time>2026-05-03T07:43:57.981Z</time></trkpt><trkpt lat="41.1425974" lon="14.3967137"><ele>37.0</ele><time>2026-05-03T07:43:59.981Z</time></trkpt><trkpt lat="41.1426699" lon="14.3967401"><ele>37.0</ele><time>2026-05-03T07:44:02.981Z</time></trkpt><trkpt lat="41.1427362" lon="14.3967504"><ele>37.0</ele><time>2026-05-03T07:44:24.981Z</time></trkpt><trkpt lat="41.1427815" lon="14.3968399"><ele>37.0</ele><time>2026-05-03T08:01:43.981Z</time></trkpt><trkpt lat="41.1428449" lon="14.3969022"><ele>37.0</ele><time>2026-05-03T08:01:46.981Z</time></trkpt><trkpt lat="41.1429149" lon="14.3969524"><ele>37.0</ele><time>2026-05-03T08:01:49.981Z</time></trkpt><trkpt lat="41.142988" lon="14.3970104"><ele>37.0</ele><time>2026-05-03T08:01:52.982Z</time></trkpt><trkpt lat="41.1430624" lon="14.3970627"><ele>37.0</ele><time>2026-05-03T08:01:55.981Z</time></trkpt><trkpt lat="41.143136" lon="14.3971131"><ele>37.0</ele><time>2026-05-03T08:01:58.981Z</time></trkpt><trkpt lat="41.1432047" lon="14.3971646"><ele>37.333333333333336</ele><time>2026-05-03T08:02:01.981Z</time></trkpt><trkpt lat="41.1432703" lon="14.3972224"><ele>37.66666666666667</ele><time>2026-05-03T08:02:04.981Z</time></trkpt><trkpt lat="41.1433534" lon="14.3972729"><ele>38.0</ele><time>2026-05-03T08:02:07.981Z</time></trkpt><trkpt lat="41.1434134" lon="14.3973107"><ele>38.333333333333336</ele><time>2026-05-03T08:02:09.981Z</time></trkpt><trkpt lat="41.143479" lon="14.3973531"><ele>38.666666666666664</ele><time>2026-05-03T08:02:11.981Z</time></trkpt><trkpt lat="41.1435484" lon="14.3974003"><ele>39.0</ele><time>2026-05-03T08:02:13.981Z</time></trkpt><trkpt lat="41.1436195" lon="14.3974489"><ele>39.0</ele><time>2026-05-03T08:02:15.981Z</time></trkpt><trkpt lat="41.1436927" lon="14.3975039"><ele>39.0</ele><time>2026-05-03T08:02:17.981Z</time></trkpt><trkpt lat="41.1437713" lon="14.3975541"><ele>39.0</ele><time>2026-05-03T08:02:19.981Z</time></trkpt><trkpt lat="41.1438505" lon="14.3976063"><ele>39.0</ele><time>2026-05-03T08:02:21.981Z</time></trkpt><trkpt lat="41.1439317" lon="14.3976656"><ele>39.0</ele><time>2026-05-03T08:02:23.982Z</time></trkpt><trkpt lat="41.1440158" lon="14.3977231"><ele>39.0</ele><time>2026-05-03T08:02:25.981Z</time></trkpt><trkpt lat="41.1440959" lon="14.3977775"><ele>39.0</ele><time>2026-05-03T08:02:27.981Z</time></trkpt><trkpt lat="41.1441728" lon="14.397833"><ele>39.0</ele><time>2026-05-03T08:02:29.982Z</time></trkpt><trkpt lat="41.1442492" lon="14.3978774"><ele>39.0</ele><time>2026-05-03T08:02:31.981Z</time></trkpt><trkpt lat="41.144323" lon="14.397927"><ele>39.0</ele><time>2026-05-03T08:02:33.981Z</time></trkpt><trkpt lat="41.1443989" lon="14.3979823"><ele>39.0</ele><time>2026-05-03T08:02:35.981Z</time></trkpt><trkpt lat="41.1444843" lon="14.3980337"><ele>39.0</ele><time>2026-05-03T08:02:37.982Z</time></trkpt><trkpt lat="41.1445717" lon="14.3980921"><ele>38.6</ele><time>2026-05-03T08:02:39.981Z</time></trkpt><trkpt lat="41.1446643" lon="14.3981495"><ele>38.2</ele><time>2026-05-03T08:02:41.982Z</time></trkpt><trkpt lat="41.1447592" lon="14.3982125"><ele>37.800000000000004</ele><time>2026-05-03T08:02:43.982Z</time></trkpt><trkpt lat="41.1448505" lon="14.398281"><ele>37.4</ele><time>2026-05-03T08:02:45.981Z</time></trkpt><trkpt lat="41.1449474" lon="14.3983446"><ele>37.0</ele><time>2026-05-03T08:02:47.981Z</time></trkpt><trkpt lat="41.1450407" lon="14.3984072"><ele>36.800000000000004</ele><time>2026-05-03T08:02:49.981Z</time></trkpt><trkpt lat="41.145135" lon="14.3984683"><ele>36.6</ele><time>2026-05-03T08:02:51.981Z</time></trkpt><trkpt lat="41.1452311" lon="14.3985334"><ele>36.400000000000006</ele><time>2026-05-03T08:02:53.981Z</time></trkpt><trkpt lat="41.1453286" lon="14.3985971"><ele>36.2</ele><time>2026-05-03T08:02:55.981Z</time></trkpt><trkpt lat="41.1454226" lon="14.3986649"><ele>36.0</ele><time>2026-05-03T08:02:57.981Z</time></trkpt><trkpt lat="41.1455198" lon="14.3987304"><ele>36.0</ele><time>2026-05-03T08:02:59.981Z</time></trkpt><trkpt lat="41.1456192" lon="14.3988002"><ele>36.0</ele><time>2026-05-03T08:03:01.981Z</time></trkpt><trkpt lat="41.1457164" lon="14.3988704"><ele>36.0</ele><time>2026-05-03T08:03:03.982Z</time></trkpt><trkpt lat="41.1458125" lon="14.3989468"><ele>36.0</ele><time>2026-05-03T08:03:05.981Z</time></trkpt><trkpt lat="41.1459128" lon="14.3990224"><ele>36.0</ele><time>2026-05-03T08:03:07.981Z</time></trkpt><trkpt lat="41.1460061" lon="14.3991066"><ele>36.0</ele><time>2026-05-03T08:03:09.981Z</time></trkpt><trkpt lat="41.1460933" lon="14.3992076"><ele>36.0</ele><time>2026-05-03T08:03:11.981Z</time></trkpt><trkpt lat="41.1461757" lon="14.399314"><ele>36.0</ele><time>2026-05-03T08:03:13.981Z</time></trkpt><trkpt lat="41.1462533" lon="14.3994263"><ele>36.0</ele><time>2026-05-03T08:03:15.981Z</time></trkpt><trkpt lat="41.1463232" lon="14.3995432"><ele>36.0</ele><time>2026-05-03T08:03:17.981Z</time></trkpt><trkpt lat="41.1463859" lon="14.3996646"><ele>36.0</ele><time>2026-05-03T08:03:19.981Z</time></trkpt><trkpt lat="41.1464467" lon="14.3997876"><ele>36.0</ele><time>2026-05-03T08:03:21.981Z</time></trkpt><trkpt lat="41.1465028" lon="14.3999092"><ele>36.0</ele><time>2026-05-03T08:03:23.981Z</time></trkpt><trkpt lat="41.1465602" lon="14.4000379"><ele>36.0</ele><time>2026-05-03T08:03:25.981Z</time></trkpt><trkpt lat="41.1466101" lon="14.4001716"><ele>36.0</ele><time>2026-05-03T08:03:27.981Z</time></trkpt><trkpt lat="41.1466635" lon="14.400296"><ele>36.0</ele><time>2026-05-03T08:03:29.981Z</time></trkpt><trkpt lat="41.1467119" lon="14.4004133"><ele>36.0</ele><time>2026-05-03T08:03:31.981Z</time></trkpt><trkpt lat="41.1467631" lon="14.4005211"><ele>36.0</ele><time>2026-05-03T08:03:33.981Z</time></trkpt><trkpt lat="41.1468023" lon="14.4006312"><ele>36.0</ele><time>2026-05-03T08:03:35.982Z</time></trkpt><trkpt lat="41.1468507" lon="14.4007335"><ele>36.0</ele><time>2026-05-03T08:03:37.981Z</time></trkpt><trkpt lat="41.1468957" lon="14.40083"><ele>36.0</ele><time>2026-05-03T08:03:39.982Z</time></trkpt><trkpt lat="41.1469342" lon="14.40093"><ele>36.0</ele><time>2026-05-03T08:03:41.981Z</time></trkpt><trkpt lat="41.1469834" lon="14.4010224"><ele>36.0</ele><time>2026-05-03T08:03:43.981Z</time></trkpt><trkpt lat="41.1470212" lon="14.4011191"><ele>36.0</ele><time>2026-05-03T08:03:45.981Z</time></trkpt><trkpt lat="41.1470599" lon="14.4012123"><ele>36.0</ele><time>2026-05-03T08:03:47.981Z</time></trkpt><trkpt lat="41.1470982" lon="14.4013048"><ele>36.0</ele><time>2026-05-03T08:03:49.981Z</time></trkpt><trkpt lat="41.1471385" lon="14.4014009"><ele>36.0</ele><time>2026-05-03T08:03:51.981Z</time></trkpt><trkpt lat="41.1471834" lon="14.4015012"><ele>36.0</ele><time>2026-05-03T08:03:53.982Z</time></trkpt><trkpt lat="41.1472371" lon="14.4016015"><ele>36.0</ele><time>2026-05-03T08:03:55.981Z</time></trkpt><trkpt lat="41.1472826" lon="14.4017072"><ele>36.0</ele><time>2026-05-03T08:03:57.981Z</time></trkpt><trkpt lat="41.1473216" lon="14.4018132"><ele>35.5</ele><time>2026-05-03T08:03:59.981Z</time></trkpt><trkpt lat="41.1473618" lon="14.401915"><ele>35.0</ele><time>2026-05-03T08:04:01.982Z</time></trkpt><trkpt lat="41.1474078" lon="14.4020116"><ele>34.5</ele><time>2026-05-03T08:04:03.982Z</time></trkpt><trkpt lat="41.1474482" lon="14.4021158"><ele>34.0</ele><time>2026-05-03T08:04:05.981Z</time></trkpt><trkpt lat="41.1474936" lon="14.4022214"><ele>33.5</ele><time>2026-05-03T08:04:07.981Z</time></trkpt><trkpt lat="41.1475386" lon="14.4023257"><ele>33.0</ele><time>2026-05-03T08:04:09.981Z</time></trkpt><trkpt lat="41.1475792" lon="14.4024252"><ele>32.833333333333336</ele><time>2026-05-03T08:04:11.981Z</time></trkpt><trkpt lat="41.1476189" lon="14.4025169"><ele>32.666666666666664</ele><time>2026-05-03T08:04:13.981Z</time></trkpt><trkpt lat="41.1476614" lon="14.4026175"><ele>32.5</ele><time>2026-05-03T08:04:15.981Z</time></trkpt><trkpt lat="41.1477052" lon="14.4027283"><ele>32.33333333333333</ele><time>2026-05-03T08:04:17.981Z</time></trkpt><trkpt lat="41.147748" lon="14.4028357"><ele>32.166666666666664</ele><time>2026-05-03T08:04:19.981Z</time></trkpt><trkpt lat="41.1477937" lon="14.402945"><ele>32.0</ele><time>2026-05-03T08:04:21.981Z</time></trkpt><trkpt lat="41.147843" lon="14.4030571"><ele>32.5</ele><time>2026-05-03T08:04:23.981Z</time></trkpt><trkpt lat="41.1478916" lon="14.4031631"><ele>33.0</ele><time>2026-05-03T08:04:25.982Z</time></trkpt><trkpt lat="41.1479386" lon="14.4032673"><ele>33.5</ele><time>2026-05-03T08:04:27.981Z</time></trkpt><trkpt lat="41.1479799" lon="14.4033612"><ele>34.0</ele><time>2026-05-03T08:04:29.981Z</time></trkpt><trkpt lat="41.1480108" lon="14.403444"><ele>34.5</ele><time>2026-05-03T08:04:31.981Z</time></trkpt><trkpt lat="41.1480554" lon="14.4035453"><ele>35.0</ele><time>2026-05-03T08:04:34.981Z</time></trkpt><trkpt lat="41.1480983" lon="14.4036461"><ele>35.0</ele><time>2026-05-03T08:04:37.981Z</time></trkpt><trkpt lat="41.1481367" lon="14.403726"><ele>35.0</ele><time>2026-05-03T08:04:40.981Z</time></trkpt><trkpt lat="41.1481956" lon="14.4037569"><ele>35.0</ele><time>2026-05-03T08:04:43.982Z</time></trkpt><trkpt lat="41.1482583" lon="14.4037268"><ele>35.0</ele><time>2026-05-03T08:04:46.981Z</time></trkpt><trkpt lat="41.1483109" lon="14.4036449"><ele>35.0</ele><time>2026-05-03T08:04:49.981Z</time></trkpt><trkpt lat="41.1483535" lon="14.4035618"><ele>35.0</ele><time>2026-05-03T08:04:52.982Z</time></trkpt><trkpt lat="41.1484102" lon="14.4034695"><ele>35.0</ele><time>2026-05-03T08:04:55.981Z</time></trkpt><trkpt lat="41.1484545" lon="14.4033952"><ele>35.0</ele><time>2026-05-03T08:04:57.981Z</time></trkpt><trkpt lat="41.148491" lon="14.4033076"><ele>35.0</ele><time>2026-05-03T08:04:59.981Z</time></trkpt><trkpt lat="41.1485295" lon="14.4032273"><ele>35.0</ele><time>2026-05-03T08:05:01.981Z</time></trkpt><trkpt lat="41.1485658" lon="14.4031516"><ele>35.0</ele><time>2026-05-03T08:05:03.982Z</time></trkpt><trkpt lat="41.1486018" lon="14.4030748"><ele>35.0</ele><time>2026-05-03T08:05:05.981Z</time></trkpt><trkpt lat="41.1486412" lon="14.4029953"><ele>35.0</ele><time>2026-05-03T08:05:07.981Z</time></trkpt><trkpt lat="41.1486843" lon="14.4029197"><ele>35.0</ele><time>2026-05-03T08:05:09.981Z</time></trkpt><trkpt lat="41.1487277" lon="14.4028473"><ele>35.0</ele><time>2026-05-03T08:05:11.981Z</time></trkpt><trkpt lat="41.1487654" lon="14.4027689"><ele>35.0</ele><time>2026-05-03T08:05:13.981Z</time></trkpt><trkpt lat="41.148807" lon="14.4026879"><ele>35.0</ele><time>2026-05-03T08:05:15.982Z</time></trkpt><trkpt lat="41.1488492" lon="14.402604"><ele>35.0</ele><time>2026-05-03T08:05:17.981Z</time></trkpt><trkpt lat="41.1488965" lon="14.4025234"><ele>35.0</ele><time>2026-05-03T08:05:19.982Z</time></trkpt><trkpt lat="41.1489416" lon="14.4024422"><ele>35.0</ele><time>2026-05-03T08:05:21.982Z</time></trkpt><trkpt lat="41.1489854" lon="14.4023604"><ele>35.0</ele><time>2026-05-03T08:05:23.981Z</time></trkpt><trkpt lat="41.1490283" lon="14.4022738"><ele>36.5</ele><time>2026-05-03T08:05:25.981Z</time></trkpt><trkpt lat="41.1490778" lon="14.4021858"><ele>38.0</ele><time>2026-05-03T08:05:27.981Z</time></trkpt><trkpt lat="41.1491287" lon="14.4020903"><ele>39.5</ele><time>2026-05-03T08:05:29.981Z</time></trkpt><trkpt lat="41.1491799" lon="14.4019937"><ele>41.0</ele><time>2026-05-03T08:05:31.981Z</time></trkpt><trkpt lat="41.1492308" lon="14.4018973"><ele>42.5</ele><time>2026-05-03T08:05:33.982Z</time></trkpt><trkpt lat="41.149282" lon="14.4018015"><ele>44.0</ele><time>2026-05-03T08:05:35.981Z</time></trkpt><trkpt lat="41.1493328" lon="14.4017075"><ele>44.0</ele><time>2026-05-03T08:05:37.981Z</time></trkpt><trkpt lat="41.1493838" lon="14.4016106"><ele>44.0</ele><time>2026-05-03T08:05:39.981Z</time></trkpt><trkpt lat="41.1494359" lon="14.4015151"><ele>44.0</ele><time>2026-05-03T08:05:41.981Z</time></trkpt><trkpt lat="41.1494895" lon="14.4014194"><ele>44.0</ele><time>2026-05-03T08:05:43.982Z</time></trkpt><trkpt lat="41.1495375" lon="14.4013235"><ele>44.0</ele><time>2026-05-03T08:05:45.981Z</time></trkpt><trkpt lat="41.1495946" lon="14.4012368"><ele>44.0</ele><time>2026-05-03T08:05:47.981Z</time></trkpt><trkpt lat="41.149658" lon="14.4011467"><ele>44.0</ele><time>2026-05-03T08:05:49.981Z</time></trkpt><trkpt lat="41.1497263" lon="14.4010504"><ele>44.0</ele><time>2026-05-03T08:05:51.981Z</time></trkpt><trkpt lat="41.1497999" lon="14.400952"><ele>44.0</ele><time>2026-05-03T08:05:53.981Z</time></trkpt><trkpt lat="41.1498778" lon="14.4008412"><ele>44.0</ele><time>2026-05-03T08:05:55.982Z</time></trkpt><trkpt lat="41.1499653" lon="14.4007345"><ele>44.0</ele><time>2026-05-03T08:05:57.981Z</time></trkpt><trkpt lat="41.1500509" lon="14.4006284"><ele>44.0</ele><time>2026-05-03T08:05:59.982Z</time></trkpt><trkpt lat="41.1500964" lon="14.4005696"><ele>44.0</ele><time>2026-05-03T08:06:00.981Z</time></trkpt><trkpt lat="41.150142" lon="14.4005114"><ele>44.0</ele><time>2026-05-03T08:06:01.982Z</time></trkpt><trkpt lat="41.1501908" lon="14.400456"><ele>44.0</ele><time>2026-05-03T08:06:02.981Z</time></trkpt><trkpt lat="41.1502424" lon="14.4003889"><ele>44.0</ele><time>2026-05-03T08:06:03.982Z</time></trkpt><trkpt lat="41.1502921" lon="14.4003227"><ele>44.0</ele><time>2026-05-03T08:06:04.981Z</time></trkpt><trkpt lat="41.1503448" lon="14.400255"><ele>44.0</ele><time>2026-05-03T08:06:05.981Z</time></trkpt><trkpt lat="41.1503961" lon="14.4001867"><ele>43.5</ele><time>2026-05-03T08:06:06.981Z</time></trkpt><trkpt lat="41.1504515" lon="14.4001201"><ele>43.0</ele><time>2026-05-03T08:06:07.981Z</time></trkpt><trkpt lat="41.1505098" lon="14.4000515"><ele>42.5</ele><time>2026-05-03T08:06:08.982Z</time></trkpt><trkpt lat="41.1505708" lon="14.3999858"><ele>42.0</ele><time>2026-05-03T08:06:09.981Z</time></trkpt><trkpt lat="41.1506374" lon="14.3999161"><ele>41.5</ele><time>2026-05-03T08:06:10.981Z</time></trkpt><trkpt lat="41.1507013" lon="14.3998535"><ele>41.0</ele><time>2026-05-03T08:06:11.981Z</time></trkpt><trkpt lat="41.1507693" lon="14.3997967"><ele>41.0</ele><time>2026-05-03T08:06:12.981Z</time></trkpt><trkpt lat="41.1508368" lon="14.3997405"><ele>41.0</ele><time>2026-05-03T08:06:13.981Z</time></trkpt><trkpt lat="41.1509041" lon="14.3996842"><ele>41.0</ele><time>2026-05-03T08:06:14.982Z</time></trkpt><trkpt lat="41.150977" lon="14.3996396"><ele>41.0</ele><time>2026-05-03T08:06:15.981Z</time></trkpt><trkpt lat="41.1510497" lon="14.3995956"><ele>41.0</ele><time>2026-05-03T08:06:16.981Z</time></trkpt><trkpt lat="41.1511214" lon="14.3995448"><ele>41.0</ele><time>2026-05-03T08:06:17.981Z</time></trkpt><trkpt lat="41.1511932" lon="14.3994985"><ele>40.857142857142854</ele><time>2026-05-03T08:06:18.982Z</time></trkpt><trkpt lat="41.1512617" lon="14.3994558"><ele>40.714285714285715</ele><time>2026-05-03T08:06:19.981Z</time></trkpt><trkpt lat="41.1513294" lon="14.399415"><ele>40.57142857142857</ele><time>2026-05-03T08:06:20.981Z</time></trkpt><trkpt lat="41.1513957" lon="14.3993632"><ele>40.42857142857143</ele><time>2026-05-03T08:06:21.981Z</time></trkpt><trkpt lat="41.1514592" lon="14.3993216"><ele>40.285714285714285</ele><time>2026-05-03T08:06:22.981Z</time></trkpt><trkpt lat="41.1515198" lon="14.3992774"><ele>40.14285714285714</ele><time>2026-05-03T08:06:23.982Z</time></trkpt><trkpt lat="41.1515798" lon="14.3992415"><ele>40.0</ele><time>2026-05-03T08:06:24.981Z</time></trkpt><trkpt lat="41.151638" lon="14.3992067"><ele>40.0</ele><time>2026-05-03T08:06:25.981Z</time></trkpt><trkpt lat="41.1517445" lon="14.3991388"><ele>40.0</ele><time>2026-05-03T08:06:27.982Z</time></trkpt><trkpt lat="41.1518322" lon="14.3990895"><ele>40.0</ele><time>2026-05-03T08:06:29.981Z</time></trkpt><trkpt lat="41.1519101" lon="14.3990423"><ele>40.0</ele><time>2026-05-03T08:06:31.981Z</time></trkpt><trkpt lat="41.1519798" lon="14.3989939"><ele>40.0</ele><time>2026-05-03T08:06:33.982Z</time></trkpt><trkpt lat="41.1520549" lon="14.3989458"><ele>40.0</ele><time>2026-05-03T08:06:36.981Z</time></trkpt><trkpt lat="41.1521205" lon="14.3989101"><ele>40.0</ele><time>2026-05-03T08:06:39.981Z</time></trkpt><trkpt lat="41.1521921" lon="14.398866"><ele>40.0</ele><time>2026-05-03T08:06:42.982Z</time></trkpt><trkpt lat="41.1522738" lon="14.3988169"><ele>40.0</ele><time>2026-05-03T08:06:45.982Z</time></trkpt><trkpt lat="41.152333" lon="14.3987731"><ele>40.0</ele><time>2026-05-03T08:06:47.982Z</time></trkpt><trkpt lat="41.1523976" lon="14.3987334"><ele>40.0</ele><time>2026-05-03T08:06:49.981Z</time></trkpt><trkpt lat="41.1524624" lon="14.3986921"><ele>40.16666666666667</ele><time>2026-05-03T08:06:51.981Z</time></trkpt><trkpt lat="41.1525275" lon="14.3986497"><ele>40.333333333333336</ele><time>2026-05-03T08:06:53.981Z</time></trkpt><trkpt lat="41.1525963" lon="14.3986073"><ele>40.5</ele><time>2026-05-03T08:06:55.982Z</time></trkpt><trkpt lat="41.1526656" lon="14.3985574"><ele>40.666666666666664</ele><time>2026-05-03T08:06:57.982Z</time></trkpt><trkpt lat="41.152741" lon="14.3985061"><ele>40.83333333333333</ele><time>2026-05-03T08:06:59.982Z</time></trkpt><trkpt lat="41.1528181" lon="14.3984497"><ele>41.0</ele><time>2026-05-03T08:07:01.982Z</time></trkpt><trkpt lat="41.1528977" lon="14.3983942"><ele>41.0</ele><time>2026-05-03T08:07:03.981Z</time></trkpt><trkpt lat="41.1529808" lon="14.3983395"><ele>41.0</ele><time>2026-05-03T08:07:05.981Z</time></trkpt><trkpt lat="41.1530581" lon="14.3982808"><ele>41.0</ele><time>2026-05-03T08:07:07.982Z</time></trkpt><trkpt lat="41.1531332" lon="14.3982159"><ele>41.0</ele><time>2026-05-03T08:07:09.982Z</time></trkpt><trkpt lat="41.1532101" lon="14.3981363"><ele>41.0</ele><time>2026-05-03T08:07:11.981Z</time></trkpt><trkpt lat="41.1532998" lon="14.3980457"><ele>41.0</ele><time>2026-05-03T08:07:13.981Z</time></trkpt><trkpt lat="41.1533921" lon="14.3979439"><ele>41.0</ele><time>2026-05-03T08:07:15.981Z</time></trkpt><trkpt lat="41.1534941" lon="14.3978404"><ele>41.0</ele><time>2026-05-03T08:07:17.981Z</time></trkpt><trkpt lat="41.1535464" lon="14.3977842"><ele>41.0</ele><time>2026-05-03T08:07:18.981Z</time></trkpt><trkpt lat="41.1536004" lon="14.3977309"><ele>41.0</ele><time>2026-05-03T08:07:19.981Z</time></trkpt><trkpt lat="41.153657" lon="14.3976758"><ele>40.99999999999999</ele><time>2026-05-03T08:07:20.982Z</time></trkpt><trkpt lat="41.1537135" lon="14.3976168"><ele>41.0</ele><time>2026-05-03T08:07:21.981Z</time></trkpt><trkpt lat="41.1537695" lon="14.3975572"><ele>41.0</ele><time>2026-05-03T08:07:22.981Z</time></trkpt><trkpt lat="41.1538258" lon="14.3974969"><ele>41.0</ele><time>2026-05-03T08:07:23.981Z</time></trkpt><trkpt lat="41.1538843" lon="14.3974371"><ele>41.0</ele><time>2026-05-03T08:07:24.981Z</time></trkpt><trkpt lat="41.1539408" lon="14.3973753"><ele>40.99999999999999</ele><time>2026-05-03T08:07:25.982Z</time></trkpt><trkpt lat="41.1539947" lon="14.3973129"><ele>41.0</ele><time>2026-05-03T08:07:26.981Z</time></trkpt><trkpt lat="41.1540488" lon="14.3972504"><ele>40.99999999999999</ele><time>2026-05-03T08:07:27.982Z</time></trkpt><trkpt lat="41.1541054" lon="14.3971913"><ele>41.0</ele><time>2026-05-03T08:07:28.982Z</time></trkpt><trkpt lat="41.1541578" lon="14.3971281"><ele>41.0</ele><time>2026-05-03T08:07:29.981Z</time></trkpt><trkpt lat="41.1542107" lon="14.3970684"><ele>41.0</ele><time>2026-05-03T08:07:30.982Z</time></trkpt><trkpt lat="41.1542662" lon="14.3970072"><ele>41.0</ele><time>2026-05-03T08:07:31.981Z</time></trkpt><trkpt lat="41.1543204" lon="14.3969509"><ele>40.99999999999999</ele><time>2026-05-03T08:07:32.982Z</time></trkpt><trkpt lat="41.1543744" lon="14.396895"><ele>41.0</ele><time>2026-05-03T08:07:33.981Z</time></trkpt><trkpt lat="41.1544264" lon="14.396835"><ele>40.5</ele><time>2026-05-03T08:07:34.981Z</time></trkpt><trkpt lat="41.1544763" lon="14.3967744"><ele>40.0</ele><time>2026-05-03T08:07:35.981Z</time></trkpt><trkpt lat="41.1545255" lon="14.3967188"><ele>39.5</ele><time>2026-05-03T08:07:36.981Z</time></trkpt><trkpt lat="41.1545777" lon="14.396665"><ele>39.0</ele><time>2026-05-03T08:07:37.981Z</time></trkpt><trkpt lat="41.1546261" lon="14.396609"><ele>38.5</ele><time>2026-05-03T08:07:38.982Z</time></trkpt><trkpt lat="41.1547246" lon="14.3965024"><ele>38.0</ele><time>2026-05-03T08:07:40.981Z</time></trkpt><trkpt lat="41.1548217" lon="14.3964001"><ele>38.199999999999996</ele><time>2026-05-03T08:07:42.981Z</time></trkpt><trkpt lat="41.1549158" lon="14.3963065"><ele>38.4</ele><time>2026-05-03T08:07:44.981Z</time></trkpt><trkpt lat="41.1549975" lon="14.3962089"><ele>38.599999999999994</ele><time>2026-05-03T08:07:46.981Z</time></trkpt><trkpt lat="41.1550797" lon="14.3961198"><ele>38.8</ele><time>2026-05-03T08:07:48.981Z</time></trkpt><trkpt lat="41.1551606" lon="14.3960308"><ele>39.0</ele><time>2026-05-03T08:07:50.981Z</time></trkpt><trkpt lat="41.1552392" lon="14.3959418"><ele>39.0</ele><time>2026-05-03T08:07:52.982Z</time></trkpt><trkpt lat="41.1553112" lon="14.3958517"><ele>39.0</ele><time>2026-05-03T08:07:54.981Z</time></trkpt><trkpt lat="41.1553826" lon="14.395756"><ele>39.0</ele><time>2026-05-03T08:07:56.981Z</time></trkpt><trkpt lat="41.1554607" lon="14.3956469"><ele>39.0</ele><time>2026-05-03T08:07:58.982Z</time></trkpt><trkpt lat="41.1555311" lon="14.3955255"><ele>39.0</ele><time>2026-05-03T08:08:00.981Z</time></trkpt><trkpt lat="41.1556018" lon="14.3953962"><ele>38.75</ele><time>2026-05-03T08:08:02.982Z</time></trkpt><trkpt lat="41.1556739" lon="14.3952655"><ele>38.5</ele><time>2026-05-03T08:08:04.981Z</time></trkpt><trkpt lat="41.1557421" lon="14.3951339"><ele>38.25</ele><time>2026-05-03T08:08:06.981Z</time></trkpt><trkpt lat="41.1558067" lon="14.3950004"><ele>38.0</ele><time>2026-05-03T08:08:08.981Z</time></trkpt><trkpt lat="41.1558641" lon="14.3948645"><ele>38.0</ele><time>2026-05-03T08:08:10.981Z</time></trkpt><trkpt lat="41.1559007" lon="14.3947925"><ele>38.0</ele><time>2026-05-03T08:08:11.981Z</time></trkpt><trkpt lat="41.1559679" lon="14.3946609"><ele>38.0</ele><time>2026-05-03T08:08:13.981Z</time></trkpt><trkpt lat="41.1560305" lon="14.3945291"><ele>38.0</ele><time>2026-05-03T08:08:15.981Z</time></trkpt><trkpt lat="41.1560936" lon="14.3943954"><ele>38.0</ele><time>2026-05-03T08:08:17.981Z</time></trkpt><trkpt lat="41.1561568" lon="14.3942579"><ele>37.666666666666664</ele><time>2026-05-03T08:08:19.981Z</time></trkpt><trkpt lat="41.1562245" lon="14.3941248"><ele>37.33333333333333</ele><time>2026-05-03T08:08:21.981Z</time></trkpt><trkpt lat="41.156294" lon="14.3939845"><ele>37.0</ele><time>2026-05-03T08:08:23.981Z</time></trkpt><trkpt lat="41.1563273" lon="14.3939118"><ele>36.666666666666664</ele><time>2026-05-03T08:08:24.981Z</time></trkpt><trkpt lat="41.1563587" lon="14.3938362"><ele>36.333333333333336</ele><time>2026-05-03T08:08:25.981Z</time></trkpt><trkpt lat="41.1563931" lon="14.3937628"><ele>36.0</ele><time>2026-05-03T08:08:26.982Z</time></trkpt><trkpt lat="41.156426" lon="14.3936863"><ele>35.833333333333336</ele><time>2026-05-03T08:08:27.982Z</time></trkpt><trkpt lat="41.1564605" lon="14.3936156"><ele>35.666666666666664</ele><time>2026-05-03T08:08:28.981Z</time></trkpt><trkpt lat="41.1565315" lon="14.3934725"><ele>35.5</ele><time>2026-05-03T08:08:30.981Z</time></trkpt><trkpt lat="41.1565676" lon="14.3933971"><ele>35.33333333333333</ele><time>2026-05-03T08:08:31.982Z</time></trkpt><trkpt lat="41.1566049" lon="14.3933181"><ele>35.166666666666664</ele><time>2026-05-03T08:08:32.981Z</time></trkpt><trkpt lat="41.1566407" lon="14.3932373"><ele>35.0</ele><time>2026-05-03T08:08:33.981Z</time></trkpt><trkpt lat="41.156678" lon="14.3931565"><ele>35.42857142857143</ele><time>2026-05-03T08:08:34.981Z</time></trkpt><trkpt lat="41.1567151" lon="14.3930709"><ele>35.85714285714286</ele><time>2026-05-03T08:08:35.981Z</time></trkpt><trkpt lat="41.1567536" lon="14.3929856"><ele>36.285714285714285</ele><time>2026-05-03T08:08:36.982Z</time></trkpt><trkpt lat="41.1567952" lon="14.3929026"><ele>36.714285714285715</ele><time>2026-05-03T08:08:37.981Z</time></trkpt><trkpt lat="41.1568374" lon="14.3928202"><ele>37.142857142857146</ele><time>2026-05-03T08:08:38.982Z</time></trkpt><trkpt lat="41.1568786" lon="14.3927379"><ele>37.57142857142857</ele><time>2026-05-03T08:08:39.981Z</time></trkpt><trkpt lat="41.1569157" lon="14.392653"><ele>38.0</ele><time>2026-05-03T08:08:40.981Z</time></trkpt><trkpt lat="41.1569571" lon="14.3925666"><ele>38.0</ele><time>2026-05-03T08:08:41.981Z</time></trkpt><trkpt lat="41.1569972" lon="14.3924835"><ele>38.0</ele><time>2026-05-03T08:08:42.982Z</time></trkpt><trkpt lat="41.1570345" lon="14.392396"><ele>38.0</ele><time>2026-05-03T08:08:43.981Z</time></trkpt><trkpt lat="41.1570727" lon="14.3923085"><ele>38.0</ele><time>2026-05-03T08:08:44.982Z</time></trkpt><trkpt lat="41.1571098" lon="14.3922256"><ele>38.0</ele><time>2026-05-03T08:08:45.981Z</time></trkpt><trkpt lat="41.1571482" lon="14.3921437"><ele>38.0</ele><time>2026-05-03T08:08:46.981Z</time></trkpt><trkpt lat="41.1571832" lon="14.3920626"><ele>38.0</ele><time>2026-05-03T08:08:47.981Z</time></trkpt><trkpt lat="41.157223" lon="14.391983"><ele>37.83333333333333</ele><time>2026-05-03T08:08:48.982Z</time></trkpt><trkpt lat="41.1572609" lon="14.3919048"><ele>37.666666666666664</ele><time>2026-05-03T08:08:49.981Z</time></trkpt><trkpt lat="41.1572952" lon="14.3918258"><ele>37.5</ele><time>2026-05-03T08:08:50.981Z</time></trkpt><trkpt lat="41.1573282" lon="14.3917524"><ele>37.333333333333336</ele><time>2026-05-03T08:08:51.981Z</time></trkpt><trkpt lat="41.1573957" lon="14.3916107"><ele>37.16666666666667</ele><time>2026-05-03T08:08:53.981Z</time></trkpt><trkpt lat="41.157461" lon="14.3914799"><ele>37.0</ele><time>2026-05-03T08:08:55.981Z</time></trkpt><trkpt lat="41.1575262" lon="14.3913541"><ele>37.333333333333336</ele><time>2026-05-03T08:08:57.982Z</time></trkpt><trkpt lat="41.1575934" lon="14.3912195"><ele>37.66666666666667</ele><time>2026-05-03T08:08:59.981Z</time></trkpt><trkpt lat="41.157628" lon="14.3911436"><ele>38.0</ele><time>2026-05-03T08:09:00.981Z</time></trkpt><trkpt lat="41.1576632" lon="14.3910676"><ele>38.333333333333336</ele><time>2026-05-03T08:09:01.981Z</time></trkpt><trkpt lat="41.1576991" lon="14.3909897"><ele>38.666666666666664</ele><time>2026-05-03T08:09:02.982Z</time></trkpt><trkpt lat="41.1577344" lon="14.3909165"><ele>39.0</ele><time>2026-05-03T08:09:03.981Z</time></trkpt><trkpt lat="41.1577698" lon="14.3908416"><ele>39.0</ele><time>2026-05-03T08:09:04.982Z</time></trkpt><trkpt lat="41.1578051" lon="14.3907632"><ele>39.0</ele><time>2026-05-03T08:09:05.981Z</time></trkpt><trkpt lat="41.1578414" lon="14.3906836"><ele>39.0</ele><time>2026-05-03T08:09:06.981Z</time></trkpt><trkpt lat="41.1578783" lon="14.3906077"><ele>39.0</ele><time>2026-05-03T08:09:07.981Z</time></trkpt><trkpt lat="41.1579136" lon="14.3905299"><ele>39.0</ele><time>2026-05-03T08:09:08.982Z</time></trkpt><trkpt lat="41.157951" lon="14.3904528"><ele>39.0</ele><time>2026-05-03T08:09:09.981Z</time></trkpt><trkpt lat="41.1579864" lon="14.3903773"><ele>39.0</ele><time>2026-05-03T08:09:10.981Z</time></trkpt><trkpt lat="41.1580235" lon="14.3903"><ele>39.285714285714285</ele><time>2026-05-03T08:09:11.981Z</time></trkpt><trkpt lat="41.1580593" lon="14.3902233"><ele>39.57142857142857</ele><time>2026-05-03T08:09:12.982Z</time></trkpt><trkpt lat="41.1580924" lon="14.3901459"><ele>39.857142857142854</ele><time>2026-05-03T08:09:13.981Z</time></trkpt><trkpt lat="41.1581258" lon="14.390073"><ele>40.14285714285714</ele><time>2026-05-03T08:09:14.981Z</time></trkpt><trkpt lat="41.1581607" lon="14.3899987"><ele>40.42857142857143</ele><time>2026-05-03T08:09:15.981Z</time></trkpt><trkpt lat="41.158194" lon="14.3899236"><ele>40.71428571428571</ele><time>2026-05-03T08:09:16.982Z</time></trkpt><trkpt lat="41.1582305" lon="14.3898502"><ele>41.0</ele><time>2026-05-03T08:09:17.982Z</time></trkpt><trkpt lat="41.1582685" lon="14.3897749"><ele>41.0</ele><time>2026-05-03T08:09:18.981Z</time></trkpt><trkpt lat="41.1583038" lon="14.3896984"><ele>41.0</ele><time>2026-05-03T08:09:19.981Z</time></trkpt><trkpt lat="41.1583402" lon="14.3896171"><ele>41.0</ele><time>2026-05-03T08:09:20.981Z</time></trkpt><trkpt lat="41.1583781" lon="14.3895323"><ele>41.0</ele><time>2026-05-03T08:09:21.981Z</time></trkpt><trkpt lat="41.1584214" lon="14.3894478"><ele>41.0</ele><time>2026-05-03T08:09:22.982Z</time></trkpt><trkpt lat="41.1584662" lon="14.3893633"><ele>41.0</ele><time>2026-05-03T08:09:23.982Z</time></trkpt><trkpt lat="41.1585094" lon="14.3892701"><ele>40.33333333333333</ele><time>2026-05-03T08:09:24.981Z</time></trkpt><trkpt lat="41.1585542" lon="14.3891719"><ele>39.666666666666664</ele><time>2026-05-03T08:09:25.982Z</time></trkpt><trkpt lat="41.1586014" lon="14.3890719"><ele>39.0</ele><time>2026-05-03T08:09:26.981Z</time></trkpt><trkpt lat="41.1586471" lon="14.3889748"><ele>38.333333333333336</ele><time>2026-05-03T08:09:27.981Z</time></trkpt><trkpt lat="41.1586966" lon="14.3888722"><ele>37.66666666666667</ele><time>2026-05-03T08:09:28.981Z</time></trkpt><trkpt lat="41.1587448" lon="14.3887686"><ele>37.0</ele><time>2026-05-03T08:09:29.981Z</time></trkpt><trkpt lat="41.158795" lon="14.3886654"><ele>36.800000000000004</ele><time>2026-05-03T08:09:30.981Z</time></trkpt><trkpt lat="41.1588455" lon="14.3885626"><ele>36.6</ele><time>2026-05-03T08:09:31.981Z</time></trkpt><trkpt lat="41.1588968" lon="14.388462"><ele>36.400000000000006</ele><time>2026-05-03T08:09:32.982Z</time></trkpt><trkpt lat="41.1589426" lon="14.3883583"><ele>36.2</ele><time>2026-05-03T08:09:33.981Z</time></trkpt><trkpt lat="41.1589898" lon="14.3882534"><ele>36.0</ele><time>2026-05-03T08:09:34.981Z</time></trkpt><trkpt lat="41.1590409" lon="14.3881497"><ele>36.0</ele><time>2026-05-03T08:09:35.982Z</time></trkpt><trkpt lat="41.1590916" lon="14.388047"><ele>36.0</ele><time>2026-05-03T08:09:36.981Z</time></trkpt><trkpt lat="41.1591409" lon="14.387942"><ele>36.0</ele><time>2026-05-03T08:09:37.981Z</time></trkpt><trkpt lat="41.1591863" lon="14.3878322"><ele>36.0</ele><time>2026-05-03T08:09:38.982Z</time></trkpt><trkpt lat="41.1592326" lon="14.3877235"><ele>36.0</ele><time>2026-05-03T08:09:39.981Z</time></trkpt><trkpt lat="41.1592839" lon="14.3876201"><ele>35.6</ele><time>2026-05-03T08:09:40.981Z</time></trkpt><trkpt lat="41.1593348" lon="14.3875135"><ele>35.2</ele><time>2026-05-03T08:09:41.981Z</time></trkpt><trkpt lat="41.1593855" lon="14.3874067"><ele>34.8</ele><time>2026-05-03T08:09:42.982Z</time></trkpt><trkpt lat="41.1594375" lon="14.3872987"><ele>34.4</ele><time>2026-05-03T08:09:43.981Z</time></trkpt><trkpt lat="41.1594875" lon="14.3871895"><ele>34.0</ele><time>2026-05-03T08:09:44.981Z</time></trkpt><trkpt lat="41.1595369" lon="14.3870827"><ele>33.66666666666667</ele><time>2026-05-03T08:09:45.982Z</time></trkpt><trkpt lat="41.1595853" lon="14.3869746"><ele>33.333333333333336</ele><time>2026-05-03T08:09:46.981Z</time></trkpt><trkpt lat="41.1596332" lon="14.3868706"><ele>33.0</ele><time>2026-05-03T08:09:47.982Z</time></trkpt><trkpt lat="41.1596851" lon="14.386769"><ele>32.666666666666664</ele><time>2026-05-03T08:09:48.982Z</time></trkpt><trkpt lat="41.1597335" lon="14.3866724"><ele>32.33333333333333</ele><time>2026-05-03T08:09:49.981Z</time></trkpt><trkpt lat="41.1597794" lon="14.3865804"><ele>32.0</ele><time>2026-05-03T08:09:50.981Z</time></trkpt><trkpt lat="41.1598255" lon="14.3864854"><ele>32.5</ele><time>2026-05-03T08:09:51.981Z</time></trkpt><trkpt lat="41.1598709" lon="14.386393"><ele>33.0</ele><time>2026-05-03T08:09:52.982Z</time></trkpt><trkpt lat="41.1599166" lon="14.3863025"><ele>33.5</ele><time>2026-05-03T08:09:53.981Z</time></trkpt><trkpt lat="41.1599601" lon="14.3862137"><ele>34.0</ele><time>2026-05-03T08:09:54.981Z</time></trkpt><trkpt lat="41.1600028" lon="14.3861231"><ele>34.5</ele><time>2026-05-03T08:09:55.981Z</time></trkpt><trkpt lat="41.1600467" lon="14.3860376"><ele>35.0</ele><time>2026-05-03T08:09:56.981Z</time></trkpt><trkpt lat="41.1600919" lon="14.3859487"><ele>35.0</ele><time>2026-05-03T08:09:57.982Z</time></trkpt><trkpt lat="41.1601368" lon="14.3858592"><ele>35.0</ele><time>2026-05-03T08:09:58.981Z</time></trkpt><trkpt lat="41.1601796" lon="14.3857642"><ele>35.0</ele><time>2026-05-03T08:09:59.981Z</time></trkpt><trkpt lat="41.160222" lon="14.3856714"><ele>35.0</ele><time>2026-05-03T08:10:00.981Z</time></trkpt><trkpt lat="41.1602632" lon="14.3855811"><ele>35.0</ele><time>2026-05-03T08:10:01.981Z</time></trkpt><trkpt lat="41.1603063" lon="14.3854898"><ele>35.0</ele><time>2026-05-03T08:10:02.981Z</time></trkpt><trkpt lat="41.1603481" lon="14.385397"><ele>34.666666666666664</ele><time>2026-05-03T08:10:03.981Z</time></trkpt><trkpt lat="41.1603906" lon="14.3853003"><ele>34.33333333333333</ele><time>2026-05-03T08:10:04.982Z</time></trkpt><trkpt lat="41.1604351" lon="14.3852069"><ele>34.0</ele><time>2026-05-03T08:10:05.981Z</time></trkpt><trkpt lat="41.1604848" lon="14.3851144"><ele>33.666666666666664</ele><time>2026-05-03T08:10:06.981Z</time></trkpt><trkpt lat="41.1605314" lon="14.3850216"><ele>33.333333333333336</ele><time>2026-05-03T08:10:07.981Z</time></trkpt><trkpt lat="41.1605757" lon="14.3849251"><ele>33.0</ele><time>2026-05-03T08:10:08.981Z</time></trkpt><trkpt lat="41.1606197" lon="14.3848263"><ele>33.0</ele><time>2026-05-03T08:10:09.982Z</time></trkpt><trkpt lat="41.160662" lon="14.3847303"><ele>33.0</ele><time>2026-05-03T08:10:10.981Z</time></trkpt><trkpt lat="41.1607061" lon="14.3846341"><ele>33.0</ele><time>2026-05-03T08:10:11.981Z</time></trkpt><trkpt lat="41.1607503" lon="14.3845363"><ele>33.0</ele><time>2026-05-03T08:10:12.982Z</time></trkpt><trkpt lat="41.1607954" lon="14.3844389"><ele>33.0</ele><time>2026-05-03T08:10:13.981Z</time></trkpt><trkpt lat="41.1608403" lon="14.3843421"><ele>33.0</ele><time>2026-05-03T08:10:14.981Z</time></trkpt><trkpt lat="41.1608844" lon="14.3842477"><ele>33.0</ele><time>2026-05-03T08:10:15.981Z</time></trkpt><trkpt lat="41.1609308" lon="14.3841523"><ele>33.0</ele><time>2026-05-03T08:10:16.981Z</time></trkpt><trkpt lat="41.1609768" lon="14.3840583"><ele>33.0</ele><time>2026-05-03T08:10:17.982Z</time></trkpt><trkpt lat="41.161023" lon="14.3839677"><ele>33.0</ele><time>2026-05-03T08:10:18.981Z</time></trkpt><trkpt lat="41.1610643" lon="14.3838748"><ele>33.0</ele><time>2026-05-03T08:10:19.982Z</time></trkpt><trkpt lat="41.1611079" lon="14.3837817"><ele>33.0</ele><time>2026-05-03T08:10:20.981Z</time></trkpt><trkpt lat="41.1611494" lon="14.3836884"><ele>33.0</ele><time>2026-05-03T08:10:21.981Z</time></trkpt><trkpt lat="41.1611935" lon="14.3835944"><ele>33.0</ele><time>2026-05-03T08:10:22.981Z</time></trkpt><trkpt lat="41.1612365" lon="14.3835037"><ele>33.0</ele><time>2026-05-03T08:10:23.981Z</time></trkpt><trkpt lat="41.1612803" lon="14.3834034"><ele>33.0</ele><time>2026-05-03T08:10:24.981Z</time></trkpt><trkpt lat="41.1613232" lon="14.3833117"><ele>33.0</ele><time>2026-05-03T08:10:25.981Z</time></trkpt><trkpt lat="41.1613661" lon="14.3832182"><ele>33.0</ele><time>2026-05-03T08:10:26.981Z</time></trkpt><trkpt lat="41.1614124" lon="14.3831253"><ele>33.0</ele><time>2026-05-03T08:10:27.981Z</time></trkpt><trkpt lat="41.1614546" lon="14.3830302"><ele>33.0</ele><time>2026-05-03T08:10:28.981Z</time></trkpt><trkpt lat="41.1614989" lon="14.3829374"><ele>33.0</ele><time>2026-05-03T08:10:29.981Z</time></trkpt><trkpt lat="41.1615443" lon="14.382844"><ele>33.0</ele><time>2026-05-03T08:10:30.981Z</time></trkpt><trkpt lat="41.1615883" lon="14.3827491"><ele>33.0</ele><time>2026-05-03T08:10:31.982Z</time></trkpt><trkpt lat="41.1616313" lon="14.3826546"><ele>33.0</ele><time>2026-05-03T08:10:32.981Z</time></trkpt><trkpt lat="41.1616727" lon="14.382562"><ele>33.0</ele><time>2026-05-03T08:10:33.981Z</time></trkpt><trkpt lat="41.1617159" lon="14.3824666"><ele>33.0</ele><time>2026-05-03T08:10:34.981Z</time></trkpt><trkpt lat="41.1617584" lon="14.3823766"><ele>33.0</ele><time>2026-05-03T08:10:35.982Z</time></trkpt><trkpt lat="41.1618003" lon="14.3822882"><ele>33.0</ele><time>2026-05-03T08:10:36.981Z</time></trkpt><trkpt lat="41.1618401" lon="14.3822004"><ele>33.0</ele><time>2026-05-03T08:10:37.981Z</time></trkpt><trkpt lat="41.1618796" lon="14.3821191"><ele>33.0</ele><time>2026-05-03T08:10:38.981Z</time></trkpt><trkpt lat="41.1619205" lon="14.3820413"><ele>32.857142857142854</ele><time>2026-05-03T08:10:39.981Z</time></trkpt><trkpt lat="41.1619593" lon="14.3819627"><ele>32.714285714285715</ele><time>2026-05-03T08:10:40.982Z</time></trkpt><trkpt lat="41.161997" lon="14.3818851"><ele>32.57142857142857</ele><time>2026-05-03T08:10:41.981Z</time></trkpt><trkpt lat="41.1620339" lon="14.3818077"><ele>32.42857142857143</ele><time>2026-05-03T08:10:42.981Z</time></trkpt><trkpt lat="41.1620696" lon="14.3817323"><ele>32.285714285714285</ele><time>2026-05-03T08:10:43.981Z</time></trkpt><trkpt lat="41.1621054" lon="14.3816588"><ele>32.14285714285714</ele><time>2026-05-03T08:10:44.982Z</time></trkpt><trkpt lat="41.162139" lon="14.3815846"><ele>32.0</ele><time>2026-05-03T08:10:45.981Z</time></trkpt><trkpt lat="41.1621726" lon="14.3815073"><ele>32.0</ele><time>2026-05-03T08:10:46.981Z</time></trkpt><trkpt lat="41.1622092" lon="14.3814334"><ele>31.999999999999996</ele><time>2026-05-03T08:10:47.981Z</time></trkpt><trkpt lat="41.1622482" lon="14.3813621"><ele>32.0</ele><time>2026-05-03T08:10:48.981Z</time></trkpt><trkpt lat="41.1622845" lon="14.3812834"><ele>32.0</ele><time>2026-05-03T08:10:49.981Z</time></trkpt><trkpt lat="41.1623203" lon="14.3812064"><ele>31.999999999999996</ele><time>2026-05-03T08:10:50.982Z</time></trkpt><trkpt lat="41.1623526" lon="14.3811279"><ele>32.0</ele><time>2026-05-03T08:10:51.982Z</time></trkpt><trkpt lat="41.1623877" lon="14.3810502"><ele>32.0</ele><time>2026-05-03T08:10:52.982Z</time></trkpt><trkpt lat="41.1624521" lon="14.3809087"><ele>33.5</ele><time>2026-05-03T08:10:54.982Z</time></trkpt><trkpt lat="41.1625132" lon="14.3807722"><ele>35.0</ele><time>2026-05-03T08:10:56.981Z</time></trkpt><trkpt lat="41.1625768" lon="14.3806432"><ele>36.5</ele><time>2026-05-03T08:10:58.981Z</time></trkpt><trkpt lat="41.1626408" lon="14.3805099"><ele>38.0</ele><time>2026-05-03T08:11:00.981Z</time></trkpt><trkpt lat="41.1626993" lon="14.3803722"><ele>38.25</ele><time>2026-05-03T08:11:02.982Z</time></trkpt><trkpt lat="41.1627532" lon="14.3802386"><ele>38.5</ele><time>2026-05-03T08:11:04.982Z</time></trkpt><trkpt lat="41.1628091" lon="14.3801099"><ele>38.75</ele><time>2026-05-03T08:11:06.981Z</time></trkpt><trkpt lat="41.1628647" lon="14.3799849"><ele>39.0</ele><time>2026-05-03T08:11:08.982Z</time></trkpt><trkpt lat="41.1629224" lon="14.3798537"><ele>39.0</ele><time>2026-05-03T08:11:10.981Z</time></trkpt><trkpt lat="41.1629739" lon="14.3797155"><ele>39.0</ele><time>2026-05-03T08:11:12.981Z</time></trkpt><trkpt lat="41.1630399" lon="14.3795759"><ele>39.0</ele><time>2026-05-03T08:11:14.981Z</time></trkpt><trkpt lat="41.1630736" lon="14.3795021"><ele>39.0</ele><time>2026-05-03T08:11:15.981Z</time></trkpt><trkpt lat="41.1631056" lon="14.3794253"><ele>39.0</ele><time>2026-05-03T08:11:16.981Z</time></trkpt><trkpt lat="41.1631403" lon="14.3793495"><ele>39.0</ele><time>2026-05-03T08:11:17.981Z</time></trkpt><trkpt lat="41.163169" lon="14.3792686"><ele>39.0</ele><time>2026-05-03T08:11:18.981Z</time></trkpt><trkpt lat="41.1631999" lon="14.3791915"><ele>39.0</ele><time>2026-05-03T08:11:19.981Z</time></trkpt><trkpt lat="41.1632343" lon="14.3791129"><ele>39.0</ele><time>2026-05-03T08:11:20.981Z</time></trkpt><trkpt lat="41.1632655" lon="14.3790356"><ele>39.0</ele><time>2026-05-03T08:11:21.981Z</time></trkpt><trkpt lat="41.1632993" lon="14.3789615"><ele>39.0</ele><time>2026-05-03T08:11:22.981Z</time></trkpt><trkpt lat="41.1633336" lon="14.3788873"><ele>39.0</ele><time>2026-05-03T08:11:23.981Z</time></trkpt><trkpt lat="41.163372" lon="14.3788113"><ele>39.0</ele><time>2026-05-03T08:11:24.981Z</time></trkpt><trkpt lat="41.1634064" lon="14.3787322"><ele>39.0</ele><time>2026-05-03T08:11:25.981Z</time></trkpt><trkpt lat="41.1634414" lon="14.3786496"><ele>39.0</ele><time>2026-05-03T08:11:26.981Z</time></trkpt><trkpt lat="41.1634758" lon="14.3785657"><ele>39.0</ele><time>2026-05-03T08:11:27.981Z</time></trkpt><trkpt lat="41.1635086" lon="14.378483"><ele>39.0</ele><time>2026-05-03T08:11:28.981Z</time></trkpt><trkpt lat="41.1635424" lon="14.3783998"><ele>39.0</ele><time>2026-05-03T08:11:29.981Z</time></trkpt><trkpt lat="41.1635756" lon="14.3783171"><ele>39.0</ele><time>2026-05-03T08:11:30.981Z</time></trkpt><trkpt lat="41.1636054" lon="14.3782375"><ele>39.0</ele><time>2026-05-03T08:11:31.982Z</time></trkpt><trkpt lat="41.1636311" lon="14.3781594"><ele>39.0</ele><time>2026-05-03T08:11:32.981Z</time></trkpt><trkpt lat="41.1636497" lon="14.3780786"><ele>39.0</ele><time>2026-05-03T08:11:33.982Z</time></trkpt><trkpt lat="41.1636676" lon="14.3779962"><ele>39.0</ele><time>2026-05-03T08:11:34.981Z</time></trkpt><trkpt lat="41.1636788" lon="14.3779124"><ele>39.0</ele><time>2026-05-03T08:11:35.981Z</time></trkpt><trkpt lat="41.1636899" lon="14.3778247"><ele>39.0</ele><time>2026-05-03T08:11:36.981Z</time></trkpt><trkpt lat="41.1636994" lon="14.3777365"><ele>39.0</ele><time>2026-05-03T08:11:37.981Z</time></trkpt><trkpt lat="41.1637066" lon="14.3776433"><ele>39.0</ele><time>2026-05-03T08:11:38.981Z</time></trkpt><trkpt lat="41.1637094" lon="14.3775516"><ele>39.0</ele><time>2026-05-03T08:11:39.981Z</time></trkpt><trkpt lat="41.1637135" lon="14.3774595"><ele>39.0</ele><time>2026-05-03T08:11:40.981Z</time></trkpt><trkpt lat="41.1637154" lon="14.3773663"><ele>39.0</ele><time>2026-05-03T08:11:41.982Z</time></trkpt><trkpt lat="41.1637185" lon="14.3772712"><ele>39.0</ele><time>2026-05-03T08:11:42.981Z</time></trkpt><trkpt lat="41.1637214" lon="14.3771755"><ele>39.0</ele><time>2026-05-03T08:11:43.981Z</time></trkpt><trkpt lat="41.1637283" lon="14.3770765"><ele>39.0</ele><time>2026-05-03T08:11:44.981Z</time></trkpt><trkpt lat="41.1637298" lon="14.3769792"><ele>39.0</ele><time>2026-05-03T08:11:45.981Z</time></trkpt><trkpt lat="41.1637317" lon="14.3768821"><ele>39.0</ele><time>2026-05-03T08:11:46.981Z</time></trkpt><trkpt lat="41.1637337" lon="14.3767861"><ele>39.0</ele><time>2026-05-03T08:11:47.981Z</time></trkpt><trkpt lat="41.163737" lon="14.3766913"><ele>39.0</ele><time>2026-05-03T08:11:48.981Z</time></trkpt><trkpt lat="41.1637401" lon="14.3765963"><ele>39.0</ele><time>2026-05-03T08:11:49.982Z</time></trkpt><trkpt lat="41.163745" lon="14.3765019"><ele>39.0</ele><time>2026-05-03T08:11:50.981Z</time></trkpt><trkpt lat="41.1637525" lon="14.3764093"><ele>39.0</ele><time>2026-05-03T08:11:51.982Z</time></trkpt><trkpt lat="41.1637604" lon="14.3763202"><ele>39.0</ele><time>2026-05-03T08:11:52.981Z</time></trkpt><trkpt lat="41.16377" lon="14.3762346"><ele>39.4</ele><time>2026-05-03T08:11:53.981Z</time></trkpt><trkpt lat="41.1637842" lon="14.376149"><ele>39.8</ele><time>2026-05-03T08:11:54.982Z</time></trkpt><trkpt lat="41.1638106" lon="14.3759861"><ele>40.199999999999996</ele><time>2026-05-03T08:11:56.981Z</time></trkpt><trkpt lat="41.1638252" lon="14.3758254"><ele>40.599999999999994</ele><time>2026-05-03T08:11:58.981Z</time></trkpt><trkpt lat="41.1638444" lon="14.3756653"><ele>41.0</ele><time>2026-05-03T08:12:00.981Z</time></trkpt><trkpt lat="41.1638643" lon="14.3755092"><ele>41.0</ele><time>2026-05-03T08:12:02.981Z</time></trkpt><trkpt lat="41.1638827" lon="14.3753504"><ele>41.0</ele><time>2026-05-03T08:12:04.982Z</time></trkpt><trkpt lat="41.1639002" lon="14.3751951"><ele>41.0</ele><time>2026-05-03T08:12:06.981Z</time></trkpt><trkpt lat="41.1639145" lon="14.3750455"><ele>41.0</ele><time>2026-05-03T08:12:08.981Z</time></trkpt><trkpt lat="41.1639332" lon="14.3749014"><ele>41.0</ele><time>2026-05-03T08:12:10.981Z</time></trkpt><trkpt lat="41.1639465" lon="14.3747543"><ele>41.0</ele><time>2026-05-03T08:12:12.981Z</time></trkpt><trkpt lat="41.1639645" lon="14.374607"><ele>41.0</ele><time>2026-05-03T08:12:14.981Z</time></trkpt><trkpt lat="41.1639849" lon="14.3744587"><ele>41.0</ele><time>2026-05-03T08:12:16.981Z</time></trkpt><trkpt lat="41.1639988" lon="14.3743114"><ele>41.0</ele><time>2026-05-03T08:12:18.981Z</time></trkpt><trkpt lat="41.1640169" lon="14.3741583"><ele>41.0</ele><time>2026-05-03T08:12:20.982Z</time></trkpt><trkpt lat="41.1640361" lon="14.373996"><ele>41.0</ele><time>2026-05-03T08:12:22.981Z</time></trkpt><trkpt lat="41.1640407" lon="14.373912"><ele>41.0</ele><time>2026-05-03T08:12:23.982Z</time></trkpt><trkpt lat="41.1640402" lon="14.3738257"><ele>41.0</ele><time>2026-05-03T08:12:24.981Z</time></trkpt><trkpt lat="41.1640394" lon="14.3737382"><ele>41.0</ele><time>2026-05-03T08:12:25.981Z</time></trkpt><trkpt lat="41.1640386" lon="14.3736471"><ele>41.0</ele><time>2026-05-03T08:12:26.981Z</time></trkpt><trkpt lat="41.1640376" lon="14.3735547"><ele>41.0</ele><time>2026-05-03T08:12:27.981Z</time></trkpt><trkpt lat="41.1640361" lon="14.3734609"><ele>41.0</ele><time>2026-05-03T08:12:28.981Z</time></trkpt><trkpt lat="41.1640352" lon="14.3733623"><ele>41.0</ele><time>2026-05-03T08:12:29.982Z</time></trkpt><trkpt lat="41.1640312" lon="14.3732612"><ele>41.0</ele><time>2026-05-03T08:12:30.981Z</time></trkpt><trkpt lat="41.1640269" lon="14.3731526"><ele>41.0</ele><time>2026-05-03T08:12:31.981Z</time></trkpt><trkpt lat="41.1640252" lon="14.3730448"><ele>41.0</ele><time>2026-05-03T08:12:32.981Z</time></trkpt><trkpt lat="41.1640301" lon="14.3729331"><ele>40.4</ele><time>2026-05-03T08:12:33.982Z</time></trkpt><trkpt lat="41.1640289" lon="14.3728202"><ele>39.8</ele><time>2026-05-03T08:12:34.981Z</time></trkpt><trkpt lat="41.1640263" lon="14.3726995"><ele>39.199999999999996</ele><time>2026-05-03T08:12:35.981Z</time></trkpt><trkpt lat="41.1640268" lon="14.3725783"><ele>38.599999999999994</ele><time>2026-05-03T08:12:36.982Z</time></trkpt><trkpt lat="41.1640273" lon="14.3724557"><ele>38.0</ele><time>2026-05-03T08:12:37.982Z</time></trkpt><trkpt lat="41.1640262" lon="14.3723296"><ele>38.0</ele><time>2026-05-03T08:12:38.981Z</time></trkpt><trkpt lat="41.1640224" lon="14.3722015"><ele>38.0</ele><time>2026-05-03T08:12:39.981Z</time></trkpt><trkpt lat="41.1640199" lon="14.3720707"><ele>38.0</ele><time>2026-05-03T08:12:40.982Z</time></trkpt><trkpt lat="41.1640185" lon="14.37194"><ele>38.0</ele><time>2026-05-03T08:12:41.981Z</time></trkpt><trkpt lat="41.1640168" lon="14.3718083"><ele>38.0</ele><time>2026-05-03T08:12:42.982Z</time></trkpt><trkpt lat="41.1640141" lon="14.371678"><ele>37.4</ele><time>2026-05-03T08:12:43.981Z</time></trkpt><trkpt lat="41.1640093" lon="14.3715464"><ele>36.8</ele><time>2026-05-03T08:12:44.982Z</time></trkpt><trkpt lat="41.1640057" lon="14.3714182"><ele>36.2</ele><time>2026-05-03T08:12:45.981Z</time></trkpt><trkpt lat="41.164004" lon="14.3712886"><ele>35.6</ele><time>2026-05-03T08:12:46.982Z</time></trkpt><trkpt lat="41.1640014" lon="14.3711649"><ele>35.0</ele><time>2026-05-03T08:12:47.981Z</time></trkpt><trkpt lat="41.1640034" lon="14.3710469"><ele>34.83333333333333</ele><time>2026-05-03T08:12:48.981Z</time></trkpt><trkpt lat="41.1640035" lon="14.3709417"><ele>34.666666666666664</ele><time>2026-05-03T08:12:49.981Z</time></trkpt><trkpt lat="41.1640032" lon="14.3708419"><ele>34.5</ele><time>2026-05-03T08:12:50.981Z</time></trkpt><trkpt lat="41.1640014" lon="14.3707491"><ele>34.333333333333336</ele><time>2026-05-03T08:12:51.981Z</time></trkpt><trkpt lat="41.1639974" lon="14.3706636"><ele>34.16666666666667</ele><time>2026-05-03T08:12:52.981Z</time></trkpt><trkpt lat="41.1639962" lon="14.3705797"><ele>34.0</ele><time>2026-05-03T08:12:53.981Z</time></trkpt><trkpt lat="41.1639947" lon="14.3704238"><ele>34.6</ele><time>2026-05-03T08:12:55.981Z</time></trkpt><trkpt lat="41.1639952" lon="14.3702784"><ele>35.2</ele><time>2026-05-03T08:12:57.981Z</time></trkpt><trkpt lat="41.163992" lon="14.3701407"><ele>35.800000000000004</ele><time>2026-05-03T08:12:59.981Z</time></trkpt><trkpt lat="41.1640002" lon="14.3700062"><ele>36.4</ele><time>2026-05-03T08:13:01.982Z</time></trkpt><trkpt lat="41.1639948" lon="14.3698691"><ele>37.0</ele><time>2026-05-03T08:13:03.982Z</time></trkpt><trkpt lat="41.1640006" lon="14.3697325"><ele>37.6</ele><time>2026-05-03T08:13:05.981Z</time></trkpt><trkpt lat="41.1640122" lon="14.3696023"><ele>38.2</ele><time>2026-05-03T08:13:07.981Z</time></trkpt><trkpt lat="41.1640234" lon="14.3694695"><ele>38.8</ele><time>2026-05-03T08:13:09.981Z</time></trkpt><trkpt lat="41.1640339" lon="14.3693423"><ele>39.4</ele><time>2026-05-03T08:13:11.981Z</time></trkpt><trkpt lat="41.1640396" lon="14.3692123"><ele>40.0</ele><time>2026-05-03T08:13:13.981Z</time></trkpt><trkpt lat="41.1640581" lon="14.3690821"><ele>40.0</ele><time>2026-05-03T08:13:15.982Z</time></trkpt><trkpt lat="41.164068" lon="14.3689526"><ele>40.0</ele><time>2026-05-03T08:13:17.981Z</time></trkpt><trkpt lat="41.1640758" lon="14.3688269"><ele>40.0</ele><time>2026-05-03T08:13:19.981Z</time></trkpt><trkpt lat="41.1640918" lon="14.3687045"><ele>40.0</ele><time>2026-05-03T08:13:21.981Z</time></trkpt><trkpt lat="41.1641038" lon="14.3685699"><ele>40.0</ele><time>2026-05-03T08:13:23.981Z</time></trkpt><trkpt lat="41.1641219" lon="14.3684339"><ele>40.0</ele><time>2026-05-03T08:13:25.981Z</time></trkpt><trkpt lat="41.1641372" lon="14.3682936"><ele>40.0</ele><time>2026-05-03T08:13:27.981Z</time></trkpt><trkpt lat="41.1641629" lon="14.3681527"><ele>40.0</ele><time>2026-05-03T08:13:29.981Z</time></trkpt><trkpt lat="41.1641819" lon="14.3680005"><ele>40.0</ele><time>2026-05-03T08:13:31.981Z</time></trkpt><trkpt lat="41.1641988" lon="14.3678434"><ele>39.75</ele><time>2026-05-03T08:13:33.981Z</time></trkpt><trkpt lat="41.1642176" lon="14.3676856"><ele>39.5</ele><time>2026-05-03T08:13:35.981Z</time></trkpt><trkpt lat="41.1642333" lon="14.3675217"><ele>39.25</ele><time>2026-05-03T08:13:37.981Z</time></trkpt><trkpt lat="41.1642511" lon="14.3673565"><ele>39.0</ele><time>2026-05-03T08:13:39.982Z</time></trkpt><trkpt lat="41.1642747" lon="14.3672004"><ele>39.2</ele><time>2026-05-03T08:13:41.981Z</time></trkpt><trkpt lat="41.164289" lon="14.3670487"><ele>39.4</ele><time>2026-05-03T08:13:43.981Z</time></trkpt><trkpt lat="41.1643177" lon="14.3668979"><ele>39.6</ele><time>2026-05-03T08:13:45.981Z</time></trkpt><trkpt lat="41.1643348" lon="14.3668167"><ele>39.8</ele><time>2026-05-03T08:13:46.982Z</time></trkpt><trkpt lat="41.1643591" lon="14.3666537"><ele>40.0</ele><time>2026-05-03T08:13:48.981Z</time></trkpt><trkpt lat="41.1643818" lon="14.3664917"><ele>39.5</ele><time>2026-05-03T08:13:50.981Z</time></trkpt><trkpt lat="41.1644065" lon="14.3663317"><ele>39.0</ele><time>2026-05-03T08:13:52.981Z</time></trkpt><trkpt lat="41.164428" lon="14.3661692"><ele>38.5</ele><time>2026-05-03T08:13:54.981Z</time></trkpt><trkpt lat="41.164451" lon="14.3660117"><ele>38.0</ele><time>2026-05-03T08:13:56.981Z</time></trkpt><trkpt lat="41.1644652" lon="14.3658606"><ele>38.0</ele><time>2026-05-03T08:13:58.981Z</time></trkpt><trkpt lat="41.1644863" lon="14.3657186"><ele>38.0</ele><time>2026-05-03T08:14:00.981Z</time></trkpt><trkpt lat="41.1645051" lon="14.3655803"><ele>38.0</ele><time>2026-05-03T08:14:02.981Z</time></trkpt><trkpt lat="41.1645264" lon="14.3654359"><ele>38.0</ele><time>2026-05-03T08:14:04.981Z</time></trkpt><trkpt lat="41.1645501" lon="14.3652934"><ele>38.0</ele><time>2026-05-03T08:14:06.982Z</time></trkpt><trkpt lat="41.164569" lon="14.3651543"><ele>38.199999999999996</ele><time>2026-05-03T08:14:08.982Z</time></trkpt><trkpt lat="41.1645899" lon="14.36501"><ele>38.4</ele><time>2026-05-03T08:14:10.981Z</time></trkpt><trkpt lat="41.1646084" lon="14.3648651"><ele>38.599999999999994</ele><time>2026-05-03T08:14:12.981Z</time></trkpt><trkpt lat="41.1646269" lon="14.3647212"><ele>38.8</ele><time>2026-05-03T08:14:14.981Z</time></trkpt><trkpt lat="41.1646474" lon="14.3645728"><ele>39.0</ele><time>2026-05-03T08:14:16.981Z</time></trkpt><trkpt lat="41.1646649" lon="14.3644196"><ele>39.2</ele><time>2026-05-03T08:14:18.981Z</time></trkpt><trkpt lat="41.1646887" lon="14.3642772"><ele>39.4</ele><time>2026-05-03T08:14:20.981Z</time></trkpt><trkpt lat="41.1647098" lon="14.3641379"><ele>39.6</ele><time>2026-05-03T08:14:22.982Z</time></trkpt><trkpt lat="41.1647306" lon="14.3639952"><ele>39.8</ele><time>2026-05-03T08:14:24.981Z</time></trkpt><trkpt lat="41.1647453" lon="14.3638536"><ele>40.0</ele><time>2026-05-03T08:14:26.981Z</time></trkpt><trkpt lat="41.1647616" lon="14.3637102"><ele>40.0</ele><time>2026-05-03T08:14:28.981Z</time></trkpt><trkpt lat="41.1647773" lon="14.3635681"><ele>40.0</ele><time>2026-05-03T08:14:30.981Z</time></trkpt><trkpt lat="41.1647955" lon="14.3634397"><ele>40.0</ele><time>2026-05-03T08:14:32.981Z</time></trkpt><trkpt lat="41.1648074" lon="14.3633104"><ele>40.0</ele><time>2026-05-03T08:14:34.981Z</time></trkpt><trkpt lat="41.1648102" lon="14.3631691"><ele>40.0</ele><time>2026-05-03T08:14:36.981Z</time></trkpt><trkpt lat="41.1648014" lon="14.3630205"><ele>39.75</ele><time>2026-05-03T08:14:38.982Z</time></trkpt><trkpt lat="41.1647928" lon="14.3628646"><ele>39.5</ele><time>2026-05-03T08:14:40.981Z</time></trkpt><trkpt lat="41.1647732" lon="14.3627047"><ele>39.25</ele><time>2026-05-03T08:14:42.982Z</time></trkpt><trkpt lat="41.164755" lon="14.3625482"><ele>39.0</ele><time>2026-05-03T08:14:44.982Z</time></trkpt><trkpt lat="41.1647232" lon="14.362392"><ele>39.0</ele><time>2026-05-03T08:14:46.982Z</time></trkpt><trkpt lat="41.1646836" lon="14.3622418"><ele>39.0</ele><time>2026-05-03T08:14:48.981Z</time></trkpt><trkpt lat="41.1646308" lon="14.3620955"><ele>39.0</ele><time>2026-05-03T08:14:50.981Z</time></trkpt><trkpt lat="41.1645728" lon="14.3619543"><ele>39.0</ele><time>2026-05-03T08:14:52.982Z</time></trkpt><trkpt lat="41.1645087" lon="14.3618165"><ele>39.0</ele><time>2026-05-03T08:14:54.981Z</time></trkpt><trkpt lat="41.1644448" lon="14.361679"><ele>39.0</ele><time>2026-05-03T08:14:56.981Z</time></trkpt><trkpt lat="41.164378" lon="14.3615395"><ele>39.0</ele><time>2026-05-03T08:14:58.981Z</time></trkpt><trkpt lat="41.1643186" lon="14.3613967"><ele>39.0</ele><time>2026-05-03T08:15:00.982Z</time></trkpt><trkpt lat="41.1642554" lon="14.3612504"><ele>39.0</ele><time>2026-05-03T08:15:02.982Z</time></trkpt><trkpt lat="41.1642236" lon="14.3611715"><ele>39.0</ele><time>2026-05-03T08:15:03.981Z</time></trkpt><trkpt lat="41.1641867" lon="14.3610929"><ele>39.0</ele><time>2026-05-03T08:15:04.982Z</time></trkpt><trkpt lat="41.1641498" lon="14.3610104"><ele>39.0</ele><time>2026-05-03T08:15:05.982Z</time></trkpt><trkpt lat="41.1641122" lon="14.3609281"><ele>39.0</ele><time>2026-05-03T08:15:06.981Z</time></trkpt><trkpt lat="41.1640714" lon="14.3608457"><ele>39.0</ele><time>2026-05-03T08:15:07.981Z</time></trkpt><trkpt lat="41.1640349" lon="14.3607586"><ele>39.0</ele><time>2026-05-03T08:15:08.981Z</time></trkpt><trkpt lat="41.1639996" lon="14.3606711"><ele>38.666666666666664</ele><time>2026-05-03T08:15:09.982Z</time></trkpt><trkpt lat="41.1639633" lon="14.3605851"><ele>38.333333333333336</ele><time>2026-05-03T08:15:10.981Z</time></trkpt><trkpt lat="41.1639259" lon="14.3604954"><ele>38.0</ele><time>2026-05-03T08:15:11.982Z</time></trkpt><trkpt lat="41.163886" lon="14.360405"><ele>37.66666666666667</ele><time>2026-05-03T08:15:12.981Z</time></trkpt><trkpt lat="41.1638504" lon="14.3603122"><ele>37.333333333333336</ele><time>2026-05-03T08:15:13.981Z</time></trkpt><trkpt lat="41.1638081" lon="14.3602227"><ele>37.0</ele><time>2026-05-03T08:15:14.981Z</time></trkpt><trkpt lat="41.1637681" lon="14.3601315"><ele>37.0</ele><time>2026-05-03T08:15:15.981Z</time></trkpt><trkpt lat="41.1637227" lon="14.3600422"><ele>37.0</ele><time>2026-05-03T08:15:16.981Z</time></trkpt><trkpt lat="41.1636802" lon="14.3599521"><ele>37.0</ele><time>2026-05-03T08:15:17.982Z</time></trkpt><trkpt lat="41.1636407" lon="14.3598555"><ele>37.0</ele><time>2026-05-03T08:15:18.981Z</time></trkpt><trkpt lat="41.1636" lon="14.3597567"><ele>37.0</ele><time>2026-05-03T08:15:19.981Z</time></trkpt><trkpt lat="41.1635588" lon="14.3596535"><ele>37.0</ele><time>2026-05-03T08:15:20.981Z</time></trkpt><trkpt lat="41.1635128" lon="14.3595531"><ele>37.4</ele><time>2026-05-03T08:15:21.982Z</time></trkpt><trkpt lat="41.1634687" lon="14.3594517"><ele>37.800000000000004</ele><time>2026-05-03T08:15:22.982Z</time></trkpt><trkpt lat="41.1634255" lon="14.3593455"><ele>38.2</ele><time>2026-05-03T08:15:23.981Z</time></trkpt><trkpt lat="41.1633815" lon="14.3592407"><ele>38.6</ele><time>2026-05-03T08:15:24.981Z</time></trkpt><trkpt lat="41.1633351" lon="14.3591353"><ele>39.0</ele><time>2026-05-03T08:15:25.981Z</time></trkpt><trkpt lat="41.1632871" lon="14.3590307"><ele>39.0</ele><time>2026-05-03T08:15:26.981Z</time></trkpt><trkpt lat="41.163237" lon="14.3589286"><ele>39.0</ele><time>2026-05-03T08:15:27.981Z</time></trkpt><trkpt lat="41.1631902" lon="14.3588223"><ele>39.0</ele><time>2026-05-03T08:15:28.982Z</time></trkpt><trkpt lat="41.163138" lon="14.3587176"><ele>39.0</ele><time>2026-05-03T08:15:29.981Z</time></trkpt><trkpt lat="41.1630866" lon="14.3586124"><ele>39.0</ele><time>2026-05-03T08:15:30.982Z</time></trkpt><trkpt lat="41.1630397" lon="14.3585075"><ele>38.6</ele><time>2026-05-03T08:15:31.981Z</time></trkpt><trkpt lat="41.1629927" lon="14.3584024"><ele>38.2</ele><time>2026-05-03T08:15:32.981Z</time></trkpt><trkpt lat="41.1629431" lon="14.3582989"><ele>37.800000000000004</ele><time>2026-05-03T08:15:33.981Z</time></trkpt><trkpt lat="41.1628975" lon="14.3581981"><ele>37.4</ele><time>2026-05-03T08:15:34.981Z</time></trkpt><trkpt lat="41.1628528" lon="14.3580935"><ele>37.0</ele><time>2026-05-03T08:15:35.981Z</time></trkpt><trkpt lat="41.162806" lon="14.3579927"><ele>37.0</ele><time>2026-05-03T08:15:36.981Z</time></trkpt><trkpt lat="41.1627597" lon="14.3578909"><ele>37.0</ele><time>2026-05-03T08:15:37.981Z</time></trkpt><trkpt lat="41.1627179" lon="14.357787"><ele>37.0</ele><time>2026-05-03T08:15:38.981Z</time></trkpt><trkpt lat="41.162669" lon="14.3576876"><ele>37.0</ele><time>2026-05-03T08:15:39.982Z</time></trkpt><trkpt lat="41.1626192" lon="14.3575896"><ele>37.0</ele><time>2026-05-03T08:15:40.981Z</time></trkpt><trkpt lat="41.1625696" lon="14.3574945"><ele>37.0</ele><time>2026-05-03T08:15:41.981Z</time></trkpt><trkpt lat="41.1625145" lon="14.3574064"><ele>37.0</ele><time>2026-05-03T08:15:42.981Z</time></trkpt><trkpt lat="41.1624527" lon="14.3573247"><ele>37.0</ele><time>2026-05-03T08:15:43.981Z</time></trkpt><trkpt lat="41.1623864" lon="14.3572461"><ele>37.0</ele><time>2026-05-03T08:15:44.981Z</time></trkpt><trkpt lat="41.1623093" lon="14.3571739"><ele>37.0</ele><time>2026-05-03T08:15:45.981Z</time></trkpt><trkpt lat="41.1622378" lon="14.3571001"><ele>37.0</ele><time>2026-05-03T08:15:46.982Z</time></trkpt><trkpt lat="41.1621629" lon="14.3570309"><ele>37.0</ele><time>2026-05-03T08:15:47.981Z</time></trkpt><trkpt lat="41.1620848" lon="14.3569691"><ele>37.0</ele><time>2026-05-03T08:15:48.981Z</time></trkpt><trkpt lat="41.1620022" lon="14.3569179"><ele>37.0</ele><time>2026-05-03T08:15:49.981Z</time></trkpt><trkpt lat="41.1619181" lon="14.3568748"><ele>37.0</ele><time>2026-05-03T08:15:50.982Z</time></trkpt><trkpt lat="41.1618317" lon="14.3568388"><ele>37.0</ele><time>2026-05-03T08:15:51.981Z</time></trkpt><trkpt lat="41.1617464" lon="14.3568003"><ele>37.0</ele><time>2026-05-03T08:15:52.982Z</time></trkpt><trkpt lat="41.1616609" lon="14.3567628"><ele>37.0</ele><time>2026-05-03T08:15:53.981Z</time></trkpt><trkpt lat="41.1615771" lon="14.3567282"><ele>37.0</ele><time>2026-05-03T08:15:54.981Z</time></trkpt><trkpt lat="41.1614909" lon="14.3566969"><ele>37.0</ele><time>2026-05-03T08:15:55.981Z</time></trkpt><trkpt lat="41.161403" lon="14.3566668"><ele>37.0</ele><time>2026-05-03T08:15:56.982Z</time></trkpt><trkpt lat="41.161318" lon="14.3566345"><ele>37.0</ele><time>2026-05-03T08:15:57.981Z</time></trkpt><trkpt lat="41.1612361" lon="14.3566014"><ele>36.66666666666667</ele><time>2026-05-03T08:15:58.982Z</time></trkpt><trkpt lat="41.1611531" lon="14.3565709"><ele>36.333333333333336</ele><time>2026-05-03T08:15:59.981Z</time></trkpt><trkpt lat="41.1610721" lon="14.3565369"><ele>36.0</ele><time>2026-05-03T08:16:00.981Z</time></trkpt><trkpt lat="41.1609884" lon="14.3565028"><ele>35.666666666666664</ele><time>2026-05-03T08:16:01.981Z</time></trkpt><trkpt lat="41.160903" lon="14.3564691"><ele>35.33333333333333</ele><time>2026-05-03T08:16:02.981Z</time></trkpt><trkpt lat="41.1608178" lon="14.3564339"><ele>35.0</ele><time>2026-05-03T08:16:03.982Z</time></trkpt><trkpt lat="41.1607298" lon="14.3564028"><ele>34.8</ele><time>2026-05-03T08:16:04.981Z</time></trkpt><trkpt lat="41.1606423" lon="14.3563679"><ele>34.6</ele><time>2026-05-03T08:16:05.981Z</time></trkpt><trkpt lat="41.1605557" lon="14.3563348"><ele>34.4</ele><time>2026-05-03T08:16:06.981Z</time></trkpt><trkpt lat="41.1604679" lon="14.3562978"><ele>34.2</ele><time>2026-05-03T08:16:07.981Z</time></trkpt><trkpt lat="41.1603796" lon="14.3562655"><ele>34.0</ele><time>2026-05-03T08:16:08.981Z</time></trkpt><trkpt lat="41.1602872" lon="14.3562355"><ele>34.0</ele><time>2026-05-03T08:16:09.982Z</time></trkpt><trkpt lat="41.1601961" lon="14.3562065"><ele>34.0</ele><time>2026-05-03T08:16:10.982Z</time></trkpt><trkpt lat="41.160104" lon="14.3561749"><ele>34.0</ele><time>2026-05-03T08:16:11.981Z</time></trkpt><trkpt lat="41.1600186" lon="14.3561428"><ele>34.0</ele><time>2026-05-03T08:16:12.981Z</time></trkpt><trkpt lat="41.1599323" lon="14.3561139"><ele>34.0</ele><time>2026-05-03T08:16:13.982Z</time></trkpt><trkpt lat="41.15985" lon="14.3560782"><ele>34.0</ele><time>2026-05-03T08:16:14.981Z</time></trkpt><trkpt lat="41.1597673" lon="14.3560404"><ele>34.0</ele><time>2026-05-03T08:16:15.981Z</time></trkpt><trkpt lat="41.1596854" lon="14.3560131"><ele>34.0</ele><time>2026-05-03T08:16:16.981Z</time></trkpt><trkpt lat="41.1596048" lon="14.3559831"><ele>34.0</ele><time>2026-05-03T08:16:17.981Z</time></trkpt><trkpt lat="41.1595236" lon="14.3559546"><ele>34.0</ele><time>2026-05-03T08:16:18.981Z</time></trkpt><trkpt lat="41.1594438" lon="14.3559273"><ele>34.0</ele><time>2026-05-03T08:16:19.981Z</time></trkpt><trkpt lat="41.1593653" lon="14.3558986"><ele>33.99999999999999</ele><time>2026-05-03T08:16:20.981Z</time></trkpt><trkpt lat="41.1592915" lon="14.3558671"><ele>34.0</ele><time>2026-05-03T08:16:21.981Z</time></trkpt><trkpt lat="41.1592182" lon="14.3558396"><ele>34.0</ele><time>2026-05-03T08:16:22.981Z</time></trkpt><trkpt lat="41.1591481" lon="14.3558141"><ele>34.0</ele><time>2026-05-03T08:16:23.981Z</time></trkpt><trkpt lat="41.1590824" lon="14.3557856"><ele>34.0</ele><time>2026-05-03T08:16:24.981Z</time></trkpt><trkpt lat="41.1590141" lon="14.3557553"><ele>33.99999999999999</ele><time>2026-05-03T08:16:25.981Z</time></trkpt><trkpt lat="41.1589487" lon="14.3557267"><ele>34.0</ele><time>2026-05-03T08:16:26.981Z</time></trkpt><trkpt lat="41.1588817" lon="14.3557036"><ele>33.99999999999999</ele><time>2026-05-03T08:16:27.981Z</time></trkpt><trkpt lat="41.1588164" lon="14.3556764"><ele>34.0</ele><time>2026-05-03T08:16:28.981Z</time></trkpt><trkpt lat="41.1587502" lon="14.3556448"><ele>34.0</ele><time>2026-05-03T08:16:29.982Z</time></trkpt><trkpt lat="41.1586847" lon="14.3556136"><ele>34.0</ele><time>2026-05-03T08:16:30.981Z</time></trkpt><trkpt lat="41.1586178" lon="14.355584"><ele>34.0</ele><time>2026-05-03T08:16:31.981Z</time></trkpt><trkpt lat="41.1585492" lon="14.3555556"><ele>33.99999999999999</ele><time>2026-05-03T08:16:32.981Z</time></trkpt><trkpt lat="41.1584838" lon="14.3555213"><ele>34.0</ele><time>2026-05-03T08:16:33.982Z</time></trkpt><trkpt lat="41.1584196" lon="14.3554833"><ele>34.57142857142857</ele><time>2026-05-03T08:16:34.981Z</time></trkpt><trkpt lat="41.1583566" lon="14.3554444"><ele>35.14285714285714</ele><time>2026-05-03T08:16:35.981Z</time></trkpt><trkpt lat="41.1582921" lon="14.3554068"><ele>35.71428571428571</ele><time>2026-05-03T08:16:36.981Z</time></trkpt><trkpt lat="41.1582286" lon="14.3553672"><ele>36.285714285714285</ele><time>2026-05-03T08:16:37.981Z</time></trkpt><trkpt lat="41.1581664" lon="14.3553197"><ele>36.85714285714286</ele><time>2026-05-03T08:16:38.981Z</time></trkpt><trkpt lat="41.1581088" lon="14.3552701"><ele>37.42857142857142</ele><time>2026-05-03T08:16:39.982Z</time></trkpt><trkpt lat="41.158049" lon="14.355224"><ele>38.0</ele><time>2026-05-03T08:16:40.982Z</time></trkpt><trkpt lat="41.1579895" lon="14.3551762"><ele>38.0</ele><time>2026-05-03T08:16:41.981Z</time></trkpt><trkpt lat="41.1579277" lon="14.3551301"><ele>38.0</ele><time>2026-05-03T08:16:42.982Z</time></trkpt><trkpt lat="41.1578668" lon="14.3550822"><ele>38.0</ele><time>2026-05-03T08:16:43.981Z</time></trkpt><trkpt lat="41.1578072" lon="14.3550342"><ele>38.0</ele><time>2026-05-03T08:16:44.982Z</time></trkpt><trkpt lat="41.157747" lon="14.3549838"><ele>38.0</ele><time>2026-05-03T08:16:45.981Z</time></trkpt><trkpt lat="41.1576867" lon="14.3549367"><ele>38.0</ele><time>2026-05-03T08:16:46.981Z</time></trkpt><trkpt lat="41.1576252" lon="14.3548844"><ele>38.0</ele><time>2026-05-03T08:16:47.982Z</time></trkpt><trkpt lat="41.1575675" lon="14.3548366"><ele>38.0</ele><time>2026-05-03T08:16:48.981Z</time></trkpt><trkpt lat="41.1575074" lon="14.3547873"><ele>38.0</ele><time>2026-05-03T08:16:49.981Z</time></trkpt><trkpt lat="41.1574498" lon="14.3547387"><ele>38.0</ele><time>2026-05-03T08:16:50.981Z</time></trkpt><trkpt lat="41.157391" lon="14.354686"><ele>38.0</ele><time>2026-05-03T08:16:51.981Z</time></trkpt><trkpt lat="41.1573307" lon="14.3546381"><ele>38.0</ele><time>2026-05-03T08:16:52.981Z</time></trkpt><trkpt lat="41.1572668" lon="14.3545909"><ele>38.0</ele><time>2026-05-03T08:16:53.981Z</time></trkpt><trkpt lat="41.1572027" lon="14.3545418"><ele>38.0</ele><time>2026-05-03T08:16:54.982Z</time></trkpt><trkpt lat="41.1571373" lon="14.354491"><ele>37.5</ele><time>2026-05-03T08:16:55.981Z</time></trkpt><trkpt lat="41.157074" lon="14.3544354"><ele>37.0</ele><time>2026-05-03T08:16:56.981Z</time></trkpt><trkpt lat="41.157009" lon="14.3543849"><ele>36.5</ele><time>2026-05-03T08:16:57.981Z</time></trkpt><trkpt lat="41.1569441" lon="14.3543346"><ele>36.0</ele><time>2026-05-03T08:16:58.981Z</time></trkpt><trkpt lat="41.1568823" lon="14.3542806"><ele>35.5</ele><time>2026-05-03T08:16:59.981Z</time></trkpt><trkpt lat="41.1568169" lon="14.3542302"><ele>35.0</ele><time>2026-05-03T08:17:00.981Z</time></trkpt><trkpt lat="41.156756" lon="14.3541753"><ele>35.0</ele><time>2026-05-03T08:17:01.981Z</time></trkpt><trkpt lat="41.1566933" lon="14.3541195"><ele>35.0</ele><time>2026-05-03T08:17:02.981Z</time></trkpt><trkpt lat="41.1566347" lon="14.3540589"><ele>35.0</ele><time>2026-05-03T08:17:03.981Z</time></trkpt><trkpt lat="41.1565764" lon="14.3539917"><ele>35.0</ele><time>2026-05-03T08:17:04.982Z</time></trkpt><trkpt lat="41.156521" lon="14.3539233"><ele>35.0</ele><time>2026-05-03T08:17:05.981Z</time></trkpt><trkpt lat="41.1564683" lon="14.3538515"><ele>35.0</ele><time>2026-05-03T08:17:06.982Z</time></trkpt><trkpt lat="41.1564185" lon="14.3537768"><ele>35.166666666666664</ele><time>2026-05-03T08:17:07.981Z</time></trkpt><trkpt lat="41.1563681" lon="14.3537011"><ele>35.33333333333333</ele><time>2026-05-03T08:17:08.982Z</time></trkpt><trkpt lat="41.1563167" lon="14.3536289"><ele>35.5</ele><time>2026-05-03T08:17:09.981Z</time></trkpt><trkpt lat="41.1562644" lon="14.3535544"><ele>35.666666666666664</ele><time>2026-05-03T08:17:10.981Z</time></trkpt><trkpt lat="41.1562171" lon="14.3534786"><ele>35.833333333333336</ele><time>2026-05-03T08:17:11.981Z</time></trkpt><trkpt lat="41.156172" lon="14.3534003"><ele>36.0</ele><time>2026-05-03T08:17:12.981Z</time></trkpt><trkpt lat="41.1561217" lon="14.3533257"><ele>36.00000000000001</ele><time>2026-05-03T08:17:13.981Z</time></trkpt><trkpt lat="41.1560698" lon="14.3532527"><ele>36.0</ele><time>2026-05-03T08:17:14.981Z</time></trkpt><trkpt lat="41.1560196" lon="14.3531789"><ele>36.0</ele><time>2026-05-03T08:17:15.981Z</time></trkpt><trkpt lat="41.1559699" lon="14.3531069"><ele>36.0</ele><time>2026-05-03T08:17:16.982Z</time></trkpt><trkpt lat="41.155923" lon="14.3530342"><ele>36.0</ele><time>2026-05-03T08:17:17.982Z</time></trkpt><trkpt lat="41.1558751" lon="14.3529624"><ele>36.00000000000001</ele><time>2026-05-03T08:17:18.981Z</time></trkpt><trkpt lat="41.1558298" lon="14.3528939"><ele>36.0</ele><time>2026-05-03T08:17:19.982Z</time></trkpt><trkpt lat="41.1557855" lon="14.3528266"><ele>35.714285714285715</ele><time>2026-05-03T08:17:20.981Z</time></trkpt><trkpt lat="41.1557418" lon="14.3527586"><ele>35.42857142857143</ele><time>2026-05-03T08:17:21.981Z</time></trkpt><trkpt lat="41.1556971" lon="14.3526899"><ele>35.14285714285714</ele><time>2026-05-03T08:17:22.981Z</time></trkpt><trkpt lat="41.1556528" lon="14.3526205"><ele>34.85714285714286</ele><time>2026-05-03T08:17:23.981Z</time></trkpt><trkpt lat="41.1556082" lon="14.3525511"><ele>34.57142857142857</ele><time>2026-05-03T08:17:24.982Z</time></trkpt><trkpt lat="41.1555621" lon="14.3524801"><ele>34.285714285714285</ele><time>2026-05-03T08:17:25.981Z</time></trkpt><trkpt lat="41.1555185" lon="14.3524044"><ele>34.0</ele><time>2026-05-03T08:17:26.981Z</time></trkpt><trkpt lat="41.1554703" lon="14.352331"><ele>34.0</ele><time>2026-05-03T08:17:27.981Z</time></trkpt><trkpt lat="41.1554202" lon="14.3522583"><ele>34.0</ele><time>2026-05-03T08:17:28.981Z</time></trkpt><trkpt lat="41.1553722" lon="14.3521806"><ele>34.0</ele><time>2026-05-03T08:17:29.981Z</time></trkpt><trkpt lat="41.1553225" lon="14.3521031"><ele>34.0</ele><time>2026-05-03T08:17:30.981Z</time></trkpt><trkpt lat="41.1552701" lon="14.3520237"><ele>34.0</ele><time>2026-05-03T08:17:31.981Z</time></trkpt><trkpt lat="41.1552171" lon="14.3519436"><ele>34.0</ele><time>2026-05-03T08:17:32.981Z</time></trkpt><trkpt lat="41.1551669" lon="14.3518646"><ele>34.16666666666667</ele><time>2026-05-03T08:17:33.982Z</time></trkpt><trkpt lat="41.1551143" lon="14.3517871"><ele>34.333333333333336</ele><time>2026-05-03T08:17:34.981Z</time></trkpt><trkpt lat="41.1550633" lon="14.3517076"><ele>34.5</ele><time>2026-05-03T08:17:35.982Z</time></trkpt><trkpt lat="41.1550157" lon="14.3516291"><ele>34.666666666666664</ele><time>2026-05-03T08:17:36.982Z</time></trkpt><trkpt lat="41.1549628" lon="14.3515556"><ele>34.83333333333333</ele><time>2026-05-03T08:17:37.981Z</time></trkpt><trkpt lat="41.1549084" lon="14.3514808"><ele>35.0</ele><time>2026-05-03T08:17:38.981Z</time></trkpt><trkpt lat="41.1548526" lon="14.3514065"><ele>34.5</ele><time>2026-05-03T08:17:39.981Z</time></trkpt><trkpt lat="41.1547948" lon="14.3513363"><ele>34.0</ele><time>2026-05-03T08:17:40.981Z</time></trkpt><trkpt lat="41.1547385" lon="14.3512619"><ele>33.5</ele><time>2026-05-03T08:17:41.981Z</time></trkpt><trkpt lat="41.1546819" lon="14.3511891"><ele>33.0</ele><time>2026-05-03T08:17:42.982Z</time></trkpt><trkpt lat="41.154624" lon="14.3511164"><ele>32.5</ele><time>2026-05-03T08:17:43.981Z</time></trkpt><trkpt lat="41.1545688" lon="14.3510436"><ele>32.0</ele><time>2026-05-03T08:17:44.982Z</time></trkpt><trkpt lat="41.1545103" lon="14.3509717"><ele>31.999999999999996</ele><time>2026-05-03T08:17:45.982Z</time></trkpt><trkpt lat="41.1544538" lon="14.3509012"><ele>32.0</ele><time>2026-05-03T08:17:46.981Z</time></trkpt><trkpt lat="41.1543998" lon="14.3508257"><ele>32.0</ele><time>2026-05-03T08:17:47.981Z</time></trkpt><trkpt lat="41.154343" lon="14.3507522"><ele>32.0</ele><time>2026-05-03T08:17:48.982Z</time></trkpt><trkpt lat="41.1542837" lon="14.3506781"><ele>31.999999999999996</ele><time>2026-05-03T08:17:49.982Z</time></trkpt><trkpt lat="41.1542248" lon="14.3506058"><ele>32.0</ele><time>2026-05-03T08:17:50.981Z</time></trkpt><trkpt lat="41.154168" lon="14.3505363"><ele>32.14285714285714</ele><time>2026-05-03T08:17:51.982Z</time></trkpt><trkpt lat="41.1541102" lon="14.350468"><ele>32.285714285714285</ele><time>2026-05-03T08:17:52.981Z</time></trkpt><trkpt lat="41.1540562" lon="14.3503986"><ele>32.42857142857143</ele><time>2026-05-03T08:17:53.981Z</time></trkpt><trkpt lat="41.1540052" lon="14.3503281"><ele>32.57142857142857</ele><time>2026-05-03T08:17:54.981Z</time></trkpt><trkpt lat="41.1539589" lon="14.3502558"><ele>32.714285714285715</ele><time>2026-05-03T08:17:55.981Z</time></trkpt><trkpt lat="41.1539113" lon="14.3501831"><ele>32.857142857142854</ele><time>2026-05-03T08:17:56.981Z</time></trkpt><trkpt lat="41.1538691" lon="14.3501095"><ele>33.0</ele><time>2026-05-03T08:17:57.981Z</time></trkpt><trkpt lat="41.1538311" lon="14.3500327"><ele>33.0</ele><time>2026-05-03T08:17:58.982Z</time></trkpt><trkpt lat="41.1538003" lon="14.3499517"><ele>33.0</ele><time>2026-05-03T08:17:59.981Z</time></trkpt><trkpt lat="41.1537733" lon="14.3498673"><ele>33.0</ele><time>2026-05-03T08:18:00.982Z</time></trkpt><trkpt lat="41.1537402" lon="14.3497824"><ele>33.0</ele><time>2026-05-03T08:18:01.981Z</time></trkpt><trkpt lat="41.1537048" lon="14.3497008"><ele>33.0</ele><time>2026-05-03T08:18:02.982Z</time></trkpt><trkpt lat="41.1536732" lon="14.3496181"><ele>33.0</ele><time>2026-05-03T08:18:03.982Z</time></trkpt><trkpt lat="41.1536423" lon="14.3495363"><ele>33.0</ele><time>2026-05-03T08:18:04.981Z</time></trkpt><trkpt lat="41.1536123" lon="14.3494533"><ele>33.0</ele><time>2026-05-03T08:18:05.981Z</time></trkpt><trkpt lat="41.1535866" lon="14.3493699"><ele>33.0</ele><time>2026-05-03T08:18:06.982Z</time></trkpt><trkpt lat="41.1535645" lon="14.3492886"><ele>33.0</ele><time>2026-05-03T08:18:07.982Z</time></trkpt><trkpt lat="41.1535335" lon="14.3492054"><ele>33.0</ele><time>2026-05-03T08:18:08.981Z</time></trkpt><trkpt lat="41.1535024" lon="14.3491194"><ele>33.0</ele><time>2026-05-03T08:18:09.981Z</time></trkpt><trkpt lat="41.1534718" lon="14.3490356"><ele>33.0</ele><time>2026-05-03T08:18:10.982Z</time></trkpt><trkpt lat="41.1534393" lon="14.3489513"><ele>33.0</ele><time>2026-05-03T08:18:11.981Z</time></trkpt><trkpt lat="41.1534037" lon="14.3488643"><ele>32.857142857142854</ele><time>2026-05-03T08:18:12.982Z</time></trkpt><trkpt lat="41.15337" lon="14.3487794"><ele>32.714285714285715</ele><time>2026-05-03T08:18:13.981Z</time></trkpt><trkpt lat="41.1533429" lon="14.3486918"><ele>32.57142857142857</ele><time>2026-05-03T08:18:14.981Z</time></trkpt><trkpt lat="41.1533092" lon="14.3486029"><ele>32.42857142857143</ele><time>2026-05-03T08:18:15.981Z</time></trkpt><trkpt lat="41.153276" lon="14.3485144"><ele>32.285714285714285</ele><time>2026-05-03T08:18:16.982Z</time></trkpt><trkpt lat="41.1532407" lon="14.3484272"><ele>32.14285714285714</ele><time>2026-05-03T08:18:17.981Z</time></trkpt><trkpt lat="41.1532147" lon="14.3483375"><ele>32.0</ele><time>2026-05-03T08:18:18.981Z</time></trkpt><trkpt lat="41.1531901" lon="14.3482425"><ele>31.999999999999996</ele><time>2026-05-03T08:18:19.982Z</time></trkpt><trkpt lat="41.1531704" lon="14.3481426"><ele>32.0</ele><time>2026-05-03T08:18:20.981Z</time></trkpt><trkpt lat="41.1531507" lon="14.3480459"><ele>32.0</ele><time>2026-05-03T08:18:21.981Z</time></trkpt><trkpt lat="41.1531308" lon="14.3479471"><ele>32.0</ele><time>2026-05-03T08:18:22.982Z</time></trkpt><trkpt lat="41.1531159" lon="14.3478472"><ele>31.999999999999996</ele><time>2026-05-03T08:18:23.981Z</time></trkpt><trkpt lat="41.1531027" lon="14.3477461"><ele>32.0</ele><time>2026-05-03T08:18:24.981Z</time></trkpt><trkpt lat="41.1530858" lon="14.3476485"><ele>32.0</ele><time>2026-05-03T08:18:25.981Z</time></trkpt><trkpt lat="41.1530683" lon="14.3475488"><ele>31.999999999999996</ele><time>2026-05-03T08:18:26.981Z</time></trkpt><trkpt lat="41.1530521" lon="14.3474528"><ele>32.0</ele><time>2026-05-03T08:18:27.981Z</time></trkpt><trkpt lat="41.1530357" lon="14.3473557"><ele>32.0</ele><time>2026-05-03T08:18:28.981Z</time></trkpt><trkpt lat="41.1530212" lon="14.3472588"><ele>31.999999999999996</ele><time>2026-05-03T08:18:29.981Z</time></trkpt><trkpt lat="41.1530043" lon="14.3471635"><ele>32.0</ele><time>2026-05-03T08:18:30.981Z</time></trkpt><trkpt lat="41.1529903" lon="14.3470718"><ele>32.0</ele><time>2026-05-03T08:18:31.981Z</time></trkpt><trkpt lat="41.1529749" lon="14.34698"><ele>32.285714285714285</ele><time>2026-05-03T08:18:32.982Z</time></trkpt><trkpt lat="41.1529593" lon="14.3468922"><ele>32.57142857142857</ele><time>2026-05-03T08:18:33.981Z</time></trkpt><trkpt lat="41.1529505" lon="14.3468064"><ele>32.857142857142854</ele><time>2026-05-03T08:18:34.982Z</time></trkpt><trkpt lat="41.1529442" lon="14.3467219"><ele>33.14285714285714</ele><time>2026-05-03T08:18:35.981Z</time></trkpt><trkpt lat="41.1529298" lon="14.346638"><ele>33.42857142857143</ele><time>2026-05-03T08:18:36.981Z</time></trkpt><trkpt lat="41.1529175" lon="14.3465521"><ele>33.71428571428571</ele><time>2026-05-03T08:18:37.981Z</time></trkpt><trkpt lat="41.1529027" lon="14.3464666"><ele>34.0</ele><time>2026-05-03T08:18:38.981Z</time></trkpt><trkpt lat="41.1528857" lon="14.3463812"><ele>34.14285714285714</ele><time>2026-05-03T08:18:39.981Z</time></trkpt><trkpt lat="41.1528687" lon="14.3462885"><ele>34.285714285714285</ele><time>2026-05-03T08:18:40.981Z</time></trkpt><trkpt lat="41.1528554" lon="14.3461993"><ele>34.42857142857143</ele><time>2026-05-03T08:18:41.981Z</time></trkpt><trkpt lat="41.1528389" lon="14.3461069"><ele>34.57142857142857</ele><time>2026-05-03T08:18:42.981Z</time></trkpt><trkpt lat="41.1528252" lon="14.3460133"><ele>34.714285714285715</ele><time>2026-05-03T08:18:43.981Z</time></trkpt><trkpt lat="41.1528161" lon="14.3459138"><ele>34.857142857142854</ele><time>2026-05-03T08:18:44.981Z</time></trkpt><trkpt lat="41.1528033" lon="14.3458155"><ele>35.0</ele><time>2026-05-03T08:18:45.981Z</time></trkpt><trkpt lat="41.1527864" lon="14.3457204"><ele>35.0</ele><time>2026-05-03T08:18:46.981Z</time></trkpt><trkpt lat="41.1527678" lon="14.3456254"><ele>35.0</ele><time>2026-05-03T08:18:47.981Z</time></trkpt><trkpt lat="41.1527546" lon="14.345526"><ele>35.0</ele><time>2026-05-03T08:18:48.981Z</time></trkpt><trkpt lat="41.1527344" lon="14.3454297"><ele>35.0</ele><time>2026-05-03T08:18:49.981Z</time></trkpt><trkpt lat="41.152714" lon="14.3453336"><ele>35.0</ele><time>2026-05-03T08:18:50.981Z</time></trkpt><trkpt lat="41.1526929" lon="14.3452355"><ele>35.0</ele><time>2026-05-03T08:18:51.981Z</time></trkpt><trkpt lat="41.1526695" lon="14.3451383"><ele>35.166666666666664</ele><time>2026-05-03T08:18:52.981Z</time></trkpt><trkpt lat="41.1526452" lon="14.3450408"><ele>35.33333333333333</ele><time>2026-05-03T08:18:53.981Z</time></trkpt><trkpt lat="41.152619" lon="14.3449448"><ele>35.5</ele><time>2026-05-03T08:18:54.981Z</time></trkpt><trkpt lat="41.1525927" lon="14.3448514"><ele>35.666666666666664</ele><time>2026-05-03T08:18:55.981Z</time></trkpt><trkpt lat="41.1525657" lon="14.3447595"><ele>35.833333333333336</ele><time>2026-05-03T08:18:56.981Z</time></trkpt><trkpt lat="41.1525375" lon="14.3446664"><ele>36.0</ele><time>2026-05-03T08:18:57.981Z</time></trkpt><trkpt lat="41.1525133" lon="14.344574"><ele>36.00000000000001</ele><time>2026-05-03T08:18:58.981Z</time></trkpt><trkpt lat="41.1524899" lon="14.34448"><ele>36.0</ele><time>2026-05-03T08:18:59.981Z</time></trkpt><trkpt lat="41.1524652" lon="14.3443898"><ele>36.0</ele><time>2026-05-03T08:19:00.981Z</time></trkpt><trkpt lat="41.1524383" lon="14.3443012"><ele>36.0</ele><time>2026-05-03T08:19:01.981Z</time></trkpt><trkpt lat="41.152412" lon="14.3442126"><ele>36.0</ele><time>2026-05-03T08:19:02.982Z</time></trkpt><trkpt lat="41.1523894" lon="14.3441245"><ele>36.00000000000001</ele><time>2026-05-03T08:19:03.981Z</time></trkpt><trkpt lat="41.1523663" lon="14.3440351"><ele>36.0</ele><time>2026-05-03T08:19:04.981Z</time></trkpt><trkpt lat="41.1523435" lon="14.3439454"><ele>35.57142857142858</ele><time>2026-05-03T08:19:05.981Z</time></trkpt><trkpt lat="41.1523215" lon="14.3438565"><ele>35.142857142857146</ele><time>2026-05-03T08:19:06.981Z</time></trkpt><trkpt lat="41.1523005" lon="14.3437651"><ele>34.714285714285715</ele><time>2026-05-03T08:19:07.981Z</time></trkpt><trkpt lat="41.1522781" lon="14.3436776"><ele>34.28571428571429</ele><time>2026-05-03T08:19:08.981Z</time></trkpt><trkpt lat="41.1522548" lon="14.3435859"><ele>33.85714285714286</ele><time>2026-05-03T08:19:09.982Z</time></trkpt><trkpt lat="41.1522286" lon="14.3434965"><ele>33.42857142857143</ele><time>2026-05-03T08:19:10.982Z</time></trkpt><trkpt lat="41.1522006" lon="14.3434036"><ele>33.0</ele><time>2026-05-03T08:19:11.981Z</time></trkpt><trkpt lat="41.1521736" lon="14.3433113"><ele>33.0</ele><time>2026-05-03T08:19:12.981Z</time></trkpt><trkpt lat="41.1521466" lon="14.3432247"><ele>33.0</ele><time>2026-05-03T08:19:13.981Z</time></trkpt><trkpt lat="41.1521214" lon="14.3431339"><ele>33.0</ele><time>2026-05-03T08:19:14.981Z</time></trkpt><trkpt lat="41.152095" lon="14.3430392"><ele>33.0</ele><time>2026-05-03T08:19:15.982Z</time></trkpt><trkpt lat="41.1520719" lon="14.3429427"><ele>33.0</ele><time>2026-05-03T08:19:16.981Z</time></trkpt><trkpt lat="41.1520473" lon="14.3428444"><ele>33.0</ele><time>2026-05-03T08:19:17.981Z</time></trkpt><trkpt lat="41.1520233" lon="14.3427473"><ele>33.0</ele><time>2026-05-03T08:19:18.981Z</time></trkpt><trkpt lat="41.1520009" lon="14.342648"><ele>33.0</ele><time>2026-05-03T08:19:19.981Z</time></trkpt><trkpt lat="41.1519784" lon="14.3425487"><ele>33.0</ele><time>2026-05-03T08:19:20.981Z</time></trkpt><trkpt lat="41.1519579" lon="14.3424486"><ele>33.0</ele><time>2026-05-03T08:19:21.982Z</time></trkpt><trkpt lat="41.1519448" lon="14.3423451"><ele>33.0</ele><time>2026-05-03T08:19:22.982Z</time></trkpt><trkpt lat="41.1519395" lon="14.3422353"><ele>33.0</ele><time>2026-05-03T08:19:23.982Z</time></trkpt><trkpt lat="41.151942" lon="14.3421252"><ele>32.833333333333336</ele><time>2026-05-03T08:19:24.981Z</time></trkpt><trkpt lat="41.1519504" lon="14.3420112"><ele>32.666666666666664</ele><time>2026-05-03T08:19:25.981Z</time></trkpt><trkpt lat="41.151963" lon="14.3419046"><ele>32.5</ele><time>2026-05-03T08:19:26.981Z</time></trkpt><trkpt lat="41.1519787" lon="14.3417945"><ele>32.33333333333333</ele><time>2026-05-03T08:19:27.981Z</time></trkpt><trkpt lat="41.1520034" lon="14.3416948"><ele>32.166666666666664</ele><time>2026-05-03T08:19:28.981Z</time></trkpt><trkpt lat="41.1520294" lon="14.341596"><ele>32.0</ele><time>2026-05-03T08:19:29.981Z</time></trkpt><trkpt lat="41.1520565" lon="14.3414943"><ele>31.999999999999996</ele><time>2026-05-03T08:19:30.981Z</time></trkpt><trkpt lat="41.1520861" lon="14.3413952"><ele>32.0</ele><time>2026-05-03T08:19:31.981Z</time></trkpt><trkpt lat="41.1521118" lon="14.3412958"><ele>32.0</ele><time>2026-05-03T08:19:32.982Z</time></trkpt><trkpt lat="41.1521374" lon="14.341195"><ele>32.0</ele><time>2026-05-03T08:19:33.981Z</time></trkpt><trkpt lat="41.1521664" lon="14.3410936"><ele>31.999999999999996</ele><time>2026-05-03T08:19:34.981Z</time></trkpt><trkpt lat="41.1521925" lon="14.3409952"><ele>32.0</ele><time>2026-05-03T08:19:35.981Z</time></trkpt><trkpt lat="41.1522194" lon="14.3408967"><ele>31.999999999999996</ele><time>2026-05-03T08:19:36.981Z</time></trkpt><trkpt lat="41.1522488" lon="14.3407957"><ele>32.0</ele><time>2026-05-03T08:19:37.981Z</time></trkpt><trkpt lat="41.1522756" lon="14.3406989"><ele>32.0</ele><time>2026-05-03T08:19:38.981Z</time></trkpt><trkpt lat="41.1523082" lon="14.3405997"><ele>32.0</ele><time>2026-05-03T08:19:39.981Z</time></trkpt><trkpt lat="41.1523359" lon="14.3404992"><ele>31.999999999999996</ele><time>2026-05-03T08:19:40.981Z</time></trkpt><trkpt lat="41.152368" lon="14.3404039"><ele>32.0</ele><time>2026-05-03T08:19:41.981Z</time></trkpt><trkpt lat="41.1523983" lon="14.3403094"><ele>32.166666666666664</ele><time>2026-05-03T08:19:42.981Z</time></trkpt><trkpt lat="41.1524325" lon="14.3402151"><ele>32.33333333333333</ele><time>2026-05-03T08:19:43.981Z</time></trkpt><trkpt lat="41.1524649" lon="14.3401189"><ele>32.5</ele><time>2026-05-03T08:19:44.982Z</time></trkpt><trkpt lat="41.1524975" lon="14.3400257"><ele>32.666666666666664</ele><time>2026-05-03T08:19:45.981Z</time></trkpt><trkpt lat="41.1525334" lon="14.3399344"><ele>32.833333333333336</ele><time>2026-05-03T08:19:46.981Z</time></trkpt><trkpt lat="41.1525717" lon="14.3398419"><ele>33.0</ele><time>2026-05-03T08:19:47.982Z</time></trkpt><trkpt lat="41.1526084" lon="14.3397487"><ele>32.833333333333336</ele><time>2026-05-03T08:19:48.981Z</time></trkpt><trkpt lat="41.1526482" lon="14.3396565"><ele>32.666666666666664</ele><time>2026-05-03T08:19:49.982Z</time></trkpt><trkpt lat="41.1526828" lon="14.339566"><ele>32.5</ele><time>2026-05-03T08:19:50.981Z</time></trkpt><trkpt lat="41.1527182" lon="14.3394748"><ele>32.33333333333333</ele><time>2026-05-03T08:19:51.981Z</time></trkpt><trkpt lat="41.1527556" lon="14.3393852"><ele>32.166666666666664</ele><time>2026-05-03T08:19:52.982Z</time></trkpt><trkpt lat="41.1527952" lon="14.3392989"><ele>32.0</ele><time>2026-05-03T08:19:53.981Z</time></trkpt><trkpt lat="41.1528359" lon="14.3392135"><ele>32.0</ele><time>2026-05-03T08:19:54.981Z</time></trkpt><trkpt lat="41.1528735" lon="14.3391254"><ele>31.999999999999996</ele><time>2026-05-03T08:19:55.982Z</time></trkpt><trkpt lat="41.1529167" lon="14.3390375"><ele>32.0</ele><time>2026-05-03T08:19:56.981Z</time></trkpt><trkpt lat="41.1529522" lon="14.3389528"><ele>32.0</ele><time>2026-05-03T08:19:57.981Z</time></trkpt><trkpt lat="41.1529892" lon="14.3388671"><ele>31.999999999999996</ele><time>2026-05-03T08:19:58.981Z</time></trkpt><trkpt lat="41.1530284" lon="14.338784"><ele>32.0</ele><time>2026-05-03T08:19:59.981Z</time></trkpt><trkpt lat="41.1530655" lon="14.3387014"><ele>32.0</ele><time>2026-05-03T08:20:00.981Z</time></trkpt><trkpt lat="41.1530999" lon="14.3386195"><ele>32.166666666666664</ele><time>2026-05-03T08:20:01.981Z</time></trkpt><trkpt lat="41.153138" lon="14.3385393"><ele>32.33333333333333</ele><time>2026-05-03T08:20:02.981Z</time></trkpt><trkpt lat="41.1531755" lon="14.3384692"><ele>32.5</ele><time>2026-05-03T08:20:03.981Z</time></trkpt><trkpt lat="41.1532212" lon="14.3384024"><ele>32.666666666666664</ele><time>2026-05-03T08:20:04.981Z</time></trkpt><trkpt lat="41.1532662" lon="14.3383375"><ele>32.833333333333336</ele><time>2026-05-03T08:20:05.981Z</time></trkpt><trkpt lat="41.1533205" lon="14.3382892"><ele>33.0</ele><time>2026-05-03T08:20:06.981Z</time></trkpt><trkpt lat="41.1534303" lon="14.3382206"><ele>33.4</ele><time>2026-05-03T08:20:08.981Z</time></trkpt><trkpt lat="41.1535562" lon="14.3381939"><ele>33.8</ele><time>2026-05-03T08:20:10.981Z</time></trkpt><trkpt lat="41.1536235" lon="14.338183"><ele>34.2</ele><time>2026-05-03T08:20:11.982Z</time></trkpt><trkpt lat="41.1537496" lon="14.3381678"><ele>34.6</ele><time>2026-05-03T08:20:13.981Z</time></trkpt><trkpt lat="41.153815" lon="14.3381602"><ele>35.0</ele><time>2026-05-03T08:20:14.981Z</time></trkpt><trkpt lat="41.1538818" lon="14.3381524"><ele>35.0</ele><time>2026-05-03T08:20:15.981Z</time></trkpt><trkpt lat="41.1539481" lon="14.3381494"><ele>35.0</ele><time>2026-05-03T08:20:16.981Z</time></trkpt><trkpt lat="41.1540163" lon="14.3381408"><ele>35.0</ele><time>2026-05-03T08:20:17.981Z</time></trkpt><trkpt lat="41.1540842" lon="14.3381303"><ele>35.0</ele><time>2026-05-03T08:20:18.981Z</time></trkpt><trkpt lat="41.1541522" lon="14.3381243"><ele>35.0</ele><time>2026-05-03T08:20:19.982Z</time></trkpt><trkpt lat="41.1542201" lon="14.3381167"><ele>35.0</ele><time>2026-05-03T08:20:20.982Z</time></trkpt><trkpt lat="41.1542887" lon="14.3381072"><ele>35.0</ele><time>2026-05-03T08:20:21.981Z</time></trkpt><trkpt lat="41.1543572" lon="14.3380933"><ele>35.142857142857146</ele><time>2026-05-03T08:20:22.981Z</time></trkpt><trkpt lat="41.15442" lon="14.3380826"><ele>35.285714285714285</ele><time>2026-05-03T08:20:23.981Z</time></trkpt><trkpt lat="41.1544884" lon="14.3380755"><ele>35.42857142857143</ele><time>2026-05-03T08:20:24.981Z</time></trkpt><trkpt lat="41.1545542" lon="14.3380694"><ele>35.57142857142857</ele><time>2026-05-03T08:20:25.981Z</time></trkpt><trkpt lat="41.1546227" lon="14.3380611"><ele>35.714285714285715</ele><time>2026-05-03T08:20:26.981Z</time></trkpt><trkpt lat="41.1546879" lon="14.3380511"><ele>35.85714285714286</ele><time>2026-05-03T08:20:27.981Z</time></trkpt><trkpt lat="41.1547534" lon="14.3380374"><ele>36.0</ele><time>2026-05-03T08:20:28.982Z</time></trkpt><trkpt lat="41.1548183" lon="14.3380245"><ele>36.00000000000001</ele><time>2026-05-03T08:20:29.981Z</time></trkpt><trkpt lat="41.1548864" lon="14.3380212"><ele>36.0</ele><time>2026-05-03T08:20:30.982Z</time></trkpt><trkpt lat="41.1549538" lon="14.3380182"><ele>36.0</ele><time>2026-05-03T08:20:31.981Z</time></trkpt><trkpt lat="41.1550198" lon="14.3380211"><ele>36.0</ele><time>2026-05-03T08:20:32.982Z</time></trkpt><trkpt lat="41.1550871" lon="14.3380245"><ele>36.0</ele><time>2026-05-03T08:20:33.982Z</time></trkpt><trkpt lat="41.1551556" lon="14.33803"><ele>36.00000000000001</ele><time>2026-05-03T08:20:34.982Z</time></trkpt><trkpt lat="41.1552215" lon="14.3380375"><ele>36.0</ele><time>2026-05-03T08:20:35.981Z</time></trkpt><trkpt lat="41.1552923" lon="14.338041"><ele>36.0</ele><time>2026-05-03T08:20:36.982Z</time></trkpt><trkpt lat="41.1553571" lon="14.3380498"><ele>36.0</ele><time>2026-05-03T08:20:37.981Z</time></trkpt><trkpt lat="41.1554212" lon="14.3380591"><ele>36.0</ele><time>2026-05-03T08:20:38.981Z</time></trkpt><trkpt lat="41.1554834" lon="14.3380722"><ele>36.0</ele><time>2026-05-03T08:20:39.982Z</time></trkpt><trkpt lat="41.1555473" lon="14.3380806"><ele>36.0</ele><time>2026-05-03T08:20:40.981Z</time></trkpt><trkpt lat="41.1556691" lon="14.3381031"><ele>36.0</ele><time>2026-05-03T08:20:42.982Z</time></trkpt><trkpt lat="41.1557898" lon="14.3381249"><ele>37.0</ele><time>2026-05-03T08:20:44.982Z</time></trkpt><trkpt lat="41.1559114" lon="14.3381442"><ele>38.0</ele><time>2026-05-03T08:20:46.981Z</time></trkpt><trkpt lat="41.1560304" lon="14.3381665"><ele>39.0</ele><time>2026-05-03T08:20:48.981Z</time></trkpt><trkpt lat="41.1561445" lon="14.3381934"><ele>40.0</ele><time>2026-05-03T08:20:50.981Z</time></trkpt><trkpt lat="41.1562619" lon="14.3382175"><ele>40.0</ele><time>2026-05-03T08:20:52.981Z</time></trkpt><trkpt lat="41.1563789" lon="14.3382403"><ele>40.0</ele><time>2026-05-03T08:20:54.981Z</time></trkpt><trkpt lat="41.1564942" lon="14.3382671"><ele>40.0</ele><time>2026-05-03T08:20:56.982Z</time></trkpt><trkpt lat="41.156618" lon="14.3382931"><ele>40.0</ele><time>2026-05-03T08:20:58.981Z</time></trkpt><trkpt lat="41.156687" lon="14.3383039"><ele>40.0</ele><time>2026-05-03T08:20:59.981Z</time></trkpt><trkpt lat="41.1567531" lon="14.3383159"><ele>39.833333333333336</ele><time>2026-05-03T08:21:00.981Z</time></trkpt><trkpt lat="41.1568216" lon="14.3383265"><ele>39.66666666666667</ele><time>2026-05-03T08:21:01.982Z</time></trkpt><trkpt lat="41.1568877" lon="14.3383354"><ele>39.5</ele><time>2026-05-03T08:21:02.981Z</time></trkpt><trkpt lat="41.1569521" lon="14.3383475"><ele>39.333333333333336</ele><time>2026-05-03T08:21:03.981Z</time></trkpt><trkpt lat="41.1570754" lon="14.3383778"><ele>39.166666666666664</ele><time>2026-05-03T08:21:05.982Z</time></trkpt><trkpt lat="41.1571962" lon="14.3384001"><ele>39.0</ele><time>2026-05-03T08:21:07.982Z</time></trkpt><trkpt lat="41.1573147" lon="14.3384261"><ele>39.25</ele><time>2026-05-03T08:21:09.981Z</time></trkpt><trkpt lat="41.1574265" lon="14.3384554"><ele>39.5</ele><time>2026-05-03T08:21:11.981Z</time></trkpt><trkpt lat="41.157544" lon="14.3384822"><ele>39.75</ele><time>2026-05-03T08:21:13.981Z</time></trkpt><trkpt lat="41.1576625" lon="14.3385105"><ele>40.0</ele><time>2026-05-03T08:21:15.981Z</time></trkpt><trkpt lat="41.1577823" lon="14.3385346"><ele>40.0</ele><time>2026-05-03T08:21:17.981Z</time></trkpt><trkpt lat="41.1579" lon="14.3385527"><ele>40.0</ele><time>2026-05-03T08:21:19.981Z</time></trkpt><trkpt lat="41.1580132" lon="14.3385825"><ele>40.0</ele><time>2026-05-03T08:21:21.981Z</time></trkpt><trkpt lat="41.1581244" lon="14.3386069"><ele>40.0</ele><time>2026-05-03T08:21:23.982Z</time></trkpt><trkpt lat="41.1582295" lon="14.3386261"><ele>40.0</ele><time>2026-05-03T08:21:25.981Z</time></trkpt><trkpt lat="41.1583345" lon="14.3386503"><ele>40.0</ele><time>2026-05-03T08:21:27.982Z</time></trkpt><trkpt lat="41.1584428" lon="14.3386715"><ele>40.0</ele><time>2026-05-03T08:21:29.981Z</time></trkpt><trkpt lat="41.1585437" lon="14.3387071"><ele>40.0</ele><time>2026-05-03T08:21:31.982Z</time></trkpt><trkpt lat="41.1586454" lon="14.3387395"><ele>40.0</ele><time>2026-05-03T08:21:33.981Z</time></trkpt><trkpt lat="41.1587424" lon="14.3387727"><ele>40.0</ele><time>2026-05-03T08:21:35.981Z</time></trkpt><trkpt lat="41.1588392" lon="14.338811"><ele>40.0</ele><time>2026-05-03T08:21:37.982Z</time></trkpt><trkpt lat="41.1589373" lon="14.3388533"><ele>40.0</ele><time>2026-05-03T08:21:39.981Z</time></trkpt><trkpt lat="41.1590411" lon="14.3388875"><ele>40.0</ele><time>2026-05-03T08:21:41.981Z</time></trkpt><trkpt lat="41.1591423" lon="14.3389185"><ele>40.0</ele><time>2026-05-03T08:21:43.981Z</time></trkpt><trkpt lat="41.1592432" lon="14.3389361"><ele>40.8</ele><time>2026-05-03T08:21:45.981Z</time></trkpt><trkpt lat="41.1593459" lon="14.3389465"><ele>41.6</ele><time>2026-05-03T08:21:47.981Z</time></trkpt><trkpt lat="41.1594513" lon="14.3389491"><ele>42.400000000000006</ele><time>2026-05-03T08:21:49.982Z</time></trkpt><trkpt lat="41.1595559" lon="14.3389415"><ele>43.2</ele><time>2026-05-03T08:21:51.981Z</time></trkpt><trkpt lat="41.1596609" lon="14.3389213"><ele>44.0</ele><time>2026-05-03T08:21:53.981Z</time></trkpt><trkpt lat="41.1597698" lon="14.3389106"><ele>43.6</ele><time>2026-05-03T08:21:55.981Z</time></trkpt><trkpt lat="41.1598674" lon="14.338908"><ele>43.2</ele><time>2026-05-03T08:21:57.981Z</time></trkpt><trkpt lat="41.1599691" lon="14.3389171"><ele>42.800000000000004</ele><time>2026-05-03T08:21:59.981Z</time></trkpt><trkpt lat="41.1600673" lon="14.3389233"><ele>42.400000000000006</ele><time>2026-05-03T08:22:01.982Z</time></trkpt><trkpt lat="41.1601622" lon="14.3389119"><ele>42.0</ele><time>2026-05-03T08:22:03.982Z</time></trkpt><trkpt lat="41.1602624" lon="14.3389066"><ele>42.0</ele><time>2026-05-03T08:22:05.981Z</time></trkpt><trkpt lat="41.1603598" lon="14.3389008"><ele>42.0</ele><time>2026-05-03T08:22:07.981Z</time></trkpt><trkpt lat="41.1604568" lon="14.3388866"><ele>42.0</ele><time>2026-05-03T08:22:09.981Z</time></trkpt><trkpt lat="41.1605521" lon="14.3388703"><ele>42.0</ele><time>2026-05-03T08:22:11.981Z</time></trkpt><trkpt lat="41.1606404" lon="14.3388548"><ele>42.0</ele><time>2026-05-03T08:22:13.982Z</time></trkpt><trkpt lat="41.160725" lon="14.3388367"><ele>41.6</ele><time>2026-05-03T08:22:15.981Z</time></trkpt><trkpt lat="41.1608078" lon="14.3388013"><ele>41.2</ele><time>2026-05-03T08:22:17.981Z</time></trkpt><trkpt lat="41.1608912" lon="14.338755"><ele>40.8</ele><time>2026-05-03T08:22:19.981Z</time></trkpt><trkpt lat="41.1609668" lon="14.3386962"><ele>40.4</ele><time>2026-05-03T08:22:21.982Z</time></trkpt><trkpt lat="41.1610478" lon="14.3386293"><ele>40.0</ele><time>2026-05-03T08:22:23.981Z</time></trkpt><trkpt lat="41.1611301" lon="14.3385704"><ele>40.0</ele><time>2026-05-03T08:22:25.981Z</time></trkpt><trkpt lat="41.1612125" lon="14.3385153"><ele>40.0</ele><time>2026-05-03T08:22:27.982Z</time></trkpt><trkpt lat="41.1613036" lon="14.3384542"><ele>40.0</ele><time>2026-05-03T08:22:29.982Z</time></trkpt><trkpt lat="41.1613925" lon="14.3383875"><ele>40.0</ele><time>2026-05-03T08:22:31.981Z</time></trkpt><trkpt lat="41.1614812" lon="14.3383174"><ele>40.0</ele><time>2026-05-03T08:22:33.981Z</time></trkpt><trkpt lat="41.1615734" lon="14.3382503"><ele>40.4</ele><time>2026-05-03T08:22:35.982Z</time></trkpt><trkpt lat="41.1616721" lon="14.3381876"><ele>40.8</ele><time>2026-05-03T08:22:37.981Z</time></trkpt><trkpt lat="41.1617656" lon="14.3381198"><ele>41.2</ele><time>2026-05-03T08:22:39.981Z</time></trkpt><trkpt lat="41.1618562" lon="14.3380535"><ele>41.6</ele><time>2026-05-03T08:22:41.981Z</time></trkpt><trkpt lat="41.161938" lon="14.3379919"><ele>42.0</ele><time>2026-05-03T08:22:43.981Z</time></trkpt><trkpt lat="41.1620212" lon="14.3379266"><ele>42.0</ele><time>2026-05-03T08:22:45.981Z</time></trkpt><trkpt lat="41.1621053" lon="14.3378634"><ele>42.0</ele><time>2026-05-03T08:22:47.981Z</time></trkpt><trkpt lat="41.1621958" lon="14.3378013"><ele>42.0</ele><time>2026-05-03T08:22:49.981Z</time></trkpt><trkpt lat="41.1622828" lon="14.337733"><ele>42.0</ele><time>2026-05-03T08:22:51.981Z</time></trkpt><trkpt lat="41.1623687" lon="14.3376731"><ele>42.0</ele><time>2026-05-03T08:22:53.981Z</time></trkpt><trkpt lat="41.162456" lon="14.337621"><ele>42.2</ele><time>2026-05-03T08:22:55.982Z</time></trkpt><trkpt lat="41.1625452" lon="14.3375809"><ele>42.400000000000006</ele><time>2026-05-03T08:22:57.982Z</time></trkpt><trkpt lat="41.1626418" lon="14.3375612"><ele>42.599999999999994</ele><time>2026-05-03T08:22:59.981Z</time></trkpt><trkpt lat="41.1627403" lon="14.3375507"><ele>42.8</ele><time>2026-05-03T08:23:01.982Z</time></trkpt><trkpt lat="41.1628381" lon="14.3375513"><ele>43.0</ele><time>2026-05-03T08:23:03.982Z</time></trkpt><trkpt lat="41.1629317" lon="14.3375441"><ele>43.0</ele><time>2026-05-03T08:23:05.981Z</time></trkpt><trkpt lat="41.1630227" lon="14.3375519"><ele>43.0</ele><time>2026-05-03T08:23:07.981Z</time></trkpt><trkpt lat="41.1631163" lon="14.3375662"><ele>43.0</ele><time>2026-05-03T08:23:09.982Z</time></trkpt><trkpt lat="41.1632137" lon="14.3375613"><ele>43.0</ele><time>2026-05-03T08:23:11.982Z</time></trkpt><trkpt lat="41.1633185" lon="14.3375577"><ele>43.0</ele><time>2026-05-03T08:23:13.982Z</time></trkpt><trkpt lat="41.1634166" lon="14.3375635"><ele>43.333333333333336</ele><time>2026-05-03T08:23:15.981Z</time></trkpt><trkpt lat="41.1635114" lon="14.3375712"><ele>43.66666666666667</ele><time>2026-05-03T08:23:17.982Z</time></trkpt><trkpt lat="41.1635986" lon="14.3375697"><ele>44.0</ele><time>2026-05-03T08:23:19.981Z</time></trkpt><trkpt lat="41.1636726" lon="14.3375657"><ele>44.333333333333336</ele><time>2026-05-03T08:23:21.981Z</time></trkpt><trkpt lat="41.1637433" lon="14.3375591"><ele>44.666666666666664</ele><time>2026-05-03T08:23:23.982Z</time></trkpt><trkpt lat="41.1638129" lon="14.3375505"><ele>45.0</ele><time>2026-05-03T08:23:25.981Z</time></trkpt><trkpt lat="41.1638789" lon="14.3375335"><ele>45.0</ele><time>2026-05-03T08:23:27.981Z</time></trkpt><trkpt lat="41.1639442" lon="14.3375134"><ele>45.0</ele><time>2026-05-03T08:23:29.981Z</time></trkpt><trkpt lat="41.1640106" lon="14.3374928"><ele>45.0</ele><time>2026-05-03T08:23:31.981Z</time></trkpt><trkpt lat="41.1640722" lon="14.3374615"><ele>45.0</ele><time>2026-05-03T08:23:33.981Z</time></trkpt><trkpt lat="41.164133" lon="14.337436"><ele>45.0</ele><time>2026-05-03T08:23:35.981Z</time></trkpt><trkpt lat="41.1641951" lon="14.337419"><ele>45.0</ele><time>2026-05-03T08:23:37.982Z</time></trkpt><trkpt lat="41.1642566" lon="14.3374007"><ele>45.0</ele><time>2026-05-03T08:23:39.982Z</time></trkpt><trkpt lat="41.1643435" lon="14.3373743"><ele>46.0</ele><time>2026-05-03T08:23:42.982Z</time></trkpt><trkpt lat="41.164428" lon="14.3373531"><ele>47.0</ele><time>2026-05-03T08:23:45.981Z</time></trkpt><trkpt lat="41.1645112" lon="14.3373358"><ele>48.0</ele><time>2026-05-03T08:23:48.981Z</time></trkpt><trkpt lat="41.1645783" lon="14.3373192"><ele>49.0</ele><time>2026-05-03T08:23:50.981Z</time></trkpt><trkpt lat="41.1646549" lon="14.3372917"><ele>50.0</ele><time>2026-05-03T08:23:52.982Z</time></trkpt><trkpt lat="41.16474" lon="14.3372768"><ele>51.0</ele><time>2026-05-03T08:23:54.981Z</time></trkpt><trkpt lat="41.1648283" lon="14.3372547"><ele>51.5</ele><time>2026-05-03T08:23:56.982Z</time></trkpt><trkpt lat="41.1649178" lon="14.3372301"><ele>52.0</ele><time>2026-05-03T08:23:58.982Z</time></trkpt><trkpt lat="41.1649932" lon="14.3372035"><ele>52.5</ele><time>2026-05-03T08:24:00.982Z</time></trkpt><trkpt lat="41.165085" lon="14.3371679"><ele>53.0</ele><time>2026-05-03T08:24:03.981Z</time></trkpt><trkpt lat="41.1651695" lon="14.3371266"><ele>53.5</ele><time>2026-05-03T08:24:05.981Z</time></trkpt><trkpt lat="41.1652457" lon="14.3370814"><ele>54.0</ele><time>2026-05-03T08:24:07.981Z</time></trkpt><trkpt lat="41.1652982" lon="14.3370323"><ele>54.0</ele><time>2026-05-03T08:24:09.981Z</time></trkpt><trkpt lat="41.1653355" lon="14.336946"><ele>54.0</ele><time>2026-05-03T08:24:11.981Z</time></trkpt><trkpt lat="41.1653446" lon="14.3368401"><ele>54.0</ele><time>2026-05-03T08:24:13.981Z</time></trkpt><trkpt lat="41.1652965" lon="14.3367407"><ele>54.0</ele><time>2026-05-03T08:24:15.982Z</time></trkpt><trkpt lat="41.1652296" lon="14.3367299"><ele>54.0</ele><time>2026-05-03T08:24:16.982Z</time></trkpt><trkpt lat="41.1651342" lon="14.3367276"><ele>54.0</ele><time>2026-05-03T08:24:18.982Z</time></trkpt><trkpt lat="41.165042" lon="14.3367155"><ele>54.0</ele><time>2026-05-03T08:24:20.981Z</time></trkpt><trkpt lat="41.1649548" lon="14.3366699"><ele>54.00000000000001</ele><time>2026-05-03T08:24:22.982Z</time></trkpt><trkpt lat="41.1648715" lon="14.3365945"><ele>54.00000000000001</ele><time>2026-05-03T08:24:24.981Z</time></trkpt><trkpt lat="41.1647872" lon="14.3365144"><ele>54.0</ele><time>2026-05-03T08:24:26.981Z</time></trkpt><trkpt lat="41.1646974" lon="14.3364303"><ele>54.0</ele><time>2026-05-03T08:24:28.981Z</time></trkpt><trkpt lat="41.1646048" lon="14.3363374"><ele>53.166666666666664</ele><time>2026-05-03T08:24:30.981Z</time></trkpt><trkpt lat="41.1645054" lon="14.336246"><ele>52.33333333333333</ele><time>2026-05-03T08:24:32.981Z</time></trkpt><trkpt lat="41.1644522" lon="14.3362003"><ele>51.5</ele><time>2026-05-03T08:24:33.981Z</time></trkpt><trkpt lat="41.164398" lon="14.3361477"><ele>50.666666666666664</ele><time>2026-05-03T08:24:34.981Z</time></trkpt><trkpt lat="41.1643408" lon="14.336096"><ele>49.83333333333333</ele><time>2026-05-03T08:24:35.981Z</time></trkpt><trkpt lat="41.1642811" lon="14.3360408"><ele>49.0</ele><time>2026-05-03T08:24:36.981Z</time></trkpt><trkpt lat="41.1642201" lon="14.3359838"><ele>48.99999999999999</ele><time>2026-05-03T08:24:37.982Z</time></trkpt><trkpt lat="41.1641578" lon="14.3359231"><ele>49.0</ele><time>2026-05-03T08:24:38.981Z</time></trkpt><trkpt lat="41.1640933" lon="14.3358607"><ele>49.0</ele><time>2026-05-03T08:24:39.981Z</time></trkpt><trkpt lat="41.1640241" lon="14.3357972"><ele>49.0</ele><time>2026-05-03T08:24:40.982Z</time></trkpt><trkpt lat="41.163959" lon="14.3357326"><ele>48.99999999999999</ele><time>2026-05-03T08:24:41.981Z</time></trkpt><trkpt lat="41.1638931" lon="14.3356692"><ele>49.0</ele><time>2026-05-03T08:24:42.981Z</time></trkpt><trkpt lat="41.1638284" lon="14.3356121"><ele>48.666666666666664</ele><time>2026-05-03T08:24:43.981Z</time></trkpt><trkpt lat="41.1637584" lon="14.3355452"><ele>48.33333333333333</ele><time>2026-05-03T08:24:44.981Z</time></trkpt><trkpt lat="41.1636873" lon="14.3354771"><ele>48.0</ele><time>2026-05-03T08:24:45.981Z</time></trkpt><trkpt lat="41.1636154" lon="14.3354056"><ele>47.666666666666664</ele><time>2026-05-03T08:24:46.981Z</time></trkpt><trkpt lat="41.1635453" lon="14.3353298"><ele>47.33333333333333</ele><time>2026-05-03T08:24:47.981Z</time></trkpt><trkpt lat="41.1634666" lon="14.3352583"><ele>47.0</ele><time>2026-05-03T08:24:48.981Z</time></trkpt><trkpt lat="41.1633917" lon="14.3351819"><ele>47.0</ele><time>2026-05-03T08:24:49.981Z</time></trkpt><trkpt lat="41.1633132" lon="14.3351054"><ele>47.0</ele><time>2026-05-03T08:24:50.981Z</time></trkpt><trkpt lat="41.1632376" lon="14.3350297"><ele>47.0</ele><time>2026-05-03T08:24:51.981Z</time></trkpt><trkpt lat="41.1631599" lon="14.3349549"><ele>47.0</ele><time>2026-05-03T08:24:52.981Z</time></trkpt><trkpt lat="41.1630829" lon="14.3348812"><ele>47.0</ele><time>2026-05-03T08:24:53.981Z</time></trkpt><trkpt lat="41.1630029" lon="14.3348062"><ele>46.6</ele><time>2026-05-03T08:24:54.982Z</time></trkpt><trkpt lat="41.1629254" lon="14.3347317"><ele>46.2</ele><time>2026-05-03T08:24:55.981Z</time></trkpt><trkpt lat="41.1628498" lon="14.3346531"><ele>45.8</ele><time>2026-05-03T08:24:56.981Z</time></trkpt><trkpt lat="41.1627759" lon="14.3345758"><ele>45.4</ele><time>2026-05-03T08:24:57.981Z</time></trkpt><trkpt lat="41.1626949" lon="14.334501"><ele>45.0</ele><time>2026-05-03T08:24:58.981Z</time></trkpt><trkpt lat="41.162615" lon="14.3344252"><ele>45.0</ele><time>2026-05-03T08:24:59.981Z</time></trkpt><trkpt lat="41.1625348" lon="14.3343486"><ele>45.0</ele><time>2026-05-03T08:25:00.982Z</time></trkpt><trkpt lat="41.1624586" lon="14.3342683"><ele>45.0</ele><time>2026-05-03T08:25:01.981Z</time></trkpt><trkpt lat="41.1623779" lon="14.3341919"><ele>45.0</ele><time>2026-05-03T08:25:02.981Z</time></trkpt><trkpt lat="41.1622988" lon="14.3341127"><ele>45.0</ele><time>2026-05-03T08:25:03.981Z</time></trkpt><trkpt lat="41.1622197" lon="14.3340359"><ele>45.0</ele><time>2026-05-03T08:25:04.981Z</time></trkpt><trkpt lat="41.1621379" lon="14.3339584"><ele>45.0</ele><time>2026-05-03T08:25:05.982Z</time></trkpt><trkpt lat="41.1620553" lon="14.3338856"><ele>45.0</ele><time>2026-05-03T08:25:06.981Z</time></trkpt><trkpt lat="41.1619794" lon="14.3338089"><ele>45.0</ele><time>2026-05-03T08:25:07.981Z</time></trkpt><trkpt lat="41.1619008" lon="14.3337337"><ele>45.0</ele><time>2026-05-03T08:25:08.981Z</time></trkpt><trkpt lat="41.1618265" lon="14.3336589"><ele>45.0</ele><time>2026-05-03T08:25:09.982Z</time></trkpt><trkpt lat="41.1617506" lon="14.3335826"><ele>45.0</ele><time>2026-05-03T08:25:10.981Z</time></trkpt><trkpt lat="41.1616725" lon="14.3335072"><ele>45.0</ele><time>2026-05-03T08:25:11.981Z</time></trkpt><trkpt lat="41.1615962" lon="14.333431"><ele>45.0</ele><time>2026-05-03T08:25:12.981Z</time></trkpt><trkpt lat="41.1615205" lon="14.3333578"><ele>45.0</ele><time>2026-05-03T08:25:13.982Z</time></trkpt><trkpt lat="41.1614446" lon="14.3332827"><ele>45.0</ele><time>2026-05-03T08:25:14.981Z</time></trkpt><trkpt lat="41.1613704" lon="14.3332094"><ele>45.0</ele><time>2026-05-03T08:25:15.982Z</time></trkpt><trkpt lat="41.1612939" lon="14.3331354"><ele>45.0</ele><time>2026-05-03T08:25:16.981Z</time></trkpt><trkpt lat="41.1612194" lon="14.333059"><ele>45.0</ele><time>2026-05-03T08:25:17.982Z</time></trkpt><trkpt lat="41.1611425" lon="14.3329839"><ele>45.0</ele><time>2026-05-03T08:25:18.981Z</time></trkpt><trkpt lat="41.1610601" lon="14.3329092"><ele>45.0</ele><time>2026-05-03T08:25:19.981Z</time></trkpt><trkpt lat="41.1609853" lon="14.3328319"><ele>45.0</ele><time>2026-05-03T08:25:20.981Z</time></trkpt><trkpt lat="41.1609084" lon="14.3327594"><ele>45.0</ele><time>2026-05-03T08:25:21.982Z</time></trkpt><trkpt lat="41.1608339" lon="14.3326889"><ele>45.0</ele><time>2026-05-03T08:25:22.981Z</time></trkpt><trkpt lat="41.1607631" lon="14.3326165"><ele>45.0</ele><time>2026-05-03T08:25:23.981Z</time></trkpt><trkpt lat="41.1606872" lon="14.3325479"><ele>45.0</ele><time>2026-05-03T08:25:24.981Z</time></trkpt><trkpt lat="41.1606166" lon="14.3324797"><ele>45.0</ele><time>2026-05-03T08:25:25.981Z</time></trkpt><trkpt lat="41.1605457" lon="14.332407"><ele>45.0</ele><time>2026-05-03T08:25:26.981Z</time></trkpt><trkpt lat="41.1604763" lon="14.3323327"><ele>45.0</ele><time>2026-05-03T08:25:27.981Z</time></trkpt><trkpt lat="41.1604049" lon="14.3322612"><ele>45.0</ele><time>2026-05-03T08:25:28.981Z</time></trkpt><trkpt lat="41.1603287" lon="14.3321919"><ele>45.0</ele><time>2026-05-03T08:25:29.981Z</time></trkpt><trkpt lat="41.1602544" lon="14.3321248"><ele>44.6</ele><time>2026-05-03T08:25:30.981Z</time></trkpt><trkpt lat="41.1601826" lon="14.3320505"><ele>44.2</ele><time>2026-05-03T08:25:31.982Z</time></trkpt><trkpt lat="41.1601089" lon="14.3319785"><ele>43.8</ele><time>2026-05-03T08:25:32.982Z</time></trkpt><trkpt lat="41.1600331" lon="14.3319064"><ele>43.4</ele><time>2026-05-03T08:25:33.981Z</time></trkpt><trkpt lat="41.159958" lon="14.3318349"><ele>43.0</ele><time>2026-05-03T08:25:34.982Z</time></trkpt><trkpt lat="41.1598783" lon="14.3317636"><ele>42.833333333333336</ele><time>2026-05-03T08:25:35.982Z</time></trkpt><trkpt lat="41.1598056" lon="14.3316915"><ele>42.66666666666667</ele><time>2026-05-03T08:25:36.982Z</time></trkpt><trkpt lat="41.1597328" lon="14.3316219"><ele>42.5</ele><time>2026-05-03T08:25:37.981Z</time></trkpt><trkpt lat="41.1596587" lon="14.3315523"><ele>42.333333333333336</ele><time>2026-05-03T08:25:38.981Z</time></trkpt><trkpt lat="41.1595903" lon="14.3314839"><ele>42.166666666666664</ele><time>2026-05-03T08:25:39.981Z</time></trkpt><trkpt lat="41.1595248" lon="14.3314166"><ele>42.0</ele><time>2026-05-03T08:25:40.981Z</time></trkpt><trkpt lat="41.159456" lon="14.3313546"><ele>41.833333333333336</ele><time>2026-05-03T08:25:41.981Z</time></trkpt><trkpt lat="41.159387" lon="14.3312887"><ele>41.666666666666664</ele><time>2026-05-03T08:25:42.981Z</time></trkpt><trkpt lat="41.159319" lon="14.3312212"><ele>41.5</ele><time>2026-05-03T08:25:43.982Z</time></trkpt><trkpt lat="41.1592521" lon="14.3311503"><ele>41.33333333333333</ele><time>2026-05-03T08:25:44.981Z</time></trkpt><trkpt lat="41.1591826" lon="14.3310822"><ele>41.166666666666664</ele><time>2026-05-03T08:25:45.981Z</time></trkpt><trkpt lat="41.1591124" lon="14.3310135"><ele>41.0</ele><time>2026-05-03T08:25:46.981Z</time></trkpt><trkpt lat="41.1590406" lon="14.3309426"><ele>40.8</ele><time>2026-05-03T08:25:47.981Z</time></trkpt><trkpt lat="41.1589702" lon="14.3308742"><ele>40.599999999999994</ele><time>2026-05-03T08:25:48.981Z</time></trkpt><trkpt lat="41.1588985" lon="14.3308046"><ele>40.4</ele><time>2026-05-03T08:25:49.982Z</time></trkpt><trkpt lat="41.1588251" lon="14.3307333"><ele>40.2</ele><time>2026-05-03T08:25:50.981Z</time></trkpt><trkpt lat="41.1587523" lon="14.3306588"><ele>40.0</ele><time>2026-05-03T08:25:51.981Z</time></trkpt><trkpt lat="41.1586748" lon="14.3305863"><ele>39.833333333333336</ele><time>2026-05-03T08:25:52.981Z</time></trkpt><trkpt lat="41.1585994" lon="14.3305163"><ele>39.66666666666667</ele><time>2026-05-03T08:25:53.982Z</time></trkpt><trkpt lat="41.1585276" lon="14.3304439"><ele>39.5</ele><time>2026-05-03T08:25:54.981Z</time></trkpt><trkpt lat="41.1584553" lon="14.330377"><ele>39.333333333333336</ele><time>2026-05-03T08:25:55.981Z</time></trkpt><trkpt lat="41.1583829" lon="14.3303098"><ele>39.166666666666664</ele><time>2026-05-03T08:25:56.981Z</time></trkpt><trkpt lat="41.1583134" lon="14.3302457"><ele>39.0</ele><time>2026-05-03T08:25:57.981Z</time></trkpt><trkpt lat="41.1582445" lon="14.3301768"><ele>39.0</ele><time>2026-05-03T08:25:58.981Z</time></trkpt><trkpt lat="41.1581744" lon="14.3301047"><ele>39.0</ele><time>2026-05-03T08:25:59.982Z</time></trkpt><trkpt lat="41.1581015" lon="14.3300325"><ele>39.0</ele><time>2026-05-03T08:26:00.981Z</time></trkpt><trkpt lat="41.1580269" lon="14.3299599"><ele>39.0</ele><time>2026-05-03T08:26:01.981Z</time></trkpt><trkpt lat="41.1579529" lon="14.3298853"><ele>39.0</ele><time>2026-05-03T08:26:02.981Z</time></trkpt><trkpt lat="41.1578778" lon="14.3298129"><ele>39.0</ele><time>2026-05-03T08:26:03.982Z</time></trkpt><trkpt lat="41.1578052" lon="14.3297376"><ele>39.0</ele><time>2026-05-03T08:26:04.981Z</time></trkpt><trkpt lat="41.1577284" lon="14.329666"><ele>39.0</ele><time>2026-05-03T08:26:05.981Z</time></trkpt><trkpt lat="41.1576514" lon="14.3295918"><ele>39.0</ele><time>2026-05-03T08:26:06.981Z</time></trkpt><trkpt lat="41.1575754" lon="14.3295169"><ele>39.0</ele><time>2026-05-03T08:26:07.981Z</time></trkpt><trkpt lat="41.1574977" lon="14.3294416"><ele>39.166666666666664</ele><time>2026-05-03T08:26:08.982Z</time></trkpt><trkpt lat="41.1574226" lon="14.3293704"><ele>39.333333333333336</ele><time>2026-05-03T08:26:09.982Z</time></trkpt><trkpt lat="41.1573506" lon="14.3292964"><ele>39.5</ele><time>2026-05-03T08:26:10.981Z</time></trkpt><trkpt lat="41.1572755" lon="14.3292233"><ele>39.66666666666667</ele><time>2026-05-03T08:26:11.981Z</time></trkpt><trkpt lat="41.1572056" lon="14.3291538"><ele>39.833333333333336</ele><time>2026-05-03T08:26:12.981Z</time></trkpt><trkpt lat="41.1571363" lon="14.3290883"><ele>40.0</ele><time>2026-05-03T08:26:13.981Z</time></trkpt><trkpt lat="41.1570661" lon="14.3290215"><ele>40.0</ele><time>2026-05-03T08:26:14.981Z</time></trkpt><trkpt lat="41.1569981" lon="14.3289539"><ele>40.0</ele><time>2026-05-03T08:26:15.981Z</time></trkpt><trkpt lat="41.1569324" lon="14.3288881"><ele>40.0</ele><time>2026-05-03T08:26:16.982Z</time></trkpt><trkpt lat="41.1568671" lon="14.3288259"><ele>40.0</ele><time>2026-05-03T08:26:17.981Z</time></trkpt><trkpt lat="41.1568003" lon="14.3287633"><ele>40.0</ele><time>2026-05-03T08:26:18.981Z</time></trkpt><trkpt lat="41.1567357" lon="14.3287004"><ele>40.0</ele><time>2026-05-03T08:26:19.981Z</time></trkpt><trkpt lat="41.1566702" lon="14.3286367"><ele>40.0</ele><time>2026-05-03T08:26:20.981Z</time></trkpt><trkpt lat="41.156602" lon="14.3285748"><ele>40.0</ele><time>2026-05-03T08:26:21.981Z</time></trkpt><trkpt lat="41.1565377" lon="14.3285142"><ele>40.0</ele><time>2026-05-03T08:26:22.981Z</time></trkpt><trkpt lat="41.1564757" lon="14.328453"><ele>40.0</ele><time>2026-05-03T08:26:23.981Z</time></trkpt><trkpt lat="41.1564134" lon="14.3283928"><ele>40.0</ele><time>2026-05-03T08:26:24.981Z</time></trkpt><trkpt lat="41.1563532" lon="14.3283333"><ele>40.0</ele><time>2026-05-03T08:26:25.982Z</time></trkpt><trkpt lat="41.1562901" lon="14.3282757"><ele>39.714285714285715</ele><time>2026-05-03T08:26:26.981Z</time></trkpt><trkpt lat="41.1562303" lon="14.3282161"><ele>39.42857142857143</ele><time>2026-05-03T08:26:27.981Z</time></trkpt><trkpt lat="41.1561731" lon="14.3281596"><ele>39.14285714285714</ele><time>2026-05-03T08:26:28.981Z</time></trkpt><trkpt lat="41.1561134" lon="14.3281052"><ele>38.85714285714286</ele><time>2026-05-03T08:26:29.981Z</time></trkpt><trkpt lat="41.1560568" lon="14.3280472"><ele>38.57142857142858</ele><time>2026-05-03T08:26:30.981Z</time></trkpt><trkpt lat="41.1559986" lon="14.3279933"><ele>38.285714285714285</ele><time>2026-05-03T08:26:31.981Z</time></trkpt><trkpt lat="41.155939" lon="14.3279387"><ele>38.0</ele><time>2026-05-03T08:26:32.982Z</time></trkpt><trkpt lat="41.1558826" lon="14.327886"><ele>38.0</ele><time>2026-05-03T08:26:33.981Z</time></trkpt><trkpt lat="41.155827" lon="14.3278315"><ele>38.0</ele><time>2026-05-03T08:26:34.981Z</time></trkpt><trkpt lat="41.1557712" lon="14.327777"><ele>38.0</ele><time>2026-05-03T08:26:35.981Z</time></trkpt><trkpt lat="41.1557154" lon="14.327724"><ele>38.0</ele><time>2026-05-03T08:26:36.981Z</time></trkpt><trkpt lat="41.1556593" lon="14.3276721"><ele>38.0</ele><time>2026-05-03T08:26:37.981Z</time></trkpt><trkpt lat="41.1556036" lon="14.327619"><ele>38.0</ele><time>2026-05-03T08:26:38.981Z</time></trkpt><trkpt lat="41.1555488" lon="14.327564"><ele>38.0</ele><time>2026-05-03T08:26:39.981Z</time></trkpt><trkpt lat="41.1554971" lon="14.3275072"><ele>39.285714285714285</ele><time>2026-05-03T08:26:40.982Z</time></trkpt><trkpt lat="41.155448" lon="14.3274479"><ele>40.57142857142858</ele><time>2026-05-03T08:26:41.981Z</time></trkpt><trkpt lat="41.1554026" lon="14.3273881"><ele>41.85714285714286</ele><time>2026-05-03T08:26:42.981Z</time></trkpt><trkpt lat="41.155356" lon="14.3273266"><ele>43.14285714285714</ele><time>2026-05-03T08:26:43.981Z</time></trkpt><trkpt lat="41.1553116" lon="14.3272618"><ele>44.42857142857143</ele><time>2026-05-03T08:26:44.981Z</time></trkpt><trkpt lat="41.1552723" lon="14.327191"><ele>45.714285714285715</ele><time>2026-05-03T08:26:45.982Z</time></trkpt><trkpt lat="41.1552358" lon="14.3271149"><ele>47.0</ele><time>2026-05-03T08:26:46.982Z</time></trkpt><trkpt lat="41.1552016" lon="14.3270389"><ele>47.0</ele><time>2026-05-03T08:26:47.981Z</time></trkpt><trkpt lat="41.1551686" lon="14.3269586"><ele>47.0</ele><time>2026-05-03T08:26:48.981Z</time></trkpt><trkpt lat="41.1551367" lon="14.3268782"><ele>47.0</ele><time>2026-05-03T08:26:49.981Z</time></trkpt><trkpt lat="41.155105" lon="14.3267973"><ele>47.0</ele><time>2026-05-03T08:26:50.982Z</time></trkpt><trkpt lat="41.1550732" lon="14.3267145"><ele>47.0</ele><time>2026-05-03T08:26:51.981Z</time></trkpt><trkpt lat="41.1550395" lon="14.3266344"><ele>47.0</ele><time>2026-05-03T08:26:52.981Z</time></trkpt><trkpt lat="41.1550059" lon="14.3265542"><ele>47.0</ele><time>2026-05-03T08:26:53.981Z</time></trkpt><trkpt lat="41.1549715" lon="14.3264742"><ele>46.14285714285714</ele><time>2026-05-03T08:26:54.982Z</time></trkpt><trkpt lat="41.1549365" lon="14.3263946"><ele>45.285714285714285</ele><time>2026-05-03T08:26:55.982Z</time></trkpt><trkpt lat="41.1549005" lon="14.3263165"><ele>44.42857142857143</ele><time>2026-05-03T08:26:56.981Z</time></trkpt><trkpt lat="41.1548626" lon="14.3262373"><ele>43.57142857142857</ele><time>2026-05-03T08:26:57.981Z</time></trkpt><trkpt lat="41.1548258" lon="14.3261577"><ele>42.714285714285715</ele><time>2026-05-03T08:26:58.981Z</time></trkpt><trkpt lat="41.1547875" lon="14.3260833"><ele>41.857142857142854</ele><time>2026-05-03T08:26:59.982Z</time></trkpt><trkpt lat="41.1547521" lon="14.3260087"><ele>41.0</ele><time>2026-05-03T08:27:00.981Z</time></trkpt><trkpt lat="41.154718" lon="14.3259338"><ele>43.166666666666664</ele><time>2026-05-03T08:27:01.981Z</time></trkpt><trkpt lat="41.1546837" lon="14.3258628"><ele>45.33333333333333</ele><time>2026-05-03T08:27:02.981Z</time></trkpt><trkpt lat="41.1546148" lon="14.3257283"><ele>47.5</ele><time>2026-05-03T08:27:04.981Z</time></trkpt><trkpt lat="41.1545421" lon="14.3255907"><ele>49.666666666666664</ele><time>2026-05-03T08:27:06.981Z</time></trkpt><trkpt lat="41.1545064" lon="14.3255178"><ele>51.833333333333336</ele><time>2026-05-03T08:27:07.981Z</time></trkpt><trkpt lat="41.1544698" lon="14.3254464"><ele>54.0</ele><time>2026-05-03T08:27:08.981Z</time></trkpt><trkpt lat="41.1544318" lon="14.3253728"><ele>54.0</ele><time>2026-05-03T08:27:09.982Z</time></trkpt><trkpt lat="41.1543929" lon="14.3253013"><ele>54.0</ele><time>2026-05-03T08:27:10.981Z</time></trkpt><trkpt lat="41.1543566" lon="14.325229"><ele>54.0</ele><time>2026-05-03T08:27:11.981Z</time></trkpt><trkpt lat="41.1543207" lon="14.3251563"><ele>54.0</ele><time>2026-05-03T08:27:12.981Z</time></trkpt><trkpt lat="41.1542853" lon="14.3250824"><ele>54.0</ele><time>2026-05-03T08:27:13.981Z</time></trkpt><trkpt lat="41.1542473" lon="14.3250105"><ele>54.0</ele><time>2026-05-03T08:27:14.981Z</time></trkpt><trkpt lat="41.1542095" lon="14.324935"><ele>54.0</ele><time>2026-05-03T08:27:15.981Z</time></trkpt><trkpt lat="41.1541726" lon="14.3248605"><ele>54.0</ele><time>2026-05-03T08:27:16.981Z</time></trkpt><trkpt lat="41.1541333" lon="14.3247884"><ele>54.0</ele><time>2026-05-03T08:27:17.982Z</time></trkpt><trkpt lat="41.1540938" lon="14.3247166"><ele>54.0</ele><time>2026-05-03T08:27:18.981Z</time></trkpt><trkpt lat="41.1540535" lon="14.3246462"><ele>54.0</ele><time>2026-05-03T08:27:19.981Z</time></trkpt><trkpt lat="41.1540115" lon="14.3245761"><ele>54.0</ele><time>2026-05-03T08:27:20.981Z</time></trkpt><trkpt lat="41.1539684" lon="14.324507"><ele>54.0</ele><time>2026-05-03T08:27:21.982Z</time></trkpt><trkpt lat="41.1539225" lon="14.324441"><ele>54.0</ele><time>2026-05-03T08:27:22.982Z</time></trkpt><trkpt lat="41.1538741" lon="14.3243735"><ele>54.857142857142854</ele><time>2026-05-03T08:27:23.981Z</time></trkpt><trkpt lat="41.1538301" lon="14.324304"><ele>55.71428571428571</ele><time>2026-05-03T08:27:24.981Z</time></trkpt><trkpt lat="41.1537831" lon="14.3242395"><ele>56.57142857142857</ele><time>2026-05-03T08:27:25.981Z</time></trkpt><trkpt lat="41.1537345" lon="14.3241779"><ele>57.42857142857143</ele><time>2026-05-03T08:27:26.981Z</time></trkpt><trkpt lat="41.1536867" lon="14.3241165"><ele>58.285714285714285</ele><time>2026-05-03T08:27:27.981Z</time></trkpt><trkpt lat="41.1536383" lon="14.3240543"><ele>59.142857142857146</ele><time>2026-05-03T08:27:28.981Z</time></trkpt><trkpt lat="41.1535888" lon="14.3239943"><ele>60.0</ele><time>2026-05-03T08:27:29.981Z</time></trkpt><trkpt lat="41.1535391" lon="14.3239389"><ele>59.714285714285715</ele><time>2026-05-03T08:27:30.982Z</time></trkpt><trkpt lat="41.1534899" lon="14.3238832"><ele>59.42857142857143</ele><time>2026-05-03T08:27:31.981Z</time></trkpt><trkpt lat="41.1534423" lon="14.3238261"><ele>59.142857142857146</ele><time>2026-05-03T08:27:32.982Z</time></trkpt><trkpt lat="41.153393" lon="14.3237711"><ele>58.85714285714286</ele><time>2026-05-03T08:27:33.982Z</time></trkpt><trkpt lat="41.153342" lon="14.3237157"><ele>58.57142857142857</ele><time>2026-05-03T08:27:34.981Z</time></trkpt><trkpt lat="41.1532935" lon="14.3236586"><ele>58.28571428571429</ele><time>2026-05-03T08:27:35.981Z</time></trkpt><trkpt lat="41.1532431" lon="14.3236014"><ele>58.00000000000001</ele><time>2026-05-03T08:27:36.981Z</time></trkpt><trkpt lat="41.1531968" lon="14.3235439"><ele>57.99999999999999</ele><time>2026-05-03T08:27:37.982Z</time></trkpt><trkpt lat="41.1531487" lon="14.3234874"><ele>58.0</ele><time>2026-05-03T08:27:38.982Z</time></trkpt><trkpt lat="41.1530519" lon="14.3233765"><ele>58.0</ele><time>2026-05-03T08:27:40.982Z</time></trkpt><trkpt lat="41.1530001" lon="14.3233174"><ele>58.0</ele><time>2026-05-03T08:27:41.982Z</time></trkpt><trkpt lat="41.1529481" lon="14.3232573"><ele>57.99999999999999</ele><time>2026-05-03T08:27:42.982Z</time></trkpt><trkpt lat="41.152891" lon="14.3231939"><ele>58.0</ele><time>2026-05-03T08:27:43.981Z</time></trkpt><trkpt lat="41.1528351" lon="14.3231288"><ele>54.83333333333333</ele><time>2026-05-03T08:27:44.981Z</time></trkpt><trkpt lat="41.1527735" lon="14.3230629"><ele>51.666666666666664</ele><time>2026-05-03T08:27:45.981Z</time></trkpt><trkpt lat="41.152713" lon="14.3229974"><ele>48.5</ele><time>2026-05-03T08:27:46.981Z</time></trkpt><trkpt lat="41.1526491" lon="14.322924"><ele>45.33333333333333</ele><time>2026-05-03T08:27:47.981Z</time></trkpt><trkpt lat="41.1525844" lon="14.3228469"><ele>42.166666666666664</ele><time>2026-05-03T08:27:48.981Z</time></trkpt><trkpt lat="41.152516" lon="14.3227731"><ele>39.0</ele><time>2026-05-03T08:27:49.981Z</time></trkpt><trkpt lat="41.1524475" lon="14.322696"><ele>39.0</ele><time>2026-05-03T08:27:50.981Z</time></trkpt><trkpt lat="41.1523766" lon="14.3226179"><ele>39.0</ele><time>2026-05-03T08:27:51.981Z</time></trkpt><trkpt lat="41.1523023" lon="14.3225411"><ele>39.0</ele><time>2026-05-03T08:27:52.982Z</time></trkpt><trkpt lat="41.1522277" lon="14.3224619"><ele>39.0</ele><time>2026-05-03T08:27:53.981Z</time></trkpt><trkpt lat="41.1521434" lon="14.3223953"><ele>39.0</ele><time>2026-05-03T08:27:54.981Z</time></trkpt><trkpt lat="41.1520539" lon="14.322338"><ele>39.8</ele><time>2026-05-03T08:27:55.982Z</time></trkpt><trkpt lat="41.1519621" lon="14.3222859"><ele>40.599999999999994</ele><time>2026-05-03T08:27:56.982Z</time></trkpt><trkpt lat="41.1518652" lon="14.3222405"><ele>41.4</ele><time>2026-05-03T08:27:57.981Z</time></trkpt><trkpt lat="41.1517686" lon="14.3222022"><ele>42.199999999999996</ele><time>2026-05-03T08:27:58.981Z</time></trkpt><trkpt lat="41.1516691" lon="14.3221749"><ele>43.0</ele><time>2026-05-03T08:27:59.981Z</time></trkpt><trkpt lat="41.1515692" lon="14.3221415"><ele>41.0</ele><time>2026-05-03T08:28:00.981Z</time></trkpt><trkpt lat="41.1514655" lon="14.322111"><ele>39.0</ele><time>2026-05-03T08:28:01.981Z</time></trkpt><trkpt lat="41.1513614" lon="14.3220818"><ele>37.0</ele><time>2026-05-03T08:28:02.981Z</time></trkpt><trkpt lat="41.1512583" lon="14.3220508"><ele>35.0</ele><time>2026-05-03T08:28:03.981Z</time></trkpt><trkpt lat="41.1511534" lon="14.3220218"><ele>33.0</ele><time>2026-05-03T08:28:04.981Z</time></trkpt><trkpt lat="41.1510504" lon="14.3219962"><ele>33.0</ele><time>2026-05-03T08:28:05.981Z</time></trkpt><trkpt lat="41.1509468" lon="14.3219599"><ele>33.0</ele><time>2026-05-03T08:28:06.981Z</time></trkpt><trkpt lat="41.1508473" lon="14.3219243"><ele>33.0</ele><time>2026-05-03T08:28:07.981Z</time></trkpt><trkpt lat="41.1507516" lon="14.321894"><ele>33.0</ele><time>2026-05-03T08:28:08.981Z</time></trkpt><trkpt lat="41.1506604" lon="14.3218676"><ele>33.0</ele><time>2026-05-03T08:28:09.981Z</time></trkpt><trkpt lat="41.1505736" lon="14.3218398"><ele>32.6</ele><time>2026-05-03T08:28:10.981Z</time></trkpt><trkpt lat="41.1504873" lon="14.3218117"><ele>32.199999999999996</ele><time>2026-05-03T08:28:11.981Z</time></trkpt><trkpt lat="41.1503976" lon="14.3217826"><ele>31.8</ele><time>2026-05-03T08:28:12.981Z</time></trkpt><trkpt lat="41.1503084" lon="14.3217563"><ele>31.4</ele><time>2026-05-03T08:28:13.982Z</time></trkpt><trkpt lat="41.1502178" lon="14.3217254"><ele>31.0</ele><time>2026-05-03T08:28:14.981Z</time></trkpt><trkpt lat="41.1501254" lon="14.3216999"><ele>31.0</ele><time>2026-05-03T08:28:15.981Z</time></trkpt><trkpt lat="41.1500337" lon="14.3216726"><ele>31.0</ele><time>2026-05-03T08:28:16.982Z</time></trkpt><trkpt lat="41.1499419" lon="14.3216465"><ele>31.0</ele><time>2026-05-03T08:28:17.981Z</time></trkpt><trkpt lat="41.1498513" lon="14.3216187"><ele>31.0</ele><time>2026-05-03T08:28:18.981Z</time></trkpt><trkpt lat="41.14976" lon="14.3215888"><ele>31.0</ele><time>2026-05-03T08:28:19.981Z</time></trkpt><trkpt lat="41.1496689" lon="14.3215603"><ele>30.8</ele><time>2026-05-03T08:28:20.981Z</time></trkpt><trkpt lat="41.1495787" lon="14.3215348"><ele>30.6</ele><time>2026-05-03T08:28:21.981Z</time></trkpt><trkpt lat="41.1494882" lon="14.3215121"><ele>30.4</ele><time>2026-05-03T08:28:22.981Z</time></trkpt><trkpt lat="41.1493975" lon="14.3214843"><ele>30.2</ele><time>2026-05-03T08:28:23.981Z</time></trkpt><trkpt lat="41.1493087" lon="14.3214588"><ele>30.0</ele><time>2026-05-03T08:28:24.981Z</time></trkpt><trkpt lat="41.1492208" lon="14.3214304"><ele>30.0</ele><time>2026-05-03T08:28:25.982Z</time></trkpt><trkpt lat="41.1491317" lon="14.321401"><ele>30.0</ele><time>2026-05-03T08:28:26.981Z</time></trkpt><trkpt lat="41.1490427" lon="14.3213745"><ele>30.0</ele><time>2026-05-03T08:28:27.981Z</time></trkpt><trkpt lat="41.1489563" lon="14.3213507"><ele>30.0</ele><time>2026-05-03T08:28:28.982Z</time></trkpt><trkpt lat="41.1488701" lon="14.3213252"><ele>30.0</ele><time>2026-05-03T08:28:29.981Z</time></trkpt><trkpt lat="41.148784" lon="14.3212982"><ele>30.0</ele><time>2026-05-03T08:28:30.982Z</time></trkpt><trkpt lat="41.1486995" lon="14.3212747"><ele>30.333333333333332</ele><time>2026-05-03T08:28:31.981Z</time></trkpt><trkpt lat="41.1486142" lon="14.3212525"><ele>30.666666666666664</ele><time>2026-05-03T08:28:32.981Z</time></trkpt><trkpt lat="41.1485276" lon="14.3212272"><ele>31.0</ele><time>2026-05-03T08:28:33.981Z</time></trkpt><trkpt lat="41.1484433" lon="14.3212024"><ele>31.333333333333332</ele><time>2026-05-03T08:28:34.982Z</time></trkpt><trkpt lat="41.1483585" lon="14.3211778"><ele>31.666666666666664</ele><time>2026-05-03T08:28:35.982Z</time></trkpt><trkpt lat="41.148273" lon="14.3211527"><ele>32.0</ele><time>2026-05-03T08:28:36.981Z</time></trkpt><trkpt lat="41.1481869" lon="14.3211268"><ele>32.166666666666664</ele><time>2026-05-03T08:28:37.981Z</time></trkpt><trkpt lat="41.1480998" lon="14.3211022"><ele>32.33333333333333</ele><time>2026-05-03T08:28:38.981Z</time></trkpt><trkpt lat="41.1480136" lon="14.3210788"><ele>32.5</ele><time>2026-05-03T08:28:39.981Z</time></trkpt><trkpt lat="41.1479266" lon="14.3210534"><ele>32.666666666666664</ele><time>2026-05-03T08:28:40.981Z</time></trkpt><trkpt lat="41.1478419" lon="14.3210299"><ele>32.833333333333336</ele><time>2026-05-03T08:28:41.981Z</time></trkpt><trkpt lat="41.1477589" lon="14.3210076"><ele>33.0</ele><time>2026-05-03T08:28:42.981Z</time></trkpt><trkpt lat="41.1476775" lon="14.3209845"><ele>33.0</ele><time>2026-05-03T08:28:43.981Z</time></trkpt><trkpt lat="41.1475989" lon="14.3209579"><ele>33.0</ele><time>2026-05-03T08:28:44.981Z</time></trkpt><trkpt lat="41.1475209" lon="14.320932"><ele>33.0</ele><time>2026-05-03T08:28:45.982Z</time></trkpt><trkpt lat="41.1474414" lon="14.3209095"><ele>33.0</ele><time>2026-05-03T08:28:46.981Z</time></trkpt><trkpt lat="41.1473623" lon="14.3208868"><ele>33.0</ele><time>2026-05-03T08:28:47.982Z</time></trkpt><trkpt lat="41.1472813" lon="14.3208645"><ele>33.0</ele><time>2026-05-03T08:28:48.981Z</time></trkpt><trkpt lat="41.1472001" lon="14.320844"><ele>32.5</ele><time>2026-05-03T08:28:49.981Z</time></trkpt><trkpt lat="41.1471196" lon="14.3208234"><ele>32.0</ele><time>2026-05-03T08:28:50.982Z</time></trkpt><trkpt lat="41.1470391" lon="14.3208041"><ele>31.5</ele><time>2026-05-03T08:28:51.982Z</time></trkpt><trkpt lat="41.1469584" lon="14.3207782"><ele>31.0</ele><time>2026-05-03T08:28:52.981Z</time></trkpt><trkpt lat="41.146881" lon="14.3207538"><ele>30.5</ele><time>2026-05-03T08:28:53.981Z</time></trkpt><trkpt lat="41.1468005" lon="14.320732"><ele>30.0</ele><time>2026-05-03T08:28:54.981Z</time></trkpt><trkpt lat="41.1467211" lon="14.3207102"><ele>30.0</ele><time>2026-05-03T08:28:55.981Z</time></trkpt><trkpt lat="41.1466422" lon="14.3206843"><ele>30.0</ele><time>2026-05-03T08:28:56.982Z</time></trkpt><trkpt lat="41.1465612" lon="14.3206609"><ele>30.0</ele><time>2026-05-03T08:28:57.981Z</time></trkpt><trkpt lat="41.1464798" lon="14.3206379"><ele>30.0</ele><time>2026-05-03T08:28:58.981Z</time></trkpt><trkpt lat="41.1463997" lon="14.3206128"><ele>30.0</ele><time>2026-05-03T08:28:59.982Z</time></trkpt><trkpt lat="41.1463189" lon="14.320586"><ele>30.0</ele><time>2026-05-03T08:29:00.981Z</time></trkpt><trkpt lat="41.1462384" lon="14.3205645"><ele>30.166666666666668</ele><time>2026-05-03T08:29:01.981Z</time></trkpt><trkpt lat="41.1461587" lon="14.3205373"><ele>30.333333333333336</ele><time>2026-05-03T08:29:02.981Z</time></trkpt><trkpt lat="41.1460793" lon="14.3205159"><ele>30.5</ele><time>2026-05-03T08:29:03.981Z</time></trkpt><trkpt lat="41.1459988" lon="14.3204949"><ele>30.666666666666668</ele><time>2026-05-03T08:29:04.981Z</time></trkpt><trkpt lat="41.1459193" lon="14.3204698"><ele>30.833333333333336</ele><time>2026-05-03T08:29:05.982Z</time></trkpt><trkpt lat="41.1458398" lon="14.3204479"><ele>31.0</ele><time>2026-05-03T08:29:06.981Z</time></trkpt><trkpt lat="41.1457587" lon="14.3204261"><ele>31.000000000000004</ele><time>2026-05-03T08:29:07.982Z</time></trkpt><trkpt lat="41.1456798" lon="14.3204045"><ele>31.0</ele><time>2026-05-03T08:29:08.981Z</time></trkpt><trkpt lat="41.1456025" lon="14.3203819"><ele>31.0</ele><time>2026-05-03T08:29:09.981Z</time></trkpt><trkpt lat="41.1455236" lon="14.3203605"><ele>31.0</ele><time>2026-05-03T08:29:10.982Z</time></trkpt><trkpt lat="41.1454463" lon="14.3203377"><ele>31.000000000000004</ele><time>2026-05-03T08:29:11.981Z</time></trkpt><trkpt lat="41.1453666" lon="14.3203141"><ele>31.0</ele><time>2026-05-03T08:29:12.981Z</time></trkpt><trkpt lat="41.1452875" lon="14.3202911"><ele>31.000000000000004</ele><time>2026-05-03T08:29:13.981Z</time></trkpt><trkpt lat="41.1452104" lon="14.3202697"><ele>31.0</ele><time>2026-05-03T08:29:14.981Z</time></trkpt><trkpt lat="41.1451349" lon="14.3202454"><ele>31.0</ele><time>2026-05-03T08:29:15.981Z</time></trkpt><trkpt lat="41.145059" lon="14.3202244"><ele>31.0</ele><time>2026-05-03T08:29:16.981Z</time></trkpt><trkpt lat="41.1449838" lon="14.3202038"><ele>31.000000000000004</ele><time>2026-05-03T08:29:17.982Z</time></trkpt><trkpt lat="41.1449105" lon="14.3201797"><ele>31.0</ele><time>2026-05-03T08:29:18.982Z</time></trkpt><trkpt lat="41.1448375" lon="14.3201607"><ele>31.142857142857146</ele><time>2026-05-03T08:29:19.981Z</time></trkpt><trkpt lat="41.1447656" lon="14.3201416"><ele>31.28571428571429</ele><time>2026-05-03T08:29:20.981Z</time></trkpt><trkpt lat="41.1446939" lon="14.3201225"><ele>31.42857142857143</ele><time>2026-05-03T08:29:21.982Z</time></trkpt><trkpt lat="41.1446212" lon="14.320103"><ele>31.57142857142857</ele><time>2026-05-03T08:29:22.981Z</time></trkpt><trkpt lat="41.1445509" lon="14.3200801"><ele>31.71428571428571</ele><time>2026-05-03T08:29:23.981Z</time></trkpt><trkpt lat="41.1444804" lon="14.3200581"><ele>31.857142857142854</ele><time>2026-05-03T08:29:24.982Z</time></trkpt><trkpt lat="41.1444081" lon="14.3200393"><ele>32.0</ele><time>2026-05-03T08:29:25.981Z</time></trkpt><trkpt lat="41.1443377" lon="14.3200197"><ele>32.0</ele><time>2026-05-03T08:29:26.981Z</time></trkpt><trkpt lat="41.1442666" lon="14.3199992"><ele>31.999999999999996</ele><time>2026-05-03T08:29:27.981Z</time></trkpt><trkpt lat="41.1441982" lon="14.3199774"><ele>32.0</ele><time>2026-05-03T08:29:28.982Z</time></trkpt><trkpt lat="41.1441297" lon="14.3199568"><ele>32.0</ele><time>2026-05-03T08:29:29.982Z</time></trkpt><trkpt lat="41.1440573" lon="14.3199433"><ele>31.999999999999996</ele><time>2026-05-03T08:29:30.981Z</time></trkpt><trkpt lat="41.1439873" lon="14.3199272"><ele>32.0</ele><time>2026-05-03T08:29:31.982Z</time></trkpt><trkpt lat="41.1439187" lon="14.3199032"><ele>32.0</ele><time>2026-05-03T08:29:32.982Z</time></trkpt><trkpt lat="41.1438513" lon="14.3198768"><ele>32.0</ele><time>2026-05-03T08:29:33.981Z</time></trkpt><trkpt lat="41.1437825" lon="14.3198543"><ele>31.999999999999996</ele><time>2026-05-03T08:29:34.981Z</time></trkpt><trkpt lat="41.1437129" lon="14.3198317"><ele>32.0</ele><time>2026-05-03T08:29:35.982Z</time></trkpt><trkpt lat="41.1436421" lon="14.319807"><ele>32.0</ele><time>2026-05-03T08:29:36.981Z</time></trkpt><trkpt lat="41.1435737" lon="14.3197838"><ele>31.999999999999996</ele><time>2026-05-03T08:29:37.982Z</time></trkpt><trkpt lat="41.1435054" lon="14.3197642"><ele>32.0</ele><time>2026-05-03T08:29:38.981Z</time></trkpt><trkpt lat="41.1434368" lon="14.3197468"><ele>32.0</ele><time>2026-05-03T08:29:39.981Z</time></trkpt><trkpt lat="41.1433672" lon="14.3197272"><ele>32.0</ele><time>2026-05-03T08:29:40.981Z</time></trkpt><trkpt lat="41.1432987" lon="14.3197086"><ele>31.999999999999996</ele><time>2026-05-03T08:29:41.982Z</time></trkpt><trkpt lat="41.14323" lon="14.3196907"><ele>32.0</ele><time>2026-05-03T08:29:42.981Z</time></trkpt><trkpt lat="41.1431626" lon="14.3196712"><ele>32.0</ele><time>2026-05-03T08:29:43.982Z</time></trkpt><trkpt lat="41.1430931" lon="14.319651"><ele>31.999999999999996</ele><time>2026-05-03T08:29:44.981Z</time></trkpt><trkpt lat="41.1430252" lon="14.3196296"><ele>32.0</ele><time>2026-05-03T08:29:45.981Z</time></trkpt><trkpt lat="41.1429542" lon="14.3196091"><ele>32.0</ele><time>2026-05-03T08:29:46.981Z</time></trkpt><trkpt lat="41.142886" lon="14.3195895"><ele>32.14285714285714</ele><time>2026-05-03T08:29:47.981Z</time></trkpt><trkpt lat="41.1428199" lon="14.3195702"><ele>32.285714285714285</ele><time>2026-05-03T08:29:48.982Z</time></trkpt><trkpt lat="41.1427531" lon="14.3195539"><ele>32.42857142857143</ele><time>2026-05-03T08:29:49.982Z</time></trkpt><trkpt lat="41.1426854" lon="14.3195344"><ele>32.57142857142857</ele><time>2026-05-03T08:29:50.981Z</time></trkpt><trkpt lat="41.1426195" lon="14.319514"><ele>32.714285714285715</ele><time>2026-05-03T08:29:51.981Z</time></trkpt><trkpt lat="41.1425532" lon="14.3194998"><ele>32.857142857142854</ele><time>2026-05-03T08:29:52.982Z</time></trkpt><trkpt lat="41.1424874" lon="14.3194856"><ele>33.0</ele><time>2026-05-03T08:29:53.981Z</time></trkpt><trkpt lat="41.1424239" lon="14.3194683"><ele>33.0</ele><time>2026-05-03T08:29:54.981Z</time></trkpt><trkpt lat="41.1423592" lon="14.3194494"><ele>33.0</ele><time>2026-05-03T08:29:55.981Z</time></trkpt><trkpt lat="41.1422934" lon="14.3194296"><ele>33.0</ele><time>2026-05-03T08:29:56.981Z</time></trkpt><trkpt lat="41.1422276" lon="14.3194129"><ele>33.0</ele><time>2026-05-03T08:29:57.981Z</time></trkpt><trkpt lat="41.1421629" lon="14.3193949"><ele>33.0</ele><time>2026-05-03T08:29:58.982Z</time></trkpt><trkpt lat="41.1420995" lon="14.3193768"><ele>33.0</ele><time>2026-05-03T08:29:59.982Z</time></trkpt><trkpt lat="41.142037" lon="14.3193574"><ele>33.0</ele><time>2026-05-03T08:30:00.981Z</time></trkpt><trkpt lat="41.1419747" lon="14.31934"><ele>33.0</ele><time>2026-05-03T08:30:01.981Z</time></trkpt><trkpt lat="41.1419141" lon="14.3193171"><ele>33.0</ele><time>2026-05-03T08:30:02.981Z</time></trkpt><trkpt lat="41.14185" lon="14.319298"><ele>33.0</ele><time>2026-05-03T08:30:03.981Z</time></trkpt><trkpt lat="41.1417873" lon="14.3192768"><ele>33.0</ele><time>2026-05-03T08:30:04.981Z</time></trkpt><trkpt lat="41.1417261" lon="14.319255"><ele>33.0</ele><time>2026-05-03T08:30:05.981Z</time></trkpt><trkpt lat="41.1416084" lon="14.319219"><ele>33.0</ele><time>2026-05-03T08:30:07.982Z</time></trkpt><trkpt lat="41.1414972" lon="14.3191858"><ele>32.8</ele><time>2026-05-03T08:30:09.981Z</time></trkpt><trkpt lat="41.141399" lon="14.3191512"><ele>32.599999999999994</ele><time>2026-05-03T08:30:11.981Z</time></trkpt><trkpt lat="41.1413025" lon="14.3191245"><ele>32.400000000000006</ele><time>2026-05-03T08:30:13.981Z</time></trkpt><trkpt lat="41.1412117" lon="14.3191014"><ele>32.2</ele><time>2026-05-03T08:30:15.982Z</time></trkpt><trkpt lat="41.1411241" lon="14.3190883"><ele>32.0</ele><time>2026-05-03T08:30:17.981Z</time></trkpt><trkpt lat="41.1410306" lon="14.3190788"><ele>32.0</ele><time>2026-05-03T08:30:19.981Z</time></trkpt><trkpt lat="41.1409329" lon="14.3190735"><ele>32.0</ele><time>2026-05-03T08:30:21.981Z</time></trkpt><trkpt lat="41.1408347" lon="14.3190797"><ele>32.0</ele><time>2026-05-03T08:30:23.981Z</time></trkpt><trkpt lat="41.140732" lon="14.3190903"><ele>32.0</ele><time>2026-05-03T08:30:25.982Z</time></trkpt><trkpt lat="41.140627" lon="14.3191077"><ele>32.0</ele><time>2026-05-03T08:30:27.981Z</time></trkpt><trkpt lat="41.1405279" lon="14.3191206"><ele>31.8</ele><time>2026-05-03T08:30:29.981Z</time></trkpt><trkpt lat="41.1404283" lon="14.3191305"><ele>31.6</ele><time>2026-05-03T08:30:31.982Z</time></trkpt><trkpt lat="41.1403257" lon="14.319138"><ele>31.400000000000002</ele><time>2026-05-03T08:30:33.981Z</time></trkpt><trkpt lat="41.1402315" lon="14.3191457"><ele>31.200000000000003</ele><time>2026-05-03T08:30:35.982Z</time></trkpt><trkpt lat="41.1401357" lon="14.3191594"><ele>31.0</ele><time>2026-05-03T08:30:37.981Z</time></trkpt><trkpt lat="41.1400395" lon="14.3191715"><ele>31.0</ele><time>2026-05-03T08:30:39.981Z</time></trkpt><trkpt lat="41.1399409" lon="14.3191849"><ele>31.0</ele><time>2026-05-03T08:30:41.982Z</time></trkpt><trkpt lat="41.1398369" lon="14.3191969"><ele>31.0</ele><time>2026-05-03T08:30:43.981Z</time></trkpt><trkpt lat="41.1397312" lon="14.319209"><ele>31.0</ele><time>2026-05-03T08:30:45.982Z</time></trkpt><trkpt lat="41.1396242" lon="14.3192147"><ele>31.0</ele><time>2026-05-03T08:30:47.981Z</time></trkpt><trkpt lat="41.1395158" lon="14.3192068"><ele>31.833333333333336</ele><time>2026-05-03T08:30:49.981Z</time></trkpt><trkpt lat="41.1394125" lon="14.3191574"><ele>32.66666666666667</ele><time>2026-05-03T08:30:51.981Z</time></trkpt><trkpt lat="41.1393203" lon="14.3190571"><ele>33.5</ele><time>2026-05-03T08:30:53.981Z</time></trkpt><trkpt lat="41.1392755" lon="14.318988"><ele>34.333333333333336</ele><time>2026-05-03T08:30:54.981Z</time></trkpt><trkpt lat="41.1392368" lon="14.3189054"><ele>35.166666666666664</ele><time>2026-05-03T08:30:55.982Z</time></trkpt><trkpt lat="41.1391897" lon="14.3188232"><ele>36.0</ele><time>2026-05-03T08:30:56.981Z</time></trkpt><trkpt lat="41.1391433" lon="14.3187334"><ele>36.0</ele><time>2026-05-03T08:30:57.981Z</time></trkpt><trkpt lat="41.1390919" lon="14.3186455"><ele>36.0</ele><time>2026-05-03T08:30:58.981Z</time></trkpt><trkpt lat="41.1390425" lon="14.3185586"><ele>36.0</ele><time>2026-05-03T08:30:59.981Z</time></trkpt><trkpt lat="41.1389914" lon="14.3184694"><ele>36.0</ele><time>2026-05-03T08:31:00.981Z</time></trkpt><trkpt lat="41.1389403" lon="14.3183779"><ele>36.0</ele><time>2026-05-03T08:31:01.981Z</time></trkpt><trkpt lat="41.1388874" lon="14.3182859"><ele>36.0</ele><time>2026-05-03T08:31:02.981Z</time></trkpt><trkpt lat="41.1388334" lon="14.3181917"><ele>35.8</ele><time>2026-05-03T08:31:03.981Z</time></trkpt><trkpt lat="41.1387758" lon="14.3181024"><ele>35.6</ele><time>2026-05-03T08:31:04.982Z</time></trkpt><trkpt lat="41.1387187" lon="14.3180108"><ele>35.4</ele><time>2026-05-03T08:31:05.982Z</time></trkpt><trkpt lat="41.1386589" lon="14.3179168"><ele>35.2</ele><time>2026-05-03T08:31:06.981Z</time></trkpt><trkpt lat="41.1385987" lon="14.3178228"><ele>35.0</ele><time>2026-05-03T08:31:07.981Z</time></trkpt><trkpt lat="41.1385384" lon="14.3177275"><ele>35.0</ele><time>2026-05-03T08:31:08.981Z</time></trkpt><trkpt lat="41.1384777" lon="14.3176326"><ele>35.0</ele><time>2026-05-03T08:31:09.981Z</time></trkpt><trkpt lat="41.1384127" lon="14.3175408"><ele>35.0</ele><time>2026-05-03T08:31:10.981Z</time></trkpt><trkpt lat="41.1383473" lon="14.3174526"><ele>35.0</ele><time>2026-05-03T08:31:11.981Z</time></trkpt><trkpt lat="41.1382807" lon="14.3173677"><ele>35.0</ele><time>2026-05-03T08:31:12.981Z</time></trkpt><trkpt lat="41.138212" lon="14.317282"><ele>34.5</ele><time>2026-05-03T08:31:13.981Z</time></trkpt><trkpt lat="41.1381461" lon="14.3171989"><ele>34.0</ele><time>2026-05-03T08:31:14.982Z</time></trkpt><trkpt lat="41.1380852" lon="14.3171103"><ele>33.5</ele><time>2026-05-03T08:31:15.981Z</time></trkpt><trkpt lat="41.1380218" lon="14.3170265"><ele>33.0</ele><time>2026-05-03T08:31:16.982Z</time></trkpt><trkpt lat="41.1379566" lon="14.3169505"><ele>32.5</ele><time>2026-05-03T08:31:17.981Z</time></trkpt><trkpt lat="41.1378925" lon="14.3168732"><ele>32.0</ele><time>2026-05-03T08:31:18.981Z</time></trkpt><trkpt lat="41.137831" lon="14.3167941"><ele>31.999999999999996</ele><time>2026-05-03T08:31:19.981Z</time></trkpt><trkpt lat="41.1377678" lon="14.3167186"><ele>32.0</ele><time>2026-05-03T08:31:20.981Z</time></trkpt><trkpt lat="41.1377034" lon="14.3166393"><ele>32.0</ele><time>2026-05-03T08:31:21.982Z</time></trkpt><trkpt lat="41.1376416" lon="14.3165636"><ele>32.0</ele><time>2026-05-03T08:31:22.981Z</time></trkpt><trkpt lat="41.137579" lon="14.3164849"><ele>31.999999999999996</ele><time>2026-05-03T08:31:23.981Z</time></trkpt><trkpt lat="41.1375129" lon="14.3164076"><ele>32.0</ele><time>2026-05-03T08:31:24.982Z</time></trkpt><trkpt lat="41.137448" lon="14.3163308"><ele>32.33333333333333</ele><time>2026-05-03T08:31:25.981Z</time></trkpt><trkpt lat="41.1373845" lon="14.3162485"><ele>32.666666666666664</ele><time>2026-05-03T08:31:26.981Z</time></trkpt><trkpt lat="41.1373195" lon="14.3161719"><ele>33.0</ele><time>2026-05-03T08:31:27.981Z</time></trkpt><trkpt lat="41.1372554" lon="14.3160938"><ele>33.333333333333336</ele><time>2026-05-03T08:31:28.981Z</time></trkpt><trkpt lat="41.1371927" lon="14.3160155"><ele>33.66666666666667</ele><time>2026-05-03T08:31:29.981Z</time></trkpt><trkpt lat="41.1371268" lon="14.3159384"><ele>34.0</ele><time>2026-05-03T08:31:30.982Z</time></trkpt><trkpt lat="41.1370601" lon="14.315862"><ele>34.0</ele><time>2026-05-03T08:31:31.981Z</time></trkpt><trkpt lat="41.1369956" lon="14.3157855"><ele>34.0</ele><time>2026-05-03T08:31:32.981Z</time></trkpt><trkpt lat="41.1369316" lon="14.3157081"><ele>34.0</ele><time>2026-05-03T08:31:33.982Z</time></trkpt><trkpt lat="41.1368681" lon="14.3156338"><ele>34.0</ele><time>2026-05-03T08:31:34.981Z</time></trkpt><trkpt lat="41.1368055" lon="14.3155586"><ele>34.0</ele><time>2026-05-03T08:31:35.981Z</time></trkpt><trkpt lat="41.1367414" lon="14.3154856"><ele>34.0</ele><time>2026-05-03T08:31:36.981Z</time></trkpt><trkpt lat="41.1366797" lon="14.3154151"><ele>33.66666666666667</ele><time>2026-05-03T08:31:37.981Z</time></trkpt><trkpt lat="41.136617" lon="14.3153459"><ele>33.333333333333336</ele><time>2026-05-03T08:31:38.981Z</time></trkpt><trkpt lat="41.1365604" lon="14.3152697"><ele>33.0</ele><time>2026-05-03T08:31:39.981Z</time></trkpt><trkpt lat="41.1365015" lon="14.3151944"><ele>32.666666666666664</ele><time>2026-05-03T08:31:40.981Z</time></trkpt><trkpt lat="41.1364419" lon="14.3151224"><ele>32.33333333333333</ele><time>2026-05-03T08:31:41.981Z</time></trkpt><trkpt lat="41.1363845" lon="14.3150522"><ele>32.0</ele><time>2026-05-03T08:31:42.981Z</time></trkpt><trkpt lat="41.1363221" lon="14.3149828"><ele>31.999999999999996</ele><time>2026-05-03T08:31:43.981Z</time></trkpt><trkpt lat="41.1362624" lon="14.3149112"><ele>32.0</ele><time>2026-05-03T08:31:44.982Z</time></trkpt><trkpt lat="41.136204" lon="14.3148383"><ele>32.0</ele><time>2026-05-03T08:31:45.981Z</time></trkpt><trkpt lat="41.1361445" lon="14.314766"><ele>32.0</ele><time>2026-05-03T08:31:46.982Z</time></trkpt><trkpt lat="41.136085" lon="14.3146926"><ele>31.999999999999996</ele><time>2026-05-03T08:31:47.981Z</time></trkpt><trkpt lat="41.1360252" lon="14.314618"><ele>32.0</ele><time>2026-05-03T08:31:48.981Z</time></trkpt><trkpt lat="41.1359632" lon="14.3145441"><ele>31.833333333333332</ele><time>2026-05-03T08:31:49.981Z</time></trkpt><trkpt lat="41.1359013" lon="14.3144705"><ele>31.666666666666664</ele><time>2026-05-03T08:31:50.981Z</time></trkpt><trkpt lat="41.1358416" lon="14.3143967"><ele>31.5</ele><time>2026-05-03T08:31:51.981Z</time></trkpt><trkpt lat="41.1357785" lon="14.314323"><ele>31.333333333333336</ele><time>2026-05-03T08:31:52.981Z</time></trkpt><trkpt lat="41.1357177" lon="14.3142475"><ele>31.166666666666668</ele><time>2026-05-03T08:31:53.982Z</time></trkpt><trkpt lat="41.1356581" lon="14.3141717"><ele>31.0</ele><time>2026-05-03T08:31:54.981Z</time></trkpt><trkpt lat="41.1355971" lon="14.3140988"><ele>31.000000000000004</ele><time>2026-05-03T08:31:55.981Z</time></trkpt><trkpt lat="41.1355355" lon="14.314025"><ele>31.0</ele><time>2026-05-03T08:31:56.981Z</time></trkpt><trkpt lat="41.1354728" lon="14.3139535"><ele>31.0</ele><time>2026-05-03T08:31:57.982Z</time></trkpt><trkpt lat="41.1354102" lon="14.3138826"><ele>31.0</ele><time>2026-05-03T08:31:58.981Z</time></trkpt><trkpt lat="41.1353538" lon="14.3138069"><ele>31.000000000000004</ele><time>2026-05-03T08:31:59.981Z</time></trkpt><trkpt lat="41.1352953" lon="14.3137306"><ele>31.0</ele><time>2026-05-03T08:32:00.981Z</time></trkpt><trkpt lat="41.1352367" lon="14.3136588"><ele>31.000000000000004</ele><time>2026-05-03T08:32:01.981Z</time></trkpt><trkpt lat="41.1351751" lon="14.3135882"><ele>31.0</ele><time>2026-05-03T08:32:02.981Z</time></trkpt><trkpt lat="41.1351157" lon="14.3135162"><ele>31.0</ele><time>2026-05-03T08:32:03.982Z</time></trkpt><trkpt lat="41.1350546" lon="14.3134438"><ele>31.0</ele><time>2026-05-03T08:32:04.981Z</time></trkpt><trkpt lat="41.1349959" lon="14.3133743"><ele>31.000000000000004</ele><time>2026-05-03T08:32:05.981Z</time></trkpt><trkpt lat="41.1349376" lon="14.3133036"><ele>31.0</ele><time>2026-05-03T08:32:06.982Z</time></trkpt><trkpt lat="41.1348812" lon="14.3132309"><ele>31.166666666666668</ele><time>2026-05-03T08:32:07.981Z</time></trkpt><trkpt lat="41.1348224" lon="14.3131614"><ele>31.333333333333336</ele><time>2026-05-03T08:32:08.981Z</time></trkpt><trkpt lat="41.1347655" lon="14.3130924"><ele>31.5</ele><time>2026-05-03T08:32:09.981Z</time></trkpt><trkpt lat="41.1347077" lon="14.3130226"><ele>31.666666666666664</ele><time>2026-05-03T08:32:10.981Z</time></trkpt><trkpt lat="41.1346496" lon="14.3129521"><ele>31.833333333333332</ele><time>2026-05-03T08:32:11.981Z</time></trkpt><trkpt lat="41.1345926" lon="14.3128875"><ele>32.0</ele><time>2026-05-03T08:32:12.981Z</time></trkpt><trkpt lat="41.1345366" lon="14.3128216"><ele>32.14285714285714</ele><time>2026-05-03T08:32:13.982Z</time></trkpt><trkpt lat="41.13448" lon="14.3127555"><ele>32.285714285714285</ele><time>2026-05-03T08:32:14.981Z</time></trkpt><trkpt lat="41.1344252" lon="14.31269"><ele>32.42857142857143</ele><time>2026-05-03T08:32:15.982Z</time></trkpt><trkpt lat="41.1343696" lon="14.312627"><ele>32.57142857142857</ele><time>2026-05-03T08:32:16.982Z</time></trkpt><trkpt lat="41.1343165" lon="14.3125635"><ele>32.714285714285715</ele><time>2026-05-03T08:32:17.982Z</time></trkpt><trkpt lat="41.134263" lon="14.3125001"><ele>32.857142857142854</ele><time>2026-05-03T08:32:18.981Z</time></trkpt><trkpt lat="41.1342092" lon="14.3124384"><ele>33.0</ele><time>2026-05-03T08:32:19.981Z</time></trkpt><trkpt lat="41.1341596" lon="14.312374"><ele>33.0</ele><time>2026-05-03T08:32:20.981Z</time></trkpt><trkpt lat="41.1341104" lon="14.3123107"><ele>33.0</ele><time>2026-05-03T08:32:21.982Z</time></trkpt><trkpt lat="41.1340619" lon="14.3122509"><ele>33.0</ele><time>2026-05-03T08:32:22.981Z</time></trkpt><trkpt lat="41.1340101" lon="14.3121949"><ele>33.0</ele><time>2026-05-03T08:32:23.981Z</time></trkpt><trkpt lat="41.1339604" lon="14.3121394"><ele>33.0</ele><time>2026-05-03T08:32:24.982Z</time></trkpt><trkpt lat="41.1339113" lon="14.3120826"><ele>33.0</ele><time>2026-05-03T08:32:25.981Z</time></trkpt><trkpt lat="41.1338657" lon="14.3120247"><ele>33.0</ele><time>2026-05-03T08:32:26.981Z</time></trkpt><trkpt lat="41.1337738" lon="14.311911"><ele>33.42857142857143</ele><time>2026-05-03T08:32:28.982Z</time></trkpt><trkpt lat="41.1337275" lon="14.3118542"><ele>33.85714285714286</ele><time>2026-05-03T08:32:29.981Z</time></trkpt><trkpt lat="41.1336777" lon="14.311801"><ele>34.28571428571429</ele><time>2026-05-03T08:32:30.982Z</time></trkpt><trkpt lat="41.1336288" lon="14.3117457"><ele>34.714285714285715</ele><time>2026-05-03T08:32:31.981Z</time></trkpt><trkpt lat="41.1335323" lon="14.3116336"><ele>35.142857142857146</ele><time>2026-05-03T08:32:33.981Z</time></trkpt><trkpt lat="41.1334815" lon="14.3115773"><ele>35.57142857142858</ele><time>2026-05-03T08:32:34.982Z</time></trkpt><trkpt lat="41.1334349" lon="14.3115195"><ele>36.0</ele><time>2026-05-03T08:32:35.981Z</time></trkpt><trkpt lat="41.1333864" lon="14.3114638"><ele>36.0</ele><time>2026-05-03T08:32:36.982Z</time></trkpt><trkpt lat="41.1333388" lon="14.3114064"><ele>36.0</ele><time>2026-05-03T08:32:37.982Z</time></trkpt><trkpt lat="41.1332911" lon="14.3113486"><ele>36.0</ele><time>2026-05-03T08:32:38.981Z</time></trkpt><trkpt lat="41.1331993" lon="14.3112406"><ele>36.0</ele><time>2026-05-03T08:32:40.981Z</time></trkpt><trkpt lat="41.1331115" lon="14.3111342"><ele>36.0</ele><time>2026-05-03T08:32:42.981Z</time></trkpt><trkpt lat="41.1330293" lon="14.3110307"><ele>36.0</ele><time>2026-05-03T08:32:44.981Z</time></trkpt><trkpt lat="41.1329423" lon="14.3109291"><ele>36.0</ele><time>2026-05-03T08:32:46.981Z</time></trkpt><trkpt lat="41.1328509" lon="14.3108204"><ele>36.0</ele><time>2026-05-03T08:32:48.981Z</time></trkpt><trkpt lat="41.1327614" lon="14.310715"><ele>36.0</ele><time>2026-05-03T08:32:50.981Z</time></trkpt><trkpt lat="41.1326769" lon="14.3105908"><ele>35.833333333333336</ele><time>2026-05-03T08:32:52.981Z</time></trkpt><trkpt lat="41.1326375" lon="14.3105253"><ele>35.666666666666664</ele><time>2026-05-03T08:32:53.982Z</time></trkpt><trkpt lat="41.1325972" lon="14.3104595"><ele>35.5</ele><time>2026-05-03T08:32:54.981Z</time></trkpt><trkpt lat="41.1325622" lon="14.3103867"><ele>35.33333333333333</ele><time>2026-05-03T08:32:55.981Z</time></trkpt><trkpt lat="41.1325344" lon="14.3103114"><ele>35.166666666666664</ele><time>2026-05-03T08:32:56.981Z</time></trkpt><trkpt lat="41.1324811" lon="14.3101671"><ele>35.0</ele><time>2026-05-03T08:32:58.981Z</time></trkpt><trkpt lat="41.132447" lon="14.3100238"><ele>35.0</ele><time>2026-05-03T08:33:00.981Z</time></trkpt><trkpt lat="41.1324238" lon="14.3098705"><ele>35.0</ele><time>2026-05-03T08:33:02.981Z</time></trkpt><trkpt lat="41.1324054" lon="14.3097127"><ele>35.0</ele><time>2026-05-03T08:33:04.981Z</time></trkpt><trkpt lat="41.1323902" lon="14.3095555"><ele>35.0</ele><time>2026-05-03T08:33:06.982Z</time></trkpt><trkpt lat="41.1323803" lon="14.309398"><ele>35.25</ele><time>2026-05-03T08:33:08.981Z</time></trkpt><trkpt lat="41.1323772" lon="14.3092336"><ele>35.5</ele><time>2026-05-03T08:33:10.982Z</time></trkpt><trkpt lat="41.132375" lon="14.309068"><ele>35.75</ele><time>2026-05-03T08:33:12.981Z</time></trkpt><trkpt lat="41.132363" lon="14.3089054"><ele>36.0</ele><time>2026-05-03T08:33:14.981Z</time></trkpt><trkpt lat="41.1323602" lon="14.3087403"><ele>36.0</ele><time>2026-05-03T08:33:16.981Z</time></trkpt><trkpt lat="41.1323576" lon="14.3085785"><ele>36.0</ele><time>2026-05-03T08:33:18.982Z</time></trkpt><trkpt lat="41.1323559" lon="14.3084138"><ele>36.0</ele><time>2026-05-03T08:33:20.981Z</time></trkpt><trkpt lat="41.1323544" lon="14.3083283"><ele>36.0</ele><time>2026-05-03T08:33:21.981Z</time></trkpt><trkpt lat="41.1323522" lon="14.308242"><ele>36.0</ele><time>2026-05-03T08:33:22.981Z</time></trkpt><trkpt lat="41.1323508" lon="14.3081532"><ele>36.0</ele><time>2026-05-03T08:33:23.981Z</time></trkpt><trkpt lat="41.1323491" lon="14.3080632"><ele>35.85714285714286</ele><time>2026-05-03T08:33:24.981Z</time></trkpt><trkpt lat="41.132343" lon="14.3079734"><ele>35.714285714285715</ele><time>2026-05-03T08:33:25.981Z</time></trkpt><trkpt lat="41.1323408" lon="14.3078852"><ele>35.57142857142857</ele><time>2026-05-03T08:33:26.982Z</time></trkpt><trkpt lat="41.1323369" lon="14.3077958"><ele>35.42857142857143</ele><time>2026-05-03T08:33:27.981Z</time></trkpt><trkpt lat="41.1323352" lon="14.3077054"><ele>35.285714285714285</ele><time>2026-05-03T08:33:28.982Z</time></trkpt><trkpt lat="41.132328" lon="14.3076151"><ele>35.142857142857146</ele><time>2026-05-03T08:33:29.981Z</time></trkpt><trkpt lat="41.132327" lon="14.3075237"><ele>35.0</ele><time>2026-05-03T08:33:30.981Z</time></trkpt><trkpt lat="41.1323262" lon="14.3074301"><ele>35.0</ele><time>2026-05-03T08:33:31.981Z</time></trkpt><trkpt lat="41.1323207" lon="14.3073369"><ele>35.0</ele><time>2026-05-03T08:33:32.981Z</time></trkpt><trkpt lat="41.1323176" lon="14.3072449"><ele>35.0</ele><time>2026-05-03T08:33:33.981Z</time></trkpt><trkpt lat="41.1323135" lon="14.3071519"><ele>35.0</ele><time>2026-05-03T08:33:34.981Z</time></trkpt><trkpt lat="41.1323129" lon="14.3070621"><ele>35.0</ele><time>2026-05-03T08:33:35.981Z</time></trkpt><trkpt lat="41.1323136" lon="14.3069702"><ele>35.0</ele><time>2026-05-03T08:33:36.981Z</time></trkpt><trkpt lat="41.1323123" lon="14.3068782"><ele>35.0</ele><time>2026-05-03T08:33:37.981Z</time></trkpt><trkpt lat="41.1323167" lon="14.3067867"><ele>35.0</ele><time>2026-05-03T08:33:38.981Z</time></trkpt><trkpt lat="41.1323213" lon="14.3066952"><ele>35.0</ele><time>2026-05-03T08:33:39.981Z</time></trkpt><trkpt lat="41.1323297" lon="14.3066048"><ele>35.0</ele><time>2026-05-03T08:33:40.981Z</time></trkpt><trkpt lat="41.1323356" lon="14.3065136"><ele>35.0</ele><time>2026-05-03T08:33:41.981Z</time></trkpt><trkpt lat="41.1323452" lon="14.306422"><ele>35.0</ele><time>2026-05-03T08:33:42.981Z</time></trkpt><trkpt lat="41.132359" lon="14.3063313"><ele>35.0</ele><time>2026-05-03T08:33:43.981Z</time></trkpt><trkpt lat="41.1323731" lon="14.3062403"><ele>35.0</ele><time>2026-05-03T08:33:44.981Z</time></trkpt><trkpt lat="41.1323896" lon="14.3061481"><ele>35.0</ele><time>2026-05-03T08:33:45.981Z</time></trkpt><trkpt lat="41.132405" lon="14.3060565"><ele>35.0</ele><time>2026-05-03T08:33:46.981Z</time></trkpt><trkpt lat="41.1324195" lon="14.305968"><ele>35.0</ele><time>2026-05-03T08:33:47.982Z</time></trkpt><trkpt lat="41.1324315" lon="14.3058772"><ele>35.0</ele><time>2026-05-03T08:33:48.981Z</time></trkpt><trkpt lat="41.1324449" lon="14.3057849"><ele>35.0</ele><time>2026-05-03T08:33:49.982Z</time></trkpt><trkpt lat="41.1324545" lon="14.3056915"><ele>35.0</ele><time>2026-05-03T08:33:50.982Z</time></trkpt><trkpt lat="41.1324617" lon="14.3056001"><ele>35.0</ele><time>2026-05-03T08:33:51.982Z</time></trkpt><trkpt lat="41.1324697" lon="14.3055083"><ele>35.0</ele><time>2026-05-03T08:33:52.981Z</time></trkpt><trkpt lat="41.1324776" lon="14.3054121"><ele>35.0</ele><time>2026-05-03T08:33:53.981Z</time></trkpt><trkpt lat="41.1324847" lon="14.3053175"><ele>35.0</ele><time>2026-05-03T08:33:54.981Z</time></trkpt><trkpt lat="41.1324867" lon="14.3052239"><ele>35.0</ele><time>2026-05-03T08:33:55.981Z</time></trkpt><trkpt lat="41.1324889" lon="14.3051324"><ele>35.0</ele><time>2026-05-03T08:33:56.982Z</time></trkpt><trkpt lat="41.1324886" lon="14.3050398"><ele>35.0</ele><time>2026-05-03T08:33:57.981Z</time></trkpt><trkpt lat="41.1324867" lon="14.3049412"><ele>35.0</ele><time>2026-05-03T08:33:58.981Z</time></trkpt><trkpt lat="41.1324836" lon="14.3048501"><ele>35.0</ele><time>2026-05-03T08:33:59.981Z</time></trkpt><trkpt lat="41.1324729" lon="14.3047579"><ele>35.0</ele><time>2026-05-03T08:34:00.981Z</time></trkpt><trkpt lat="41.1324686" lon="14.3046665"><ele>35.0</ele><time>2026-05-03T08:34:01.982Z</time></trkpt><trkpt lat="41.1324571" lon="14.3045756"><ele>35.0</ele><time>2026-05-03T08:34:02.981Z</time></trkpt><trkpt lat="41.1324514" lon="14.3044807"><ele>35.0</ele><time>2026-05-03T08:34:03.981Z</time></trkpt><trkpt lat="41.1324454" lon="14.3043846"><ele>35.0</ele><time>2026-05-03T08:34:04.982Z</time></trkpt><trkpt lat="41.1324365" lon="14.3042895"><ele>35.0</ele><time>2026-05-03T08:34:05.981Z</time></trkpt><trkpt lat="41.1324257" lon="14.3041961"><ele>35.0</ele><time>2026-05-03T08:34:06.982Z</time></trkpt><trkpt lat="41.1324102" lon="14.3041"><ele>35.0</ele><time>2026-05-03T08:34:07.981Z</time></trkpt><trkpt lat="41.1323946" lon="14.3040064"><ele>35.0</ele><time>2026-05-03T08:34:08.981Z</time></trkpt><trkpt lat="41.1323789" lon="14.3039119"><ele>35.0</ele><time>2026-05-03T08:34:09.982Z</time></trkpt><trkpt lat="41.1323612" lon="14.3038182"><ele>35.0</ele><time>2026-05-03T08:34:10.981Z</time></trkpt><trkpt lat="41.1323404" lon="14.3037256"><ele>35.0</ele><time>2026-05-03T08:34:11.981Z</time></trkpt><trkpt lat="41.1323183" lon="14.3036334"><ele>35.0</ele><time>2026-05-03T08:34:12.981Z</time></trkpt><trkpt lat="41.1322978" lon="14.3035438"><ele>35.0</ele><time>2026-05-03T08:34:13.981Z</time></trkpt><trkpt lat="41.1322753" lon="14.3034547"><ele>35.0</ele><time>2026-05-03T08:34:14.981Z</time></trkpt><trkpt lat="41.1322528" lon="14.3033657"><ele>35.0</ele><time>2026-05-03T08:34:15.981Z</time></trkpt><trkpt lat="41.1322263" lon="14.3032799"><ele>35.0</ele><time>2026-05-03T08:34:16.981Z</time></trkpt><trkpt lat="41.1321994" lon="14.3031952"><ele>35.0</ele><time>2026-05-03T08:34:17.982Z</time></trkpt><trkpt lat="41.1321704" lon="14.3031116"><ele>35.0</ele><time>2026-05-03T08:34:18.982Z</time></trkpt><trkpt lat="41.1321424" lon="14.3030267"><ele>35.0</ele><time>2026-05-03T08:34:19.981Z</time></trkpt><trkpt lat="41.1321137" lon="14.3029438"><ele>35.285714285714285</ele><time>2026-05-03T08:34:20.981Z</time></trkpt><trkpt lat="41.1320837" lon="14.3028629"><ele>35.57142857142857</ele><time>2026-05-03T08:34:21.981Z</time></trkpt><trkpt lat="41.1320519" lon="14.3027804"><ele>35.85714285714286</ele><time>2026-05-03T08:34:22.981Z</time></trkpt><trkpt lat="41.1320202" lon="14.3027014"><ele>36.14285714285714</ele><time>2026-05-03T08:34:23.981Z</time></trkpt><trkpt lat="41.1319891" lon="14.3026187"><ele>36.42857142857143</ele><time>2026-05-03T08:34:24.981Z</time></trkpt><trkpt lat="41.1319551" lon="14.3025382"><ele>36.714285714285715</ele><time>2026-05-03T08:34:25.981Z</time></trkpt><trkpt lat="41.1319223" lon="14.3024598"><ele>37.0</ele><time>2026-05-03T08:34:26.981Z</time></trkpt><trkpt lat="41.1318905" lon="14.3023797"><ele>37.0</ele><time>2026-05-03T08:34:27.982Z</time></trkpt><trkpt lat="41.131857" lon="14.3023056"><ele>37.0</ele><time>2026-05-03T08:34:28.981Z</time></trkpt><trkpt lat="41.1318239" lon="14.3022301"><ele>37.0</ele><time>2026-05-03T08:34:29.982Z</time></trkpt><trkpt lat="41.13179" lon="14.3021525"><ele>37.0</ele><time>2026-05-03T08:34:30.982Z</time></trkpt><trkpt lat="41.1317564" lon="14.3020763"><ele>37.0</ele><time>2026-05-03T08:34:31.981Z</time></trkpt><trkpt lat="41.1317227" lon="14.3020013"><ele>37.0</ele><time>2026-05-03T08:34:32.981Z</time></trkpt><trkpt lat="41.1316902" lon="14.3019267"><ele>37.0</ele><time>2026-05-03T08:34:33.981Z</time></trkpt><trkpt lat="41.1316568" lon="14.3018508"><ele>37.0</ele><time>2026-05-03T08:34:34.981Z</time></trkpt><trkpt lat="41.1316248" lon="14.3017747"><ele>37.0</ele><time>2026-05-03T08:34:35.981Z</time></trkpt><trkpt lat="41.1315935" lon="14.3016983"><ele>37.0</ele><time>2026-05-03T08:34:36.981Z</time></trkpt><trkpt lat="41.1315594" lon="14.3016228"><ele>37.0</ele><time>2026-05-03T08:34:37.981Z</time></trkpt><trkpt lat="41.1315256" lon="14.3015464"><ele>37.0</ele><time>2026-05-03T08:34:38.981Z</time></trkpt><trkpt lat="41.131492" lon="14.3014721"><ele>37.0</ele><time>2026-05-03T08:34:39.982Z</time></trkpt><trkpt lat="41.1314591" lon="14.301397"><ele>37.0</ele><time>2026-05-03T08:34:40.981Z</time></trkpt><trkpt lat="41.1314285" lon="14.3013208"><ele>37.0</ele><time>2026-05-03T08:34:41.981Z</time></trkpt><trkpt lat="41.1313956" lon="14.301243"><ele>37.0</ele><time>2026-05-03T08:34:42.981Z</time></trkpt><trkpt lat="41.13136" lon="14.3011691"><ele>37.0</ele><time>2026-05-03T08:34:43.981Z</time></trkpt><trkpt lat="41.1313248" lon="14.3010955"><ele>37.0</ele><time>2026-05-03T08:34:44.982Z</time></trkpt><trkpt lat="41.1312953" lon="14.3010192"><ele>37.0</ele><time>2026-05-03T08:34:45.981Z</time></trkpt><trkpt lat="41.1312635" lon="14.3009439"><ele>37.0</ele><time>2026-05-03T08:34:46.981Z</time></trkpt><trkpt lat="41.1312308" lon="14.3008701"><ele>37.0</ele><time>2026-05-03T08:34:47.982Z</time></trkpt><trkpt lat="41.1311979" lon="14.3007973"><ele>37.0</ele><time>2026-05-03T08:34:48.981Z</time></trkpt><trkpt lat="41.1311654" lon="14.3007242"><ele>37.0</ele><time>2026-05-03T08:34:49.981Z</time></trkpt><trkpt lat="41.1311321" lon="14.300653"><ele>37.0</ele><time>2026-05-03T08:34:50.982Z</time></trkpt><trkpt lat="41.1311004" lon="14.3005781"><ele>37.0</ele><time>2026-05-03T08:34:51.981Z</time></trkpt><trkpt lat="41.1310682" lon="14.3005047"><ele>37.0</ele><time>2026-05-03T08:34:52.981Z</time></trkpt><trkpt lat="41.1310043" lon="14.3003609"><ele>37.0</ele><time>2026-05-03T08:34:54.982Z</time></trkpt><trkpt lat="41.1309377" lon="14.3002138"><ele>36.5</ele><time>2026-05-03T08:34:56.981Z</time></trkpt><trkpt lat="41.1308774" lon="14.3000758"><ele>36.0</ele><time>2026-05-03T08:34:58.982Z</time></trkpt><trkpt lat="41.130814" lon="14.2999344"><ele>35.5</ele><time>2026-05-03T08:35:00.981Z</time></trkpt><trkpt lat="41.1307804" lon="14.2998623"><ele>35.0</ele><time>2026-05-03T08:35:01.981Z</time></trkpt><trkpt lat="41.1307472" lon="14.2997844"><ele>34.5</ele><time>2026-05-03T08:35:02.981Z</time></trkpt><trkpt lat="41.1307123" lon="14.299705"><ele>34.0</ele><time>2026-05-03T08:35:03.981Z</time></trkpt><trkpt lat="41.1306779" lon="14.2996233"><ele>34.857142857142854</ele><time>2026-05-03T08:35:04.982Z</time></trkpt><trkpt lat="41.1306421" lon="14.2995437"><ele>35.714285714285715</ele><time>2026-05-03T08:35:05.981Z</time></trkpt><trkpt lat="41.1306056" lon="14.299461"><ele>36.57142857142857</ele><time>2026-05-03T08:35:06.981Z</time></trkpt><trkpt lat="41.1305713" lon="14.2993794"><ele>37.42857142857143</ele><time>2026-05-03T08:35:07.981Z</time></trkpt><trkpt lat="41.1305345" lon="14.2992983"><ele>38.285714285714285</ele><time>2026-05-03T08:35:08.982Z</time></trkpt><trkpt lat="41.1304988" lon="14.2992183"><ele>39.14285714285714</ele><time>2026-05-03T08:35:09.982Z</time></trkpt><trkpt lat="41.1304643" lon="14.2991387"><ele>40.0</ele><time>2026-05-03T08:35:10.981Z</time></trkpt><trkpt lat="41.1304288" lon="14.2990624"><ele>40.0</ele><time>2026-05-03T08:35:11.981Z</time></trkpt><trkpt lat="41.1303956" lon="14.2989853"><ele>40.0</ele><time>2026-05-03T08:35:12.981Z</time></trkpt><trkpt lat="41.1303621" lon="14.2989068"><ele>40.0</ele><time>2026-05-03T08:35:13.981Z</time></trkpt><trkpt lat="41.130328" lon="14.2988273"><ele>40.0</ele><time>2026-05-03T08:35:14.981Z</time></trkpt><trkpt lat="41.1302947" lon="14.298748"><ele>40.0</ele><time>2026-05-03T08:35:15.982Z</time></trkpt><trkpt lat="41.1302597" lon="14.2986688"><ele>40.0</ele><time>2026-05-03T08:35:16.982Z</time></trkpt><trkpt lat="41.1302268" lon="14.298589"><ele>40.0</ele><time>2026-05-03T08:35:17.982Z</time></trkpt><trkpt lat="41.1301927" lon="14.298512"><ele>39.714285714285715</ele><time>2026-05-03T08:35:18.981Z</time></trkpt><trkpt lat="41.1301583" lon="14.298435"><ele>39.42857142857143</ele><time>2026-05-03T08:35:19.981Z</time></trkpt><trkpt lat="41.1301226" lon="14.2983568"><ele>39.14285714285714</ele><time>2026-05-03T08:35:20.981Z</time></trkpt><trkpt lat="41.1300871" lon="14.2982788"><ele>38.85714285714286</ele><time>2026-05-03T08:35:21.981Z</time></trkpt><trkpt lat="41.1300497" lon="14.2981974"><ele>38.57142857142858</ele><time>2026-05-03T08:35:22.981Z</time></trkpt><trkpt lat="41.1300146" lon="14.2981174"><ele>38.285714285714285</ele><time>2026-05-03T08:35:23.981Z</time></trkpt><trkpt lat="41.1299793" lon="14.298037"><ele>38.0</ele><time>2026-05-03T08:35:24.982Z</time></trkpt><trkpt lat="41.1299441" lon="14.2979568"><ele>38.0</ele><time>2026-05-03T08:35:25.981Z</time></trkpt><trkpt lat="41.129908" lon="14.2978748"><ele>38.0</ele><time>2026-05-03T08:35:26.981Z</time></trkpt><trkpt lat="41.1298727" lon="14.2977935"><ele>38.0</ele><time>2026-05-03T08:35:27.981Z</time></trkpt><trkpt lat="41.1298378" lon="14.2977126"><ele>38.0</ele><time>2026-05-03T08:35:28.981Z</time></trkpt><trkpt lat="41.1298042" lon="14.2976329"><ele>38.0</ele><time>2026-05-03T08:35:29.982Z</time></trkpt><trkpt lat="41.1297695" lon="14.297555"><ele>38.0</ele><time>2026-05-03T08:35:30.981Z</time></trkpt><trkpt lat="41.1297354" lon="14.2974766"><ele>38.0</ele><time>2026-05-03T08:35:31.981Z</time></trkpt><trkpt lat="41.1296997" lon="14.2973987"><ele>38.0</ele><time>2026-05-03T08:35:32.981Z</time></trkpt><trkpt lat="41.1296651" lon="14.2973184"><ele>38.0</ele><time>2026-05-03T08:35:33.981Z</time></trkpt><trkpt lat="41.1296316" lon="14.2972408"><ele>38.0</ele><time>2026-05-03T08:35:34.982Z</time></trkpt><trkpt lat="41.1295978" lon="14.2971631"><ele>38.0</ele><time>2026-05-03T08:35:35.981Z</time></trkpt><trkpt lat="41.1295642" lon="14.2970868"><ele>38.0</ele><time>2026-05-03T08:35:36.982Z</time></trkpt><trkpt lat="41.1295324" lon="14.2970104"><ele>38.0</ele><time>2026-05-03T08:35:37.981Z</time></trkpt><trkpt lat="41.1294987" lon="14.2969314"><ele>38.0</ele><time>2026-05-03T08:35:38.981Z</time></trkpt><trkpt lat="41.1294621" lon="14.2968572"><ele>37.857142857142854</ele><time>2026-05-03T08:35:39.981Z</time></trkpt><trkpt lat="41.1294286" lon="14.29678"><ele>37.714285714285715</ele><time>2026-05-03T08:35:40.981Z</time></trkpt><trkpt lat="41.1293945" lon="14.2967027"><ele>37.57142857142857</ele><time>2026-05-03T08:35:41.981Z</time></trkpt><trkpt lat="41.1293609" lon="14.2966256"><ele>37.42857142857143</ele><time>2026-05-03T08:35:42.981Z</time></trkpt><trkpt lat="41.1293261" lon="14.2965511"><ele>37.285714285714285</ele><time>2026-05-03T08:35:43.981Z</time></trkpt><trkpt lat="41.129291" lon="14.2964753"><ele>37.142857142857146</ele><time>2026-05-03T08:35:44.982Z</time></trkpt><trkpt lat="41.1292569" lon="14.2963987"><ele>37.0</ele><time>2026-05-03T08:35:45.981Z</time></trkpt><trkpt lat="41.1292226" lon="14.2963202"><ele>37.0</ele><time>2026-05-03T08:35:46.982Z</time></trkpt><trkpt lat="41.1291917" lon="14.2962459"><ele>37.0</ele><time>2026-05-03T08:35:47.982Z</time></trkpt><trkpt lat="41.129158" lon="14.2961703"><ele>37.0</ele><time>2026-05-03T08:35:48.982Z</time></trkpt><trkpt lat="41.1291245" lon="14.2960947"><ele>37.0</ele><time>2026-05-03T08:35:49.981Z</time></trkpt><trkpt lat="41.1290905" lon="14.2960181"><ele>37.0</ele><time>2026-05-03T08:35:50.982Z</time></trkpt><trkpt lat="41.129057" lon="14.2959398"><ele>37.0</ele><time>2026-05-03T08:35:51.981Z</time></trkpt><trkpt lat="41.1290199" lon="14.2958636"><ele>37.0</ele><time>2026-05-03T08:35:52.981Z</time></trkpt><trkpt lat="41.1289839" lon="14.2957883"><ele>37.0</ele><time>2026-05-03T08:35:53.982Z</time></trkpt><trkpt lat="41.1289476" lon="14.2957102"><ele>37.0</ele><time>2026-05-03T08:35:54.981Z</time></trkpt><trkpt lat="41.1289125" lon="14.295631"><ele>37.0</ele><time>2026-05-03T08:35:55.981Z</time></trkpt><trkpt lat="41.1288777" lon="14.2955537"><ele>37.0</ele><time>2026-05-03T08:35:56.982Z</time></trkpt><trkpt lat="41.1288438" lon="14.2954761"><ele>37.0</ele><time>2026-05-03T08:35:57.981Z</time></trkpt><trkpt lat="41.1288104" lon="14.2954003"><ele>37.0</ele><time>2026-05-03T08:35:58.982Z</time></trkpt><trkpt lat="41.1287773" lon="14.2953256"><ele>37.0</ele><time>2026-05-03T08:35:59.981Z</time></trkpt><trkpt lat="41.128745" lon="14.295252"><ele>37.0</ele><time>2026-05-03T08:36:00.981Z</time></trkpt><trkpt lat="41.1287125" lon="14.2951756"><ele>37.0</ele><time>2026-05-03T08:36:01.981Z</time></trkpt><trkpt lat="41.1286786" lon="14.2951004"><ele>37.0</ele><time>2026-05-03T08:36:02.982Z</time></trkpt><trkpt lat="41.1286446" lon="14.2950274"><ele>37.0</ele><time>2026-05-03T08:36:03.982Z</time></trkpt><trkpt lat="41.1286113" lon="14.2949553"><ele>37.0</ele><time>2026-05-03T08:36:04.982Z</time></trkpt><trkpt lat="41.1285781" lon="14.2948813"><ele>37.0</ele><time>2026-05-03T08:36:05.981Z</time></trkpt><trkpt lat="41.1285479" lon="14.2948066"><ele>37.0</ele><time>2026-05-03T08:36:06.981Z</time></trkpt><trkpt lat="41.1285164" lon="14.2947333"><ele>37.5</ele><time>2026-05-03T08:36:07.982Z</time></trkpt><trkpt lat="41.128455" lon="14.2945945"><ele>38.0</ele><time>2026-05-03T08:36:09.981Z</time></trkpt><trkpt lat="41.1283908" lon="14.294452"><ele>38.5</ele><time>2026-05-03T08:36:11.981Z</time></trkpt><trkpt lat="41.1283299" lon="14.29431"><ele>39.0</ele><time>2026-05-03T08:36:13.982Z</time></trkpt><trkpt lat="41.1282683" lon="14.2941686"><ele>39.5</ele><time>2026-05-03T08:36:15.981Z</time></trkpt><trkpt lat="41.1282091" lon="14.2940264"><ele>40.0</ele><time>2026-05-03T08:36:17.982Z</time></trkpt><trkpt lat="41.1281482" lon="14.2938907"><ele>40.5</ele><time>2026-05-03T08:36:19.982Z</time></trkpt><trkpt lat="41.1280902" lon="14.2937588"><ele>41.0</ele><time>2026-05-03T08:36:21.981Z</time></trkpt><trkpt lat="41.128035" lon="14.2936254"><ele>41.8</ele><time>2026-05-03T08:36:23.981Z</time></trkpt><trkpt lat="41.1279778" lon="14.2935014"><ele>42.599999999999994</ele><time>2026-05-03T08:36:25.982Z</time></trkpt><trkpt lat="41.1279239" lon="14.293384"><ele>43.4</ele><time>2026-05-03T08:36:27.981Z</time></trkpt><trkpt lat="41.1278751" lon="14.2932738"><ele>44.2</ele><time>2026-05-03T08:36:29.981Z</time></trkpt><trkpt lat="41.1278383" lon="14.2931583"><ele>45.0</ele><time>2026-05-03T08:36:31.981Z</time></trkpt><trkpt lat="41.1278429" lon="14.2930356"><ele>45.2</ele><time>2026-05-03T08:36:33.981Z</time></trkpt><trkpt lat="41.1278515" lon="14.2929083"><ele>45.4</ele><time>2026-05-03T08:36:35.982Z</time></trkpt><trkpt lat="41.1278324" lon="14.2927775"><ele>45.599999999999994</ele><time>2026-05-03T08:36:37.982Z</time></trkpt><trkpt lat="41.1277446" lon="14.2927122"><ele>45.8</ele><time>2026-05-03T08:36:39.981Z</time></trkpt><trkpt lat="41.1276523" lon="14.2927066"><ele>46.0</ele><time>2026-05-03T08:36:41.982Z</time></trkpt><trkpt lat="41.1275559" lon="14.2927261"><ele>46.0</ele><time>2026-05-03T08:36:43.982Z</time></trkpt><trkpt lat="41.12746" lon="14.292748"><ele>46.0</ele><time>2026-05-03T08:36:45.981Z</time></trkpt><trkpt lat="41.1273659" lon="14.2927462"><ele>46.0</ele><time>2026-05-03T08:36:47.981Z</time></trkpt><trkpt lat="41.1272757" lon="14.2927433"><ele>46.0</ele><time>2026-05-03T08:36:49.981Z</time></trkpt><trkpt lat="41.1271878" lon="14.2927505"><ele>46.0</ele><time>2026-05-03T08:36:51.981Z</time></trkpt><trkpt lat="41.1271022" lon="14.2927501"><ele>47.0</ele><time>2026-05-03T08:36:53.981Z</time></trkpt><trkpt lat="41.1270209" lon="14.2927506"><ele>48.0</ele><time>2026-05-03T08:36:55.981Z</time></trkpt><trkpt lat="41.1269408" lon="14.2927566"><ele>49.0</ele><time>2026-05-03T08:36:57.981Z</time></trkpt><trkpt lat="41.1268675" lon="14.2927612"><ele>50.0</ele><time>2026-05-03T08:36:59.982Z</time></trkpt><trkpt lat="41.1268026" lon="14.2927675"><ele>50.99999999999999</ele><time>2026-05-03T08:37:01.981Z</time></trkpt><trkpt lat="41.126714" lon="14.292779"><ele>52.0</ele><time>2026-05-03T08:37:04.981Z</time></trkpt><trkpt lat="41.1266303" lon="14.2927889"><ele>53.14285714285714</ele><time>2026-05-03T08:37:07.982Z</time></trkpt><trkpt lat="41.126553" lon="14.2927947"><ele>54.28571428571429</ele><time>2026-05-03T08:37:10.981Z</time></trkpt><trkpt lat="41.1264848" lon="14.2928048"><ele>55.42857142857143</ele><time>2026-05-03T08:37:13.981Z</time></trkpt><trkpt lat="41.1264161" lon="14.2928139"><ele>56.57142857142857</ele><time>2026-05-03T08:37:16.982Z</time></trkpt><trkpt lat="41.1263483" lon="14.292822"><ele>57.71428571428571</ele><time>2026-05-03T08:37:19.981Z</time></trkpt><trkpt lat="41.1262766" lon="14.2928313"><ele>58.85714285714286</ele><time>2026-05-03T08:37:22.981Z</time></trkpt><trkpt lat="41.1262065" lon="14.2928398"><ele>60.0</ele><time>2026-05-03T08:37:25.981Z</time></trkpt><trkpt lat="41.1261372" lon="14.2928463"><ele>60.0</ele><time>2026-05-03T08:37:28.981Z</time></trkpt><trkpt lat="41.1260709" lon="14.2928655"><ele>60.0</ele><time>2026-05-03T08:37:31.981Z</time></trkpt><trkpt lat="41.1260049" lon="14.2928736"><ele>60.0</ele><time>2026-05-03T08:37:34.981Z</time></trkpt><trkpt lat="41.1259408" lon="14.2928889"><ele>60.0</ele><time>2026-05-03T08:37:37.982Z</time></trkpt><trkpt lat="41.1258762" lon="14.2929042"><ele>60.0</ele><time>2026-05-03T08:37:40.981Z</time></trkpt><trkpt lat="41.1258115" lon="14.2929191"><ele>60.0</ele><time>2026-05-03T08:37:43.982Z</time></trkpt><trkpt lat="41.1257456" lon="14.2929392"><ele>60.0</ele><time>2026-05-03T08:37:46.982Z</time></trkpt><trkpt lat="41.1256822" lon="14.2929589"><ele>60.28571428571429</ele><time>2026-05-03T08:37:49.981Z</time></trkpt><trkpt lat="41.1256197" lon="14.2929707"><ele>60.57142857142857</ele><time>2026-05-03T08:37:52.981Z</time></trkpt><trkpt lat="41.1255392" lon="14.2929987"><ele>60.85714285714286</ele><time>2026-05-03T08:37:56.982Z</time></trkpt><trkpt lat="41.125476" lon="14.2930198"><ele>61.142857142857146</ele><time>2026-05-03T08:37:59.981Z</time></trkpt><trkpt lat="41.125411" lon="14.2930384"><ele>61.42857142857143</ele><time>2026-05-03T08:38:02.981Z</time></trkpt><trkpt lat="41.1253479" lon="14.2930648"><ele>61.714285714285715</ele><time>2026-05-03T08:38:05.981Z</time></trkpt><trkpt lat="41.1252869" lon="14.2930872"><ele>62.0</ele><time>2026-05-03T08:38:08.981Z</time></trkpt><trkpt lat="41.1252266" lon="14.2931166"><ele>62.00000000000001</ele><time>2026-05-03T08:38:11.981Z</time></trkpt><trkpt lat="41.1251489" lon="14.2931548"><ele>62.0</ele><time>2026-05-03T08:38:15.981Z</time></trkpt><trkpt lat="41.125088" lon="14.2931816"><ele>62.0</ele><time>2026-05-03T08:38:18.981Z</time></trkpt><trkpt lat="41.1250111" lon="14.293217"><ele>62.0</ele><time>2026-05-03T08:38:22.981Z</time></trkpt><trkpt lat="41.1249341" lon="14.2932516"><ele>62.00000000000001</ele><time>2026-05-03T08:38:26.981Z</time></trkpt><trkpt lat="41.1248587" lon="14.2932859"><ele>62.0</ele><time>2026-05-03T08:38:30.981Z</time></trkpt><trkpt lat="41.1247846" lon="14.293326"><ele>64.57142857142857</ele><time>2026-05-03T08:38:34.981Z</time></trkpt><trkpt lat="41.1247235" lon="14.2933543"><ele>67.14285714285715</ele><time>2026-05-03T08:38:37.982Z</time></trkpt><trkpt lat="41.124649" lon="14.2933915"><ele>69.71428571428572</ele><time>2026-05-03T08:38:41.982Z</time></trkpt><trkpt lat="41.1245713" lon="14.2934331"><ele>72.28571428571429</ele><time>2026-05-03T08:38:45.981Z</time></trkpt><trkpt lat="41.1245126" lon="14.2934654"><ele>74.85714285714286</ele><time>2026-05-03T08:38:48.981Z</time></trkpt><trkpt lat="41.1244559" lon="14.2935025"><ele>77.42857142857143</ele><time>2026-05-03T08:38:51.981Z</time></trkpt><trkpt lat="41.1243815" lon="14.2935474"><ele>80.0</ele><time>2026-05-03T08:38:55.981Z</time></trkpt><trkpt lat="41.124314" lon="14.293594"><ele>80.0</ele><time>2026-05-03T08:38:59.981Z</time></trkpt><trkpt lat="41.1242409" lon="14.2936399"><ele>80.0</ele><time>2026-05-03T08:39:03.981Z</time></trkpt><trkpt lat="41.1241724" lon="14.2937045"><ele>80.0</ele><time>2026-05-03T08:39:07.981Z</time></trkpt><trkpt lat="41.1241214" lon="14.2937585"><ele>80.0</ele><time>2026-05-03T08:39:10.982Z</time></trkpt><trkpt lat="41.1240683" lon="14.2938142"><ele>80.0</ele><time>2026-05-03T08:39:13.981Z</time></trkpt><trkpt lat="41.1240157" lon="14.293867"><ele>80.0</ele><time>2026-05-03T08:39:16.981Z</time></trkpt><trkpt lat="41.1239643" lon="14.2939207"><ele>80.0</ele><time>2026-05-03T08:39:19.981Z</time></trkpt><trkpt lat="41.1239036" lon="14.293991"><ele>82.0</ele><time>2026-05-03T08:39:23.981Z</time></trkpt><trkpt lat="41.1238391" lon="14.2940613"><ele>84.0</ele><time>2026-05-03T08:39:27.981Z</time></trkpt><trkpt lat="41.123793" lon="14.294122"><ele>86.0</ele><time>2026-05-03T08:39:30.982Z</time></trkpt><trkpt lat="41.1237443" lon="14.2941802"><ele>88.0</ele><time>2026-05-03T08:39:33.981Z</time></trkpt><trkpt lat="41.1236967" lon="14.2942426"><ele>90.0</ele><time>2026-05-03T08:39:36.982Z</time></trkpt><trkpt lat="41.1236492" lon="14.2943016"><ele>92.0</ele><time>2026-05-03T08:39:39.982Z</time></trkpt><trkpt lat="41.1236097" lon="14.2943708"><ele>94.0</ele><time>2026-05-03T08:39:42.982Z</time></trkpt><trkpt lat="41.1235733" lon="14.2944406"><ele>94.0</ele><time>2026-05-03T08:39:45.981Z</time></trkpt><trkpt lat="41.1235271" lon="14.2945313"><ele>94.0</ele><time>2026-05-03T08:39:49.981Z</time></trkpt><trkpt lat="41.1235003" lon="14.2946088"><ele>94.0</ele><time>2026-05-03T08:39:52.982Z</time></trkpt><trkpt lat="41.1234754" lon="14.2946924"><ele>94.0</ele><time>2026-05-03T08:39:55.981Z</time></trkpt><trkpt lat="41.1234561" lon="14.294777"><ele>94.0</ele><time>2026-05-03T08:39:58.981Z</time></trkpt><trkpt lat="41.1234355" lon="14.2948579"><ele>94.0</ele><time>2026-05-03T08:40:01.981Z</time></trkpt><trkpt lat="41.1234072" lon="14.2949634"><ele>94.0</ele><time>2026-05-03T08:40:05.981Z</time></trkpt><trkpt lat="41.1233835" lon="14.2950445"><ele>92.57142857142857</ele><time>2026-05-03T08:40:08.982Z</time></trkpt><trkpt lat="41.1233619" lon="14.2951269"><ele>91.14285714285714</ele><time>2026-05-03T08:40:11.981Z</time></trkpt><trkpt lat="41.1233279" lon="14.2952285"><ele>89.71428571428572</ele><time>2026-05-03T08:40:15.981Z</time></trkpt><trkpt lat="41.1233005" lon="14.2953045"><ele>88.28571428571428</ele><time>2026-05-03T08:40:18.981Z</time></trkpt><trkpt lat="41.1232622" lon="14.2953735"><ele>86.85714285714286</ele><time>2026-05-03T08:40:21.981Z</time></trkpt><trkpt lat="41.123223" lon="14.2954426"><ele>85.42857142857143</ele><time>2026-05-03T08:40:24.981Z</time></trkpt><trkpt lat="41.123175" lon="14.2955078"><ele>84.0</ele><time>2026-05-03T08:40:27.981Z</time></trkpt><trkpt lat="41.1231261" lon="14.2955697"><ele>87.85714285714286</ele><time>2026-05-03T08:40:30.981Z</time></trkpt><trkpt lat="41.1230847" lon="14.295638"><ele>91.71428571428572</ele><time>2026-05-03T08:40:33.981Z</time></trkpt><trkpt lat="41.1230318" lon="14.295726"><ele>95.57142857142857</ele><time>2026-05-03T08:40:37.982Z</time></trkpt><trkpt lat="41.1229815" lon="14.2957973"><ele>99.42857142857143</ele><time>2026-05-03T08:40:41.981Z</time></trkpt><trkpt lat="41.122942" lon="14.295869"><ele>103.28571428571429</ele><time>2026-05-03T08:40:44.981Z</time></trkpt><trkpt lat="41.1229119" lon="14.2959425"><ele>107.14285714285714</ele><time>2026-05-03T08:40:47.981Z</time></trkpt><trkpt lat="41.1228989" lon="14.2960524"><ele>111.0</ele><time>2026-05-03T08:40:51.982Z</time></trkpt><trkpt lat="41.1228917" lon="14.2961361"><ele>111.0</ele><time>2026-05-03T08:40:54.981Z</time></trkpt><trkpt lat="41.1228932" lon="14.2962242"><ele>111.0</ele><time>2026-05-03T08:40:57.981Z</time></trkpt><trkpt lat="41.1228975" lon="14.2963103"><ele>111.0</ele><time>2026-05-03T08:41:00.981Z</time></trkpt><trkpt lat="41.1229063" lon="14.2963956"><ele>111.0</ele><time>2026-05-03T08:41:03.982Z</time></trkpt><trkpt lat="41.1229184" lon="14.2964835"><ele>111.0</ele><time>2026-05-03T08:41:06.981Z</time></trkpt><trkpt lat="41.1229301" lon="14.2965688"><ele>111.0</ele><time>2026-05-03T08:41:09.981Z</time></trkpt><trkpt lat="41.1229432" lon="14.2966556"><ele>111.0</ele><time>2026-05-03T08:41:12.981Z</time></trkpt><trkpt lat="41.1229549" lon="14.296741"><ele>111.28571428571428</ele><time>2026-05-03T08:41:15.981Z</time></trkpt><trkpt lat="41.1229634" lon="14.2968514"><ele>111.57142857142858</ele><time>2026-05-03T08:41:19.981Z</time></trkpt><trkpt lat="41.1229741" lon="14.2969585"><ele>111.85714285714286</ele><time>2026-05-03T08:41:23.981Z</time></trkpt><trkpt lat="41.1229845" lon="14.2970687"><ele>112.14285714285714</ele><time>2026-05-03T08:41:27.982Z</time></trkpt><trkpt lat="41.1229929" lon="14.2971535"><ele>112.42857142857142</ele><time>2026-05-03T08:41:30.981Z</time></trkpt><trkpt lat="41.1229897" lon="14.297239"><ele>112.71428571428572</ele><time>2026-05-03T08:41:33.981Z</time></trkpt><trkpt lat="41.1229829" lon="14.2973221"><ele>113.0</ele><time>2026-05-03T08:41:36.981Z</time></trkpt><trkpt lat="41.1229567" lon="14.2974276"><ele>111.33333333333333</ele><time>2026-05-03T08:41:40.981Z</time></trkpt><trkpt lat="41.1229257" lon="14.2975047"><ele>109.66666666666666</ele><time>2026-05-03T08:41:43.981Z</time></trkpt><trkpt lat="41.1228907" lon="14.2975764"><ele>108.0</ele><time>2026-05-03T08:41:46.981Z</time></trkpt><trkpt lat="41.122839" lon="14.2976521"><ele>106.33333333333334</ele><time>2026-05-03T08:41:50.981Z</time></trkpt><trkpt lat="41.1227642" lon="14.2977027"><ele>104.66666666666667</ele><time>2026-05-03T08:41:54.981Z</time></trkpt><trkpt lat="41.1226914" lon="14.2977544"><ele>103.0</ele><time>2026-05-03T08:41:58.981Z</time></trkpt><trkpt lat="41.1226144" lon="14.2977919"><ele>103.00000000000001</ele><time>2026-05-03T08:42:02.982Z</time></trkpt><trkpt lat="41.122537" lon="14.2978308"><ele>103.0</ele><time>2026-05-03T08:42:06.981Z</time></trkpt><trkpt lat="41.122461" lon="14.2978665"><ele>103.0</ele><time>2026-05-03T08:42:10.981Z</time></trkpt><trkpt lat="41.1223836" lon="14.2979014"><ele>103.0</ele><time>2026-05-03T08:42:14.981Z</time></trkpt><trkpt lat="41.1223259" lon="14.2979361"><ele>103.00000000000001</ele><time>2026-05-03T08:42:17.981Z</time></trkpt><trkpt lat="41.1222506" lon="14.297979"><ele>103.0</ele><time>2026-05-03T08:42:21.981Z</time></trkpt><trkpt lat="41.1221728" lon="14.2980167"><ele>102.66666666666667</ele><time>2026-05-03T08:42:25.981Z</time></trkpt><trkpt lat="41.1221141" lon="14.2980561"><ele>102.33333333333334</ele><time>2026-05-03T08:42:28.981Z</time></trkpt><trkpt lat="41.1220366" lon="14.2980848"><ele>102.0</ele><time>2026-05-03T08:42:32.982Z</time></trkpt><trkpt lat="41.1219599" lon="14.2981195"><ele>101.66666666666666</ele><time>2026-05-03T08:42:36.981Z</time></trkpt><trkpt lat="41.1218818" lon="14.2981396"><ele>101.33333333333333</ele><time>2026-05-03T08:42:40.981Z</time></trkpt><trkpt lat="41.121802" lon="14.2981631"><ele>101.0</ele><time>2026-05-03T08:42:44.982Z</time></trkpt><trkpt lat="41.1217225" lon="14.2981833"><ele>100.99999999999999</ele><time>2026-05-03T08:42:48.981Z</time></trkpt><trkpt lat="41.1216436" lon="14.2982154"><ele>101.0</ele><time>2026-05-03T08:42:52.981Z</time></trkpt><trkpt lat="41.1215656" lon="14.2982364"><ele>101.0</ele><time>2026-05-03T08:42:56.981Z</time></trkpt><trkpt lat="41.1214898" lon="14.2982492"><ele>101.0</ele><time>2026-05-03T08:43:00.981Z</time></trkpt><trkpt lat="41.1214118" lon="14.2982664"><ele>100.99999999999999</ele><time>2026-05-03T08:43:04.982Z</time></trkpt><trkpt lat="41.1213462" lon="14.2982792"><ele>101.0</ele><time>2026-05-03T08:43:07.982Z</time></trkpt><trkpt lat="41.1212659" lon="14.2982997"><ele>102.66666666666666</ele><time>2026-05-03T08:43:11.982Z</time></trkpt><trkpt lat="41.121189" lon="14.298315"><ele>104.33333333333333</ele><time>2026-05-03T08:43:15.981Z</time></trkpt><trkpt lat="41.1211131" lon="14.2983329"><ele>106.0</ele><time>2026-05-03T08:43:19.981Z</time></trkpt><trkpt lat="41.1210372" lon="14.2983427"><ele>107.66666666666666</ele><time>2026-05-03T08:43:23.981Z</time></trkpt><trkpt lat="41.1209623" lon="14.2983553"><ele>109.33333333333333</ele><time>2026-05-03T08:43:27.981Z</time></trkpt><trkpt lat="41.1208839" lon="14.2983697"><ele>111.0</ele><time>2026-05-03T08:43:31.981Z</time></trkpt><trkpt lat="41.1208038" lon="14.2983768"><ele>110.42857142857143</ele><time>2026-05-03T08:43:35.981Z</time></trkpt><trkpt lat="41.1207224" lon="14.2983736"><ele>109.85714285714286</ele><time>2026-05-03T08:43:39.981Z</time></trkpt><trkpt lat="41.1206418" lon="14.2983802"><ele>109.28571428571429</ele><time>2026-05-03T08:43:43.981Z</time></trkpt><trkpt lat="41.1205643" lon="14.2983798"><ele>108.71428571428572</ele><time>2026-05-03T08:43:47.981Z</time></trkpt><trkpt lat="41.1205009" lon="14.2983776"><ele>108.14285714285714</ele><time>2026-05-03T08:43:50.981Z</time></trkpt><trkpt lat="41.1204357" lon="14.2983739"><ele>107.57142857142858</ele><time>2026-05-03T08:43:53.981Z</time></trkpt><trkpt lat="41.1203678" lon="14.2983721"><ele>107.0</ele><time>2026-05-03T08:43:56.981Z</time></trkpt><trkpt lat="41.1203016" lon="14.2983646"><ele>107.00000000000001</ele><time>2026-05-03T08:43:59.981Z</time></trkpt><trkpt lat="41.1202374" lon="14.2983421"><ele>107.0</ele><time>2026-05-03T08:44:02.981Z</time></trkpt><trkpt lat="41.1201567" lon="14.2983126"><ele>107.0</ele><time>2026-05-03T08:44:06.982Z</time></trkpt><trkpt lat="41.1200984" lon="14.2982797"><ele>107.0</ele><time>2026-05-03T08:44:09.982Z</time></trkpt><trkpt lat="41.1200422" lon="14.2982372"><ele>107.0</ele><time>2026-05-03T08:44:12.982Z</time></trkpt><trkpt lat="41.1199873" lon="14.2981962"><ele>107.00000000000001</ele><time>2026-05-03T08:44:15.981Z</time></trkpt><trkpt lat="41.1199156" lon="14.2981374"><ele>107.0</ele><time>2026-05-03T08:44:19.981Z</time></trkpt><trkpt lat="41.1198458" lon="14.2980871"><ele>109.83333333333333</ele><time>2026-05-03T08:44:23.982Z</time></trkpt><trkpt lat="41.119777" lon="14.2980208"><ele>112.66666666666666</ele><time>2026-05-03T08:44:27.981Z</time></trkpt><trkpt lat="41.1197248" lon="14.2979722"><ele>115.5</ele><time>2026-05-03T08:44:30.981Z</time></trkpt><trkpt lat="41.1196524" lon="14.2979238"><ele>118.33333333333334</ele><time>2026-05-03T08:44:34.981Z</time></trkpt><trkpt lat="41.1195865" lon="14.2978646"><ele>121.16666666666667</ele><time>2026-05-03T08:44:38.982Z</time></trkpt><trkpt lat="41.119517" lon="14.2978091"><ele>124.0</ele><time>2026-05-03T08:44:42.981Z</time></trkpt><trkpt lat="41.1194537" lon="14.2977824"><ele>124.0</ele><time>2026-05-03T08:44:45.981Z</time></trkpt><trkpt lat="41.1193876" lon="14.297769"><ele>124.00000000000001</ele><time>2026-05-03T08:44:48.981Z</time></trkpt><trkpt lat="41.1193052" lon="14.2977736"><ele>124.0</ele><time>2026-05-03T08:44:52.981Z</time></trkpt><trkpt lat="41.1192417" lon="14.2977741"><ele>124.0</ele><time>2026-05-03T08:44:55.981Z</time></trkpt><trkpt lat="41.1191814" lon="14.2977988"><ele>124.00000000000001</ele><time>2026-05-03T08:44:58.981Z</time></trkpt><trkpt lat="41.1191062" lon="14.2978366"><ele>124.0</ele><time>2026-05-03T08:45:02.981Z</time></trkpt><trkpt lat="41.1190515" lon="14.2978781"><ele>124.0</ele><time>2026-05-03T08:45:05.981Z</time></trkpt><trkpt lat="41.118996" lon="14.2979191"><ele>124.28571428571429</ele><time>2026-05-03T08:45:08.982Z</time></trkpt><trkpt lat="41.1189238" lon="14.2979748"><ele>124.57142857142858</ele><time>2026-05-03T08:45:12.981Z</time></trkpt><trkpt lat="41.1188631" lon="14.2980047"><ele>124.85714285714286</ele><time>2026-05-03T08:45:15.982Z</time></trkpt><trkpt lat="41.1188072" lon="14.2980454"><ele>125.14285714285714</ele><time>2026-05-03T08:45:18.981Z</time></trkpt><trkpt lat="41.1187302" lon="14.2980786"><ele>125.42857142857143</ele><time>2026-05-03T08:45:22.981Z</time></trkpt><trkpt lat="41.1186468" lon="14.29808"><ele>125.71428571428572</ele><time>2026-05-03T08:45:26.981Z</time></trkpt><trkpt lat="41.1185847" lon="14.2980656"><ele>126.0</ele><time>2026-05-03T08:45:29.981Z</time></trkpt><trkpt lat="41.1185293" lon="14.2980187"><ele>126.0</ele><time>2026-05-03T08:45:32.981Z</time></trkpt><trkpt lat="41.1184722" lon="14.2979744"><ele>126.0</ele><time>2026-05-03T08:45:35.981Z</time></trkpt><trkpt lat="41.1184111" lon="14.2979149"><ele>126.0</ele><time>2026-05-03T08:45:39.981Z</time></trkpt><trkpt lat="41.1183514" lon="14.29786"><ele>126.0</ele><time>2026-05-03T08:45:43.981Z</time></trkpt><trkpt lat="41.1182947" lon="14.2977984"><ele>126.0</ele><time>2026-05-03T08:45:47.981Z</time></trkpt><trkpt lat="41.1182368" lon="14.2977417"><ele>126.0</ele><time>2026-05-03T08:45:51.981Z</time></trkpt><trkpt lat="41.1181778" lon="14.2976803"><ele>126.0</ele><time>2026-05-03T08:45:55.981Z</time></trkpt><trkpt lat="41.1181145" lon="14.2976323"><ele>126.85714285714286</ele><time>2026-05-03T08:45:59.981Z</time></trkpt><trkpt lat="41.1180482" lon="14.2975954"><ele>127.71428571428572</ele><time>2026-05-03T08:46:03.981Z</time></trkpt><trkpt lat="41.11798" lon="14.2975743"><ele>128.57142857142856</ele><time>2026-05-03T08:46:07.981Z</time></trkpt><trkpt lat="41.1179121" lon="14.2975795"><ele>129.42857142857144</ele><time>2026-05-03T08:46:11.981Z</time></trkpt><trkpt lat="41.1178441" lon="14.2976041"><ele>130.28571428571428</ele><time>2026-05-03T08:46:15.982Z</time></trkpt><trkpt lat="41.1177695" lon="14.2976301"><ele>131.14285714285714</ele><time>2026-05-03T08:46:19.981Z</time></trkpt><trkpt lat="41.1176998" lon="14.2976811"><ele>132.0</ele><time>2026-05-03T08:46:23.981Z</time></trkpt><trkpt lat="41.1176339" lon="14.2977327"><ele>132.0</ele><time>2026-05-03T08:46:27.982Z</time></trkpt><trkpt lat="41.1175672" lon="14.29779"><ele>132.0</ele><time>2026-05-03T08:46:31.981Z</time></trkpt><trkpt lat="41.1174975" lon="14.2978439"><ele>132.0</ele><time>2026-05-03T08:46:35.981Z</time></trkpt><trkpt lat="41.117423" lon="14.2978882"><ele>132.0</ele><time>2026-05-03T08:46:39.981Z</time></trkpt><trkpt lat="41.1173502" lon="14.2979253"><ele>132.0</ele><time>2026-05-03T08:46:43.981Z</time></trkpt><trkpt lat="41.1172747" lon="14.2979635"><ele>132.0</ele><time>2026-05-03T08:46:47.981Z</time></trkpt><trkpt lat="41.1172002" lon="14.2979897"><ele>132.14285714285714</ele><time>2026-05-03T08:46:51.981Z</time></trkpt><trkpt lat="41.117119" lon="14.2980159"><ele>132.28571428571428</ele><time>2026-05-03T08:46:55.981Z</time></trkpt><trkpt lat="41.1170533" lon="14.2980336"><ele>132.42857142857144</ele><time>2026-05-03T08:46:58.982Z</time></trkpt><trkpt lat="41.1169886" lon="14.2980542"><ele>132.57142857142856</ele><time>2026-05-03T08:47:01.981Z</time></trkpt><trkpt lat="41.1169252" lon="14.2980702"><ele>132.71428571428572</ele><time>2026-05-03T08:47:04.981Z</time></trkpt><trkpt lat="41.1168429" lon="14.2980938"><ele>132.85714285714286</ele><time>2026-05-03T08:47:08.982Z</time></trkpt><trkpt lat="41.1167822" lon="14.2981162"><ele>133.0</ele><time>2026-05-03T08:47:11.981Z</time></trkpt><trkpt lat="41.1167207" lon="14.2981355"><ele>133.0</ele><time>2026-05-03T08:47:14.982Z</time></trkpt><trkpt lat="41.1166434" lon="14.2981662"><ele>133.0</ele><time>2026-05-03T08:47:18.981Z</time></trkpt><trkpt lat="41.1165723" lon="14.2982089"><ele>133.0</ele><time>2026-05-03T08:47:22.981Z</time></trkpt><trkpt lat="41.1165199" lon="14.2982592"><ele>133.0</ele><time>2026-05-03T08:47:25.981Z</time></trkpt><trkpt lat="41.1164645" lon="14.2983346"><ele>133.0</ele><time>2026-05-03T08:47:29.982Z</time></trkpt><trkpt lat="41.1164238" lon="14.2984236"><ele>133.0</ele><time>2026-05-03T08:47:33.981Z</time></trkpt><trkpt lat="41.1163753" lon="14.2985164"><ele>134.0</ele><time>2026-05-03T08:47:37.981Z</time></trkpt><trkpt lat="41.116345" lon="14.2985943"><ele>135.0</ele><time>2026-05-03T08:47:40.982Z</time></trkpt><trkpt lat="41.1163201" lon="14.2986765"><ele>136.0</ele><time>2026-05-03T08:47:43.982Z</time></trkpt><trkpt lat="41.1162932" lon="14.2987536"><ele>137.0</ele><time>2026-05-03T08:47:46.981Z</time></trkpt><trkpt lat="41.1162555" lon="14.2988517"><ele>138.0</ele><time>2026-05-03T08:47:50.981Z</time></trkpt><trkpt lat="41.1162342" lon="14.2989306"><ele>139.0</ele><time>2026-05-03T08:47:53.981Z</time></trkpt><trkpt lat="41.1161988" lon="14.2990286"><ele>140.0</ele><time>2026-05-03T08:47:57.982Z</time></trkpt><trkpt lat="41.1161609" lon="14.2991279"><ele>140.0</ele><time>2026-05-03T08:48:01.981Z</time></trkpt><trkpt lat="41.1161287" lon="14.2992009"><ele>140.0</ele><time>2026-05-03T08:48:04.982Z</time></trkpt><trkpt lat="41.1160961" lon="14.2992726"><ele>140.0</ele><time>2026-05-03T08:48:07.981Z</time></trkpt><trkpt lat="41.1160511" lon="14.2993676"><ele>140.0</ele><time>2026-05-03T08:48:11.981Z</time></trkpt><trkpt lat="41.1160078" lon="14.299456"><ele>140.0</ele><time>2026-05-03T08:48:15.981Z</time></trkpt><trkpt lat="41.1159676" lon="14.2995211"><ele>140.0</ele><time>2026-05-03T08:48:18.981Z</time></trkpt><trkpt lat="41.1159252" lon="14.2995861"><ele>140.0</ele><time>2026-05-03T08:48:21.981Z</time></trkpt><trkpt lat="41.1158701" lon="14.2996695"><ele>140.0</ele><time>2026-05-03T08:48:25.981Z</time></trkpt><trkpt lat="41.1158229" lon="14.299729"><ele>140.0</ele><time>2026-05-03T08:48:28.981Z</time></trkpt><trkpt lat="41.1157589" lon="14.2997998"><ele>140.0</ele><time>2026-05-03T08:48:32.981Z</time></trkpt><trkpt lat="41.1157061" lon="14.2998504"><ele>140.0</ele><time>2026-05-03T08:48:35.981Z</time></trkpt><trkpt lat="41.1156414" lon="14.2999179"><ele>140.0</ele><time>2026-05-03T08:48:39.981Z</time></trkpt><trkpt lat="41.1155757" lon="14.2999805"><ele>140.0</ele><time>2026-05-03T08:48:43.981Z</time></trkpt><trkpt lat="41.1155066" lon="14.3000407"><ele>140.83333333333331</ele><time>2026-05-03T08:48:47.981Z</time></trkpt><trkpt lat="41.1154543" lon="14.3000882"><ele>141.66666666666666</ele><time>2026-05-03T08:48:50.981Z</time></trkpt><trkpt lat="41.1153887" lon="14.3001487"><ele>142.5</ele><time>2026-05-03T08:48:54.982Z</time></trkpt><trkpt lat="41.1153361" lon="14.3001961"><ele>143.33333333333334</ele><time>2026-05-03T08:48:57.981Z</time></trkpt><trkpt lat="41.1152694" lon="14.3002634"><ele>144.16666666666669</ele><time>2026-05-03T08:49:01.981Z</time></trkpt><trkpt lat="41.1152001" lon="14.3003235"><ele>145.0</ele><time>2026-05-03T08:49:05.981Z</time></trkpt><trkpt lat="41.115133" lon="14.3003895"><ele>145.0</ele><time>2026-05-03T08:49:09.981Z</time></trkpt><trkpt lat="41.1150798" lon="14.3004352"><ele>145.0</ele><time>2026-05-03T08:49:12.981Z</time></trkpt><trkpt lat="41.1150169" lon="14.3005001"><ele>145.0</ele><time>2026-05-03T08:49:16.982Z</time></trkpt><trkpt lat="41.1149531" lon="14.3005651"><ele>145.0</ele><time>2026-05-03T08:49:20.981Z</time></trkpt><trkpt lat="41.1148853" lon="14.3006276"><ele>145.0</ele><time>2026-05-03T08:49:24.981Z</time></trkpt><trkpt lat="41.1148242" lon="14.3006971"><ele>145.0</ele><time>2026-05-03T08:49:28.982Z</time></trkpt><trkpt lat="41.1147577" lon="14.3007588"><ele>144.0</ele><time>2026-05-03T08:49:32.982Z</time></trkpt><trkpt lat="41.1146932" lon="14.3008218"><ele>143.0</ele><time>2026-05-03T08:49:36.982Z</time></trkpt><trkpt lat="41.1146259" lon="14.3008791"><ele>142.0</ele><time>2026-05-03T08:49:40.981Z</time></trkpt><trkpt lat="41.1145591" lon="14.3009437"><ele>141.0</ele><time>2026-05-03T08:49:44.981Z</time></trkpt><trkpt lat="41.1144923" lon="14.3010059"><ele>140.0</ele><time>2026-05-03T08:49:48.982Z</time></trkpt><trkpt lat="41.1144257" lon="14.3010601"><ele>139.0</ele><time>2026-05-03T08:49:52.982Z</time></trkpt><trkpt lat="41.1143613" lon="14.3011152"><ele>139.0</ele><time>2026-05-03T08:49:56.981Z</time></trkpt><trkpt lat="41.1142986" lon="14.3011724"><ele>139.0</ele><time>2026-05-03T08:50:00.981Z</time></trkpt><trkpt lat="41.1142289" lon="14.3012297"><ele>139.0</ele><time>2026-05-03T08:50:04.982Z</time></trkpt><trkpt lat="41.1141728" lon="14.3012749"><ele>139.0</ele><time>2026-05-03T08:50:07.981Z</time></trkpt><trkpt lat="41.114103" lon="14.3013331"><ele>139.0</ele><time>2026-05-03T08:50:11.981Z</time></trkpt><trkpt lat="41.1140496" lon="14.3013816"><ele>139.0</ele><time>2026-05-03T08:50:14.981Z</time></trkpt><trkpt lat="41.1139948" lon="14.3014267"><ele>139.0</ele><time>2026-05-03T08:50:17.981Z</time></trkpt><trkpt lat="41.1139249" lon="14.3014861"><ele>140.83333333333334</ele><time>2026-05-03T08:50:21.982Z</time></trkpt><trkpt lat="41.1138692" lon="14.30153"><ele>142.66666666666669</ele><time>2026-05-03T08:50:24.981Z</time></trkpt><trkpt lat="41.1137982" lon="14.3015866"><ele>144.5</ele><time>2026-05-03T08:50:28.981Z</time></trkpt><trkpt lat="41.1137273" lon="14.3016466"><ele>146.33333333333334</ele><time>2026-05-03T08:50:32.981Z</time></trkpt><trkpt lat="41.1136566" lon="14.3017043"><ele>148.16666666666666</ele><time>2026-05-03T08:50:36.981Z</time></trkpt><trkpt lat="41.113588" lon="14.3017599"><ele>150.0</ele><time>2026-05-03T08:50:40.982Z</time></trkpt><trkpt lat="41.113521" lon="14.3018147"><ele>150.0</ele><time>2026-05-03T08:50:44.982Z</time></trkpt><trkpt lat="41.113453" lon="14.3018707"><ele>150.0</ele><time>2026-05-03T08:50:48.981Z</time></trkpt><trkpt lat="41.113386" lon="14.3019279"><ele>150.0</ele><time>2026-05-03T08:50:52.981Z</time></trkpt><trkpt lat="41.1133149" lon="14.3019837"><ele>150.0</ele><time>2026-05-03T08:50:56.981Z</time></trkpt><trkpt lat="41.1132423" lon="14.3020387"><ele>150.0</ele><time>2026-05-03T08:51:00.981Z</time></trkpt><trkpt lat="41.113185" lon="14.3020804"><ele>150.0</ele><time>2026-05-03T08:51:03.982Z</time></trkpt><trkpt lat="41.1131269" lon="14.302122"><ele>151.16666666666666</ele><time>2026-05-03T08:51:06.982Z</time></trkpt><trkpt lat="41.1130652" lon="14.3021599"><ele>152.33333333333334</ele><time>2026-05-03T08:51:09.981Z</time></trkpt><trkpt lat="41.112998" lon="14.3021994"><ele>153.5</ele><time>2026-05-03T08:51:12.982Z</time></trkpt><trkpt lat="41.1129229" lon="14.3022347"><ele>154.66666666666669</ele><time>2026-05-03T08:51:15.981Z</time></trkpt><trkpt lat="41.1128505" lon="14.3022661"><ele>155.83333333333334</ele><time>2026-05-03T08:51:18.982Z</time></trkpt><trkpt lat="41.1127753" lon="14.3022984"><ele>157.0</ele><time>2026-05-03T08:51:21.981Z</time></trkpt><trkpt lat="41.1127005" lon="14.3023287"><ele>157.5</ele><time>2026-05-03T08:51:24.981Z</time></trkpt><trkpt lat="41.1126248" lon="14.3023579"><ele>158.0</ele><time>2026-05-03T08:51:27.981Z</time></trkpt><trkpt lat="41.1125482" lon="14.3023865"><ele>158.5</ele><time>2026-05-03T08:51:30.981Z</time></trkpt><trkpt lat="41.1124734" lon="14.3024114"><ele>159.0</ele><time>2026-05-03T08:51:33.981Z</time></trkpt><trkpt lat="41.112403" lon="14.3024372"><ele>159.5</ele><time>2026-05-03T08:51:36.981Z</time></trkpt><trkpt lat="41.112332" lon="14.3024635"><ele>160.0</ele><time>2026-05-03T08:51:39.981Z</time></trkpt><trkpt lat="41.1122575" lon="14.3024912"><ele>160.16666666666669</ele><time>2026-05-03T08:51:42.981Z</time></trkpt><trkpt lat="41.1121793" lon="14.302522"><ele>160.33333333333334</ele><time>2026-05-03T08:51:45.981Z</time></trkpt><trkpt lat="41.1121043" lon="14.3025512"><ele>160.5</ele><time>2026-05-03T08:51:48.981Z</time></trkpt><trkpt lat="41.1120158" lon="14.3025862"><ele>160.66666666666666</ele><time>2026-05-03T08:51:51.981Z</time></trkpt><trkpt lat="41.1119516" lon="14.3026142"><ele>160.83333333333331</ele><time>2026-05-03T08:51:53.982Z</time></trkpt><trkpt lat="41.1118638" lon="14.3026475"><ele>161.0</ele><time>2026-05-03T08:51:56.981Z</time></trkpt><trkpt lat="41.1117787" lon="14.3026833"><ele>161.0</ele><time>2026-05-03T08:51:59.981Z</time></trkpt><trkpt lat="41.1116964" lon="14.302712"><ele>161.0</ele><time>2026-05-03T08:52:02.981Z</time></trkpt><trkpt lat="41.1116194" lon="14.3027402"><ele>161.0</ele><time>2026-05-03T08:52:05.981Z</time></trkpt><trkpt lat="41.1115429" lon="14.3027697"><ele>161.0</ele><time>2026-05-03T08:52:08.981Z</time></trkpt><trkpt lat="41.1114696" lon="14.302801"><ele>161.0</ele><time>2026-05-03T08:52:11.981Z</time></trkpt><trkpt lat="41.1113975" lon="14.3028347"><ele>161.0</ele><time>2026-05-03T08:52:14.981Z</time></trkpt><trkpt lat="41.111324" lon="14.3028664"><ele>161.83333333333331</ele><time>2026-05-03T08:52:17.981Z</time></trkpt><trkpt lat="41.1112489" lon="14.3028959"><ele>162.66666666666666</ele><time>2026-05-03T08:52:20.981Z</time></trkpt><trkpt lat="41.1111736" lon="14.3029282"><ele>163.5</ele><time>2026-05-03T08:52:23.981Z</time></trkpt><trkpt lat="41.1110984" lon="14.3029587"><ele>164.33333333333334</ele><time>2026-05-03T08:52:26.981Z</time></trkpt><trkpt lat="41.1110234" lon="14.3029893"><ele>165.16666666666669</ele><time>2026-05-03T08:52:29.981Z</time></trkpt><trkpt lat="41.1109522" lon="14.3030236"><ele>166.0</ele><time>2026-05-03T08:52:32.981Z</time></trkpt><trkpt lat="41.1108824" lon="14.3030542"><ele>166.0</ele><time>2026-05-03T08:52:35.981Z</time></trkpt><trkpt lat="41.1108104" lon="14.3030803"><ele>166.0</ele><time>2026-05-03T08:52:38.981Z</time></trkpt><trkpt lat="41.1107415" lon="14.3031101"><ele>166.0</ele><time>2026-05-03T08:52:41.981Z</time></trkpt><trkpt lat="41.1106707" lon="14.3031367"><ele>166.0</ele><time>2026-05-03T08:52:44.981Z</time></trkpt><trkpt lat="41.1106015" lon="14.3031732"><ele>166.0</ele><time>2026-05-03T08:52:47.981Z</time></trkpt><trkpt lat="41.1105302" lon="14.3031953"><ele>166.0</ele><time>2026-05-03T08:52:50.981Z</time></trkpt><trkpt lat="41.1104441" lon="14.3032333"><ele>167.20000000000002</ele><time>2026-05-03T08:52:53.981Z</time></trkpt><trkpt lat="41.1103734" lon="14.3032648"><ele>168.4</ele><time>2026-05-03T08:52:55.981Z</time></trkpt><trkpt lat="41.110286" lon="14.3033004"><ele>169.6</ele><time>2026-05-03T08:52:57.981Z</time></trkpt><trkpt lat="41.1101908" lon="14.3033379"><ele>170.8</ele><time>2026-05-03T08:52:59.982Z</time></trkpt><trkpt lat="41.1100836" lon="14.3033852"><ele>172.0</ele><time>2026-05-03T08:53:01.981Z</time></trkpt><trkpt lat="41.1099692" lon="14.3034395"><ele>172.00000000000003</ele><time>2026-05-03T08:53:03.981Z</time></trkpt><trkpt lat="41.1099093" lon="14.3034728"><ele>172.0</ele><time>2026-05-03T08:53:04.982Z</time></trkpt><trkpt lat="41.1098505" lon="14.3035115"><ele>172.0</ele><time>2026-05-03T08:53:05.981Z</time></trkpt><trkpt lat="41.1097948" lon="14.3035546"><ele>172.0</ele><time>2026-05-03T08:53:06.981Z</time></trkpt><trkpt lat="41.1097413" lon="14.3036013"><ele>172.0</ele><time>2026-05-03T08:53:07.981Z</time></trkpt><trkpt lat="41.1096893" lon="14.3036549"><ele>172.00000000000003</ele><time>2026-05-03T08:53:08.982Z</time></trkpt><trkpt lat="41.1096391" lon="14.303712"><ele>172.0</ele><time>2026-05-03T08:53:09.981Z</time></trkpt><trkpt lat="41.1095903" lon="14.3037697"><ele>172.2857142857143</ele><time>2026-05-03T08:53:10.981Z</time></trkpt><trkpt lat="41.1095424" lon="14.3038281"><ele>172.57142857142858</ele><time>2026-05-03T08:53:11.981Z</time></trkpt><trkpt lat="41.1094966" lon="14.3038917"><ele>172.85714285714286</ele><time>2026-05-03T08:53:12.981Z</time></trkpt><trkpt lat="41.1094534" lon="14.303956"><ele>173.14285714285717</ele><time>2026-05-03T08:53:13.981Z</time></trkpt><trkpt lat="41.1094103" lon="14.3040216"><ele>173.42857142857144</ele><time>2026-05-03T08:53:14.981Z</time></trkpt><trkpt lat="41.1093664" lon="14.3040821"><ele>173.71428571428572</ele><time>2026-05-03T08:53:15.982Z</time></trkpt><trkpt lat="41.1093193" lon="14.3041436"><ele>174.0</ele><time>2026-05-03T08:53:16.981Z</time></trkpt><trkpt lat="41.1092748" lon="14.3042056"><ele>174.0</ele><time>2026-05-03T08:53:17.981Z</time></trkpt><trkpt lat="41.1091974" lon="14.3043213"><ele>174.0</ele><time>2026-05-03T08:53:19.981Z</time></trkpt><trkpt lat="41.1091316" lon="14.3044296"><ele>174.0</ele><time>2026-05-03T08:53:21.981Z</time></trkpt><trkpt lat="41.1090789" lon="14.3045316"><ele>174.0</ele><time>2026-05-03T08:53:23.981Z</time></trkpt><trkpt lat="41.109032" lon="14.3046306"><ele>174.0</ele><time>2026-05-03T08:53:25.981Z</time></trkpt><trkpt lat="41.1089889" lon="14.3047419"><ele>173.0</ele><time>2026-05-03T08:53:27.981Z</time></trkpt><trkpt lat="41.1089386" lon="14.3048561"><ele>172.0</ele><time>2026-05-03T08:53:29.981Z</time></trkpt><trkpt lat="41.1088742" lon="14.304975"><ele>171.0</ele><time>2026-05-03T08:53:31.981Z</time></trkpt><trkpt lat="41.1088086" lon="14.3051044"><ele>170.0</ele><time>2026-05-03T08:53:33.981Z</time></trkpt><trkpt lat="41.1087228" lon="14.3052206"><ele>170.0</ele><time>2026-05-03T08:53:35.981Z</time></trkpt><trkpt lat="41.1086319" lon="14.3053289"><ele>170.0</ele><time>2026-05-03T08:53:37.981Z</time></trkpt><trkpt lat="41.1085432" lon="14.3054338"><ele>170.0</ele><time>2026-05-03T08:53:39.981Z</time></trkpt><trkpt lat="41.1084519" lon="14.305523"><ele>170.0</ele><time>2026-05-03T08:53:41.981Z</time></trkpt><trkpt lat="41.1083509" lon="14.3056135"><ele>169.57142857142858</ele><time>2026-05-03T08:53:43.982Z</time></trkpt><trkpt lat="41.1082956" lon="14.3056613"><ele>169.14285714285714</ele><time>2026-05-03T08:53:44.981Z</time></trkpt><trkpt lat="41.1082356" lon="14.3057027"><ele>168.71428571428572</ele><time>2026-05-03T08:53:45.981Z</time></trkpt><trkpt lat="41.1081725" lon="14.3057342"><ele>168.28571428571428</ele><time>2026-05-03T08:53:46.981Z</time></trkpt><trkpt lat="41.1081081" lon="14.3057763"><ele>167.85714285714286</ele><time>2026-05-03T08:53:47.981Z</time></trkpt><trkpt lat="41.1080412" lon="14.3058176"><ele>167.42857142857142</ele><time>2026-05-03T08:53:48.981Z</time></trkpt><trkpt lat="41.1079741" lon="14.3058604"><ele>167.0</ele><time>2026-05-03T08:53:49.982Z</time></trkpt><trkpt lat="41.1079015" lon="14.3058996"><ele>167.0</ele><time>2026-05-03T08:53:50.982Z</time></trkpt><trkpt lat="41.1078286" lon="14.30594"><ele>167.0</ele><time>2026-05-03T08:53:51.981Z</time></trkpt><trkpt lat="41.1077549" lon="14.3059806"><ele>167.0</ele><time>2026-05-03T08:53:52.981Z</time></trkpt><trkpt lat="41.1076796" lon="14.3060254"><ele>167.0</ele><time>2026-05-03T08:53:53.981Z</time></trkpt><trkpt lat="41.1076058" lon="14.3060713"><ele>167.0</ele><time>2026-05-03T08:53:54.982Z</time></trkpt><trkpt lat="41.1075264" lon="14.3061202"><ele>167.0</ele><time>2026-05-03T08:53:55.981Z</time></trkpt><trkpt lat="41.1074453" lon="14.3061587"><ele>166.0</ele><time>2026-05-03T08:53:56.981Z</time></trkpt><trkpt lat="41.1073642" lon="14.3062073"><ele>165.0</ele><time>2026-05-03T08:53:57.981Z</time></trkpt><trkpt lat="41.1072855" lon="14.3062663"><ele>164.0</ele><time>2026-05-03T08:53:58.982Z</time></trkpt><trkpt lat="41.1071977" lon="14.306304"><ele>163.0</ele><time>2026-05-03T08:53:59.982Z</time></trkpt><trkpt lat="41.1071132" lon="14.3063514"><ele>162.0</ele><time>2026-05-03T08:54:00.981Z</time></trkpt><trkpt lat="41.10703" lon="14.3064119"><ele>162.0</ele><time>2026-05-03T08:54:01.981Z</time></trkpt><trkpt lat="41.1069392" lon="14.3064516"><ele>162.0</ele><time>2026-05-03T08:54:02.981Z</time></trkpt><trkpt lat="41.1068494" lon="14.3065037"><ele>162.0</ele><time>2026-05-03T08:54:03.981Z</time></trkpt><trkpt lat="41.1067619" lon="14.3065622"><ele>162.0</ele><time>2026-05-03T08:54:04.981Z</time></trkpt><trkpt lat="41.1066686" lon="14.306612"><ele>162.0</ele><time>2026-05-03T08:54:05.981Z</time></trkpt><trkpt lat="41.1065761" lon="14.3066696"><ele>160.6</ele><time>2026-05-03T08:54:06.981Z</time></trkpt><trkpt lat="41.1064803" lon="14.3067229"><ele>159.2</ele><time>2026-05-03T08:54:07.981Z</time></trkpt><trkpt lat="41.1063829" lon="14.3067739"><ele>157.8</ele><time>2026-05-03T08:54:08.981Z</time></trkpt><trkpt lat="41.1062848" lon="14.3068298"><ele>156.4</ele><time>2026-05-03T08:54:09.981Z</time></trkpt><trkpt lat="41.1061831" lon="14.3068771"><ele>155.0</ele><time>2026-05-03T08:54:10.981Z</time></trkpt><trkpt lat="41.1060817" lon="14.3069269"><ele>155.0</ele><time>2026-05-03T08:54:11.982Z</time></trkpt><trkpt lat="41.105983" lon="14.3069876"><ele>155.0</ele><time>2026-05-03T08:54:12.981Z</time></trkpt><trkpt lat="41.1058816" lon="14.3070439"><ele>155.0</ele><time>2026-05-03T08:54:13.981Z</time></trkpt><trkpt lat="41.1057812" lon="14.3070992"><ele>155.0</ele><time>2026-05-03T08:54:14.981Z</time></trkpt><trkpt lat="41.1056817" lon="14.3071592"><ele>155.0</ele><time>2026-05-03T08:54:15.982Z</time></trkpt><trkpt lat="41.1055824" lon="14.3072198"><ele>154.4</ele><time>2026-05-03T08:54:16.981Z</time></trkpt><trkpt lat="41.1054842" lon="14.3072831"><ele>153.8</ele><time>2026-05-03T08:54:17.981Z</time></trkpt><trkpt lat="41.1053869" lon="14.3073456"><ele>153.2</ele><time>2026-05-03T08:54:18.981Z</time></trkpt><trkpt lat="41.1052911" lon="14.3074118"><ele>152.6</ele><time>2026-05-03T08:54:19.982Z</time></trkpt><trkpt lat="41.1051984" lon="14.3074844"><ele>152.0</ele><time>2026-05-03T08:54:20.981Z</time></trkpt><trkpt lat="41.1051079" lon="14.3075625"><ele>152.0</ele><time>2026-05-03T08:54:21.981Z</time></trkpt><trkpt lat="41.1050171" lon="14.3076393"><ele>152.0</ele><time>2026-05-03T08:54:22.981Z</time></trkpt><trkpt lat="41.1049267" lon="14.3077151"><ele>152.0</ele><time>2026-05-03T08:54:23.981Z</time></trkpt><trkpt lat="41.1048393" lon="14.3077967"><ele>152.0</ele><time>2026-05-03T08:54:24.981Z</time></trkpt><trkpt lat="41.1047475" lon="14.307876"><ele>152.0</ele><time>2026-05-03T08:54:25.981Z</time></trkpt><trkpt lat="41.1046547" lon="14.3079573"><ele>151.0</ele><time>2026-05-03T08:54:26.981Z</time></trkpt><trkpt lat="41.1045605" lon="14.3080404"><ele>150.0</ele><time>2026-05-03T08:54:27.981Z</time></trkpt><trkpt lat="41.1044651" lon="14.3081262"><ele>149.0</ele><time>2026-05-03T08:54:28.981Z</time></trkpt><trkpt lat="41.1043685" lon="14.3082116"><ele>148.0</ele><time>2026-05-03T08:54:29.981Z</time></trkpt><trkpt lat="41.1042734" lon="14.3082963"><ele>147.75</ele><time>2026-05-03T08:54:30.982Z</time></trkpt><trkpt lat="41.1041796" lon="14.3083891"><ele>147.5</ele><time>2026-05-03T08:54:31.981Z</time></trkpt><trkpt lat="41.1040914" lon="14.3084916"><ele>147.25</ele><time>2026-05-03T08:54:32.982Z</time></trkpt><trkpt lat="41.1040082" lon="14.3086038"><ele>147.0</ele><time>2026-05-03T08:54:33.981Z</time></trkpt><trkpt lat="41.1039291" lon="14.3087187"><ele>146.0</ele><time>2026-05-03T08:54:34.982Z</time></trkpt><trkpt lat="41.1038585" lon="14.308839"><ele>145.0</ele><time>2026-05-03T08:54:35.981Z</time></trkpt><trkpt lat="41.1037861" lon="14.3089537"><ele>144.0</ele><time>2026-05-03T08:54:36.981Z</time></trkpt><trkpt lat="41.103725" lon="14.3090809"><ele>143.0</ele><time>2026-05-03T08:54:37.981Z</time></trkpt><trkpt lat="41.1036717" lon="14.3092133"><ele>143.0</ele><time>2026-05-03T08:54:38.981Z</time></trkpt><trkpt lat="41.1036186" lon="14.309344"><ele>143.0</ele><time>2026-05-03T08:54:39.982Z</time></trkpt><trkpt lat="41.1035742" lon="14.3094753"><ele>143.0</ele><time>2026-05-03T08:54:40.981Z</time></trkpt><trkpt lat="41.1035254" lon="14.3096044"><ele>143.0</ele><time>2026-05-03T08:54:41.981Z</time></trkpt><trkpt lat="41.1034725" lon="14.3097364"><ele>143.0</ele><time>2026-05-03T08:54:42.981Z</time></trkpt><trkpt lat="41.1034158" lon="14.3098697"><ele>143.75</ele><time>2026-05-03T08:54:43.981Z</time></trkpt><trkpt lat="41.103353" lon="14.3100005"><ele>144.5</ele><time>2026-05-03T08:54:44.982Z</time></trkpt><trkpt lat="41.1032818" lon="14.3101229"><ele>145.25</ele><time>2026-05-03T08:54:45.981Z</time></trkpt><trkpt lat="41.1031966" lon="14.310225"><ele>146.0</ele><time>2026-05-03T08:54:46.981Z</time></trkpt><trkpt lat="41.1030983" lon="14.3103109"><ele>144.5</ele><time>2026-05-03T08:54:47.981Z</time></trkpt><trkpt lat="41.1029917" lon="14.3103825"><ele>143.0</ele><time>2026-05-03T08:54:48.981Z</time></trkpt><trkpt lat="41.1028857" lon="14.3104535"><ele>141.5</ele><time>2026-05-03T08:54:49.981Z</time></trkpt><trkpt lat="41.1027735" lon="14.3105127"><ele>140.0</ele><time>2026-05-03T08:54:50.981Z</time></trkpt><trkpt lat="41.1026639" lon="14.3105704"><ele>139.5</ele><time>2026-05-03T08:54:51.982Z</time></trkpt><trkpt lat="41.1025608" lon="14.3106442"><ele>139.0</ele><time>2026-05-03T08:54:52.981Z</time></trkpt><trkpt lat="41.1024536" lon="14.3107071"><ele>138.5</ele><time>2026-05-03T08:54:53.981Z</time></trkpt><trkpt lat="41.1023511" lon="14.3107719"><ele>138.0</ele><time>2026-05-03T08:54:54.981Z</time></trkpt><trkpt lat="41.1022466" lon="14.3108314"><ele>138.0</ele><time>2026-05-03T08:54:55.982Z</time></trkpt><trkpt lat="41.1021447" lon="14.3108931"><ele>138.0</ele><time>2026-05-03T08:54:56.982Z</time></trkpt><trkpt lat="41.1020405" lon="14.3109422"><ele>138.0</ele><time>2026-05-03T08:54:57.982Z</time></trkpt><trkpt lat="41.1019416" lon="14.311005"><ele>138.0</ele><time>2026-05-03T08:54:58.981Z</time></trkpt><trkpt lat="41.1018422" lon="14.3110675"><ele>138.0</ele><time>2026-05-03T08:54:59.981Z</time></trkpt><trkpt lat="41.1017434" lon="14.3111302"><ele>138.0</ele><time>2026-05-03T08:55:00.981Z</time></trkpt><trkpt lat="41.1016456" lon="14.3111972"><ele>138.0</ele><time>2026-05-03T08:55:01.982Z</time></trkpt><trkpt lat="41.1015499" lon="14.3112691"><ele>138.0</ele><time>2026-05-03T08:55:02.982Z</time></trkpt><trkpt lat="41.1014573" lon="14.3113494"><ele>138.0</ele><time>2026-05-03T08:55:03.981Z</time></trkpt><trkpt lat="41.1013682" lon="14.3114347"><ele>138.0</ele><time>2026-05-03T08:55:04.981Z</time></trkpt><trkpt lat="41.1012857" lon="14.3115197"><ele>136.83333333333334</ele><time>2026-05-03T08:55:05.981Z</time></trkpt><trkpt lat="41.1012083" lon="14.3116066"><ele>135.66666666666666</ele><time>2026-05-03T08:55:06.981Z</time></trkpt><trkpt lat="41.1011371" lon="14.3116958"><ele>134.5</ele><time>2026-05-03T08:55:07.982Z</time></trkpt><trkpt lat="41.1010778" lon="14.3117774"><ele>133.33333333333331</ele><time>2026-05-03T08:55:08.981Z</time></trkpt><trkpt lat="41.1010229" lon="14.3118505"><ele>132.16666666666666</ele><time>2026-05-03T08:55:09.981Z</time></trkpt><trkpt lat="41.1009693" lon="14.3119134"><ele>131.0</ele><time>2026-05-03T08:55:10.981Z</time></trkpt><trkpt lat="41.1009001" lon="14.3119563"><ele>131.0</ele><time>2026-05-03T08:55:11.981Z</time></trkpt><trkpt lat="41.1008219" lon="14.3119696"><ele>131.0</ele><time>2026-05-03T08:55:12.981Z</time></trkpt><trkpt lat="41.1007506" lon="14.3119848"><ele>131.0</ele><time>2026-05-03T08:55:13.982Z</time></trkpt><trkpt lat="41.1006886" lon="14.3120309"><ele>131.0</ele><time>2026-05-03T08:55:14.981Z</time></trkpt><trkpt lat="41.1006446" lon="14.3121096"><ele>131.0</ele><time>2026-05-03T08:55:15.981Z</time></trkpt><trkpt lat="41.1006288" lon="14.3122006"><ele>131.0</ele><time>2026-05-03T08:55:16.982Z</time></trkpt><trkpt lat="41.1006313" lon="14.3122952"><ele>131.0</ele><time>2026-05-03T08:55:17.981Z</time></trkpt><trkpt lat="41.1006015" lon="14.3123792"><ele>130.16666666666666</ele><time>2026-05-03T08:55:18.981Z</time></trkpt><trkpt lat="41.1005619" lon="14.3124561"><ele>129.33333333333331</ele><time>2026-05-03T08:55:19.981Z</time></trkpt><trkpt lat="41.1005215" lon="14.3125357"><ele>128.5</ele><time>2026-05-03T08:55:20.982Z</time></trkpt><trkpt lat="41.1004782" lon="14.3126169"><ele>127.66666666666666</ele><time>2026-05-03T08:55:21.982Z</time></trkpt><trkpt lat="41.1004343" lon="14.3127031"><ele>126.83333333333333</ele><time>2026-05-03T08:55:22.982Z</time></trkpt><trkpt lat="41.1003862" lon="14.3127901"><ele>126.0</ele><time>2026-05-03T08:55:23.981Z</time></trkpt><trkpt lat="41.1003388" lon="14.3128815"><ele>126.0</ele><time>2026-05-03T08:55:24.981Z</time></trkpt><trkpt lat="41.10029" lon="14.3129729"><ele>126.0</ele><time>2026-05-03T08:55:25.982Z</time></trkpt><trkpt lat="41.1002378" lon="14.3130606"><ele>126.0</ele><time>2026-05-03T08:55:26.981Z</time></trkpt><trkpt lat="41.1001914" lon="14.3131538"><ele>126.0</ele><time>2026-05-03T08:55:27.981Z</time></trkpt><trkpt lat="41.1001466" lon="14.3132474"><ele>126.0</ele><time>2026-05-03T08:55:28.981Z</time></trkpt><trkpt lat="41.1000989" lon="14.31334"><ele>126.0</ele><time>2026-05-03T08:55:29.981Z</time></trkpt><trkpt lat="41.1000492" lon="14.313428"><ele>126.5</ele><time>2026-05-03T08:55:30.981Z</time></trkpt><trkpt lat="41.1000001" lon="14.3135184"><ele>127.0</ele><time>2026-05-03T08:55:31.981Z</time></trkpt><trkpt lat="41.0999508" lon="14.3136095"><ele>127.5</ele><time>2026-05-03T08:55:32.981Z</time></trkpt><trkpt lat="41.0999032" lon="14.313699"><ele>128.0</ele><time>2026-05-03T08:55:33.982Z</time></trkpt><trkpt lat="41.0998574" lon="14.3137888"><ele>128.5</ele><time>2026-05-03T08:55:34.981Z</time></trkpt><trkpt lat="41.0998093" lon="14.3138766"><ele>129.0</ele><time>2026-05-03T08:55:35.982Z</time></trkpt><trkpt lat="41.0997629" lon="14.313965"><ele>127.83333333333333</ele><time>2026-05-03T08:55:36.981Z</time></trkpt><trkpt lat="41.0997158" lon="14.3140558"><ele>126.66666666666666</ele><time>2026-05-03T08:55:37.981Z</time></trkpt><trkpt lat="41.0996708" lon="14.3141518"><ele>125.5</ele><time>2026-05-03T08:55:38.981Z</time></trkpt><trkpt lat="41.0996199" lon="14.3142377"><ele>124.33333333333333</ele><time>2026-05-03T08:55:39.981Z</time></trkpt><trkpt lat="41.0995776" lon="14.3143354"><ele>123.16666666666666</ele><time>2026-05-03T08:55:40.981Z</time></trkpt><trkpt lat="41.0995201" lon="14.3144181"><ele>122.0</ele><time>2026-05-03T08:55:41.981Z</time></trkpt><trkpt lat="41.0994694" lon="14.3145138"><ele>121.99999999999999</ele><time>2026-05-03T08:55:42.981Z</time></trkpt><trkpt lat="41.099411" lon="14.3146017"><ele>122.0</ele><time>2026-05-03T08:55:43.982Z</time></trkpt><trkpt lat="41.0993523" lon="14.3146849"><ele>122.0</ele><time>2026-05-03T08:55:44.981Z</time></trkpt><trkpt lat="41.0992927" lon="14.314769"><ele>122.0</ele><time>2026-05-03T08:55:45.981Z</time></trkpt><trkpt lat="41.099234" lon="14.3148497"><ele>121.99999999999999</ele><time>2026-05-03T08:55:46.981Z</time></trkpt><trkpt lat="41.0991703" lon="14.3149241"><ele>122.0</ele><time>2026-05-03T08:55:47.981Z</time></trkpt><trkpt lat="41.099111" lon="14.3150036"><ele>121.16666666666666</ele><time>2026-05-03T08:55:48.981Z</time></trkpt><trkpt lat="41.0990433" lon="14.3150642"><ele>120.33333333333333</ele><time>2026-05-03T08:55:49.982Z</time></trkpt><trkpt lat="41.0989893" lon="14.3151433"><ele>119.5</ele><time>2026-05-03T08:55:50.982Z</time></trkpt><trkpt lat="41.0989271" lon="14.3152105"><ele>118.66666666666666</ele><time>2026-05-03T08:55:51.982Z</time></trkpt><trkpt lat="41.0988705" lon="14.3152782"><ele>117.83333333333333</ele><time>2026-05-03T08:55:52.981Z</time></trkpt><trkpt lat="41.0988123" lon="14.3153431"><ele>117.0</ele><time>2026-05-03T08:55:53.981Z</time></trkpt><trkpt lat="41.0987592" lon="14.3154108"><ele>117.0</ele><time>2026-05-03T08:55:54.981Z</time></trkpt><trkpt lat="41.0986995" lon="14.3154611"><ele>116.99999999999999</ele><time>2026-05-03T08:55:55.981Z</time></trkpt><trkpt lat="41.0986511" lon="14.3155227"><ele>116.99999999999999</ele><time>2026-05-03T08:55:56.982Z</time></trkpt><trkpt lat="41.0985569" lon="14.3156068"><ele>117.0</ele><time>2026-05-03T08:55:58.982Z</time></trkpt><trkpt lat="41.0984666" lon="14.3156867"><ele>117.0</ele><time>2026-05-03T08:56:00.981Z</time></trkpt><trkpt lat="41.098389" lon="14.3157535"><ele>117.16666666666667</ele><time>2026-05-03T08:56:02.981Z</time></trkpt><trkpt lat="41.0983245" lon="14.3158091"><ele>117.33333333333334</ele><time>2026-05-03T08:57:06.981Z</time></trkpt><trkpt lat="41.0982593" lon="14.315874"><ele>117.5</ele><time>2026-05-03T08:57:10.981Z</time></trkpt><trkpt lat="41.0981912" lon="14.3159467"><ele>117.66666666666667</ele><time>2026-05-03T08:57:13.981Z</time></trkpt><trkpt lat="41.0981214" lon="14.3160217"><ele>117.83333333333334</ele><time>2026-05-03T08:57:16.981Z</time></trkpt><trkpt lat="41.0980585" lon="14.3160742"><ele>118.0</ele><time>2026-05-03T08:57:18.981Z</time></trkpt><trkpt lat="41.0979899" lon="14.3161427"><ele>117.16666666666667</ele><time>2026-05-03T08:57:20.981Z</time></trkpt><trkpt lat="41.0979119" lon="14.3162161"><ele>116.33333333333334</ele><time>2026-05-03T08:57:22.982Z</time></trkpt><trkpt lat="41.0978446" lon="14.3162746"><ele>115.5</ele><time>2026-05-03T08:57:24.981Z</time></trkpt><trkpt lat="41.0977728" lon="14.3163319"><ele>114.66666666666666</ele><time>2026-05-03T08:57:26.982Z</time></trkpt><trkpt lat="41.0977028" lon="14.3164061"><ele>113.83333333333333</ele><time>2026-05-03T08:57:28.981Z</time></trkpt><trkpt lat="41.0976333" lon="14.3164765"><ele>113.0</ele><time>2026-05-03T08:57:30.981Z</time></trkpt><trkpt lat="41.0975568" lon="14.3165457"><ele>113.0</ele><time>2026-05-03T08:57:32.982Z</time></trkpt><trkpt lat="41.097481" lon="14.3166154"><ele>113.00000000000001</ele><time>2026-05-03T08:57:34.982Z</time></trkpt><trkpt lat="41.0974016" lon="14.3166923"><ele>113.00000000000001</ele><time>2026-05-03T08:57:36.982Z</time></trkpt><trkpt lat="41.0973265" lon="14.3167655"><ele>113.0</ele><time>2026-05-03T08:57:38.982Z</time></trkpt><trkpt lat="41.0972466" lon="14.3168371"><ele>113.0</ele><time>2026-05-03T08:57:40.981Z</time></trkpt><trkpt lat="41.0971627" lon="14.3169072"><ele>112.60000000000001</ele><time>2026-05-03T08:57:42.981Z</time></trkpt><trkpt lat="41.0970853" lon="14.3169885"><ele>112.20000000000002</ele><time>2026-05-03T08:57:44.981Z</time></trkpt><trkpt lat="41.0970015" lon="14.3170656"><ele>111.8</ele><time>2026-05-03T08:57:46.981Z</time></trkpt><trkpt lat="41.0969144" lon="14.317146"><ele>111.4</ele><time>2026-05-03T08:57:48.981Z</time></trkpt><trkpt lat="41.0968259" lon="14.317225"><ele>111.0</ele><time>2026-05-03T08:57:50.981Z</time></trkpt><trkpt lat="41.0967374" lon="14.3173133"><ele>111.0</ele><time>2026-05-03T08:57:52.981Z</time></trkpt><trkpt lat="41.0966549" lon="14.3173917"><ele>111.0</ele><time>2026-05-03T08:57:54.982Z</time></trkpt><trkpt lat="41.0965734" lon="14.3174632"><ele>111.0</ele><time>2026-05-03T08:57:56.981Z</time></trkpt><trkpt lat="41.0964954" lon="14.3175364"><ele>111.0</ele><time>2026-05-03T08:57:58.981Z</time></trkpt><trkpt lat="41.0964162" lon="14.3176131"><ele>111.0</ele><time>2026-05-03T08:58:00.982Z</time></trkpt><trkpt lat="41.096339" lon="14.3176908"><ele>110.16666666666667</ele><time>2026-05-03T08:58:02.981Z</time></trkpt><trkpt lat="41.0962645" lon="14.3177586"><ele>109.33333333333334</ele><time>2026-05-03T08:58:04.981Z</time></trkpt><trkpt lat="41.0961898" lon="14.3178236"><ele>108.5</ele><time>2026-05-03T08:58:06.981Z</time></trkpt><trkpt lat="41.096123" lon="14.3178813"><ele>107.66666666666667</ele><time>2026-05-03T08:58:08.981Z</time></trkpt><trkpt lat="41.0960289" lon="14.3178883"><ele>106.83333333333334</ele><time>2026-05-03T08:58:11.981Z</time></trkpt><trkpt lat="41.0959634" lon="14.317918"><ele>106.0</ele><time>2026-05-03T08:58:13.981Z</time></trkpt><trkpt lat="41.0958963" lon="14.317976"><ele>106.00000000000001</ele><time>2026-05-03T08:58:15.981Z</time></trkpt><trkpt lat="41.0958207" lon="14.3180348"><ele>106.0</ele><time>2026-05-03T08:58:17.981Z</time></trkpt><trkpt lat="41.0957446" lon="14.3180688"><ele>106.0</ele><time>2026-05-03T08:58:19.981Z</time></trkpt><trkpt lat="41.0956687" lon="14.3180715"><ele>106.0</ele><time>2026-05-03T08:58:21.981Z</time></trkpt><trkpt lat="41.095583" lon="14.3180452"><ele>106.00000000000001</ele><time>2026-05-03T08:58:23.982Z</time></trkpt><trkpt lat="41.0954817" lon="14.3180212"><ele>106.0</ele><time>2026-05-03T08:58:25.981Z</time></trkpt><trkpt lat="41.0953764" lon="14.3179848"><ele>106.0</ele><time>2026-05-03T08:58:27.981Z</time></trkpt><trkpt lat="41.0952687" lon="14.3179545"><ele>106.0</ele><time>2026-05-03T08:58:29.982Z</time></trkpt><trkpt lat="41.0951634" lon="14.3179184"><ele>106.0</ele><time>2026-05-03T08:58:31.981Z</time></trkpt><trkpt lat="41.0950538" lon="14.3178887"><ele>106.0</ele><time>2026-05-03T08:58:33.981Z</time></trkpt><trkpt lat="41.0949405" lon="14.3178668"><ele>106.0</ele><time>2026-05-03T08:58:35.982Z</time></trkpt><trkpt lat="41.0948273" lon="14.3178283"><ele>105.75</ele><time>2026-05-03T08:58:37.981Z</time></trkpt><trkpt lat="41.094713" lon="14.3177923"><ele>105.5</ele><time>2026-05-03T08:58:39.981Z</time></trkpt><trkpt lat="41.0945975" lon="14.317749"><ele>105.25</ele><time>2026-05-03T08:58:41.981Z</time></trkpt><trkpt lat="41.0945048" lon="14.3176544"><ele>105.0</ele><time>2026-05-03T08:58:43.981Z</time></trkpt><trkpt lat="41.0944134" lon="14.3175483"><ele>105.0</ele><time>2026-05-03T08:58:45.981Z</time></trkpt><trkpt lat="41.0943163" lon="14.3174472"><ele>105.0</ele><time>2026-05-03T08:58:47.982Z</time></trkpt><trkpt lat="41.0942113" lon="14.3173593"><ele>105.0</ele><time>2026-05-03T08:58:49.981Z</time></trkpt><trkpt lat="41.094103" lon="14.3172783"><ele>105.0</ele><time>2026-05-03T08:58:51.981Z</time></trkpt><trkpt lat="41.0940425" lon="14.3172454"><ele>105.0</ele><time>2026-05-03T08:58:52.981Z</time></trkpt><trkpt lat="41.0939841" lon="14.3172056"><ele>104.28571428571429</ele><time>2026-05-03T08:58:53.982Z</time></trkpt><trkpt lat="41.0939256" lon="14.3171716"><ele>103.57142857142857</ele><time>2026-05-03T08:58:54.981Z</time></trkpt><trkpt lat="41.093865" lon="14.317135"><ele>102.85714285714286</ele><time>2026-05-03T08:58:55.981Z</time></trkpt><trkpt lat="41.0938061" lon="14.3171013"><ele>102.14285714285714</ele><time>2026-05-03T08:58:56.982Z</time></trkpt><trkpt lat="41.0937439" lon="14.3170681"><ele>101.42857142857143</ele><time>2026-05-03T08:58:57.981Z</time></trkpt><trkpt lat="41.0936863" lon="14.3170245"><ele>100.71428571428572</ele><time>2026-05-03T08:58:58.981Z</time></trkpt><trkpt lat="41.09362" lon="14.3169861"><ele>100.0</ele><time>2026-05-03T08:58:59.982Z</time></trkpt><trkpt lat="41.0935531" lon="14.3169498"><ele>100.00000000000001</ele><time>2026-05-03T08:59:00.981Z</time></trkpt><trkpt lat="41.0934911" lon="14.3169087"><ele>100.0</ele><time>2026-05-03T08:59:01.981Z</time></trkpt><trkpt lat="41.0934285" lon="14.3168653"><ele>100.0</ele><time>2026-05-03T08:59:02.981Z</time></trkpt><trkpt lat="41.0933622" lon="14.3168236"><ele>100.0</ele><time>2026-05-03T08:59:03.981Z</time></trkpt><trkpt lat="41.0932938" lon="14.3167825"><ele>100.0</ele><time>2026-05-03T08:59:04.981Z</time></trkpt><trkpt lat="41.0932227" lon="14.316746"><ele>100.00000000000001</ele><time>2026-05-03T08:59:05.981Z</time></trkpt><trkpt lat="41.0931477" lon="14.3167127"><ele>100.0</ele><time>2026-05-03T08:59:06.981Z</time></trkpt><trkpt lat="41.0930695" lon="14.3166855"><ele>99.33333333333334</ele><time>2026-05-03T08:59:07.981Z</time></trkpt><trkpt lat="41.0929899" lon="14.3166568"><ele>98.66666666666667</ele><time>2026-05-03T08:59:08.981Z</time></trkpt><trkpt lat="41.0929073" lon="14.3166301"><ele>98.0</ele><time>2026-05-03T08:59:09.981Z</time></trkpt><trkpt lat="41.0928215" lon="14.3166067"><ele>97.33333333333334</ele><time>2026-05-03T08:59:10.982Z</time></trkpt><trkpt lat="41.0927337" lon="14.3165852"><ele>96.66666666666667</ele><time>2026-05-03T08:59:11.982Z</time></trkpt><trkpt lat="41.0926413" lon="14.316571"><ele>96.0</ele><time>2026-05-03T08:59:12.981Z</time></trkpt><trkpt lat="41.0925473" lon="14.3165655"><ele>96.0</ele><time>2026-05-03T08:59:13.982Z</time></trkpt><trkpt lat="41.0924526" lon="14.316563"><ele>96.0</ele><time>2026-05-03T08:59:14.982Z</time></trkpt><trkpt lat="41.0923557" lon="14.3165751"><ele>96.0</ele><time>2026-05-03T08:59:15.981Z</time></trkpt><trkpt lat="41.0922593" lon="14.3166004"><ele>96.0</ele><time>2026-05-03T08:59:16.981Z</time></trkpt><trkpt lat="41.0921645" lon="14.3166374"><ele>96.0</ele><time>2026-05-03T08:59:17.981Z</time></trkpt><trkpt lat="41.0920677" lon="14.3166701"><ele>95.4</ele><time>2026-05-03T08:59:18.981Z</time></trkpt><trkpt lat="41.0919731" lon="14.3166957"><ele>94.8</ele><time>2026-05-03T08:59:19.981Z</time></trkpt><trkpt lat="41.0918804" lon="14.3167363"><ele>94.2</ele><time>2026-05-03T08:59:20.981Z</time></trkpt><trkpt lat="41.0917899" lon="14.3167765"><ele>93.60000000000001</ele><time>2026-05-03T08:59:21.981Z</time></trkpt><trkpt lat="41.0916997" lon="14.3168155"><ele>93.0</ele><time>2026-05-03T08:59:22.981Z</time></trkpt><trkpt lat="41.0916058" lon="14.3168554"><ele>92.2</ele><time>2026-05-03T08:59:23.981Z</time></trkpt><trkpt lat="41.0915122" lon="14.3168975"><ele>91.4</ele><time>2026-05-03T08:59:24.982Z</time></trkpt><trkpt lat="41.0914216" lon="14.3169493"><ele>90.60000000000001</ele><time>2026-05-03T08:59:25.982Z</time></trkpt><trkpt lat="41.0913266" lon="14.3169969"><ele>89.80000000000001</ele><time>2026-05-03T08:59:26.981Z</time></trkpt><trkpt lat="41.0912322" lon="14.3170392"><ele>89.0</ele><time>2026-05-03T08:59:27.981Z</time></trkpt><trkpt lat="41.0911351" lon="14.3170819"><ele>89.0</ele><time>2026-05-03T08:59:28.981Z</time></trkpt><trkpt lat="41.0910386" lon="14.3171264"><ele>89.0</ele><time>2026-05-03T08:59:29.981Z</time></trkpt><trkpt lat="41.0909456" lon="14.3171759"><ele>89.0</ele><time>2026-05-03T08:59:30.981Z</time></trkpt><trkpt lat="41.090849" lon="14.3172259"><ele>89.0</ele><time>2026-05-03T08:59:31.982Z</time></trkpt><trkpt lat="41.0907511" lon="14.3172721"><ele>89.0</ele><time>2026-05-03T08:59:32.981Z</time></trkpt><trkpt lat="41.0906566" lon="14.3173304"><ele>88.0</ele><time>2026-05-03T08:59:33.982Z</time></trkpt><trkpt lat="41.0905635" lon="14.3173907"><ele>87.0</ele><time>2026-05-03T08:59:34.981Z</time></trkpt><trkpt lat="41.0904703" lon="14.3174526"><ele>86.0</ele><time>2026-05-03T08:59:35.981Z</time></trkpt><trkpt lat="41.0903776" lon="14.317519"><ele>85.0</ele><time>2026-05-03T08:59:36.981Z</time></trkpt><trkpt lat="41.0902857" lon="14.3175935"><ele>84.0</ele><time>2026-05-03T08:59:37.982Z</time></trkpt><trkpt lat="41.0901909" lon="14.3176723"><ele>84.0</ele><time>2026-05-03T08:59:38.981Z</time></trkpt><trkpt lat="41.0900955" lon="14.3177528"><ele>84.0</ele><time>2026-05-03T08:59:39.982Z</time></trkpt><trkpt lat="41.0900023" lon="14.3178301"><ele>84.0</ele><time>2026-05-03T08:59:40.982Z</time></trkpt><trkpt lat="41.0899103" lon="14.3179131"><ele>84.0</ele><time>2026-05-03T08:59:41.981Z</time></trkpt><trkpt lat="41.0898151" lon="14.3179879"><ele>84.0</ele><time>2026-05-03T08:59:42.981Z</time></trkpt><trkpt lat="41.0897213" lon="14.3180727"><ele>83.0</ele><time>2026-05-03T08:59:43.981Z</time></trkpt><trkpt lat="41.0896279" lon="14.3181544"><ele>82.0</ele><time>2026-05-03T08:59:44.982Z</time></trkpt><trkpt lat="41.0895331" lon="14.3182328"><ele>81.0</ele><time>2026-05-03T08:59:45.981Z</time></trkpt><trkpt lat="41.0894343" lon="14.318305"><ele>80.0</ele><time>2026-05-03T08:59:46.981Z</time></trkpt><trkpt lat="41.0893306" lon="14.3183614"><ele>79.0</ele><time>2026-05-03T08:59:47.982Z</time></trkpt><trkpt lat="41.089223" lon="14.318401"><ele>79.0</ele><time>2026-05-03T08:59:48.981Z</time></trkpt><trkpt lat="41.0891154" lon="14.3184332"><ele>79.0</ele><time>2026-05-03T08:59:49.981Z</time></trkpt><trkpt lat="41.0890084" lon="14.3184569"><ele>79.0</ele><time>2026-05-03T08:59:50.981Z</time></trkpt><trkpt lat="41.0889007" lon="14.318474"><ele>79.0</ele><time>2026-05-03T08:59:51.981Z</time></trkpt><trkpt lat="41.0887945" lon="14.3184918"><ele>79.0</ele><time>2026-05-03T08:59:52.981Z</time></trkpt><trkpt lat="41.0886893" lon="14.3185042"><ele>78.8</ele><time>2026-05-03T08:59:53.981Z</time></trkpt><trkpt lat="41.0885851" lon="14.3185118"><ele>78.60000000000001</ele><time>2026-05-03T08:59:54.981Z</time></trkpt><trkpt lat="41.0884844" lon="14.3185265"><ele>78.4</ele><time>2026-05-03T08:59:55.982Z</time></trkpt><trkpt lat="41.0883855" lon="14.318544"><ele>78.2</ele><time>2026-05-03T08:59:56.981Z</time></trkpt><trkpt lat="41.0882867" lon="14.3185557"><ele>78.0</ele><time>2026-05-03T08:59:57.981Z</time></trkpt><trkpt lat="41.0881905" lon="14.318572"><ele>77.4</ele><time>2026-05-03T08:59:58.981Z</time></trkpt><trkpt lat="41.0880958" lon="14.3185897"><ele>76.8</ele><time>2026-05-03T08:59:59.981Z</time></trkpt><trkpt lat="41.0880014" lon="14.3186082"><ele>76.2</ele><time>2026-05-03T09:00:00.981Z</time></trkpt><trkpt lat="41.0879064" lon="14.3186215"><ele>75.6</ele><time>2026-05-03T09:00:01.982Z</time></trkpt><trkpt lat="41.0878111" lon="14.3186371"><ele>75.0</ele><time>2026-05-03T09:00:02.981Z</time></trkpt><trkpt lat="41.0877178" lon="14.3186521"><ele>75.0</ele><time>2026-05-03T09:00:03.981Z</time></trkpt><trkpt lat="41.0876224" lon="14.3186663"><ele>75.0</ele><time>2026-05-03T09:00:04.981Z</time></trkpt><trkpt lat="41.087525" lon="14.3186834"><ele>75.0</ele><time>2026-05-03T09:00:05.981Z</time></trkpt><trkpt lat="41.0874291" lon="14.3187058"><ele>75.0</ele><time>2026-05-03T09:00:06.981Z</time></trkpt><trkpt lat="41.0873305" lon="14.3187293"><ele>75.0</ele><time>2026-05-03T09:00:07.981Z</time></trkpt><trkpt lat="41.0872337" lon="14.3187582"><ele>74.6</ele><time>2026-05-03T09:00:08.981Z</time></trkpt><trkpt lat="41.087136" lon="14.3187894"><ele>74.2</ele><time>2026-05-03T09:00:09.981Z</time></trkpt><trkpt lat="41.0870359" lon="14.3188111"><ele>73.8</ele><time>2026-05-03T09:00:10.981Z</time></trkpt><trkpt lat="41.086935" lon="14.3188388"><ele>73.4</ele><time>2026-05-03T09:00:11.981Z</time></trkpt><trkpt lat="41.0868336" lon="14.3188709"><ele>73.0</ele><time>2026-05-03T09:00:12.981Z</time></trkpt><trkpt lat="41.0867325" lon="14.3189113"><ele>73.0</ele><time>2026-05-03T09:00:13.981Z</time></trkpt><trkpt lat="41.0866307" lon="14.3189515"><ele>73.0</ele><time>2026-05-03T09:00:14.982Z</time></trkpt><trkpt lat="41.0865297" lon="14.3189914"><ele>73.0</ele><time>2026-05-03T09:00:15.982Z</time></trkpt><trkpt lat="41.0864307" lon="14.3190357"><ele>73.0</ele><time>2026-05-03T09:00:16.981Z</time></trkpt><trkpt lat="41.0863321" lon="14.3190795"><ele>73.0</ele><time>2026-05-03T09:00:17.981Z</time></trkpt><trkpt lat="41.0862328" lon="14.3191266"><ele>72.6</ele><time>2026-05-03T09:00:18.981Z</time></trkpt><trkpt lat="41.0861355" lon="14.3191724"><ele>72.19999999999999</ele><time>2026-05-03T09:00:19.981Z</time></trkpt><trkpt lat="41.0860404" lon="14.3192178"><ele>71.8</ele><time>2026-05-03T09:00:20.981Z</time></trkpt><trkpt lat="41.0859433" lon="14.3192641"><ele>71.39999999999999</ele><time>2026-05-03T09:00:21.982Z</time></trkpt><trkpt lat="41.0858479" lon="14.3193155"><ele>71.0</ele><time>2026-05-03T09:00:22.981Z</time></trkpt><trkpt lat="41.0857542" lon="14.3193751"><ele>70.8</ele><time>2026-05-03T09:00:23.982Z</time></trkpt><trkpt lat="41.085664" lon="14.3194402"><ele>70.6</ele><time>2026-05-03T09:00:24.981Z</time></trkpt><trkpt lat="41.0855724" lon="14.3195051"><ele>70.4</ele><time>2026-05-03T09:00:25.981Z</time></trkpt><trkpt lat="41.0854823" lon="14.3195715"><ele>70.2</ele><time>2026-05-03T09:00:26.981Z</time></trkpt><trkpt lat="41.0853918" lon="14.319635"><ele>70.0</ele><time>2026-05-03T09:00:27.982Z</time></trkpt><trkpt lat="41.0853019" lon="14.3196937"><ele>70.2</ele><time>2026-05-03T09:00:28.981Z</time></trkpt><trkpt lat="41.0852071" lon="14.3197449"><ele>70.4</ele><time>2026-05-03T09:00:29.981Z</time></trkpt><trkpt lat="41.0851097" lon="14.3197734"><ele>70.6</ele><time>2026-05-03T09:00:30.982Z</time></trkpt><trkpt lat="41.0850116" lon="14.3197823"><ele>70.8</ele><time>2026-05-03T09:00:31.981Z</time></trkpt><trkpt lat="41.0849187" lon="14.3197804"><ele>71.0</ele><time>2026-05-03T09:00:32.981Z</time></trkpt><trkpt lat="41.0848363" lon="14.3197749"><ele>71.0</ele><time>2026-05-03T09:00:33.981Z</time></trkpt><trkpt lat="41.0847614" lon="14.3197527"><ele>71.0</ele><time>2026-05-03T09:00:34.981Z</time></trkpt><trkpt lat="41.0846992" lon="14.3197"><ele>71.0</ele><time>2026-05-03T09:00:35.981Z</time></trkpt><trkpt lat="41.0846559" lon="14.3196175"><ele>71.0</ele><time>2026-05-03T09:00:36.981Z</time></trkpt><trkpt lat="41.0846334" lon="14.3195248"><ele>71.0</ele><time>2026-05-03T09:00:37.981Z</time></trkpt><trkpt lat="41.0846019" lon="14.3194348"><ele>71.0</ele><time>2026-05-03T09:00:38.982Z</time></trkpt><trkpt lat="41.0845405" lon="14.319373"><ele>70.83333333333334</ele><time>2026-05-03T09:00:39.981Z</time></trkpt><trkpt lat="41.0844717" lon="14.3193364"><ele>70.66666666666667</ele><time>2026-05-03T09:00:40.982Z</time></trkpt><trkpt lat="41.084397" lon="14.3193242"><ele>70.5</ele><time>2026-05-03T09:00:41.982Z</time></trkpt><trkpt lat="41.0843231" lon="14.3193183"><ele>70.33333333333333</ele><time>2026-05-03T09:00:42.981Z</time></trkpt><trkpt lat="41.0842471" lon="14.3193078"><ele>70.16666666666666</ele><time>2026-05-03T09:00:43.981Z</time></trkpt><trkpt lat="41.0841718" lon="14.3192967"><ele>70.0</ele><time>2026-05-03T09:00:44.982Z</time></trkpt><trkpt lat="41.0840956" lon="14.3192931"><ele>69.83333333333333</ele><time>2026-05-03T09:00:45.982Z</time></trkpt><trkpt lat="41.084021" lon="14.3192873"><ele>69.66666666666666</ele><time>2026-05-03T09:00:46.981Z</time></trkpt><trkpt lat="41.0839474" lon="14.3192746"><ele>69.5</ele><time>2026-05-03T09:00:47.982Z</time></trkpt><trkpt lat="41.0838701" lon="14.3192726"><ele>69.33333333333333</ele><time>2026-05-03T09:00:48.982Z</time></trkpt><trkpt lat="41.0837913" lon="14.3192663"><ele>69.16666666666667</ele><time>2026-05-03T09:00:49.981Z</time></trkpt><trkpt lat="41.083712" lon="14.3192594"><ele>69.0</ele><time>2026-05-03T09:00:50.981Z</time></trkpt><trkpt lat="41.0836308" lon="14.3192535"><ele>69.0</ele><time>2026-05-03T09:00:51.981Z</time></trkpt><trkpt lat="41.0835491" lon="14.319249"><ele>69.0</ele><time>2026-05-03T09:00:52.981Z</time></trkpt><trkpt lat="41.0834665" lon="14.319244"><ele>69.0</ele><time>2026-05-03T09:00:53.981Z</time></trkpt><trkpt lat="41.0833854" lon="14.3192366"><ele>69.0</ele><time>2026-05-03T09:00:54.981Z</time></trkpt><trkpt lat="41.0833029" lon="14.3192305"><ele>69.0</ele><time>2026-05-03T09:00:55.982Z</time></trkpt><trkpt lat="41.0832198" lon="14.3192256"><ele>69.0</ele><time>2026-05-03T09:00:56.981Z</time></trkpt><trkpt lat="41.0831372" lon="14.3192185"><ele>68.66666666666667</ele><time>2026-05-03T09:00:57.981Z</time></trkpt><trkpt lat="41.0830539" lon="14.3192135"><ele>68.33333333333333</ele><time>2026-05-03T09:00:58.982Z</time></trkpt><trkpt lat="41.0829706" lon="14.3192081"><ele>68.0</ele><time>2026-05-03T09:00:59.981Z</time></trkpt><trkpt lat="41.0828892" lon="14.3192029"><ele>67.66666666666666</ele><time>2026-05-03T09:01:00.982Z</time></trkpt><trkpt lat="41.0828083" lon="14.3191957"><ele>67.33333333333333</ele><time>2026-05-03T09:01:01.982Z</time></trkpt><trkpt lat="41.0827259" lon="14.3191907"><ele>67.0</ele><time>2026-05-03T09:01:02.982Z</time></trkpt><trkpt lat="41.0826456" lon="14.3191859"><ele>67.0</ele><time>2026-05-03T09:01:03.981Z</time></trkpt><trkpt lat="41.0825688" lon="14.3191797"><ele>67.0</ele><time>2026-05-03T09:01:04.981Z</time></trkpt><trkpt lat="41.0824918" lon="14.3191769"><ele>67.0</ele><time>2026-05-03T09:01:05.982Z</time></trkpt><trkpt lat="41.0824174" lon="14.3191733"><ele>67.0</ele><time>2026-05-03T09:01:06.981Z</time></trkpt><trkpt lat="41.0823453" lon="14.3191705"><ele>67.0</ele><time>2026-05-03T09:01:07.982Z</time></trkpt><trkpt lat="41.0822741" lon="14.3191555"><ele>67.0</ele><time>2026-05-03T09:01:08.981Z</time></trkpt><trkpt lat="41.082203" lon="14.3191541"><ele>67.0</ele><time>2026-05-03T09:01:09.981Z</time></trkpt><trkpt lat="41.0821314" lon="14.3191492"><ele>66.83333333333333</ele><time>2026-05-03T09:01:10.981Z</time></trkpt><trkpt lat="41.0820609" lon="14.3191434"><ele>66.66666666666666</ele><time>2026-05-03T09:01:11.981Z</time></trkpt><trkpt lat="41.081987" lon="14.3191292"><ele>66.5</ele><time>2026-05-03T09:01:12.981Z</time></trkpt><trkpt lat="41.0819191" lon="14.3191077"><ele>66.33333333333333</ele><time>2026-05-03T09:01:13.981Z</time></trkpt><trkpt lat="41.0818523" lon="14.3190797"><ele>66.16666666666667</ele><time>2026-05-03T09:01:14.982Z</time></trkpt><trkpt lat="41.0817897" lon="14.3190486"><ele>66.0</ele><time>2026-05-03T09:01:15.981Z</time></trkpt><trkpt lat="41.081686" lon="14.3189986"><ele>66.0</ele><time>2026-05-03T09:01:17.981Z</time></trkpt><trkpt lat="41.0816158" lon="14.3189424"><ele>66.0</ele><time>2026-05-03T09:01:19.982Z</time></trkpt><trkpt lat="41.0815907" lon="14.3188186"><ele>66.0</ele><time>2026-05-03T09:01:21.981Z</time></trkpt><trkpt lat="41.0815896" lon="14.3186751"><ele>66.0</ele><time>2026-05-03T09:01:23.981Z</time></trkpt><trkpt lat="41.0816012" lon="14.3185246"><ele>66.0</ele><time>2026-05-03T09:01:25.981Z</time></trkpt><trkpt lat="41.0816059" lon="14.3183702"><ele>65.6</ele><time>2026-05-03T09:01:27.982Z</time></trkpt><trkpt lat="41.0815629" lon="14.3182463"><ele>65.19999999999999</ele><time>2026-05-03T09:01:29.981Z</time></trkpt><trkpt lat="41.0814619" lon="14.3182054"><ele>64.80000000000001</ele><time>2026-05-03T09:01:31.981Z</time></trkpt><trkpt lat="41.0813419" lon="14.3181852"><ele>64.4</ele><time>2026-05-03T09:01:33.982Z</time></trkpt><trkpt lat="41.081279" lon="14.3181802"><ele>64.0</ele><time>2026-05-03T09:01:34.981Z</time></trkpt><trkpt lat="41.0812137" lon="14.3181757"><ele>64.0</ele><time>2026-05-03T09:01:35.981Z</time></trkpt><trkpt lat="41.0811454" lon="14.3181733"><ele>63.99999999999999</ele><time>2026-05-03T09:01:36.982Z</time></trkpt><trkpt lat="41.0810789" lon="14.3181633"><ele>64.0</ele><time>2026-05-03T09:01:37.981Z</time></trkpt><trkpt lat="41.0810081" lon="14.3181653"><ele>64.0</ele><time>2026-05-03T09:01:38.982Z</time></trkpt><trkpt lat="41.0809362" lon="14.318161"><ele>63.99999999999999</ele><time>2026-05-03T09:01:39.981Z</time></trkpt><trkpt lat="41.0808604" lon="14.318158"><ele>64.0</ele><time>2026-05-03T09:01:40.982Z</time></trkpt><trkpt lat="41.080782" lon="14.3181563"><ele>64.0</ele><time>2026-05-03T09:01:41.982Z</time></trkpt><trkpt lat="41.0807008" lon="14.3181534"><ele>63.83333333333333</ele><time>2026-05-03T09:01:42.981Z</time></trkpt><trkpt lat="41.0806181" lon="14.3181431"><ele>63.666666666666664</ele><time>2026-05-03T09:01:43.981Z</time></trkpt><trkpt lat="41.0805334" lon="14.3181415"><ele>63.5</ele><time>2026-05-03T09:01:44.981Z</time></trkpt><trkpt lat="41.0804488" lon="14.3181402"><ele>63.33333333333333</ele><time>2026-05-03T09:01:45.981Z</time></trkpt><trkpt lat="41.0803673" lon="14.3181359"><ele>63.166666666666664</ele><time>2026-05-03T09:01:46.981Z</time></trkpt><trkpt lat="41.0802857" lon="14.3181303"><ele>63.0</ele><time>2026-05-03T09:01:47.981Z</time></trkpt><trkpt lat="41.0802053" lon="14.3181262"><ele>63.0</ele><time>2026-05-03T09:01:48.981Z</time></trkpt><trkpt lat="41.0801271" lon="14.3181216"><ele>63.0</ele><time>2026-05-03T09:01:49.981Z</time></trkpt><trkpt lat="41.0800489" lon="14.3181161"><ele>63.0</ele><time>2026-05-03T09:01:50.982Z</time></trkpt><trkpt lat="41.0799754" lon="14.3181096"><ele>63.0</ele><time>2026-05-03T09:01:51.981Z</time></trkpt><trkpt lat="41.0799002" lon="14.3181077"><ele>63.0</ele><time>2026-05-03T09:01:52.982Z</time></trkpt><trkpt lat="41.0798296" lon="14.3180993"><ele>63.0</ele><time>2026-05-03T09:01:53.981Z</time></trkpt><trkpt lat="41.0797609" lon="14.3180888"><ele>63.0</ele><time>2026-05-03T09:01:54.982Z</time></trkpt><trkpt lat="41.079691" lon="14.3180872"><ele>62.714285714285715</ele><time>2026-05-03T09:01:55.982Z</time></trkpt><trkpt lat="41.0796222" lon="14.3180739"><ele>62.42857142857143</ele><time>2026-05-03T09:01:56.981Z</time></trkpt><trkpt lat="41.0795522" lon="14.3180749"><ele>62.14285714285714</ele><time>2026-05-03T09:01:57.981Z</time></trkpt><trkpt lat="41.0794805" lon="14.3180749"><ele>61.857142857142854</ele><time>2026-05-03T09:01:58.981Z</time></trkpt><trkpt lat="41.0794101" lon="14.3180662"><ele>61.57142857142857</ele><time>2026-05-03T09:01:59.981Z</time></trkpt><trkpt lat="41.0793389" lon="14.3180716"><ele>61.28571428571428</ele><time>2026-05-03T09:02:00.982Z</time></trkpt><trkpt lat="41.0792689" lon="14.3180702"><ele>60.99999999999999</ele><time>2026-05-03T09:02:01.981Z</time></trkpt><trkpt lat="41.0791996" lon="14.318061"><ele>60.99999999999999</ele><time>2026-05-03T09:02:02.981Z</time></trkpt><trkpt lat="41.0791297" lon="14.3180696"><ele>61.0</ele><time>2026-05-03T09:02:03.981Z</time></trkpt><trkpt lat="41.0790628" lon="14.318068"><ele>61.0</ele><time>2026-05-03T09:02:04.981Z</time></trkpt><trkpt lat="41.0789951" lon="14.3180692"><ele>61.0</ele><time>2026-05-03T09:02:05.981Z</time></trkpt><trkpt lat="41.0789287" lon="14.3180716"><ele>60.99999999999999</ele><time>2026-05-03T09:02:06.982Z</time></trkpt><trkpt lat="41.0788138" lon="14.3180789"><ele>61.0</ele><time>2026-05-03T09:02:08.982Z</time></trkpt><trkpt lat="41.0787103" lon="14.3180851"><ele>61.33333333333333</ele><time>2026-05-03T09:02:10.981Z</time></trkpt><trkpt lat="41.0786414" lon="14.3180862"><ele>61.666666666666664</ele><time>2026-05-03T09:02:12.981Z</time></trkpt><trkpt lat="41.0785682" lon="14.3180458"><ele>62.0</ele><time>2026-05-03T09:02:15.981Z</time></trkpt><trkpt lat="41.0785579" lon="14.3179171"><ele>62.33333333333333</ele><time>2026-05-03T09:02:18.981Z</time></trkpt><trkpt lat="41.0785539" lon="14.3177967"><ele>62.666666666666664</ele><time>2026-05-03T09:02:20.981Z</time></trkpt><trkpt lat="41.0785582" lon="14.3176624"><ele>63.0</ele><time>2026-05-03T09:02:22.981Z</time></trkpt><trkpt lat="41.0785576" lon="14.3175299"><ele>63.0</ele><time>2026-05-03T09:02:24.981Z</time></trkpt><trkpt lat="41.0785571" lon="14.3173983"><ele>63.0</ele><time>2026-05-03T09:02:26.981Z</time></trkpt><trkpt lat="41.0785432" lon="14.3172777"><ele>63.0</ele><time>2026-05-03T09:02:28.981Z</time></trkpt><trkpt lat="41.0784772" lon="14.3171977"><ele>63.0</ele><time>2026-05-03T09:02:30.981Z</time></trkpt><trkpt lat="41.0783708" lon="14.3171777"><ele>63.0</ele><time>2026-05-03T09:02:32.982Z</time></trkpt><trkpt lat="41.0782426" lon="14.3171728"><ele>63.2</ele><time>2026-05-03T09:02:34.981Z</time></trkpt><trkpt lat="41.0781193" lon="14.3171703"><ele>63.4</ele><time>2026-05-03T09:02:36.982Z</time></trkpt><trkpt lat="41.0780084" lon="14.3171674"><ele>63.60000000000001</ele><time>2026-05-03T09:02:38.981Z</time></trkpt><trkpt lat="41.0779011" lon="14.3171676"><ele>63.800000000000004</ele><time>2026-05-03T09:02:40.982Z</time></trkpt><trkpt lat="41.0778175" lon="14.3171741"><ele>64.0</ele><time>2026-05-03T09:02:42.981Z</time></trkpt><trkpt lat="41.0777537" lon="14.3171901"><ele>63.99999999999999</ele><time>2026-05-03T09:02:44.982Z</time></trkpt><trkpt lat="41.0776815" lon="14.3172033"><ele>64.0</ele><time>2026-05-03T09:02:47.982Z</time></trkpt><trkpt lat="41.0776161" lon="14.3171873"><ele>64.0</ele><time>2026-05-03T09:02:51.981Z</time></trkpt><trkpt lat="41.0775218" lon="14.3171782"><ele>64.0</ele><time>2026-05-03T09:02:54.981Z</time></trkpt><trkpt lat="41.0774434" lon="14.3171841"><ele>63.99999999999999</ele><time>2026-05-03T09:02:56.981Z</time></trkpt><trkpt lat="41.07734" lon="14.3171837"><ele>64.0</ele><time>2026-05-03T09:02:58.981Z</time></trkpt><trkpt lat="41.0772279" lon="14.3171853"><ele>63.75</ele><time>2026-05-03T09:03:00.981Z</time></trkpt><trkpt lat="41.0771143" lon="14.3171781"><ele>63.5</ele><time>2026-05-03T09:03:02.981Z</time></trkpt><trkpt lat="41.0769986" lon="14.3171721"><ele>63.25</ele><time>2026-05-03T09:03:04.981Z</time></trkpt><trkpt lat="41.0768831" lon="14.3171691"><ele>63.0</ele><time>2026-05-03T09:03:06.982Z</time></trkpt><trkpt lat="41.0767723" lon="14.3171605"><ele>63.0</ele><time>2026-05-03T09:03:08.981Z</time></trkpt><trkpt lat="41.0766652" lon="14.3171618"><ele>63.0</ele><time>2026-05-03T09:03:10.982Z</time></trkpt><trkpt lat="41.0765545" lon="14.3171467"><ele>63.0</ele><time>2026-05-03T09:03:12.982Z</time></trkpt><trkpt lat="41.0764489" lon="14.3171472"><ele>63.0</ele><time>2026-05-03T09:03:14.981Z</time></trkpt><trkpt lat="41.0763461" lon="14.3171562"><ele>63.0</ele><time>2026-05-03T09:03:16.981Z</time></trkpt><trkpt lat="41.0762489" lon="14.3171567"><ele>62.8</ele><time>2026-05-03T09:03:18.981Z</time></trkpt><trkpt lat="41.0761522" lon="14.3171565"><ele>62.599999999999994</ele><time>2026-05-03T09:03:20.981Z</time></trkpt><trkpt lat="41.0760597" lon="14.3171545"><ele>62.400000000000006</ele><time>2026-05-03T09:03:22.981Z</time></trkpt><trkpt lat="41.0759682" lon="14.3171552"><ele>62.2</ele><time>2026-05-03T09:03:24.981Z</time></trkpt><trkpt lat="41.0758802" lon="14.3171539"><ele>62.0</ele><time>2026-05-03T09:03:26.981Z</time></trkpt><trkpt lat="41.0757935" lon="14.3171571"><ele>62.00000000000001</ele><time>2026-05-03T09:03:28.981Z</time></trkpt><trkpt lat="41.0757096" lon="14.317159"><ele>62.0</ele><time>2026-05-03T09:03:30.982Z</time></trkpt><trkpt lat="41.0756274" lon="14.3171475"><ele>62.0</ele><time>2026-05-03T09:03:32.981Z</time></trkpt><trkpt lat="41.0755498" lon="14.3171428"><ele>62.0</ele><time>2026-05-03T09:03:34.982Z</time></trkpt><trkpt lat="41.075466" lon="14.3171319"><ele>62.00000000000001</ele><time>2026-05-03T09:03:37.982Z</time></trkpt><trkpt lat="41.0754051" lon="14.3170898"><ele>62.0</ele><time>2026-05-03T09:03:40.982Z</time></trkpt><trkpt lat="41.0754083" lon="14.3170048"><ele>62.00000000000001</ele><time>2026-05-03T09:03:42.981Z</time></trkpt><trkpt lat="41.0754092" lon="14.316907"><ele>62.0</ele><time>2026-05-03T09:03:44.981Z</time></trkpt><trkpt lat="41.0754122" lon="14.3167976"><ele>62.0</ele><time>2026-05-03T09:03:46.981Z</time></trkpt><trkpt lat="41.075417" lon="14.3166888"><ele>62.0</ele><time>2026-05-03T09:03:48.981Z</time></trkpt><trkpt lat="41.0754151" lon="14.3165721"><ele>62.00000000000001</ele><time>2026-05-03T09:03:50.981Z</time></trkpt><trkpt lat="41.0754146" lon="14.3164491"><ele>62.0</ele><time>2026-05-03T09:03:52.981Z</time></trkpt><trkpt lat="41.0754077" lon="14.3163269"><ele>62.00000000000001</ele><time>2026-05-03T09:03:54.981Z</time></trkpt><trkpt lat="41.075367" lon="14.3162315"><ele>62.0</ele><time>2026-05-03T09:03:56.981Z</time></trkpt><trkpt lat="41.075292" lon="14.3162009"><ele>62.0</ele><time>2026-05-03T09:03:58.982Z</time></trkpt><trkpt lat="41.0752038" lon="14.3161933"><ele>62.0</ele><time>2026-05-03T09:04:00.981Z</time></trkpt><trkpt lat="41.0751109" lon="14.3161854"><ele>62.00000000000001</ele><time>2026-05-03T09:04:02.981Z</time></trkpt><trkpt lat="41.0750115" lon="14.3161887"><ele>62.0</ele><time>2026-05-03T09:04:04.981Z</time></trkpt><trkpt lat="41.0749162" lon="14.3161993"><ele>61.833333333333336</ele><time>2026-05-03T09:04:06.981Z</time></trkpt><trkpt lat="41.0748278" lon="14.3161936"><ele>61.66666666666667</ele><time>2026-05-03T09:04:08.981Z</time></trkpt><trkpt lat="41.0747419" lon="14.3161866"><ele>61.5</ele><time>2026-05-03T09:04:10.981Z</time></trkpt><trkpt lat="41.0746517" lon="14.3161815"><ele>61.33333333333333</ele><time>2026-05-03T09:04:12.981Z</time></trkpt><trkpt lat="41.0745573" lon="14.316174"><ele>61.166666666666664</ele><time>2026-05-03T09:04:14.981Z</time></trkpt><trkpt lat="41.0744675" lon="14.3161681"><ele>61.0</ele><time>2026-05-03T09:04:16.981Z</time></trkpt><trkpt lat="41.0743798" lon="14.3161471"><ele>61.0</ele><time>2026-05-03T09:04:18.982Z</time></trkpt><trkpt lat="41.0742877" lon="14.316149"><ele>60.99999999999999</ele><time>2026-05-03T09:04:20.981Z</time></trkpt><trkpt lat="41.0741887" lon="14.3161548"><ele>60.99999999999999</ele><time>2026-05-03T09:04:22.981Z</time></trkpt><trkpt lat="41.0740863" lon="14.3161472"><ele>61.0</ele><time>2026-05-03T09:04:24.981Z</time></trkpt><trkpt lat="41.0739785" lon="14.316145"><ele>61.0</ele><time>2026-05-03T09:04:26.982Z</time></trkpt><trkpt lat="41.0738688" lon="14.3161496"><ele>61.25</ele><time>2026-05-03T09:04:28.981Z</time></trkpt><trkpt lat="41.0737557" lon="14.3161548"><ele>61.5</ele><time>2026-05-03T09:04:30.982Z</time></trkpt><trkpt lat="41.0736359" lon="14.3161559"><ele>61.75</ele><time>2026-05-03T09:04:32.981Z</time></trkpt><trkpt lat="41.0735166" lon="14.3161677"><ele>62.0</ele><time>2026-05-03T09:04:34.982Z</time></trkpt><trkpt lat="41.0733998" lon="14.3161767"><ele>62.0</ele><time>2026-05-03T09:04:36.982Z</time></trkpt><trkpt lat="41.0732869" lon="14.3161809"><ele>62.0</ele><time>2026-05-03T09:04:38.982Z</time></trkpt><trkpt lat="41.0731762" lon="14.3161837"><ele>62.0</ele><time>2026-05-03T09:04:40.981Z</time></trkpt><trkpt lat="41.0730683" lon="14.3161903"><ele>62.0</ele><time>2026-05-03T09:04:42.981Z</time></trkpt><trkpt lat="41.072964" lon="14.3162037"><ele>62.0</ele><time>2026-05-03T09:04:44.981Z</time></trkpt><trkpt lat="41.0728682" lon="14.316202"><ele>62.16666666666667</ele><time>2026-05-03T09:04:46.982Z</time></trkpt><trkpt lat="41.0728003" lon="14.3162095"><ele>62.333333333333336</ele><time>2026-05-03T09:04:48.981Z</time></trkpt><trkpt lat="41.072746" lon="14.3162622"><ele>62.5</ele><time>2026-05-03T09:04:51.981Z</time></trkpt><trkpt lat="41.0727183" lon="14.3163874"><ele>62.66666666666667</ele><time>2026-05-03T09:04:54.982Z</time></trkpt><trkpt lat="41.0727099" lon="14.3165024"><ele>62.833333333333336</ele><time>2026-05-03T09:04:56.981Z</time></trkpt><trkpt lat="41.0727048" lon="14.316639"><ele>63.0</ele><time>2026-05-03T09:04:58.981Z</time></trkpt><trkpt lat="41.0726966" lon="14.316769"><ele>63.0</ele><time>2026-05-03T09:05:00.982Z</time></trkpt><trkpt lat="41.0726869" lon="14.3168918"><ele>63.0</ele><time>2026-05-03T09:05:02.982Z</time></trkpt><trkpt lat="41.0726768" lon="14.317024"><ele>63.0</ele><time>2026-05-03T09:05:04.981Z</time></trkpt><trkpt lat="41.0726677" lon="14.3171647"><ele>63.0</ele><time>2026-05-03T09:05:06.981Z</time></trkpt><trkpt lat="41.0726554" lon="14.3173061"><ele>63.0</ele><time>2026-05-03T09:05:08.981Z</time></trkpt><trkpt lat="41.0726518" lon="14.31745"><ele>62.8</ele><time>2026-05-03T09:05:10.982Z</time></trkpt><trkpt lat="41.0726496" lon="14.3175952"><ele>62.599999999999994</ele><time>2026-05-03T09:05:12.982Z</time></trkpt><trkpt lat="41.0726475" lon="14.3177438"><ele>62.400000000000006</ele><time>2026-05-03T09:05:14.981Z</time></trkpt><trkpt lat="41.0726365" lon="14.3178869"><ele>62.2</ele><time>2026-05-03T09:05:16.982Z</time></trkpt><trkpt lat="41.0726252" lon="14.3180199"><ele>62.0</ele><time>2026-05-03T09:05:18.982Z</time></trkpt><trkpt lat="41.0726145" lon="14.3181521"><ele>62.0</ele><time>2026-05-03T09:05:20.981Z</time></trkpt><trkpt lat="41.0725974" lon="14.318292"><ele>62.0</ele><time>2026-05-03T09:05:22.981Z</time></trkpt><trkpt lat="41.0725856" lon="14.3184354"><ele>62.0</ele><time>2026-05-03T09:05:24.982Z</time></trkpt><trkpt lat="41.0725823" lon="14.3185855"><ele>62.0</ele><time>2026-05-03T09:05:26.982Z</time></trkpt><trkpt lat="41.0725754" lon="14.3187368"><ele>62.0</ele><time>2026-05-03T09:05:28.981Z</time></trkpt><trkpt lat="41.0725688" lon="14.318885"><ele>62.400000000000006</ele><time>2026-05-03T09:05:30.981Z</time></trkpt><trkpt lat="41.0725656" lon="14.3190274"><ele>62.800000000000004</ele><time>2026-05-03T09:05:32.981Z</time></trkpt><trkpt lat="41.0725669" lon="14.3191567"><ele>63.2</ele><time>2026-05-03T09:05:34.981Z</time></trkpt><trkpt lat="41.0725633" lon="14.3192813"><ele>63.6</ele><time>2026-05-03T09:05:36.982Z</time></trkpt><trkpt lat="41.0725483" lon="14.3194076"><ele>64.0</ele><time>2026-05-03T09:05:38.981Z</time></trkpt><trkpt lat="41.0725389" lon="14.3195412"><ele>64.0</ele><time>2026-05-03T09:05:40.981Z</time></trkpt><trkpt lat="41.07254" lon="14.3196753"><ele>64.0</ele><time>2026-05-03T09:05:42.981Z</time></trkpt><trkpt lat="41.0725376" lon="14.3197953"><ele>64.0</ele><time>2026-05-03T09:05:44.981Z</time></trkpt><trkpt lat="41.0725263" lon="14.319901"><ele>64.0</ele><time>2026-05-03T09:05:46.982Z</time></trkpt><trkpt lat="41.0725207" lon="14.3200121"><ele>64.0</ele><time>2026-05-03T09:05:48.981Z</time></trkpt><trkpt lat="41.0725134" lon="14.3201376"><ele>64.0</ele><time>2026-05-03T09:05:50.981Z</time></trkpt><trkpt lat="41.0725038" lon="14.3202688"><ele>64.0</ele><time>2026-05-03T09:05:52.982Z</time></trkpt><trkpt lat="41.0724963" lon="14.3204053"><ele>64.0</ele><time>2026-05-03T09:05:54.981Z</time></trkpt><trkpt lat="41.0724892" lon="14.3205413"><ele>64.0</ele><time>2026-05-03T09:05:56.981Z</time></trkpt><trkpt lat="41.0724764" lon="14.320676"><ele>64.0</ele><time>2026-05-03T09:05:58.981Z</time></trkpt><trkpt lat="41.0724708" lon="14.3207998"><ele>63.99999999999999</ele><time>2026-05-03T09:06:00.981Z</time></trkpt><trkpt lat="41.0724717" lon="14.3209174"><ele>64.0</ele><time>2026-05-03T09:06:02.981Z</time></trkpt><trkpt lat="41.0724636" lon="14.3210228"><ele>64.0</ele><time>2026-05-03T09:06:04.981Z</time></trkpt><trkpt lat="41.0724629" lon="14.3211296"><ele>64.0</ele><time>2026-05-03T09:06:06.981Z</time></trkpt><trkpt lat="41.0724554" lon="14.3212423"><ele>63.99999999999999</ele><time>2026-05-03T09:06:08.981Z</time></trkpt><trkpt lat="41.0724558" lon="14.3213573"><ele>64.0</ele><time>2026-05-03T09:06:10.981Z</time></trkpt><trkpt lat="41.0724502" lon="14.3214764"><ele>64.0</ele><time>2026-05-03T09:06:12.981Z</time></trkpt><trkpt lat="41.0724437" lon="14.3215994"><ele>64.0</ele><time>2026-05-03T09:06:14.981Z</time></trkpt><trkpt lat="41.0724388" lon="14.3217263"><ele>64.0</ele><time>2026-05-03T09:06:16.981Z</time></trkpt><trkpt lat="41.0724328" lon="14.321855"><ele>64.0</ele><time>2026-05-03T09:06:18.981Z</time></trkpt><trkpt lat="41.0724238" lon="14.3219814"><ele>64.0</ele><time>2026-05-03T09:06:20.981Z</time></trkpt><trkpt lat="41.0724121" lon="14.3221008"><ele>63.83333333333333</ele><time>2026-05-03T09:06:22.982Z</time></trkpt><trkpt lat="41.0724102" lon="14.3222113"><ele>63.666666666666664</ele><time>2026-05-03T09:06:24.981Z</time></trkpt><trkpt lat="41.0724037" lon="14.3223043"><ele>63.5</ele><time>2026-05-03T09:06:26.982Z</time></trkpt><trkpt lat="41.0724012" lon="14.3224284"><ele>63.33333333333333</ele><time>2026-05-03T09:06:29.981Z</time></trkpt><trkpt lat="41.0723828" lon="14.3225126"><ele>63.166666666666664</ele><time>2026-05-03T09:06:31.981Z</time></trkpt><trkpt lat="41.0723251" lon="14.3225647"><ele>63.0</ele><time>2026-05-03T09:06:33.982Z</time></trkpt><trkpt lat="41.0722498" lon="14.3225826"><ele>63.333333333333336</ele><time>2026-05-03T09:06:35.981Z</time></trkpt><trkpt lat="41.072171" lon="14.3225785"><ele>63.66666666666667</ele><time>2026-05-03T09:06:37.981Z</time></trkpt><trkpt lat="41.0720908" lon="14.3225732"><ele>64.0</ele><time>2026-05-03T09:06:39.981Z</time></trkpt><trkpt lat="41.0720107" lon="14.3225726"><ele>64.33333333333334</ele><time>2026-05-03T09:06:41.982Z</time></trkpt><trkpt lat="41.0719291" lon="14.3225631"><ele>64.66666666666667</ele><time>2026-05-03T09:06:43.982Z</time></trkpt><trkpt lat="41.0718396" lon="14.3225549"><ele>65.0</ele><time>2026-05-03T09:06:45.981Z</time></trkpt><trkpt lat="41.0717463" lon="14.3225471"><ele>65.0</ele><time>2026-05-03T09:06:47.981Z</time></trkpt><trkpt lat="41.0716468" lon="14.3225374"><ele>65.0</ele><time>2026-05-03T09:06:49.981Z</time></trkpt><trkpt lat="41.0715461" lon="14.3225315"><ele>65.0</ele><time>2026-05-03T09:06:51.981Z</time></trkpt><trkpt lat="41.0714499" lon="14.3225219"><ele>65.0</ele><time>2026-05-03T09:06:53.981Z</time></trkpt><trkpt lat="41.0713527" lon="14.322512"><ele>65.0</ele><time>2026-05-03T09:06:55.981Z</time></trkpt><trkpt lat="41.0712518" lon="14.3225027"><ele>65.0</ele><time>2026-05-03T09:06:57.982Z</time></trkpt><trkpt lat="41.0711547" lon="14.3224921"><ele>65.0</ele><time>2026-05-03T09:06:59.981Z</time></trkpt><trkpt lat="41.0710582" lon="14.3224816"><ele>65.0</ele><time>2026-05-03T09:07:01.981Z</time></trkpt><trkpt lat="41.0709642" lon="14.3224778"><ele>65.0</ele><time>2026-05-03T09:07:03.981Z</time></trkpt><trkpt lat="41.0708758" lon="14.3224721"><ele>65.0</ele><time>2026-05-03T09:07:05.981Z</time></trkpt><trkpt lat="41.070794" lon="14.3224665"><ele>64.8</ele><time>2026-05-03T09:07:07.981Z</time></trkpt><trkpt lat="41.0707077" lon="14.3224727"><ele>64.6</ele><time>2026-05-03T09:07:09.981Z</time></trkpt><trkpt lat="41.0706236" lon="14.3225329"><ele>64.4</ele><time>2026-05-03T09:07:11.981Z</time></trkpt><trkpt lat="41.0705638" lon="14.3226467"><ele>64.2</ele><time>2026-05-03T09:07:13.982Z</time></trkpt><trkpt lat="41.070537" lon="14.3227874"><ele>64.0</ele><time>2026-05-03T09:07:15.981Z</time></trkpt><trkpt lat="41.0705283" lon="14.3229394"><ele>64.0</ele><time>2026-05-03T09:07:17.981Z</time></trkpt><trkpt lat="41.0705275" lon="14.3230943"><ele>64.0</ele><time>2026-05-03T09:07:19.981Z</time></trkpt><trkpt lat="41.0705281" lon="14.3232467"><ele>64.0</ele><time>2026-05-03T09:07:21.981Z</time></trkpt><trkpt lat="41.0705138" lon="14.323393"><ele>64.0</ele><time>2026-05-03T09:07:23.982Z</time></trkpt><trkpt lat="41.0705031" lon="14.3235378"><ele>64.0</ele><time>2026-05-03T09:07:25.981Z</time></trkpt><trkpt lat="41.0705044" lon="14.3236824"><ele>64.0</ele><time>2026-05-03T09:07:27.981Z</time></trkpt><trkpt lat="41.0704972" lon="14.323826"><ele>64.0</ele><time>2026-05-03T09:07:29.982Z</time></trkpt><trkpt lat="41.0704848" lon="14.3239663"><ele>64.0</ele><time>2026-05-03T09:07:31.981Z</time></trkpt><trkpt lat="41.0704706" lon="14.3241073"><ele>64.0</ele><time>2026-05-03T09:07:33.982Z</time></trkpt><trkpt lat="41.0704121" lon="14.324231"><ele>64.0</ele><time>2026-05-03T09:07:35.981Z</time></trkpt><trkpt lat="41.0703153" lon="14.3243099"><ele>64.0</ele><time>2026-05-03T09:07:37.981Z</time></trkpt><trkpt lat="41.0702036" lon="14.3243481"><ele>64.0</ele><time>2026-05-03T09:07:39.981Z</time></trkpt><trkpt lat="41.0700942" lon="14.3243854"><ele>64.0</ele><time>2026-05-03T09:07:41.981Z</time></trkpt><trkpt lat="41.0699929" lon="14.3244215"><ele>64.0</ele><time>2026-05-03T09:07:43.981Z</time></trkpt><trkpt lat="41.0698976" lon="14.3244725"><ele>64.0</ele><time>2026-05-03T09:07:45.981Z</time></trkpt><trkpt lat="41.0698111" lon="14.324535"><ele>64.0</ele><time>2026-05-03T09:07:47.981Z</time></trkpt><trkpt lat="41.0697313" lon="14.3246026"><ele>64.0</ele><time>2026-05-03T09:07:49.981Z</time></trkpt><trkpt lat="41.0696587" lon="14.3246852"><ele>64.0</ele><time>2026-05-03T09:07:51.981Z</time></trkpt><trkpt lat="41.0695962" lon="14.3247919"><ele>64.0</ele><time>2026-05-03T09:07:53.981Z</time></trkpt><trkpt lat="41.0695494" lon="14.3249195"><ele>64.0</ele><time>2026-05-03T09:07:55.982Z</time></trkpt><trkpt lat="41.0695042" lon="14.3250485"><ele>64.0</ele><time>2026-05-03T09:07:57.982Z</time></trkpt><trkpt lat="41.0694617" lon="14.3251737"><ele>64.0</ele><time>2026-05-03T09:07:59.981Z</time></trkpt><trkpt lat="41.0694204" lon="14.3253019"><ele>64.0</ele><time>2026-05-03T09:08:01.981Z</time></trkpt><trkpt lat="41.0693731" lon="14.3254424"><ele>64.0</ele><time>2026-05-03T09:08:03.981Z</time></trkpt><trkpt lat="41.0693523" lon="14.3255229"><ele>63.83333333333333</ele><time>2026-05-03T09:08:04.981Z</time></trkpt><trkpt lat="41.0693247" lon="14.3256081"><ele>63.666666666666664</ele><time>2026-05-03T09:08:05.981Z</time></trkpt><trkpt lat="41.0692967" lon="14.3256992"><ele>63.5</ele><time>2026-05-03T09:08:06.981Z</time></trkpt><trkpt lat="41.0692639" lon="14.325795"><ele>63.33333333333333</ele><time>2026-05-03T09:08:07.981Z</time></trkpt><trkpt lat="41.0692314" lon="14.3258946"><ele>63.166666666666664</ele><time>2026-05-03T09:08:08.981Z</time></trkpt><trkpt lat="41.0691971" lon="14.3259949"><ele>63.0</ele><time>2026-05-03T09:08:09.981Z</time></trkpt><trkpt lat="41.0691663" lon="14.3260885"><ele>63.0</ele><time>2026-05-03T09:08:10.981Z</time></trkpt><trkpt lat="41.069138" lon="14.3261796"><ele>63.0</ele><time>2026-05-03T09:08:11.982Z</time></trkpt><trkpt lat="41.069075" lon="14.3263073"><ele>63.0</ele><time>2026-05-03T09:08:13.981Z</time></trkpt><trkpt lat="41.0690216" lon="14.3263529"><ele>63.0</ele><time>2026-05-03T09:08:15.981Z</time></trkpt><trkpt lat="41.0689445" lon="14.3263592"><ele>63.0</ele><time>2026-05-03T09:08:18.982Z</time></trkpt><trkpt lat="41.0688465" lon="14.3264108"><ele>63.0</ele><time>2026-05-03T09:08:21.981Z</time></trkpt><trkpt lat="41.0687769" lon="14.3264251"><ele>63.0</ele><time>2026-05-03T09:08:22.981Z</time></trkpt><trkpt lat="41.0685177" lon="14.3264802"><ele>63.0</ele><time>2026-05-03T09:08:24.981Z</time></trkpt><trkpt lat="41.0683913" lon="14.3264978"><ele>63.0</ele><time>2026-05-03T09:08:25.981Z</time></trkpt><trkpt lat="41.0682693" lon="14.3265144"><ele>62.5</ele><time>2026-05-03T09:08:26.981Z</time></trkpt><trkpt lat="41.0681829" lon="14.3265314"><ele>62.0</ele><time>2026-05-03T09:08:27.981Z</time></trkpt><trkpt lat="41.0680967" lon="14.3263985"><ele>61.5</ele><time>2026-05-03T09:08:29.981Z</time></trkpt><trkpt lat="41.0679561" lon="14.3264282"><ele>61.0</ele><time>2026-05-03T09:08:30.982Z</time></trkpt><trkpt lat="41.0677355" lon="14.3264069"><ele>61.166666666666664</ele><time>2026-05-03T09:08:31.981Z</time></trkpt><trkpt lat="41.0676292" lon="14.3263838"><ele>61.33333333333333</ele><time>2026-05-03T09:08:32.982Z</time></trkpt><trkpt lat="41.0675289" lon="14.3263528"><ele>61.5</ele><time>2026-05-03T09:08:33.981Z</time></trkpt><trkpt lat="41.067451" lon="14.3263552"><ele>61.66666666666667</ele><time>2026-05-03T09:08:34.981Z</time></trkpt><trkpt lat="41.067377" lon="14.3263441"><ele>61.833333333333336</ele><time>2026-05-03T09:08:35.982Z</time></trkpt><trkpt lat="41.0673115" lon="14.3263405"><ele>62.0</ele><time>2026-05-03T09:08:36.982Z</time></trkpt><trkpt lat="41.0671819" lon="14.3263201"><ele>62.00000000000001</ele><time>2026-05-03T09:08:38.981Z</time></trkpt><trkpt lat="41.0671161" lon="14.3263094"><ele>62.0</ele><time>2026-05-03T09:08:39.981Z</time></trkpt><trkpt lat="41.0669885" lon="14.326287"><ele>62.0</ele><time>2026-05-03T09:08:41.982Z</time></trkpt><trkpt lat="41.0669222" lon="14.3262786"><ele>62.0</ele><time>2026-05-03T09:08:42.981Z</time></trkpt><trkpt lat="41.0668589" lon="14.3262706"><ele>62.00000000000001</ele><time>2026-05-03T09:08:43.981Z</time></trkpt><trkpt lat="41.0667876" lon="14.3262627"><ele>62.0</ele><time>2026-05-03T09:08:44.981Z</time></trkpt><trkpt lat="41.0667205" lon="14.3262586"><ele>62.0</ele><time>2026-05-03T09:08:45.981Z</time></trkpt><trkpt lat="41.0666506" lon="14.3262507"><ele>62.00000000000001</ele><time>2026-05-03T09:08:46.981Z</time></trkpt><trkpt lat="41.0665779" lon="14.3262459"><ele>62.0</ele><time>2026-05-03T09:08:47.981Z</time></trkpt><trkpt lat="41.0665056" lon="14.3262437"><ele>62.0</ele><time>2026-05-03T09:08:48.981Z</time></trkpt><trkpt lat="41.0664331" lon="14.3262441"><ele>62.00000000000001</ele><time>2026-05-03T09:08:49.981Z</time></trkpt><trkpt lat="41.0663594" lon="14.3262472"><ele>62.0</ele><time>2026-05-03T09:08:50.981Z</time></trkpt><trkpt lat="41.0662881" lon="14.3262494"><ele>62.0</ele><time>2026-05-03T09:08:51.981Z</time></trkpt><trkpt lat="41.0662171" lon="14.3262517"><ele>61.85714285714286</ele><time>2026-05-03T09:08:52.981Z</time></trkpt><trkpt lat="41.066149" lon="14.3262597"><ele>61.71428571428572</ele><time>2026-05-03T09:08:53.981Z</time></trkpt><trkpt lat="41.0660807" lon="14.3262689"><ele>61.57142857142857</ele><time>2026-05-03T09:08:54.982Z</time></trkpt><trkpt lat="41.0660167" lon="14.3262735"><ele>61.42857142857143</ele><time>2026-05-03T09:08:55.981Z</time></trkpt><trkpt lat="41.0659526" lon="14.3262796"><ele>61.285714285714285</ele><time>2026-05-03T09:08:56.982Z</time></trkpt><trkpt lat="41.0658881" lon="14.3262863"><ele>61.14285714285714</ele><time>2026-05-03T09:08:57.981Z</time></trkpt><trkpt lat="41.0658252" lon="14.326293"><ele>60.99999999999999</ele><time>2026-05-03T09:08:58.981Z</time></trkpt><trkpt lat="41.0657608" lon="14.3263002"><ele>60.83333333333333</ele><time>2026-05-03T09:08:59.981Z</time></trkpt><trkpt lat="41.0656966" lon="14.3263066"><ele>60.666666666666664</ele><time>2026-05-03T09:09:00.982Z</time></trkpt><trkpt lat="41.0656337" lon="14.326314"><ele>60.5</ele><time>2026-05-03T09:09:01.981Z</time></trkpt><trkpt lat="41.065506" lon="14.3263219"><ele>60.33333333333333</ele><time>2026-05-03T09:09:03.981Z</time></trkpt><trkpt lat="41.0654409" lon="14.3263308"><ele>60.166666666666664</ele><time>2026-05-03T09:09:04.981Z</time></trkpt><trkpt lat="41.0653748" lon="14.3263353"><ele>60.0</ele><time>2026-05-03T09:09:05.981Z</time></trkpt><trkpt lat="41.0653079" lon="14.3263425"><ele>60.0</ele><time>2026-05-03T09:09:06.981Z</time></trkpt><trkpt lat="41.0652405" lon="14.3263521"><ele>60.0</ele><time>2026-05-03T09:09:07.981Z</time></trkpt><trkpt lat="41.065174" lon="14.326362"><ele>60.0</ele><time>2026-05-03T09:09:08.981Z</time></trkpt><trkpt lat="41.0651051" lon="14.3263709"><ele>60.0</ele><time>2026-05-03T09:09:09.982Z</time></trkpt><trkpt lat="41.0650378" lon="14.3263754"><ele>60.0</ele><time>2026-05-03T09:09:10.981Z</time></trkpt><trkpt lat="41.0649702" lon="14.3263802"><ele>60.0</ele><time>2026-05-03T09:09:11.981Z</time></trkpt><trkpt lat="41.0649016" lon="14.3263844"><ele>60.0</ele><time>2026-05-03T09:09:12.981Z</time></trkpt><trkpt lat="41.0648318" lon="14.3263874"><ele>59.714285714285715</ele><time>2026-05-03T09:09:13.981Z</time></trkpt><trkpt lat="41.0647629" lon="14.3263874"><ele>59.42857142857143</ele><time>2026-05-03T09:09:14.981Z</time></trkpt><trkpt lat="41.0646964" lon="14.3263822"><ele>59.142857142857146</ele><time>2026-05-03T09:09:15.981Z</time></trkpt><trkpt lat="41.0646271" lon="14.326378"><ele>58.85714285714286</ele><time>2026-05-03T09:09:16.981Z</time></trkpt><trkpt lat="41.0645584" lon="14.3263717"><ele>58.57142857142857</ele><time>2026-05-03T09:09:17.982Z</time></trkpt><trkpt lat="41.0644897" lon="14.3263638"><ele>58.28571428571429</ele><time>2026-05-03T09:09:18.981Z</time></trkpt><trkpt lat="41.0644217" lon="14.326358"><ele>58.00000000000001</ele><time>2026-05-03T09:09:19.981Z</time></trkpt><trkpt lat="41.064349" lon="14.3263507"><ele>58.00000000000001</ele><time>2026-05-03T09:09:20.981Z</time></trkpt><trkpt lat="41.0642744" lon="14.3263428"><ele>58.0</ele><time>2026-05-03T09:09:21.981Z</time></trkpt><trkpt lat="41.0641993" lon="14.3263375"><ele>58.00000000000001</ele><time>2026-05-03T09:09:22.981Z</time></trkpt><trkpt lat="41.0641266" lon="14.3263313"><ele>58.00000000000001</ele><time>2026-05-03T09:09:23.981Z</time></trkpt><trkpt lat="41.0640515" lon="14.3263225"><ele>58.0</ele><time>2026-05-03T09:09:24.981Z</time></trkpt><trkpt lat="41.0639773" lon="14.3263135"><ele>58.00000000000001</ele><time>2026-05-03T09:09:25.981Z</time></trkpt><trkpt lat="41.0639019" lon="14.3263067"><ele>58.00000000000001</ele><time>2026-05-03T09:09:26.981Z</time></trkpt><trkpt lat="41.0638265" lon="14.3263046"><ele>58.166666666666664</ele><time>2026-05-03T09:09:27.981Z</time></trkpt><trkpt lat="41.0637524" lon="14.3263042"><ele>58.33333333333333</ele><time>2026-05-03T09:09:28.981Z</time></trkpt><trkpt lat="41.0636756" lon="14.3263008"><ele>58.5</ele><time>2026-05-03T09:09:29.981Z</time></trkpt><trkpt lat="41.0635981" lon="14.326297"><ele>58.66666666666667</ele><time>2026-05-03T09:09:30.981Z</time></trkpt><trkpt lat="41.0635194" lon="14.3262946"><ele>58.833333333333336</ele><time>2026-05-03T09:09:31.981Z</time></trkpt><trkpt lat="41.0634396" lon="14.3262896"><ele>59.0</ele><time>2026-05-03T09:09:32.981Z</time></trkpt><trkpt lat="41.0633599" lon="14.3262834"><ele>59.00000000000001</ele><time>2026-05-03T09:09:33.982Z</time></trkpt><trkpt lat="41.0632783" lon="14.3262756"><ele>59.0</ele><time>2026-05-03T09:09:34.981Z</time></trkpt><trkpt lat="41.0631962" lon="14.3262679"><ele>59.0</ele><time>2026-05-03T09:09:35.982Z</time></trkpt><trkpt lat="41.0631134" lon="14.3262622"><ele>59.0</ele><time>2026-05-03T09:09:36.981Z</time></trkpt><trkpt lat="41.0630311" lon="14.3262565"><ele>59.00000000000001</ele><time>2026-05-03T09:09:37.981Z</time></trkpt><trkpt lat="41.0629486" lon="14.3262515"><ele>59.0</ele><time>2026-05-03T09:09:38.981Z</time></trkpt><trkpt lat="41.0628656" lon="14.326244"><ele>59.00000000000001</ele><time>2026-05-03T09:09:39.981Z</time></trkpt><trkpt lat="41.0627816" lon="14.3262358"><ele>59.0</ele><time>2026-05-03T09:09:40.981Z</time></trkpt><trkpt lat="41.0626978" lon="14.3262301"><ele>59.0</ele><time>2026-05-03T09:09:41.981Z</time></trkpt><trkpt lat="41.0626138" lon="14.3262244"><ele>59.0</ele><time>2026-05-03T09:09:42.981Z</time></trkpt><trkpt lat="41.0625315" lon="14.3262163"><ele>59.00000000000001</ele><time>2026-05-03T09:09:43.981Z</time></trkpt><trkpt lat="41.0624488" lon="14.3262077"><ele>59.0</ele><time>2026-05-03T09:09:44.981Z</time></trkpt><trkpt lat="41.0623663" lon="14.326199"><ele>58.833333333333336</ele><time>2026-05-03T09:09:45.981Z</time></trkpt><trkpt lat="41.0622837" lon="14.3261884"><ele>58.66666666666667</ele><time>2026-05-03T09:09:46.982Z</time></trkpt><trkpt lat="41.0622029" lon="14.3261774"><ele>58.5</ele><time>2026-05-03T09:09:47.981Z</time></trkpt><trkpt lat="41.0621222" lon="14.3261708"><ele>58.33333333333333</ele><time>2026-05-03T09:09:48.982Z</time></trkpt><trkpt lat="41.0620402" lon="14.3261623"><ele>58.166666666666664</ele><time>2026-05-03T09:09:49.981Z</time></trkpt><trkpt lat="41.0619574" lon="14.3261532"><ele>58.0</ele><time>2026-05-03T09:09:50.981Z</time></trkpt><trkpt lat="41.0618759" lon="14.3261462"><ele>57.99999999999999</ele><time>2026-05-03T09:09:51.981Z</time></trkpt><trkpt lat="41.0617963" lon="14.3261401"><ele>58.0</ele><time>2026-05-03T09:09:52.981Z</time></trkpt><trkpt lat="41.0617156" lon="14.3261336"><ele>58.0</ele><time>2026-05-03T09:09:53.981Z</time></trkpt><trkpt lat="41.061634" lon="14.3261269"><ele>58.0</ele><time>2026-05-03T09:09:54.981Z</time></trkpt><trkpt lat="41.0615526" lon="14.3261218"><ele>57.99999999999999</ele><time>2026-05-03T09:09:55.981Z</time></trkpt><trkpt lat="41.061472" lon="14.3261161"><ele>58.0</ele><time>2026-05-03T09:09:56.981Z</time></trkpt><trkpt lat="41.0613923" lon="14.3261061"><ele>57.666666666666664</ele><time>2026-05-03T09:09:57.982Z</time></trkpt><trkpt lat="41.0613113" lon="14.3261"><ele>57.33333333333333</ele><time>2026-05-03T09:09:58.981Z</time></trkpt><trkpt lat="41.0612301" lon="14.3260933"><ele>57.0</ele><time>2026-05-03T09:09:59.981Z</time></trkpt><trkpt lat="41.0611484" lon="14.3260874"><ele>56.66666666666667</ele><time>2026-05-03T09:10:00.981Z</time></trkpt><trkpt lat="41.0610658" lon="14.32608"><ele>56.333333333333336</ele><time>2026-05-03T09:10:01.981Z</time></trkpt><trkpt lat="41.0609839" lon="14.3260729"><ele>56.0</ele><time>2026-05-03T09:10:02.981Z</time></trkpt><trkpt lat="41.0609018" lon="14.3260661"><ele>56.00000000000001</ele><time>2026-05-03T09:10:03.981Z</time></trkpt><trkpt lat="41.0608201" lon="14.3260618"><ele>56.0</ele><time>2026-05-03T09:10:04.982Z</time></trkpt><trkpt lat="41.0607396" lon="14.3260554"><ele>56.0</ele><time>2026-05-03T09:10:05.981Z</time></trkpt><trkpt lat="41.0606599" lon="14.3260462"><ele>56.0</ele><time>2026-05-03T09:10:06.981Z</time></trkpt><trkpt lat="41.0605786" lon="14.3260388"><ele>56.00000000000001</ele><time>2026-05-03T09:10:07.982Z</time></trkpt><trkpt lat="41.0604953" lon="14.3260331"><ele>56.0</ele><time>2026-05-03T09:10:08.982Z</time></trkpt><trkpt lat="41.0604143" lon="14.326027"><ele>55.833333333333336</ele><time>2026-05-03T09:10:09.981Z</time></trkpt><trkpt lat="41.0603321" lon="14.3260191"><ele>55.66666666666667</ele><time>2026-05-03T09:10:10.981Z</time></trkpt><trkpt lat="41.0602503" lon="14.3260137"><ele>55.5</ele><time>2026-05-03T09:10:11.981Z</time></trkpt><trkpt lat="41.0601693" lon="14.3260108"><ele>55.33333333333333</ele><time>2026-05-03T09:10:12.982Z</time></trkpt><trkpt lat="41.0600899" lon="14.326005"><ele>55.166666666666664</ele><time>2026-05-03T09:10:13.981Z</time></trkpt><trkpt lat="41.0600092" lon="14.3259956"><ele>55.0</ele><time>2026-05-03T09:10:14.982Z</time></trkpt><trkpt lat="41.0599273" lon="14.3259869"><ele>54.99999999999999</ele><time>2026-05-03T09:10:15.981Z</time></trkpt><trkpt lat="41.0598466" lon="14.3259832"><ele>55.0</ele><time>2026-05-03T09:10:16.981Z</time></trkpt><trkpt lat="41.0597678" lon="14.3259772"><ele>55.0</ele><time>2026-05-03T09:10:17.981Z</time></trkpt><trkpt lat="41.0596869" lon="14.3259723"><ele>55.0</ele><time>2026-05-03T09:10:18.981Z</time></trkpt><trkpt lat="41.0596079" lon="14.3259648"><ele>54.99999999999999</ele><time>2026-05-03T09:10:19.981Z</time></trkpt><trkpt lat="41.0595299" lon="14.3259583"><ele>55.0</ele><time>2026-05-03T09:10:20.981Z</time></trkpt><trkpt lat="41.0594515" lon="14.3259547"><ele>54.99999999999999</ele><time>2026-05-03T09:10:21.981Z</time></trkpt><trkpt lat="41.0593726" lon="14.3259502"><ele>55.0</ele><time>2026-05-03T09:10:22.981Z</time></trkpt><trkpt lat="41.059292" lon="14.3259444"><ele>55.0</ele><time>2026-05-03T09:10:23.982Z</time></trkpt><trkpt lat="41.0592133" lon="14.3259373"><ele>55.0</ele><time>2026-05-03T09:10:24.981Z</time></trkpt><trkpt lat="41.0591354" lon="14.3259315"><ele>54.99999999999999</ele><time>2026-05-03T09:10:25.981Z</time></trkpt><trkpt lat="41.0590577" lon="14.3259266"><ele>55.0</ele><time>2026-05-03T09:10:26.981Z</time></trkpt><trkpt lat="41.0589785" lon="14.3259216"><ele>54.83333333333333</ele><time>2026-05-03T09:10:27.981Z</time></trkpt><trkpt lat="41.0589023" lon="14.3259139"><ele>54.666666666666664</ele><time>2026-05-03T09:10:28.981Z</time></trkpt><trkpt lat="41.0588243" lon="14.3259047"><ele>54.5</ele><time>2026-05-03T09:10:29.981Z</time></trkpt><trkpt lat="41.0587474" lon="14.325898"><ele>54.33333333333333</ele><time>2026-05-03T09:10:30.981Z</time></trkpt><trkpt lat="41.0586692" lon="14.3258934"><ele>54.166666666666664</ele><time>2026-05-03T09:10:31.981Z</time></trkpt><trkpt lat="41.0585926" lon="14.325886"><ele>54.0</ele><time>2026-05-03T09:10:32.981Z</time></trkpt><trkpt lat="41.0585159" lon="14.3258795"><ele>54.0</ele><time>2026-05-03T09:10:33.981Z</time></trkpt><trkpt lat="41.0584399" lon="14.3258746"><ele>54.0</ele><time>2026-05-03T09:10:34.982Z</time></trkpt><trkpt lat="41.0583606" lon="14.3258657"><ele>54.0</ele><time>2026-05-03T09:10:35.981Z</time></trkpt><trkpt lat="41.0582824" lon="14.3258614"><ele>54.0</ele><time>2026-05-03T09:10:36.981Z</time></trkpt><trkpt lat="41.0582046" lon="14.3258566"><ele>54.0</ele><time>2026-05-03T09:10:37.981Z</time></trkpt><trkpt lat="41.0581273" lon="14.32585"><ele>54.0</ele><time>2026-05-03T09:10:38.981Z</time></trkpt><trkpt lat="41.0580505" lon="14.3258408"><ele>53.666666666666664</ele><time>2026-05-03T09:10:39.981Z</time></trkpt><trkpt lat="41.0579738" lon="14.3258349"><ele>53.33333333333333</ele><time>2026-05-03T09:10:40.981Z</time></trkpt><trkpt lat="41.0578952" lon="14.3258285"><ele>53.0</ele><time>2026-05-03T09:10:41.981Z</time></trkpt><trkpt lat="41.0578166" lon="14.3258228"><ele>52.666666666666664</ele><time>2026-05-03T09:10:42.981Z</time></trkpt><trkpt lat="41.0577378" lon="14.3258179"><ele>52.33333333333333</ele><time>2026-05-03T09:10:43.981Z</time></trkpt><trkpt lat="41.0576602" lon="14.3258134"><ele>52.0</ele><time>2026-05-03T09:10:44.981Z</time></trkpt><trkpt lat="41.0575817" lon="14.3258097"><ele>51.99999999999999</ele><time>2026-05-03T09:10:45.982Z</time></trkpt><trkpt lat="41.0575031" lon="14.3258063"><ele>52.0</ele><time>2026-05-03T09:10:46.982Z</time></trkpt><trkpt lat="41.0574239" lon="14.3258008"><ele>52.0</ele><time>2026-05-03T09:10:47.981Z</time></trkpt><trkpt lat="41.0573467" lon="14.3257941"><ele>52.0</ele><time>2026-05-03T09:10:48.981Z</time></trkpt><trkpt lat="41.0572686" lon="14.3257901"><ele>51.99999999999999</ele><time>2026-05-03T09:10:49.982Z</time></trkpt><trkpt lat="41.0571922" lon="14.3257835"><ele>52.0</ele><time>2026-05-03T09:10:50.982Z</time></trkpt><trkpt lat="41.0571186" lon="14.3257712"><ele>52.285714285714285</ele><time>2026-05-03T09:10:51.981Z</time></trkpt><trkpt lat="41.0570443" lon="14.3257635"><ele>52.57142857142858</ele><time>2026-05-03T09:10:52.981Z</time></trkpt><trkpt lat="41.0569789" lon="14.3257188"><ele>52.85714285714286</ele><time>2026-05-03T09:10:53.981Z</time></trkpt><trkpt lat="41.0569173" lon="14.3256679"><ele>53.14285714285714</ele><time>2026-05-03T09:10:54.981Z</time></trkpt><trkpt lat="41.0568484" lon="14.3256321"><ele>53.42857142857143</ele><time>2026-05-03T09:10:55.981Z</time></trkpt><trkpt lat="41.0567761" lon="14.325632"><ele>53.714285714285715</ele><time>2026-05-03T09:10:56.981Z</time></trkpt><trkpt lat="41.0567047" lon="14.325655"><ele>54.0</ele><time>2026-05-03T09:10:57.981Z</time></trkpt><trkpt lat="41.056637" lon="14.3256903"><ele>53.857142857142854</ele><time>2026-05-03T09:10:58.982Z</time></trkpt><trkpt lat="41.0565637" lon="14.325714"><ele>53.71428571428571</ele><time>2026-05-03T09:10:59.981Z</time></trkpt><trkpt lat="41.0564894" lon="14.3257249"><ele>53.57142857142857</ele><time>2026-05-03T09:11:00.981Z</time></trkpt><trkpt lat="41.0564155" lon="14.3257217"><ele>53.42857142857143</ele><time>2026-05-03T09:11:01.981Z</time></trkpt><trkpt lat="41.0563409" lon="14.3257125"><ele>53.285714285714285</ele><time>2026-05-03T09:11:02.981Z</time></trkpt><trkpt lat="41.0562675" lon="14.3257025"><ele>53.142857142857146</ele><time>2026-05-03T09:11:03.981Z</time></trkpt><trkpt lat="41.0561938" lon="14.3256933"><ele>53.0</ele><time>2026-05-03T09:11:04.981Z</time></trkpt><trkpt lat="41.0561207" lon="14.3256879"><ele>53.0</ele><time>2026-05-03T09:11:05.981Z</time></trkpt><trkpt lat="41.0560486" lon="14.3256868"><ele>53.0</ele><time>2026-05-03T09:11:06.981Z</time></trkpt><trkpt lat="41.0559764" lon="14.325688"><ele>53.0</ele><time>2026-05-03T09:11:07.981Z</time></trkpt><trkpt lat="41.0559071" lon="14.3256707"><ele>53.0</ele><time>2026-05-03T09:11:08.982Z</time></trkpt><trkpt lat="41.0558346" lon="14.3256622"><ele>53.0</ele><time>2026-05-03T09:11:09.981Z</time></trkpt><trkpt lat="41.0557635" lon="14.3256612"><ele>53.0</ele><time>2026-05-03T09:11:10.981Z</time></trkpt><trkpt lat="41.0556926" lon="14.3256509"><ele>53.0</ele><time>2026-05-03T09:11:11.981Z</time></trkpt><trkpt lat="41.0556208" lon="14.325649"><ele>52.57142857142858</ele><time>2026-05-03T09:11:12.981Z</time></trkpt><trkpt lat="41.0555497" lon="14.3256463"><ele>52.14285714285714</ele><time>2026-05-03T09:11:13.981Z</time></trkpt><trkpt lat="41.0554788" lon="14.325635"><ele>51.714285714285715</ele><time>2026-05-03T09:11:14.981Z</time></trkpt><trkpt lat="41.0554082" lon="14.325627"><ele>51.28571428571429</ele><time>2026-05-03T09:11:15.981Z</time></trkpt><trkpt lat="41.0553365" lon="14.3256209"><ele>50.85714285714286</ele><time>2026-05-03T09:11:16.981Z</time></trkpt><trkpt lat="41.0552648" lon="14.3256188"><ele>50.42857142857143</ele><time>2026-05-03T09:11:17.981Z</time></trkpt><trkpt lat="41.0551944" lon="14.3256143"><ele>50.0</ele><time>2026-05-03T09:11:18.982Z</time></trkpt><trkpt lat="41.0551226" lon="14.32561"><ele>50.00000000000001</ele><time>2026-05-03T09:11:19.981Z</time></trkpt><trkpt lat="41.0550518" lon="14.3256051"><ele>50.0</ele><time>2026-05-03T09:11:20.981Z</time></trkpt><trkpt lat="41.0549806" lon="14.3255968"><ele>50.0</ele><time>2026-05-03T09:11:21.981Z</time></trkpt><trkpt lat="41.0549096" lon="14.3255906"><ele>50.0</ele><time>2026-05-03T09:11:22.981Z</time></trkpt><trkpt lat="41.0548378" lon="14.3255833"><ele>50.0</ele><time>2026-05-03T09:11:23.981Z</time></trkpt><trkpt lat="41.0547659" lon="14.3255757"><ele>50.00000000000001</ele><time>2026-05-03T09:11:24.981Z</time></trkpt><trkpt lat="41.0546934" lon="14.3255687"><ele>50.0</ele><time>2026-05-03T09:11:25.981Z</time></trkpt><trkpt lat="41.0546188" lon="14.3255633"><ele>50.50000000000001</ele><time>2026-05-03T09:11:26.981Z</time></trkpt><trkpt lat="41.0545448" lon="14.3255568"><ele>51.0</ele><time>2026-05-03T09:11:27.981Z</time></trkpt><trkpt lat="41.054469" lon="14.3255502"><ele>51.5</ele><time>2026-05-03T09:11:28.981Z</time></trkpt><trkpt lat="41.0543927" lon="14.3255459"><ele>52.0</ele><time>2026-05-03T09:11:29.982Z</time></trkpt><trkpt lat="41.0543157" lon="14.3255395"><ele>52.50000000000001</ele><time>2026-05-03T09:11:30.982Z</time></trkpt><trkpt lat="41.054238" lon="14.3255352"><ele>53.0</ele><time>2026-05-03T09:11:31.982Z</time></trkpt><trkpt lat="41.0541624" lon="14.3255317"><ele>53.00000000000001</ele><time>2026-05-03T09:11:32.982Z</time></trkpt><trkpt lat="41.0540863" lon="14.3255262"><ele>53.0</ele><time>2026-05-03T09:11:33.981Z</time></trkpt><trkpt lat="41.054014" lon="14.3255152"><ele>53.0</ele><time>2026-05-03T09:11:34.981Z</time></trkpt><trkpt lat="41.0539383" lon="14.3255106"><ele>53.0</ele><time>2026-05-03T09:11:35.981Z</time></trkpt><trkpt lat="41.0538627" lon="14.3255045"><ele>53.00000000000001</ele><time>2026-05-03T09:11:36.981Z</time></trkpt><trkpt lat="41.0537871" lon="14.3254966"><ele>53.0</ele><time>2026-05-03T09:11:37.981Z</time></trkpt><trkpt lat="41.0537122" lon="14.3254891"><ele>53.00000000000001</ele><time>2026-05-03T09:11:38.981Z</time></trkpt><trkpt lat="41.0536373" lon="14.3254797"><ele>53.0</ele><time>2026-05-03T09:11:39.981Z</time></trkpt><trkpt lat="41.0535618" lon="14.325478"><ele>53.0</ele><time>2026-05-03T09:11:40.981Z</time></trkpt><trkpt lat="41.0534868" lon="14.3254716"><ele>53.0</ele><time>2026-05-03T09:11:41.981Z</time></trkpt><trkpt lat="41.053411" lon="14.3254637"><ele>53.00000000000001</ele><time>2026-05-03T09:11:42.981Z</time></trkpt><trkpt lat="41.0533348" lon="14.3254565"><ele>53.0</ele><time>2026-05-03T09:11:43.981Z</time></trkpt><trkpt lat="41.0532582" lon="14.3254494"><ele>53.0</ele><time>2026-05-03T09:11:44.982Z</time></trkpt><trkpt lat="41.0531839" lon="14.3254446"><ele>53.0</ele><time>2026-05-03T09:11:45.981Z</time></trkpt><trkpt lat="41.0531108" lon="14.3254402"><ele>53.0</ele><time>2026-05-03T09:11:46.981Z</time></trkpt><trkpt lat="41.0530358" lon="14.3254325"><ele>53.0</ele><time>2026-05-03T09:11:47.982Z</time></trkpt><trkpt lat="41.0529624" lon="14.3254263"><ele>53.0</ele><time>2026-05-03T09:11:48.981Z</time></trkpt><trkpt lat="41.0528902" lon="14.3254217"><ele>53.0</ele><time>2026-05-03T09:11:49.981Z</time></trkpt><trkpt lat="41.0528146" lon="14.3254179"><ele>53.0</ele><time>2026-05-03T09:11:50.982Z</time></trkpt><trkpt lat="41.0527416" lon="14.3254158"><ele>53.0</ele><time>2026-05-03T09:11:51.981Z</time></trkpt><trkpt lat="41.0526689" lon="14.3254083"><ele>53.0</ele><time>2026-05-03T09:11:52.981Z</time></trkpt><trkpt lat="41.052598" lon="14.3254034"><ele>53.0</ele><time>2026-05-03T09:11:53.982Z</time></trkpt><trkpt lat="41.0525281" lon="14.3253959"><ele>53.0</ele><time>2026-05-03T09:11:54.981Z</time></trkpt><trkpt lat="41.0524624" lon="14.3253912"><ele>53.0</ele><time>2026-05-03T09:11:55.981Z</time></trkpt><trkpt lat="41.0523958" lon="14.3253837"><ele>53.0</ele><time>2026-05-03T09:11:56.981Z</time></trkpt><trkpt lat="41.0523309" lon="14.3253769"><ele>53.0</ele><time>2026-05-03T09:11:57.981Z</time></trkpt><trkpt lat="41.0521975" lon="14.325373"><ele>52.5</ele><time>2026-05-03T09:11:59.982Z</time></trkpt><trkpt lat="41.0520761" lon="14.3253664"><ele>52.0</ele><time>2026-05-03T09:12:01.982Z</time></trkpt><trkpt lat="41.0519603" lon="14.3253573"><ele>51.5</ele><time>2026-05-03T09:12:03.982Z</time></trkpt><trkpt lat="41.0518457" lon="14.3253492"><ele>51.0</ele><time>2026-05-03T09:12:05.981Z</time></trkpt><trkpt lat="41.0517347" lon="14.3253476"><ele>51.0</ele><time>2026-05-03T09:12:07.981Z</time></trkpt><trkpt lat="41.0516238" lon="14.3253357"><ele>51.0</ele><time>2026-05-03T09:12:09.982Z</time></trkpt><trkpt lat="41.0515113" lon="14.3253256"><ele>51.0</ele><time>2026-05-03T09:12:11.981Z</time></trkpt><trkpt lat="41.0513923" lon="14.3253168"><ele>51.0</ele><time>2026-05-03T09:12:13.981Z</time></trkpt><trkpt lat="41.0512691" lon="14.325308"><ele>51.0</ele><time>2026-05-03T09:12:15.981Z</time></trkpt><trkpt lat="41.0512036" lon="14.3253026"><ele>51.0</ele><time>2026-05-03T09:12:16.982Z</time></trkpt><trkpt lat="41.051137" lon="14.3252992"><ele>51.0</ele><time>2026-05-03T09:12:17.981Z</time></trkpt><trkpt lat="41.0510701" lon="14.3252915"><ele>51.0</ele><time>2026-05-03T09:12:18.981Z</time></trkpt><trkpt lat="41.0510019" lon="14.3252862"><ele>51.0</ele><time>2026-05-03T09:12:19.982Z</time></trkpt><trkpt lat="41.0509337" lon="14.3252837"><ele>51.0</ele><time>2026-05-03T09:12:20.981Z</time></trkpt><trkpt lat="41.0508645" lon="14.3252815"><ele>51.0</ele><time>2026-05-03T09:12:21.981Z</time></trkpt><trkpt lat="41.0507923" lon="14.3252817"><ele>51.142857142857146</ele><time>2026-05-03T09:12:22.981Z</time></trkpt><trkpt lat="41.0507223" lon="14.3252772"><ele>51.28571428571429</ele><time>2026-05-03T09:12:23.981Z</time></trkpt><trkpt lat="41.0506501" lon="14.3252689"><ele>51.42857142857143</ele><time>2026-05-03T09:12:24.981Z</time></trkpt><trkpt lat="41.0505766" lon="14.3252603"><ele>51.57142857142857</ele><time>2026-05-03T09:12:25.982Z</time></trkpt><trkpt lat="41.0505014" lon="14.3252528"><ele>51.714285714285715</ele><time>2026-05-03T09:12:26.982Z</time></trkpt><trkpt lat="41.0504264" lon="14.3252457"><ele>51.857142857142854</ele><time>2026-05-03T09:12:27.982Z</time></trkpt><trkpt lat="41.0503527" lon="14.3252412"><ele>52.0</ele><time>2026-05-03T09:12:28.981Z</time></trkpt><trkpt lat="41.0502771" lon="14.3252362"><ele>51.99999999999999</ele><time>2026-05-03T09:12:29.981Z</time></trkpt><trkpt lat="41.0502009" lon="14.325234"><ele>52.0</ele><time>2026-05-03T09:12:30.981Z</time></trkpt><trkpt lat="41.0501236" lon="14.3252306"><ele>52.0</ele><time>2026-05-03T09:12:31.981Z</time></trkpt><trkpt lat="41.0500478" lon="14.3252269"><ele>52.0</ele><time>2026-05-03T09:12:32.982Z</time></trkpt><trkpt lat="41.04997" lon="14.3252201"><ele>51.99999999999999</ele><time>2026-05-03T09:12:33.981Z</time></trkpt><trkpt lat="41.0498909" lon="14.3252152"><ele>52.0</ele><time>2026-05-03T09:12:34.981Z</time></trkpt><trkpt lat="41.0498106" lon="14.3252081"><ele>51.83333333333333</ele><time>2026-05-03T09:12:35.981Z</time></trkpt><trkpt lat="41.0497273" lon="14.3251989"><ele>51.666666666666664</ele><time>2026-05-03T09:12:36.981Z</time></trkpt><trkpt lat="41.0496392" lon="14.3251942"><ele>51.5</ele><time>2026-05-03T09:12:37.981Z</time></trkpt><trkpt lat="41.0495466" lon="14.3251786"><ele>51.33333333333333</ele><time>2026-05-03T09:12:38.981Z</time></trkpt><trkpt lat="41.0494591" lon="14.325172"><ele>51.166666666666664</ele><time>2026-05-03T09:12:39.982Z</time></trkpt><trkpt lat="41.0493716" lon="14.3251678"><ele>51.0</ele><time>2026-05-03T09:12:40.981Z</time></trkpt><trkpt lat="41.0492849" lon="14.3251563"><ele>51.0</ele><time>2026-05-03T09:12:41.981Z</time></trkpt><trkpt lat="41.049197" lon="14.3251513"><ele>51.0</ele><time>2026-05-03T09:12:42.981Z</time></trkpt><trkpt lat="41.0491103" lon="14.3251414"><ele>51.0</ele><time>2026-05-03T09:12:43.981Z</time></trkpt><trkpt lat="41.0490218" lon="14.3251319"><ele>51.0</ele><time>2026-05-03T09:12:44.981Z</time></trkpt><trkpt lat="41.0489339" lon="14.3251246"><ele>51.0</ele><time>2026-05-03T09:12:45.981Z</time></trkpt><trkpt lat="41.0488446" lon="14.3251199"><ele>51.0</ele><time>2026-05-03T09:12:46.981Z</time></trkpt><trkpt lat="41.0487554" lon="14.3251163"><ele>50.833333333333336</ele><time>2026-05-03T09:12:47.982Z</time></trkpt><trkpt lat="41.048668" lon="14.3250997"><ele>50.66666666666667</ele><time>2026-05-03T09:12:48.981Z</time></trkpt><trkpt lat="41.0485788" lon="14.3250842"><ele>50.5</ele><time>2026-05-03T09:12:49.982Z</time></trkpt><trkpt lat="41.0484887" lon="14.3250799"><ele>50.333333333333336</ele><time>2026-05-03T09:12:50.982Z</time></trkpt><trkpt lat="41.0483992" lon="14.3250752"><ele>50.16666666666667</ele><time>2026-05-03T09:12:51.981Z</time></trkpt><trkpt lat="41.0483086" lon="14.3250709"><ele>50.0</ele><time>2026-05-03T09:12:52.981Z</time></trkpt><trkpt lat="41.0482191" lon="14.3250654"><ele>49.6</ele><time>2026-05-03T09:12:53.981Z</time></trkpt><trkpt lat="41.0481292" lon="14.325062"><ele>49.2</ele><time>2026-05-03T09:12:54.981Z</time></trkpt><trkpt lat="41.0480401" lon="14.3250567"><ele>48.8</ele><time>2026-05-03T09:12:55.981Z</time></trkpt><trkpt lat="41.0479509" lon="14.325049"><ele>48.4</ele><time>2026-05-03T09:12:56.981Z</time></trkpt><trkpt lat="41.0478607" lon="14.3250347"><ele>48.0</ele><time>2026-05-03T09:12:57.981Z</time></trkpt><trkpt lat="41.0477706" lon="14.3250277"><ele>48.0</ele><time>2026-05-03T09:12:58.981Z</time></trkpt><trkpt lat="41.0476789" lon="14.3250235"><ele>48.0</ele><time>2026-05-03T09:12:59.982Z</time></trkpt><trkpt lat="41.0475908" lon="14.3250143"><ele>48.0</ele><time>2026-05-03T09:13:00.981Z</time></trkpt><trkpt lat="41.0475011" lon="14.3250083"><ele>48.0</ele><time>2026-05-03T09:13:01.982Z</time></trkpt><trkpt lat="41.0474137" lon="14.3250049"><ele>48.0</ele><time>2026-05-03T09:13:02.981Z</time></trkpt><trkpt lat="41.0473267" lon="14.3249982"><ele>48.0</ele><time>2026-05-03T09:13:03.981Z</time></trkpt><trkpt lat="41.0472384" lon="14.324991"><ele>48.166666666666664</ele><time>2026-05-03T09:13:04.982Z</time></trkpt><trkpt lat="41.0471512" lon="14.3249865"><ele>48.33333333333333</ele><time>2026-05-03T09:13:05.981Z</time></trkpt><trkpt lat="41.0470648" lon="14.3249833"><ele>48.5</ele><time>2026-05-03T09:13:06.981Z</time></trkpt><trkpt lat="41.0469775" lon="14.3249777"><ele>48.666666666666664</ele><time>2026-05-03T09:13:07.981Z</time></trkpt><trkpt lat="41.0468919" lon="14.3249674"><ele>48.83333333333333</ele><time>2026-05-03T09:13:08.981Z</time></trkpt><trkpt lat="41.0468058" lon="14.3249612"><ele>49.0</ele><time>2026-05-03T09:13:09.981Z</time></trkpt><trkpt lat="41.0467201" lon="14.3249578"><ele>48.99999999999999</ele><time>2026-05-03T09:13:10.981Z</time></trkpt><trkpt lat="41.0466357" lon="14.3249557"><ele>49.0</ele><time>2026-05-03T09:13:11.981Z</time></trkpt><trkpt lat="41.0465527" lon="14.3249411"><ele>49.0</ele><time>2026-05-03T09:13:12.981Z</time></trkpt><trkpt lat="41.0464665" lon="14.3249322"><ele>49.0</ele><time>2026-05-03T09:13:13.981Z</time></trkpt><trkpt lat="41.0463823" lon="14.3249255"><ele>48.99999999999999</ele><time>2026-05-03T09:13:14.982Z</time></trkpt><trkpt lat="41.0463005" lon="14.3249206"><ele>49.0</ele><time>2026-05-03T09:13:15.981Z</time></trkpt><trkpt lat="41.0462201" lon="14.3249144"><ele>48.49999999999999</ele><time>2026-05-03T09:13:16.982Z</time></trkpt><trkpt lat="41.0461388" lon="14.324912"><ele>48.0</ele><time>2026-05-03T09:13:17.982Z</time></trkpt><trkpt lat="41.0460592" lon="14.3249119"><ele>47.5</ele><time>2026-05-03T09:13:18.982Z</time></trkpt><trkpt lat="41.0459761" lon="14.3249078"><ele>47.0</ele><time>2026-05-03T09:13:19.981Z</time></trkpt><trkpt lat="41.0458964" lon="14.3249003"><ele>46.5</ele><time>2026-05-03T09:13:20.981Z</time></trkpt><trkpt lat="41.0458163" lon="14.3248952"><ele>46.0</ele><time>2026-05-03T09:13:21.981Z</time></trkpt><trkpt lat="41.0457367" lon="14.3248917"><ele>45.833333333333336</ele><time>2026-05-03T09:13:22.982Z</time></trkpt><trkpt lat="41.0456567" lon="14.32489"><ele>45.66666666666667</ele><time>2026-05-03T09:13:23.981Z</time></trkpt><trkpt lat="41.0455763" lon="14.3248652"><ele>45.5</ele><time>2026-05-03T09:13:24.982Z</time></trkpt><trkpt lat="41.0454939" lon="14.324862"><ele>45.333333333333336</ele><time>2026-05-03T09:13:25.982Z</time></trkpt><trkpt lat="41.0454116" lon="14.3248609"><ele>45.166666666666664</ele><time>2026-05-03T09:13:26.981Z</time></trkpt><trkpt lat="41.0453289" lon="14.3248607"><ele>45.0</ele><time>2026-05-03T09:13:27.981Z</time></trkpt><trkpt lat="41.0452456" lon="14.3248533"><ele>45.0</ele><time>2026-05-03T09:13:28.981Z</time></trkpt><trkpt lat="41.0451631" lon="14.3248434"><ele>45.0</ele><time>2026-05-03T09:13:29.981Z</time></trkpt><trkpt lat="41.0450807" lon="14.3248339"><ele>45.0</ele><time>2026-05-03T09:13:30.981Z</time></trkpt><trkpt lat="41.0449987" lon="14.3248272"><ele>45.0</ele><time>2026-05-03T09:13:31.981Z</time></trkpt><trkpt lat="41.0449171" lon="14.3248231"><ele>45.0</ele><time>2026-05-03T09:13:32.982Z</time></trkpt><trkpt lat="41.0448355" lon="14.3248164"><ele>45.0</ele><time>2026-05-03T09:13:33.982Z</time></trkpt><trkpt lat="41.0447541" lon="14.3248096"><ele>44.666666666666664</ele><time>2026-05-03T09:13:34.981Z</time></trkpt><trkpt lat="41.0446734" lon="14.3248034"><ele>44.333333333333336</ele><time>2026-05-03T09:13:35.981Z</time></trkpt><trkpt lat="41.0445926" lon="14.324798"><ele>44.0</ele><time>2026-05-03T09:13:36.982Z</time></trkpt><trkpt lat="41.0445126" lon="14.3247944"><ele>43.66666666666667</ele><time>2026-05-03T09:13:37.981Z</time></trkpt><trkpt lat="41.0444332" lon="14.3247942"><ele>43.333333333333336</ele><time>2026-05-03T09:13:38.982Z</time></trkpt><trkpt lat="41.044355" lon="14.3247923"><ele>43.0</ele><time>2026-05-03T09:13:39.981Z</time></trkpt><trkpt lat="41.0442771" lon="14.3247982"><ele>43.0</ele><time>2026-05-03T09:13:40.981Z</time></trkpt><trkpt lat="41.044201" lon="14.3247965"><ele>43.0</ele><time>2026-05-03T09:13:41.981Z</time></trkpt><trkpt lat="41.0441263" lon="14.324788"><ele>43.0</ele><time>2026-05-03T09:13:42.982Z</time></trkpt><trkpt lat="41.0440528" lon="14.3247859"><ele>43.0</ele><time>2026-05-03T09:13:43.981Z</time></trkpt><trkpt lat="41.0439869" lon="14.3247779"><ele>43.0</ele><time>2026-05-03T09:13:44.982Z</time></trkpt><trkpt lat="41.0438824" lon="14.3247671"><ele>43.0</ele><time>2026-05-03T09:13:46.981Z</time></trkpt><trkpt lat="41.0437986" lon="14.3247375"><ele>42.833333333333336</ele><time>2026-05-03T09:13:48.981Z</time></trkpt><trkpt lat="41.043732" lon="14.3247061"><ele>42.66666666666667</ele><time>2026-05-03T09:13:50.981Z</time></trkpt><trkpt lat="41.0436703" lon="14.3246811"><ele>42.5</ele><time>2026-05-03T09:13:52.981Z</time></trkpt><trkpt lat="41.0435821" lon="14.3246726"><ele>42.333333333333336</ele><time>2026-05-03T09:13:55.981Z</time></trkpt><trkpt lat="41.0435108" lon="14.3246965"><ele>42.166666666666664</ele><time>2026-05-03T09:13:57.981Z</time></trkpt><trkpt lat="41.0434305" lon="14.3247027"><ele>42.0</ele><time>2026-05-03T09:13:59.981Z</time></trkpt><trkpt lat="41.0433444" lon="14.3247149"><ele>41.8</ele><time>2026-05-03T09:14:01.981Z</time></trkpt><trkpt lat="41.0432478" lon="14.3247206"><ele>41.6</ele><time>2026-05-03T09:14:03.981Z</time></trkpt><trkpt lat="41.0431489" lon="14.3246973"><ele>41.4</ele><time>2026-05-03T09:14:05.981Z</time></trkpt><trkpt lat="41.0430388" lon="14.3246842"><ele>41.199999999999996</ele><time>2026-05-03T09:14:07.981Z</time></trkpt><trkpt lat="41.0429232" lon="14.3246774"><ele>41.0</ele><time>2026-05-03T09:14:09.981Z</time></trkpt><trkpt lat="41.0428022" lon="14.3246741"><ele>40.99999999999999</ele><time>2026-05-03T09:14:11.981Z</time></trkpt><trkpt lat="41.0426793" lon="14.3246708"><ele>41.0</ele><time>2026-05-03T09:14:13.981Z</time></trkpt><trkpt lat="41.0426162" lon="14.3246654"><ele>41.0</ele><time>2026-05-03T09:14:14.982Z</time></trkpt><trkpt lat="41.0425516" lon="14.3246614"><ele>41.0</ele><time>2026-05-03T09:14:15.981Z</time></trkpt><trkpt lat="41.0424871" lon="14.3246576"><ele>41.0</ele><time>2026-05-03T09:14:16.981Z</time></trkpt><trkpt lat="41.0424218" lon="14.3246548"><ele>40.99999999999999</ele><time>2026-05-03T09:14:17.981Z</time></trkpt><trkpt lat="41.0423559" lon="14.3246562"><ele>41.0</ele><time>2026-05-03T09:14:18.981Z</time></trkpt><trkpt lat="41.0422885" lon="14.324655"><ele>41.285714285714285</ele><time>2026-05-03T09:14:19.981Z</time></trkpt><trkpt lat="41.0422202" lon="14.3246559"><ele>41.57142857142857</ele><time>2026-05-03T09:14:20.981Z</time></trkpt><trkpt lat="41.04215" lon="14.3246622"><ele>41.85714285714286</ele><time>2026-05-03T09:14:21.981Z</time></trkpt><trkpt lat="41.0420821" lon="14.3246659"><ele>42.14285714285714</ele><time>2026-05-03T09:14:22.982Z</time></trkpt><trkpt lat="41.0420148" lon="14.3246673"><ele>42.42857142857143</ele><time>2026-05-03T09:14:23.981Z</time></trkpt><trkpt lat="41.0419483" lon="14.3246707"><ele>42.714285714285715</ele><time>2026-05-03T09:14:24.981Z</time></trkpt><trkpt lat="41.0418816" lon="14.3246692"><ele>43.0</ele><time>2026-05-03T09:14:25.981Z</time></trkpt><trkpt lat="41.0418169" lon="14.3246655"><ele>43.00000000000001</ele><time>2026-05-03T09:14:26.982Z</time></trkpt><trkpt lat="41.0417526" lon="14.3246607"><ele>43.0</ele><time>2026-05-03T09:14:27.981Z</time></trkpt><trkpt lat="41.0416894" lon="14.3246628"><ele>43.0</ele><time>2026-05-03T09:14:28.981Z</time></trkpt><trkpt lat="41.041625" lon="14.3246704"><ele>43.0</ele><time>2026-05-03T09:14:29.981Z</time></trkpt><trkpt lat="41.0415597" lon="14.3246738"><ele>43.0</ele><time>2026-05-03T09:14:30.981Z</time></trkpt><trkpt lat="41.0414938" lon="14.3246781"><ele>43.00000000000001</ele><time>2026-05-03T09:14:31.981Z</time></trkpt><trkpt lat="41.0414286" lon="14.3246805"><ele>43.0</ele><time>2026-05-03T09:14:32.981Z</time></trkpt><trkpt lat="41.0413639" lon="14.3246779"><ele>42.42857142857143</ele><time>2026-05-03T09:14:33.981Z</time></trkpt><trkpt lat="41.0412954" lon="14.3246815"><ele>41.85714285714286</ele><time>2026-05-03T09:14:34.981Z</time></trkpt><trkpt lat="41.0412303" lon="14.3246771"><ele>41.28571428571429</ele><time>2026-05-03T09:14:35.981Z</time></trkpt><trkpt lat="41.041161" lon="14.3246781"><ele>40.714285714285715</ele><time>2026-05-03T09:14:36.982Z</time></trkpt><trkpt lat="41.0410939" lon="14.3246744"><ele>40.14285714285714</ele><time>2026-05-03T09:14:37.981Z</time></trkpt><trkpt lat="41.0410237" lon="14.3246792"><ele>39.57142857142858</ele><time>2026-05-03T09:14:38.981Z</time></trkpt><trkpt lat="41.0409563" lon="14.3246788"><ele>39.0</ele><time>2026-05-03T09:14:39.982Z</time></trkpt><trkpt lat="41.0408882" lon="14.3246756"><ele>39.0</ele><time>2026-05-03T09:14:40.981Z</time></trkpt><trkpt lat="41.0408206" lon="14.3246769"><ele>39.0</ele><time>2026-05-03T09:14:41.981Z</time></trkpt><trkpt lat="41.0407487" lon="14.324677"><ele>39.0</ele><time>2026-05-03T09:14:42.981Z</time></trkpt><trkpt lat="41.0406786" lon="14.3246755"><ele>39.0</ele><time>2026-05-03T09:14:43.981Z</time></trkpt><trkpt lat="41.0406083" lon="14.3246758"><ele>39.0</ele><time>2026-05-03T09:14:44.981Z</time></trkpt><trkpt lat="41.0405383" lon="14.3246637"><ele>39.0</ele><time>2026-05-03T09:14:45.981Z</time></trkpt><trkpt lat="41.0404683" lon="14.3246647"><ele>39.0</ele><time>2026-05-03T09:14:46.981Z</time></trkpt><trkpt lat="41.0403985" lon="14.324671"><ele>39.0</ele><time>2026-05-03T09:14:47.981Z</time></trkpt><trkpt lat="41.0403286" lon="14.3246755"><ele>39.0</ele><time>2026-05-03T09:14:48.981Z</time></trkpt><trkpt lat="41.0402594" lon="14.3246763"><ele>39.0</ele><time>2026-05-03T09:14:49.981Z</time></trkpt><trkpt lat="41.04019" lon="14.3246729"><ele>39.0</ele><time>2026-05-03T09:14:50.981Z</time></trkpt><trkpt lat="41.0401172" lon="14.3246713"><ele>39.0</ele><time>2026-05-03T09:14:51.981Z</time></trkpt><trkpt lat="41.0400464" lon="14.324671"><ele>39.0</ele><time>2026-05-03T09:14:52.981Z</time></trkpt><trkpt lat="41.0399768" lon="14.3246719"><ele>39.0</ele><time>2026-05-03T09:14:53.982Z</time></trkpt><trkpt lat="41.0399077" lon="14.3246741"><ele>39.0</ele><time>2026-05-03T09:14:54.981Z</time></trkpt><trkpt lat="41.0398381" lon="14.3246723"><ele>39.0</ele><time>2026-05-03T09:14:55.981Z</time></trkpt><trkpt lat="41.0397675" lon="14.3246743"><ele>39.0</ele><time>2026-05-03T09:14:56.981Z</time></trkpt><trkpt lat="41.0396968" lon="14.324679"><ele>39.0</ele><time>2026-05-03T09:14:57.981Z</time></trkpt><trkpt lat="41.0396254" lon="14.3246827"><ele>39.0</ele><time>2026-05-03T09:14:58.982Z</time></trkpt><trkpt lat="41.039555" lon="14.3246804"><ele>39.0</ele><time>2026-05-03T09:14:59.981Z</time></trkpt><trkpt lat="41.0394836" lon="14.3246803"><ele>39.0</ele><time>2026-05-03T09:15:00.981Z</time></trkpt><trkpt lat="41.0394121" lon="14.3246749"><ele>39.0</ele><time>2026-05-03T09:15:01.982Z</time></trkpt><trkpt lat="41.0393405" lon="14.324672"><ele>39.0</ele><time>2026-05-03T09:15:02.982Z</time></trkpt><trkpt lat="41.0392691" lon="14.3246738"><ele>39.0</ele><time>2026-05-03T09:15:03.981Z</time></trkpt><trkpt lat="41.0391988" lon="14.3246803"><ele>39.0</ele><time>2026-05-03T09:15:04.981Z</time></trkpt><trkpt lat="41.039128" lon="14.3246838"><ele>39.0</ele><time>2026-05-03T09:15:05.981Z</time></trkpt><trkpt lat="41.0390525" lon="14.3246924"><ele>39.0</ele><time>2026-05-03T09:15:06.982Z</time></trkpt><trkpt lat="41.0389824" lon="14.324689"><ele>39.0</ele><time>2026-05-03T09:15:07.981Z</time></trkpt><trkpt lat="41.0389085" lon="14.324685"><ele>38.85714285714286</ele><time>2026-05-03T09:15:08.981Z</time></trkpt><trkpt lat="41.0388369" lon="14.324684"><ele>38.71428571428571</ele><time>2026-05-03T09:15:09.981Z</time></trkpt><trkpt lat="41.0387654" lon="14.3246797"><ele>38.57142857142857</ele><time>2026-05-03T09:15:10.981Z</time></trkpt><trkpt lat="41.0386938" lon="14.3246726"><ele>38.42857142857143</ele><time>2026-05-03T09:15:11.981Z</time></trkpt><trkpt lat="41.0386199" lon="14.324679"><ele>38.28571428571429</ele><time>2026-05-03T09:15:12.981Z</time></trkpt><trkpt lat="41.0385476" lon="14.3246755"><ele>38.14285714285714</ele><time>2026-05-03T09:15:13.982Z</time></trkpt><trkpt lat="41.0384748" lon="14.3246781"><ele>38.0</ele><time>2026-05-03T09:15:14.982Z</time></trkpt><trkpt lat="41.0384033" lon="14.324682"><ele>38.0</ele><time>2026-05-03T09:15:15.981Z</time></trkpt><trkpt lat="41.0383312" lon="14.324679"><ele>38.0</ele><time>2026-05-03T09:15:16.981Z</time></trkpt><trkpt lat="41.0382612" lon="14.3246842"><ele>38.0</ele><time>2026-05-03T09:15:17.981Z</time></trkpt><trkpt lat="41.038193" lon="14.3246849"><ele>38.0</ele><time>2026-05-03T09:15:18.981Z</time></trkpt><trkpt lat="41.0381185" lon="14.3246886"><ele>38.0</ele><time>2026-05-03T09:15:19.982Z</time></trkpt><trkpt lat="41.0380508" lon="14.3246914"><ele>38.0</ele><time>2026-05-03T09:15:20.981Z</time></trkpt><trkpt lat="41.0379832" lon="14.3246917"><ele>38.0</ele><time>2026-05-03T09:15:21.981Z</time></trkpt><trkpt lat="41.0379194" lon="14.3246905"><ele>38.25</ele><time>2026-05-03T09:15:22.981Z</time></trkpt><trkpt lat="41.0377954" lon="14.3246892"><ele>38.5</ele><time>2026-05-03T09:15:24.981Z</time></trkpt><trkpt lat="41.0376796" lon="14.3246791"><ele>38.75</ele><time>2026-05-03T09:15:26.981Z</time></trkpt><trkpt lat="41.0375659" lon="14.3246703"><ele>39.0</ele><time>2026-05-03T09:15:28.981Z</time></trkpt><trkpt lat="41.0374564" lon="14.3246701"><ele>39.2</ele><time>2026-05-03T09:15:30.981Z</time></trkpt><trkpt lat="41.0373558" lon="14.3246877"><ele>39.4</ele><time>2026-05-03T09:15:32.981Z</time></trkpt><trkpt lat="41.0372667" lon="14.3246854"><ele>39.6</ele><time>2026-05-03T09:15:34.981Z</time></trkpt><trkpt lat="41.0371702" lon="14.3246862"><ele>39.8</ele><time>2026-05-03T09:15:36.982Z</time></trkpt><trkpt lat="41.0370653" lon="14.3246901"><ele>40.0</ele><time>2026-05-03T09:15:38.981Z</time></trkpt><trkpt lat="41.036954" lon="14.3246936"><ele>40.0</ele><time>2026-05-03T09:15:40.981Z</time></trkpt><trkpt lat="41.0368377" lon="14.3246904"><ele>40.0</ele><time>2026-05-03T09:15:42.981Z</time></trkpt><trkpt lat="41.0367154" lon="14.3246915"><ele>40.0</ele><time>2026-05-03T09:15:44.981Z</time></trkpt><trkpt lat="41.0366509" lon="14.3246906"><ele>40.0</ele><time>2026-05-03T09:15:45.981Z</time></trkpt><trkpt lat="41.0365858" lon="14.3246915"><ele>40.0</ele><time>2026-05-03T09:15:46.981Z</time></trkpt><trkpt lat="41.0365183" lon="14.3246933"><ele>40.0</ele><time>2026-05-03T09:15:47.981Z</time></trkpt><trkpt lat="41.0364525" lon="14.324693"><ele>39.5</ele><time>2026-05-03T09:15:48.981Z</time></trkpt><trkpt lat="41.0363843" lon="14.3246922"><ele>39.0</ele><time>2026-05-03T09:15:49.981Z</time></trkpt><trkpt lat="41.0362612" lon="14.3246941"><ele>38.5</ele><time>2026-05-03T09:15:51.981Z</time></trkpt><trkpt lat="41.0361892" lon="14.324698"><ele>38.0</ele><time>2026-05-03T09:15:52.981Z</time></trkpt><trkpt lat="41.0361062" lon="14.3246986"><ele>37.5</ele><time>2026-05-03T09:15:53.982Z</time></trkpt><trkpt lat="41.0360322" lon="14.3247011"><ele>37.0</ele><time>2026-05-03T09:15:54.981Z</time></trkpt><trkpt lat="41.0359594" lon="14.3247015"><ele>37.0</ele><time>2026-05-03T09:15:55.982Z</time></trkpt><trkpt lat="41.0358841" lon="14.3246991"><ele>37.0</ele><time>2026-05-03T09:15:56.982Z</time></trkpt><trkpt lat="41.0358101" lon="14.3246976"><ele>37.0</ele><time>2026-05-03T09:15:57.981Z</time></trkpt><trkpt lat="41.0357368" lon="14.3247004"><ele>37.0</ele><time>2026-05-03T09:15:58.982Z</time></trkpt><trkpt lat="41.0356613" lon="14.3247034"><ele>37.0</ele><time>2026-05-03T09:15:59.981Z</time></trkpt><trkpt lat="41.0355849" lon="14.3247038"><ele>37.0</ele><time>2026-05-03T09:16:00.981Z</time></trkpt><trkpt lat="41.0355097" lon="14.3247041"><ele>36.66666666666667</ele><time>2026-05-03T09:16:01.982Z</time></trkpt><trkpt lat="41.0354351" lon="14.3247063"><ele>36.333333333333336</ele><time>2026-05-03T09:16:02.981Z</time></trkpt><trkpt lat="41.0353592" lon="14.3247079"><ele>36.0</ele><time>2026-05-03T09:16:03.982Z</time></trkpt><trkpt lat="41.0352832" lon="14.3247065"><ele>35.666666666666664</ele><time>2026-05-03T09:16:04.981Z</time></trkpt><trkpt lat="41.035204" lon="14.3247049"><ele>35.33333333333333</ele><time>2026-05-03T09:16:05.981Z</time></trkpt><trkpt lat="41.0351258" lon="14.3247058"><ele>35.0</ele><time>2026-05-03T09:16:06.981Z</time></trkpt><trkpt lat="41.035047" lon="14.3247068"><ele>35.0</ele><time>2026-05-03T09:16:07.981Z</time></trkpt><trkpt lat="41.0349679" lon="14.324714"><ele>35.0</ele><time>2026-05-03T09:16:08.981Z</time></trkpt><trkpt lat="41.0348906" lon="14.324714"><ele>35.0</ele><time>2026-05-03T09:16:09.981Z</time></trkpt><trkpt lat="41.0348117" lon="14.3247142"><ele>35.0</ele><time>2026-05-03T09:16:10.981Z</time></trkpt><trkpt lat="41.0347336" lon="14.3247152"><ele>35.0</ele><time>2026-05-03T09:16:11.981Z</time></trkpt><trkpt lat="41.0346548" lon="14.3247151"><ele>35.0</ele><time>2026-05-03T09:16:12.982Z</time></trkpt><trkpt lat="41.0345771" lon="14.3247167"><ele>35.0</ele><time>2026-05-03T09:16:13.981Z</time></trkpt><trkpt lat="41.0344978" lon="14.324717"><ele>35.0</ele><time>2026-05-03T09:16:14.981Z</time></trkpt><trkpt lat="41.0344192" lon="14.3247174"><ele>35.0</ele><time>2026-05-03T09:16:15.981Z</time></trkpt><trkpt lat="41.0343415" lon="14.324715"><ele>35.0</ele><time>2026-05-03T09:16:16.981Z</time></trkpt><trkpt lat="41.034262" lon="14.3247161"><ele>35.0</ele><time>2026-05-03T09:16:17.981Z</time></trkpt><trkpt lat="41.0341826" lon="14.3247163"><ele>35.0</ele><time>2026-05-03T09:16:18.982Z</time></trkpt><trkpt lat="41.0341046" lon="14.3247192"><ele>34.83333333333333</ele><time>2026-05-03T09:16:19.982Z</time></trkpt><trkpt lat="41.0340252" lon="14.3247207"><ele>34.666666666666664</ele><time>2026-05-03T09:16:20.981Z</time></trkpt><trkpt lat="41.0339491" lon="14.3247224"><ele>34.5</ele><time>2026-05-03T09:16:21.981Z</time></trkpt><trkpt lat="41.0338727" lon="14.3247218"><ele>34.333333333333336</ele><time>2026-05-03T09:16:22.981Z</time></trkpt><trkpt lat="41.0337952" lon="14.3247227"><ele>34.16666666666667</ele><time>2026-05-03T09:16:23.981Z</time></trkpt><trkpt lat="41.0337167" lon="14.3247254"><ele>34.0</ele><time>2026-05-03T09:16:24.982Z</time></trkpt><trkpt lat="41.0336391" lon="14.3247276"><ele>34.0</ele><time>2026-05-03T09:16:25.981Z</time></trkpt><trkpt lat="41.0335602" lon="14.3247287"><ele>34.0</ele><time>2026-05-03T09:16:26.981Z</time></trkpt><trkpt lat="41.0334827" lon="14.3247322"><ele>34.0</ele><time>2026-05-03T09:16:27.981Z</time></trkpt><trkpt lat="41.033405" lon="14.324732"><ele>34.0</ele><time>2026-05-03T09:16:28.981Z</time></trkpt><trkpt lat="41.0333272" lon="14.3247313"><ele>34.0</ele><time>2026-05-03T09:16:29.982Z</time></trkpt><trkpt lat="41.0332503" lon="14.3247322"><ele>34.0</ele><time>2026-05-03T09:16:30.981Z</time></trkpt><trkpt lat="41.0331726" lon="14.3247278"><ele>34.0</ele><time>2026-05-03T09:16:31.981Z</time></trkpt><trkpt lat="41.0330949" lon="14.3247263"><ele>34.0</ele><time>2026-05-03T09:16:32.981Z</time></trkpt><trkpt lat="41.0330164" lon="14.3247232"><ele>34.0</ele><time>2026-05-03T09:16:33.981Z</time></trkpt><trkpt lat="41.032938" lon="14.3247234"><ele>34.0</ele><time>2026-05-03T09:16:34.981Z</time></trkpt><trkpt lat="41.0328591" lon="14.324723"><ele>34.0</ele><time>2026-05-03T09:16:35.981Z</time></trkpt><trkpt lat="41.0327797" lon="14.3247241"><ele>34.0</ele><time>2026-05-03T09:16:36.982Z</time></trkpt><trkpt lat="41.0327014" lon="14.3247243"><ele>34.0</ele><time>2026-05-03T09:16:37.981Z</time></trkpt><trkpt lat="41.0326247" lon="14.3247258"><ele>34.0</ele><time>2026-05-03T09:16:38.981Z</time></trkpt><trkpt lat="41.0325443" lon="14.3247264"><ele>34.0</ele><time>2026-05-03T09:16:39.981Z</time></trkpt><trkpt lat="41.0324643" lon="14.3247262"><ele>34.0</ele><time>2026-05-03T09:16:40.981Z</time></trkpt><trkpt lat="41.0323857" lon="14.3247244"><ele>34.0</ele><time>2026-05-03T09:16:41.981Z</time></trkpt><trkpt lat="41.0323048" lon="14.3247245"><ele>34.0</ele><time>2026-05-03T09:16:42.981Z</time></trkpt><trkpt lat="41.0322254" lon="14.3247265"><ele>33.66666666666667</ele><time>2026-05-03T09:16:43.981Z</time></trkpt><trkpt lat="41.0321451" lon="14.3247276"><ele>33.333333333333336</ele><time>2026-05-03T09:16:44.981Z</time></trkpt><trkpt lat="41.0320665" lon="14.3247292"><ele>33.0</ele><time>2026-05-03T09:16:45.981Z</time></trkpt><trkpt lat="41.031985" lon="14.3247272"><ele>32.666666666666664</ele><time>2026-05-03T09:16:46.982Z</time></trkpt><trkpt lat="41.0319011" lon="14.3247281"><ele>32.33333333333333</ele><time>2026-05-03T09:16:47.981Z</time></trkpt><trkpt lat="41.031819" lon="14.3247279"><ele>32.0</ele><time>2026-05-03T09:16:48.981Z</time></trkpt><trkpt lat="41.0317389" lon="14.3247272"><ele>31.999999999999996</ele><time>2026-05-03T09:16:49.981Z</time></trkpt><trkpt lat="41.0316572" lon="14.3247288"><ele>32.0</ele><time>2026-05-03T09:16:50.981Z</time></trkpt><trkpt lat="41.0315758" lon="14.3247302"><ele>32.0</ele><time>2026-05-03T09:16:51.982Z</time></trkpt><trkpt lat="41.0314934" lon="14.3247332"><ele>32.0</ele><time>2026-05-03T09:16:52.982Z</time></trkpt><trkpt lat="41.0314104" lon="14.3247331"><ele>31.999999999999996</ele><time>2026-05-03T09:16:53.982Z</time></trkpt><trkpt lat="41.0313277" lon="14.3247368"><ele>32.0</ele><time>2026-05-03T09:16:54.981Z</time></trkpt><trkpt lat="41.0312471" lon="14.3247389"><ele>31.999999999999996</ele><time>2026-05-03T09:16:55.981Z</time></trkpt><trkpt lat="41.0311671" lon="14.3247389"><ele>32.0</ele><time>2026-05-03T09:16:56.981Z</time></trkpt><trkpt lat="41.0310888" lon="14.3247365"><ele>32.0</ele><time>2026-05-03T09:16:57.981Z</time></trkpt><trkpt lat="41.0310115" lon="14.3247384"><ele>32.0</ele><time>2026-05-03T09:16:58.981Z</time></trkpt><trkpt lat="41.0309335" lon="14.3247399"><ele>31.999999999999996</ele><time>2026-05-03T09:16:59.981Z</time></trkpt><trkpt lat="41.0308574" lon="14.3247429"><ele>32.0</ele><time>2026-05-03T09:17:00.982Z</time></trkpt><trkpt lat="41.0307821" lon="14.3247456"><ele>31.833333333333332</ele><time>2026-05-03T09:17:01.981Z</time></trkpt><trkpt lat="41.0307057" lon="14.3247432"><ele>31.666666666666664</ele><time>2026-05-03T09:17:02.981Z</time></trkpt><trkpt lat="41.030628" lon="14.3247424"><ele>31.5</ele><time>2026-05-03T09:17:03.981Z</time></trkpt><trkpt lat="41.0305516" lon="14.3247425"><ele>31.333333333333336</ele><time>2026-05-03T09:17:04.981Z</time></trkpt><trkpt lat="41.0304745" lon="14.324743"><ele>31.166666666666668</ele><time>2026-05-03T09:17:05.981Z</time></trkpt><trkpt lat="41.0303997" lon="14.3247415"><ele>31.0</ele><time>2026-05-03T09:17:06.981Z</time></trkpt><trkpt lat="41.0303238" lon="14.3247422"><ele>31.000000000000004</ele><time>2026-05-03T09:17:07.981Z</time></trkpt><trkpt lat="41.0302478" lon="14.3247451"><ele>31.0</ele><time>2026-05-03T09:17:08.981Z</time></trkpt><trkpt lat="41.0301714" lon="14.3247447"><ele>31.0</ele><time>2026-05-03T09:17:09.982Z</time></trkpt><trkpt lat="41.0300959" lon="14.3247474"><ele>31.0</ele><time>2026-05-03T09:17:10.981Z</time></trkpt><trkpt lat="41.0300198" lon="14.3247506"><ele>31.000000000000004</ele><time>2026-05-03T09:17:11.981Z</time></trkpt><trkpt lat="41.029945" lon="14.3247502"><ele>31.0</ele><time>2026-05-03T09:17:12.981Z</time></trkpt><trkpt lat="41.0298691" lon="14.3247492"><ele>31.166666666666668</ele><time>2026-05-03T09:17:13.982Z</time></trkpt><trkpt lat="41.029793" lon="14.3247517"><ele>31.333333333333336</ele><time>2026-05-03T09:17:14.981Z</time></trkpt><trkpt lat="41.0297176" lon="14.3247538"><ele>31.5</ele><time>2026-05-03T09:17:15.981Z</time></trkpt><trkpt lat="41.0296422" lon="14.324754"><ele>31.666666666666664</ele><time>2026-05-03T09:17:16.981Z</time></trkpt><trkpt lat="41.0295644" lon="14.32476"><ele>31.833333333333332</ele><time>2026-05-03T09:17:17.981Z</time></trkpt><trkpt lat="41.0294868" lon="14.3247625"><ele>32.0</ele><time>2026-05-03T09:17:18.981Z</time></trkpt><trkpt lat="41.0294086" lon="14.3247637"><ele>31.999999999999996</ele><time>2026-05-03T09:17:19.981Z</time></trkpt><trkpt lat="41.0293309" lon="14.3247642"><ele>32.0</ele><time>2026-05-03T09:17:20.981Z</time></trkpt><trkpt lat="41.0292511" lon="14.3247666"><ele>32.0</ele><time>2026-05-03T09:17:21.981Z</time></trkpt><trkpt lat="41.0291721" lon="14.3247665"><ele>32.0</ele><time>2026-05-03T09:17:22.981Z</time></trkpt><trkpt lat="41.0290934" lon="14.3247715"><ele>31.999999999999996</ele><time>2026-05-03T09:17:23.981Z</time></trkpt><trkpt lat="41.0290125" lon="14.3247757"><ele>32.0</ele><time>2026-05-03T09:17:24.982Z</time></trkpt><trkpt lat="41.0289332" lon="14.3247801"><ele>31.999999999999996</ele><time>2026-05-03T09:17:25.981Z</time></trkpt><trkpt lat="41.0288527" lon="14.3247843"><ele>32.0</ele><time>2026-05-03T09:17:26.981Z</time></trkpt><trkpt lat="41.0287751" lon="14.3247801"><ele>32.0</ele><time>2026-05-03T09:17:27.981Z</time></trkpt><trkpt lat="41.0286979" lon="14.324774"><ele>32.0</ele><time>2026-05-03T09:17:28.982Z</time></trkpt><trkpt lat="41.0286217" lon="14.3247732"><ele>31.999999999999996</ele><time>2026-05-03T09:17:29.981Z</time></trkpt><trkpt lat="41.0285436" lon="14.3247694"><ele>32.0</ele><time>2026-05-03T09:17:30.981Z</time></trkpt><trkpt lat="41.0284654" lon="14.3247647"><ele>31.999999999999996</ele><time>2026-05-03T09:17:31.981Z</time></trkpt><trkpt lat="41.0283867" lon="14.3247657"><ele>32.0</ele><time>2026-05-03T09:17:32.981Z</time></trkpt><trkpt lat="41.0283084" lon="14.324769"><ele>32.0</ele><time>2026-05-03T09:17:33.981Z</time></trkpt><trkpt lat="41.0282317" lon="14.324775"><ele>32.0</ele><time>2026-05-03T09:17:34.981Z</time></trkpt><trkpt lat="41.028156" lon="14.3247774"><ele>31.999999999999996</ele><time>2026-05-03T09:17:35.981Z</time></trkpt><trkpt lat="41.0280809" lon="14.3247746"><ele>32.0</ele><time>2026-05-03T09:17:36.981Z</time></trkpt><trkpt lat="41.0280057" lon="14.3247742"><ele>32.14285714285714</ele><time>2026-05-03T09:17:37.981Z</time></trkpt><trkpt lat="41.0279308" lon="14.3247735"><ele>32.285714285714285</ele><time>2026-05-03T09:17:38.982Z</time></trkpt><trkpt lat="41.0278566" lon="14.3247754"><ele>32.42857142857143</ele><time>2026-05-03T09:17:39.982Z</time></trkpt><trkpt lat="41.0277825" lon="14.3247759"><ele>32.57142857142857</ele><time>2026-05-03T09:17:40.981Z</time></trkpt><trkpt lat="41.0277068" lon="14.324771"><ele>32.714285714285715</ele><time>2026-05-03T09:17:41.982Z</time></trkpt><trkpt lat="41.0276335" lon="14.3247706"><ele>32.857142857142854</ele><time>2026-05-03T09:17:42.982Z</time></trkpt><trkpt lat="41.0275617" lon="14.3247687"><ele>33.0</ele><time>2026-05-03T09:17:43.981Z</time></trkpt><trkpt lat="41.0274907" lon="14.3247689"><ele>32.57142857142857</ele><time>2026-05-03T09:17:44.981Z</time></trkpt><trkpt lat="41.027416" lon="14.3247672"><ele>32.142857142857146</ele><time>2026-05-03T09:17:45.982Z</time></trkpt><trkpt lat="41.027345" lon="14.3247685"><ele>31.714285714285715</ele><time>2026-05-03T09:17:46.982Z</time></trkpt><trkpt lat="41.0272731" lon="14.324771"><ele>31.285714285714285</ele><time>2026-05-03T09:17:47.981Z</time></trkpt><trkpt lat="41.0272032" lon="14.3247726"><ele>30.857142857142854</ele><time>2026-05-03T09:17:48.981Z</time></trkpt><trkpt lat="41.027134" lon="14.3247737"><ele>30.42857142857143</ele><time>2026-05-03T09:17:49.982Z</time></trkpt><trkpt lat="41.0270629" lon="14.3247802"><ele>30.0</ele><time>2026-05-03T09:17:50.982Z</time></trkpt><trkpt lat="41.0269915" lon="14.324783"><ele>30.0</ele><time>2026-05-03T09:17:51.981Z</time></trkpt><trkpt lat="41.0269196" lon="14.3247821"><ele>30.0</ele><time>2026-05-03T09:17:52.982Z</time></trkpt><trkpt lat="41.0268495" lon="14.324782"><ele>30.0</ele><time>2026-05-03T09:17:53.981Z</time></trkpt><trkpt lat="41.0267769" lon="14.3247822"><ele>30.0</ele><time>2026-05-03T09:17:54.981Z</time></trkpt><trkpt lat="41.026703" lon="14.3247804"><ele>30.0</ele><time>2026-05-03T09:17:55.981Z</time></trkpt><trkpt lat="41.0266298" lon="14.3247792"><ele>30.0</ele><time>2026-05-03T09:17:56.981Z</time></trkpt><trkpt lat="41.0265541" lon="14.3247761"><ele>30.0</ele><time>2026-05-03T09:17:57.981Z</time></trkpt><trkpt lat="41.0264789" lon="14.3247772"><ele>29.857142857142858</ele><time>2026-05-03T09:17:58.981Z</time></trkpt><trkpt lat="41.0264065" lon="14.3247798"><ele>29.714285714285715</ele><time>2026-05-03T09:17:59.981Z</time></trkpt><trkpt lat="41.0263334" lon="14.324782"><ele>29.571428571428573</ele><time>2026-05-03T09:18:00.981Z</time></trkpt><trkpt lat="41.0262595" lon="14.3247849"><ele>29.42857142857143</ele><time>2026-05-03T09:18:01.981Z</time></trkpt><trkpt lat="41.026186" lon="14.3247844"><ele>29.285714285714285</ele><time>2026-05-03T09:18:02.981Z</time></trkpt><trkpt lat="41.0261119" lon="14.3247806"><ele>29.142857142857146</ele><time>2026-05-03T09:18:03.982Z</time></trkpt><trkpt lat="41.026039" lon="14.3247783"><ele>29.000000000000004</ele><time>2026-05-03T09:18:04.982Z</time></trkpt><trkpt lat="41.0259633" lon="14.3247794"><ele>29.000000000000004</ele><time>2026-05-03T09:18:05.981Z</time></trkpt><trkpt lat="41.0258864" lon="14.3247863"><ele>29.0</ele><time>2026-05-03T09:18:06.981Z</time></trkpt><trkpt lat="41.0258132" lon="14.3247928"><ele>29.000000000000004</ele><time>2026-05-03T09:18:07.982Z</time></trkpt><trkpt lat="41.0257406" lon="14.3247959"><ele>29.000000000000004</ele><time>2026-05-03T09:18:08.981Z</time></trkpt><trkpt lat="41.0256651" lon="14.3248052"><ele>29.0</ele><time>2026-05-03T09:18:09.981Z</time></trkpt><trkpt lat="41.0255918" lon="14.3248109"><ele>29.000000000000004</ele><time>2026-05-03T09:18:10.981Z</time></trkpt><trkpt lat="41.0255193" lon="14.3248139"><ele>29.000000000000004</ele><time>2026-05-03T09:18:11.981Z</time></trkpt><trkpt lat="41.0254475" lon="14.3248161"><ele>28.833333333333332</ele><time>2026-05-03T09:18:12.981Z</time></trkpt><trkpt lat="41.0253779" lon="14.3248214"><ele>28.666666666666664</ele><time>2026-05-03T09:18:13.982Z</time></trkpt><trkpt lat="41.0253095" lon="14.3248243"><ele>28.5</ele><time>2026-05-03T09:18:14.981Z</time></trkpt><trkpt lat="41.0252416" lon="14.3248184"><ele>28.333333333333336</ele><time>2026-05-03T09:18:15.981Z</time></trkpt><trkpt lat="41.0251753" lon="14.3248169"><ele>28.166666666666668</ele><time>2026-05-03T09:18:16.981Z</time></trkpt><trkpt lat="41.0251106" lon="14.3248192"><ele>28.0</ele><time>2026-05-03T09:18:17.981Z</time></trkpt><trkpt lat="41.024998" lon="14.3248187"><ele>27.833333333333336</ele><time>2026-05-03T09:18:19.981Z</time></trkpt><trkpt lat="41.0248934" lon="14.3248181"><ele>27.666666666666668</ele><time>2026-05-03T09:18:21.981Z</time></trkpt><trkpt lat="41.0248084" lon="14.3248157"><ele>27.5</ele><time>2026-05-03T09:18:23.981Z</time></trkpt><trkpt lat="41.024725" lon="14.3248069"><ele>27.333333333333336</ele><time>2026-05-03T09:18:26.981Z</time></trkpt><trkpt lat="41.0246385" lon="14.3247785"><ele>27.166666666666668</ele><time>2026-05-03T09:18:29.981Z</time></trkpt><trkpt lat="41.0245706" lon="14.3247441"><ele>27.0</ele><time>2026-05-03T09:18:31.981Z</time></trkpt><trkpt lat="41.0244975" lon="14.3247058"><ele>27.0</ele><time>2026-05-03T09:18:33.981Z</time></trkpt><trkpt lat="41.024432" lon="14.3246927"><ele>27.0</ele><time>2026-05-03T09:18:35.982Z</time></trkpt><trkpt lat="41.0243602" lon="14.3247015"><ele>27.0</ele><time>2026-05-03T09:18:37.982Z</time></trkpt><trkpt lat="41.0242841" lon="14.3247596"><ele>27.0</ele><time>2026-05-03T09:18:39.981Z</time></trkpt><trkpt lat="41.0242018" lon="14.3247887"><ele>27.0</ele><time>2026-05-03T09:18:41.982Z</time></trkpt><trkpt lat="41.0241163" lon="14.3247904"><ele>27.0</ele><time>2026-05-03T09:18:43.981Z</time></trkpt><trkpt lat="41.0240265" lon="14.3247927"><ele>27.0</ele><time>2026-05-03T09:18:45.981Z</time></trkpt><trkpt lat="41.0239341" lon="14.324794"><ele>27.000000000000004</ele><time>2026-05-03T09:18:47.981Z</time></trkpt><trkpt lat="41.0238343" lon="14.3248049"><ele>27.000000000000004</ele><time>2026-05-03T09:18:49.981Z</time></trkpt><trkpt lat="41.0237282" lon="14.3248069"><ele>27.0</ele><time>2026-05-03T09:18:51.982Z</time></trkpt><trkpt lat="41.0236161" lon="14.3248056"><ele>27.0</ele><time>2026-05-03T09:18:53.981Z</time></trkpt><trkpt lat="41.0235022" lon="14.324806"><ele>27.0</ele><time>2026-05-03T09:18:55.981Z</time></trkpt><trkpt lat="41.0233879" lon="14.3248064"><ele>27.0</ele><time>2026-05-03T09:18:57.981Z</time></trkpt><trkpt lat="41.0232694" lon="14.3248092"><ele>27.0</ele><time>2026-05-03T09:18:59.981Z</time></trkpt><trkpt lat="41.0231505" lon="14.3248114"><ele>27.0</ele><time>2026-05-03T09:19:01.982Z</time></trkpt><trkpt lat="41.0230282" lon="14.3248118"><ele>27.0</ele><time>2026-05-03T09:19:03.981Z</time></trkpt><trkpt lat="41.0229077" lon="14.3248052"><ele>27.0</ele><time>2026-05-03T09:19:05.981Z</time></trkpt><trkpt lat="41.0227896" lon="14.3248134"><ele>27.0</ele><time>2026-05-03T09:19:07.981Z</time></trkpt><trkpt lat="41.0226738" lon="14.3248158"><ele>27.0</ele><time>2026-05-03T09:19:09.981Z</time></trkpt><trkpt lat="41.0225613" lon="14.3248191"><ele>27.0</ele><time>2026-05-03T09:19:11.982Z</time></trkpt><trkpt lat="41.0224451" lon="14.3248234"><ele>27.0</ele><time>2026-05-03T09:19:13.981Z</time></trkpt><trkpt lat="41.0223247" lon="14.3248179"><ele>27.0</ele><time>2026-05-03T09:19:15.981Z</time></trkpt><trkpt lat="41.0222045" lon="14.3248177"><ele>27.0</ele><time>2026-05-03T09:19:17.981Z</time></trkpt><trkpt lat="41.0220842" lon="14.3248138"><ele>27.0</ele><time>2026-05-03T09:19:19.982Z</time></trkpt><trkpt lat="41.0219654" lon="14.3248178"><ele>27.000000000000004</ele><time>2026-05-03T09:19:21.982Z</time></trkpt><trkpt lat="41.0218459" lon="14.3248191"><ele>27.000000000000004</ele><time>2026-05-03T09:19:23.981Z</time></trkpt><trkpt lat="41.0217829" lon="14.3248224"><ele>27.0</ele><time>2026-05-03T09:19:24.982Z</time></trkpt><trkpt lat="41.0216598" lon="14.3248235"><ele>27.0</ele><time>2026-05-03T09:19:26.981Z</time></trkpt><trkpt lat="41.0215384" lon="14.3248283"><ele>26.833333333333332</ele><time>2026-05-03T09:19:28.981Z</time></trkpt><trkpt lat="41.0214128" lon="14.3248273"><ele>26.666666666666664</ele><time>2026-05-03T09:19:30.981Z</time></trkpt><trkpt lat="41.0213475" lon="14.3248292"><ele>26.5</ele><time>2026-05-03T09:19:31.981Z</time></trkpt><trkpt lat="41.0212843" lon="14.3248267"><ele>26.333333333333332</ele><time>2026-05-03T09:19:32.981Z</time></trkpt><trkpt lat="41.0212193" lon="14.324826"><ele>26.166666666666664</ele><time>2026-05-03T09:19:33.981Z</time></trkpt><trkpt lat="41.021153" lon="14.3248298"><ele>26.0</ele><time>2026-05-03T09:19:34.982Z</time></trkpt><trkpt lat="41.0210875" lon="14.3248284"><ele>26.0</ele><time>2026-05-03T09:19:35.981Z</time></trkpt><trkpt lat="41.0210226" lon="14.3248296"><ele>26.0</ele><time>2026-05-03T09:19:36.981Z</time></trkpt><trkpt lat="41.020959" lon="14.3248284"><ele>26.0</ele><time>2026-05-03T09:19:37.981Z</time></trkpt><trkpt lat="41.0208315" lon="14.3248305"><ele>26.0</ele><time>2026-05-03T09:19:39.981Z</time></trkpt><trkpt lat="41.0207675" lon="14.324833"><ele>26.0</ele><time>2026-05-03T09:19:40.981Z</time></trkpt><trkpt lat="41.0207033" lon="14.324835"><ele>26.0</ele><time>2026-05-03T09:19:41.981Z</time></trkpt><trkpt lat="41.0206391" lon="14.3248364"><ele>26.0</ele><time>2026-05-03T09:19:42.981Z</time></trkpt><trkpt lat="41.0205752" lon="14.3248368"><ele>25.857142857142858</ele><time>2026-05-03T09:19:43.982Z</time></trkpt><trkpt lat="41.0205103" lon="14.3248359"><ele>25.714285714285715</ele><time>2026-05-03T09:19:44.982Z</time></trkpt><trkpt lat="41.0204458" lon="14.3248369"><ele>25.571428571428573</ele><time>2026-05-03T09:19:45.981Z</time></trkpt><trkpt lat="41.0203819" lon="14.3248366"><ele>25.42857142857143</ele><time>2026-05-03T09:19:46.982Z</time></trkpt><trkpt lat="41.0203174" lon="14.3248379"><ele>25.285714285714285</ele><time>2026-05-03T09:19:47.981Z</time></trkpt><trkpt lat="41.0202528" lon="14.3248371"><ele>25.142857142857146</ele><time>2026-05-03T09:19:48.982Z</time></trkpt><trkpt lat="41.0201873" lon="14.324839"><ele>25.0</ele><time>2026-05-03T09:19:49.982Z</time></trkpt><trkpt lat="41.0201229" lon="14.3248397"><ele>25.000000000000004</ele><time>2026-05-03T09:19:50.981Z</time></trkpt><trkpt lat="41.0200018" lon="14.3248398"><ele>25.0</ele><time>2026-05-03T09:19:52.981Z</time></trkpt><trkpt lat="41.0198794" lon="14.3248436"><ele>25.0</ele><time>2026-05-03T09:19:54.981Z</time></trkpt><trkpt lat="41.019814" lon="14.3248448"><ele>25.0</ele><time>2026-05-03T09:19:55.981Z</time></trkpt><trkpt lat="41.01975" lon="14.324842"><ele>25.000000000000004</ele><time>2026-05-03T09:19:56.981Z</time></trkpt><trkpt lat="41.0196829" lon="14.324842"><ele>25.0</ele><time>2026-05-03T09:19:57.981Z</time></trkpt><trkpt lat="41.0196164" lon="14.3248433"><ele>24.857142857142858</ele><time>2026-05-03T09:19:58.981Z</time></trkpt><trkpt lat="41.0195477" lon="14.324845"><ele>24.714285714285715</ele><time>2026-05-03T09:19:59.982Z</time></trkpt><trkpt lat="41.0194788" lon="14.3248469"><ele>24.57142857142857</ele><time>2026-05-03T09:20:00.981Z</time></trkpt><trkpt lat="41.0194077" lon="14.3248482"><ele>24.42857142857143</ele><time>2026-05-03T09:20:01.981Z</time></trkpt><trkpt lat="41.0193349" lon="14.3248497"><ele>24.285714285714285</ele><time>2026-05-03T09:20:02.981Z</time></trkpt><trkpt lat="41.0192628" lon="14.3248505"><ele>24.142857142857142</ele><time>2026-05-03T09:20:03.982Z</time></trkpt><trkpt lat="41.0191909" lon="14.3248524"><ele>24.0</ele><time>2026-05-03T09:20:04.981Z</time></trkpt><trkpt lat="41.0191168" lon="14.3248528"><ele>23.999999999999996</ele><time>2026-05-03T09:20:05.981Z</time></trkpt><trkpt lat="41.0190447" lon="14.3248513"><ele>24.0</ele><time>2026-05-03T09:20:06.981Z</time></trkpt><trkpt lat="41.0189721" lon="14.3248539"><ele>24.0</ele><time>2026-05-03T09:20:07.982Z</time></trkpt><trkpt lat="41.0188993" lon="14.324854"><ele>24.0</ele><time>2026-05-03T09:20:08.981Z</time></trkpt><trkpt lat="41.0188288" lon="14.3248521"><ele>24.0</ele><time>2026-05-03T09:20:09.981Z</time></trkpt><trkpt lat="41.0187545" lon="14.3248562"><ele>23.999999999999996</ele><time>2026-05-03T09:20:10.982Z</time></trkpt><trkpt lat="41.0186836" lon="14.3248568"><ele>24.0</ele><time>2026-05-03T09:20:11.982Z</time></trkpt><trkpt lat="41.0186104" lon="14.3248554"><ele>24.0</ele><time>2026-05-03T09:20:12.981Z</time></trkpt><trkpt lat="41.0185355" lon="14.3248531"><ele>24.0</ele><time>2026-05-03T09:20:13.981Z</time></trkpt><trkpt lat="41.0184602" lon="14.3248524"><ele>24.0</ele><time>2026-05-03T09:20:14.981Z</time></trkpt><trkpt lat="41.0183852" lon="14.324853"><ele>24.0</ele><time>2026-05-03T09:20:15.982Z</time></trkpt><trkpt lat="41.0183075" lon="14.3248547"><ele>24.0</ele><time>2026-05-03T09:20:16.981Z</time></trkpt><trkpt lat="41.0182319" lon="14.3248574"><ele>24.0</ele><time>2026-05-03T09:20:17.981Z</time></trkpt><trkpt lat="41.0181522" lon="14.3248598"><ele>23.833333333333332</ele><time>2026-05-03T09:20:18.981Z</time></trkpt><trkpt lat="41.0180735" lon="14.3248591"><ele>23.666666666666668</ele><time>2026-05-03T09:20:19.981Z</time></trkpt><trkpt lat="41.0179945" lon="14.3248596"><ele>23.5</ele><time>2026-05-03T09:20:20.981Z</time></trkpt><trkpt lat="41.0179154" lon="14.3248597"><ele>23.333333333333336</ele><time>2026-05-03T09:20:21.981Z</time></trkpt><trkpt lat="41.0178365" lon="14.3248615"><ele>23.166666666666668</ele><time>2026-05-03T09:20:22.981Z</time></trkpt><trkpt lat="41.0177582" lon="14.3248689"><ele>23.0</ele><time>2026-05-03T09:20:23.981Z</time></trkpt><trkpt lat="41.0176809" lon="14.3248751"><ele>23.0</ele><time>2026-05-03T09:20:24.981Z</time></trkpt><trkpt lat="41.0176044" lon="14.3248814"><ele>23.0</ele><time>2026-05-03T09:20:25.981Z</time></trkpt><trkpt lat="41.0175255" lon="14.3248858"><ele>23.0</ele><time>2026-05-03T09:20:26.981Z</time></trkpt><trkpt lat="41.0174465" lon="14.32489"><ele>23.0</ele><time>2026-05-03T09:20:27.981Z</time></trkpt><trkpt lat="41.0173675" lon="14.3248913"><ele>23.0</ele><time>2026-05-03T09:20:28.981Z</time></trkpt><trkpt lat="41.0172881" lon="14.3248927"><ele>23.0</ele><time>2026-05-03T09:20:29.981Z</time></trkpt><trkpt lat="41.017206" lon="14.3248983"><ele>23.5</ele><time>2026-05-03T09:20:30.981Z</time></trkpt><trkpt lat="41.0171241" lon="14.3249016"><ele>24.0</ele><time>2026-05-03T09:20:31.981Z</time></trkpt><trkpt lat="41.0170427" lon="14.324904"><ele>24.5</ele><time>2026-05-03T09:20:32.981Z</time></trkpt><trkpt lat="41.0169621" lon="14.3249068"><ele>25.0</ele><time>2026-05-03T09:20:33.981Z</time></trkpt><trkpt lat="41.0168811" lon="14.3249046"><ele>25.499999999999996</ele><time>2026-05-03T09:20:34.981Z</time></trkpt><trkpt lat="41.0167985" lon="14.3249067"><ele>26.0</ele><time>2026-05-03T09:20:35.981Z</time></trkpt><trkpt lat="41.016717" lon="14.3249085"><ele>25.666666666666664</ele><time>2026-05-03T09:20:36.981Z</time></trkpt><trkpt lat="41.0166347" lon="14.3249114"><ele>25.333333333333332</ele><time>2026-05-03T09:20:37.981Z</time></trkpt><trkpt lat="41.0165541" lon="14.3249146"><ele>25.0</ele><time>2026-05-03T09:20:38.981Z</time></trkpt><trkpt lat="41.0164717" lon="14.3249158"><ele>24.666666666666664</ele><time>2026-05-03T09:20:39.981Z</time></trkpt><trkpt lat="41.0163903" lon="14.3249116"><ele>24.333333333333332</ele><time>2026-05-03T09:20:40.982Z</time></trkpt><trkpt lat="41.016306" lon="14.3249087"><ele>24.0</ele><time>2026-05-03T09:20:41.981Z</time></trkpt><trkpt lat="41.0162248" lon="14.3249035"><ele>24.0</ele><time>2026-05-03T09:20:42.982Z</time></trkpt><trkpt lat="41.0161431" lon="14.3248992"><ele>24.0</ele><time>2026-05-03T09:20:43.981Z</time></trkpt><trkpt lat="41.0160616" lon="14.3248981"><ele>24.0</ele><time>2026-05-03T09:20:44.981Z</time></trkpt><trkpt lat="41.0159811" lon="14.3249013"><ele>24.0</ele><time>2026-05-03T09:20:45.982Z</time></trkpt><trkpt lat="41.0158998" lon="14.3249029"><ele>24.0</ele><time>2026-05-03T09:20:46.982Z</time></trkpt><trkpt lat="41.0158181" lon="14.3249045"><ele>24.0</ele><time>2026-05-03T09:20:47.981Z</time></trkpt><trkpt lat="41.0157379" lon="14.3249038"><ele>24.0</ele><time>2026-05-03T09:20:48.981Z</time></trkpt><trkpt lat="41.0156563" lon="14.3249018"><ele>24.0</ele><time>2026-05-03T09:20:49.982Z</time></trkpt><trkpt lat="41.0155772" lon="14.3248968"><ele>24.0</ele><time>2026-05-03T09:20:50.981Z</time></trkpt><trkpt lat="41.0154984" lon="14.3248892"><ele>24.0</ele><time>2026-05-03T09:20:51.982Z</time></trkpt><trkpt lat="41.0154213" lon="14.3248836"><ele>24.0</ele><time>2026-05-03T09:20:52.981Z</time></trkpt><trkpt lat="41.0153475" lon="14.3248783"><ele>24.0</ele><time>2026-05-03T09:20:53.982Z</time></trkpt><trkpt lat="41.0152748" lon="14.3248702"><ele>23.999999999999996</ele><time>2026-05-03T09:20:54.981Z</time></trkpt><trkpt lat="41.015205" lon="14.3248535"><ele>24.0</ele><time>2026-05-03T09:20:55.981Z</time></trkpt><trkpt lat="41.015143" lon="14.3248356"><ele>24.0</ele><time>2026-05-03T09:20:56.981Z</time></trkpt><trkpt lat="41.0150725" lon="14.3248222"><ele>24.0</ele><time>2026-05-03T09:20:57.981Z</time></trkpt><trkpt lat="41.0150068" lon="14.3248137"><ele>24.0</ele><time>2026-05-03T09:20:58.982Z</time></trkpt><trkpt lat="41.0149369" lon="14.3248052"><ele>23.999999999999996</ele><time>2026-05-03T09:20:59.981Z</time></trkpt><trkpt lat="41.0148696" lon="14.3247795"><ele>24.0</ele><time>2026-05-03T09:21:00.982Z</time></trkpt><trkpt lat="41.014801" lon="14.3247525"><ele>24.142857142857142</ele><time>2026-05-03T09:21:01.982Z</time></trkpt><trkpt lat="41.0147365" lon="14.3247207"><ele>24.285714285714285</ele><time>2026-05-03T09:21:02.982Z</time></trkpt><trkpt lat="41.0146752" lon="14.3246881"><ele>24.42857142857143</ele><time>2026-05-03T09:21:03.982Z</time></trkpt><trkpt lat="41.0146154" lon="14.3246561"><ele>24.57142857142857</ele><time>2026-05-03T09:21:04.981Z</time></trkpt><trkpt lat="41.0145566" lon="14.3246262"><ele>24.714285714285715</ele><time>2026-05-03T09:21:05.981Z</time></trkpt><trkpt lat="41.0144502" lon="14.3245636"><ele>24.857142857142858</ele><time>2026-05-03T09:21:07.981Z</time></trkpt><trkpt lat="41.0143924" lon="14.3245302"><ele>25.0</ele><time>2026-05-03T09:21:08.981Z</time></trkpt><trkpt lat="41.0142838" lon="14.3244572"><ele>25.0</ele><time>2026-05-03T09:21:10.981Z</time></trkpt><trkpt lat="41.0141773" lon="14.3243905"><ele>25.0</ele><time>2026-05-03T09:21:12.982Z</time></trkpt><trkpt lat="41.0140709" lon="14.3243188"><ele>25.0</ele><time>2026-05-03T09:21:14.981Z</time></trkpt><trkpt lat="41.0139656" lon="14.3242447"><ele>25.0</ele><time>2026-05-03T09:21:16.981Z</time></trkpt><trkpt lat="41.0138626" lon="14.3241737"><ele>25.0</ele><time>2026-05-03T09:21:18.981Z</time></trkpt><trkpt lat="41.0137612" lon="14.324101"><ele>25.0</ele><time>2026-05-03T09:21:20.981Z</time></trkpt><trkpt lat="41.0136652" lon="14.3240284"><ele>25.0</ele><time>2026-05-03T09:21:22.981Z</time></trkpt><trkpt lat="41.0135732" lon="14.3239574"><ele>25.0</ele><time>2026-05-03T09:21:24.981Z</time></trkpt><trkpt lat="41.0134854" lon="14.3238829"><ele>25.0</ele><time>2026-05-03T09:21:26.981Z</time></trkpt><trkpt lat="41.0133916" lon="14.323801"><ele>25.166666666666668</ele><time>2026-05-03T09:21:28.981Z</time></trkpt><trkpt lat="41.0132902" lon="14.3237088"><ele>25.333333333333336</ele><time>2026-05-03T09:21:30.981Z</time></trkpt><trkpt lat="41.0132367" lon="14.3236588"><ele>25.5</ele><time>2026-05-03T09:21:31.981Z</time></trkpt><trkpt lat="41.0131839" lon="14.3236054"><ele>25.666666666666664</ele><time>2026-05-03T09:21:32.981Z</time></trkpt><trkpt lat="41.013128" lon="14.3235535"><ele>25.833333333333332</ele><time>2026-05-03T09:21:33.981Z</time></trkpt><trkpt lat="41.0130735" lon="14.3235001"><ele>26.0</ele><time>2026-05-03T09:21:34.981Z</time></trkpt><trkpt lat="41.0130176" lon="14.323445"><ele>26.0</ele><time>2026-05-03T09:21:35.981Z</time></trkpt><trkpt lat="41.0129644" lon="14.3233896"><ele>26.0</ele><time>2026-05-03T09:21:36.981Z</time></trkpt><trkpt lat="41.0129149" lon="14.3233331"><ele>26.0</ele><time>2026-05-03T09:21:37.981Z</time></trkpt><trkpt lat="41.0128621" lon="14.3232771"><ele>26.0</ele><time>2026-05-03T09:21:38.982Z</time></trkpt><trkpt lat="41.0128145" lon="14.3232175"><ele>26.0</ele><time>2026-05-03T09:21:39.981Z</time></trkpt><trkpt lat="41.0127641" lon="14.3231644"><ele>26.0</ele><time>2026-05-03T09:21:40.982Z</time></trkpt><trkpt lat="41.0127141" lon="14.3231126"><ele>26.0</ele><time>2026-05-03T09:21:41.981Z</time></trkpt><trkpt lat="41.0126221" lon="14.3230095"><ele>25.8</ele><time>2026-05-03T09:21:43.982Z</time></trkpt><trkpt lat="41.0125334" lon="14.322908"><ele>25.6</ele><time>2026-05-03T09:21:45.981Z</time></trkpt><trkpt lat="41.0124488" lon="14.3228144"><ele>25.4</ele><time>2026-05-03T09:21:47.981Z</time></trkpt><trkpt lat="41.0123711" lon="14.3227218"><ele>25.2</ele><time>2026-05-03T09:21:49.981Z</time></trkpt><trkpt lat="41.0122915" lon="14.3226287"><ele>25.0</ele><time>2026-05-03T09:21:51.982Z</time></trkpt><trkpt lat="41.0122061" lon="14.3225323"><ele>25.0</ele><time>2026-05-03T09:21:53.981Z</time></trkpt><trkpt lat="41.0121177" lon="14.3224299"><ele>25.0</ele><time>2026-05-03T09:21:55.981Z</time></trkpt><trkpt lat="41.0120318" lon="14.3223393"><ele>25.0</ele><time>2026-05-03T09:21:57.981Z</time></trkpt><trkpt lat="41.0119456" lon="14.3222411"><ele>25.0</ele><time>2026-05-03T09:21:59.981Z</time></trkpt><trkpt lat="41.0118625" lon="14.3221432"><ele>24.6</ele><time>2026-05-03T09:22:01.981Z</time></trkpt><trkpt lat="41.0117714" lon="14.3220407"><ele>24.2</ele><time>2026-05-03T09:22:03.982Z</time></trkpt><trkpt lat="41.0116831" lon="14.3219381"><ele>23.799999999999997</ele><time>2026-05-03T09:22:05.981Z</time></trkpt><trkpt lat="41.0115916" lon="14.3218288"><ele>23.4</ele><time>2026-05-03T09:22:07.982Z</time></trkpt><trkpt lat="41.0115444" lon="14.3217722"><ele>23.0</ele><time>2026-05-03T09:22:08.981Z</time></trkpt><trkpt lat="41.011497" lon="14.3217169"><ele>23.0</ele><time>2026-05-03T09:22:09.981Z</time></trkpt><trkpt lat="41.0114421" lon="14.3216595"><ele>23.0</ele><time>2026-05-03T09:22:10.982Z</time></trkpt><trkpt lat="41.011388" lon="14.3216038"><ele>23.0</ele><time>2026-05-03T09:22:11.981Z</time></trkpt><trkpt lat="41.0113363" lon="14.3215399"><ele>23.0</ele><time>2026-05-03T09:22:12.981Z</time></trkpt><trkpt lat="41.0112892" lon="14.3214664"><ele>23.0</ele><time>2026-05-03T09:22:13.982Z</time></trkpt><trkpt lat="41.0112416" lon="14.3213977"><ele>23.0</ele><time>2026-05-03T09:22:14.981Z</time></trkpt><trkpt lat="41.0111879" lon="14.3213331"><ele>23.0</ele><time>2026-05-03T09:22:15.982Z</time></trkpt><trkpt lat="41.0111318" lon="14.3212679"><ele>22.857142857142858</ele><time>2026-05-03T09:22:16.981Z</time></trkpt><trkpt lat="41.0110736" lon="14.3212048"><ele>22.71428571428571</ele><time>2026-05-03T09:22:17.981Z</time></trkpt><trkpt lat="41.0110181" lon="14.3211442"><ele>22.57142857142857</ele><time>2026-05-03T09:22:18.981Z</time></trkpt><trkpt lat="41.0109623" lon="14.3210841"><ele>22.42857142857143</ele><time>2026-05-03T09:22:19.982Z</time></trkpt><trkpt lat="41.0109057" lon="14.321022"><ele>22.285714285714285</ele><time>2026-05-03T09:22:20.981Z</time></trkpt><trkpt lat="41.010848" lon="14.3209528"><ele>22.142857142857142</ele><time>2026-05-03T09:22:21.981Z</time></trkpt><trkpt lat="41.0107957" lon="14.3208809"><ele>22.0</ele><time>2026-05-03T09:22:22.981Z</time></trkpt><trkpt lat="41.0107385" lon="14.3208124"><ele>22.0</ele><time>2026-05-03T09:22:23.981Z</time></trkpt><trkpt lat="41.0106751" lon="14.3207472"><ele>22.0</ele><time>2026-05-03T09:22:24.981Z</time></trkpt><trkpt lat="41.0106059" lon="14.320683"><ele>22.0</ele><time>2026-05-03T09:22:25.981Z</time></trkpt><trkpt lat="41.0105429" lon="14.3206251"><ele>22.0</ele><time>2026-05-03T09:22:26.981Z</time></trkpt><trkpt lat="41.0104823" lon="14.3205647"><ele>22.0</ele><time>2026-05-03T09:22:27.981Z</time></trkpt><trkpt lat="41.0104156" lon="14.3205137"><ele>22.0</ele><time>2026-05-03T09:22:28.981Z</time></trkpt><trkpt lat="41.010348" lon="14.3204602"><ele>22.166666666666664</ele><time>2026-05-03T09:22:29.982Z</time></trkpt><trkpt lat="41.0102776" lon="14.3204127"><ele>22.333333333333332</ele><time>2026-05-03T09:22:30.981Z</time></trkpt><trkpt lat="41.0102027" lon="14.3203758"><ele>22.5</ele><time>2026-05-03T09:22:31.981Z</time></trkpt><trkpt lat="41.0101281" lon="14.3203459"><ele>22.666666666666668</ele><time>2026-05-03T09:22:32.981Z</time></trkpt><trkpt lat="41.0100517" lon="14.3203205"><ele>22.833333333333336</ele><time>2026-05-03T09:22:33.982Z</time></trkpt><trkpt lat="41.0099768" lon="14.3202958"><ele>23.0</ele><time>2026-05-03T09:22:34.981Z</time></trkpt><trkpt lat="41.0099012" lon="14.3202711"><ele>22.5</ele><time>2026-05-03T09:22:35.981Z</time></trkpt><trkpt lat="41.0098297" lon="14.3202459"><ele>22.0</ele><time>2026-05-03T09:22:36.981Z</time></trkpt><trkpt lat="41.0097611" lon="14.3202201"><ele>21.5</ele><time>2026-05-03T09:22:37.981Z</time></trkpt><trkpt lat="41.0096991" lon="14.3201916"><ele>21.0</ele><time>2026-05-03T09:22:38.981Z</time></trkpt><trkpt lat="41.0096345" lon="14.3201693"><ele>20.5</ele><time>2026-05-03T09:22:39.982Z</time></trkpt><trkpt lat="41.0095729" lon="14.3201482"><ele>20.0</ele><time>2026-05-03T09:22:40.981Z</time></trkpt><trkpt lat="41.0094546" lon="14.3201049"><ele>20.0</ele><time>2026-05-03T09:22:42.981Z</time></trkpt><trkpt lat="41.009332" lon="14.3200637"><ele>20.0</ele><time>2026-05-03T09:22:44.981Z</time></trkpt><trkpt lat="41.0092692" lon="14.3200403"><ele>20.0</ele><time>2026-05-03T09:22:45.981Z</time></trkpt><trkpt lat="41.0092064" lon="14.3200144"><ele>20.0</ele><time>2026-05-03T09:22:46.981Z</time></trkpt><trkpt lat="41.0090812" lon="14.3199668"><ele>20.0</ele><time>2026-05-03T09:22:48.981Z</time></trkpt><trkpt lat="41.0089621" lon="14.319916"><ele>20.0</ele><time>2026-05-03T09:22:50.981Z</time></trkpt><trkpt lat="41.0088394" lon="14.3198746"><ele>20.0</ele><time>2026-05-03T09:22:52.982Z</time></trkpt><trkpt lat="41.008722" lon="14.3198338"><ele>20.0</ele><time>2026-05-03T09:22:54.981Z</time></trkpt><trkpt lat="41.0086077" lon="14.3197938"><ele>20.0</ele><time>2026-05-03T09:22:56.982Z</time></trkpt><trkpt lat="41.0084942" lon="14.3197496"><ele>20.0</ele><time>2026-05-03T09:22:58.981Z</time></trkpt><trkpt lat="41.008376" lon="14.3197082"><ele>20.0</ele><time>2026-05-03T09:23:00.981Z</time></trkpt><trkpt lat="41.0082557" lon="14.3196604"><ele>20.0</ele><time>2026-05-03T09:23:02.981Z</time></trkpt><trkpt lat="41.0081351" lon="14.319621"><ele>20.0</ele><time>2026-05-03T09:23:04.981Z</time></trkpt><trkpt lat="41.0080721" lon="14.319599"><ele>20.0</ele><time>2026-05-03T09:23:05.981Z</time></trkpt><trkpt lat="41.0080084" lon="14.3195779"><ele>20.0</ele><time>2026-05-03T09:23:06.982Z</time></trkpt><trkpt lat="41.007946" lon="14.3195561"><ele>20.0</ele><time>2026-05-03T09:23:07.981Z</time></trkpt><trkpt lat="41.0078857" lon="14.319529"><ele>20.0</ele><time>2026-05-03T09:23:08.981Z</time></trkpt><trkpt lat="41.007771" lon="14.3194857"><ele>20.0</ele><time>2026-05-03T09:23:10.981Z</time></trkpt><trkpt lat="41.0076606" lon="14.3194467"><ele>20.0</ele><time>2026-05-03T09:23:12.981Z</time></trkpt><trkpt lat="41.007554" lon="14.3194074"><ele>20.4</ele><time>2026-05-03T09:23:14.981Z</time></trkpt><trkpt lat="41.007447" lon="14.3193716"><ele>20.8</ele><time>2026-05-03T09:23:16.982Z</time></trkpt><trkpt lat="41.0073398" lon="14.3193356"><ele>21.200000000000003</ele><time>2026-05-03T09:23:18.981Z</time></trkpt><trkpt lat="41.0072371" lon="14.3193039"><ele>21.6</ele><time>2026-05-03T09:23:20.981Z</time></trkpt><trkpt lat="41.0071382" lon="14.3192679"><ele>22.0</ele><time>2026-05-03T09:23:22.981Z</time></trkpt><trkpt lat="41.0070351" lon="14.3192375"><ele>22.0</ele><time>2026-05-03T09:23:24.981Z</time></trkpt><trkpt lat="41.006927" lon="14.319201"><ele>22.0</ele><time>2026-05-03T09:23:26.981Z</time></trkpt><trkpt lat="41.006821" lon="14.31917"><ele>22.0</ele><time>2026-05-03T09:23:28.982Z</time></trkpt><trkpt lat="41.006724" lon="14.3191253"><ele>22.0</ele><time>2026-05-03T09:23:30.981Z</time></trkpt><trkpt lat="41.0066286" lon="14.3190899"><ele>22.0</ele><time>2026-05-03T09:23:32.981Z</time></trkpt><trkpt lat="41.0065381" lon="14.31906"><ele>21.8</ele><time>2026-05-03T09:23:34.981Z</time></trkpt><trkpt lat="41.0064454" lon="14.3190408"><ele>21.6</ele><time>2026-05-03T09:23:36.981Z</time></trkpt><trkpt lat="41.0063532" lon="14.3189898"><ele>21.400000000000002</ele><time>2026-05-03T09:23:38.981Z</time></trkpt><trkpt lat="41.0062568" lon="14.318912"><ele>21.200000000000003</ele><time>2026-05-03T09:23:40.981Z</time></trkpt><trkpt lat="41.006169" lon="14.3188074"><ele>21.0</ele><time>2026-05-03T09:23:42.981Z</time></trkpt><trkpt lat="41.0060872" lon="14.3186822"><ele>21.0</ele><time>2026-05-03T09:23:44.982Z</time></trkpt><trkpt lat="41.0060439" lon="14.31862"><ele>21.0</ele><time>2026-05-03T09:23:45.981Z</time></trkpt><trkpt lat="41.0059939" lon="14.3185646"><ele>21.0</ele><time>2026-05-03T09:23:46.981Z</time></trkpt><trkpt lat="41.0059361" lon="14.318524"><ele>21.0</ele><time>2026-05-03T09:23:47.981Z</time></trkpt><trkpt lat="41.0058188" lon="14.3184818"><ele>21.0</ele><time>2026-05-03T09:23:49.981Z</time></trkpt><trkpt lat="41.0057038" lon="14.3185128"><ele>21.0</ele><time>2026-05-03T09:23:51.981Z</time></trkpt><trkpt lat="41.0056117" lon="14.3186011"><ele>20.8</ele><time>2026-05-03T09:23:53.981Z</time></trkpt><trkpt lat="41.0055402" lon="14.3187151"><ele>20.6</ele><time>2026-05-03T09:23:55.981Z</time></trkpt><trkpt lat="41.0054696" lon="14.3188214"><ele>20.4</ele><time>2026-05-03T09:23:57.981Z</time></trkpt><trkpt lat="41.0053923" lon="14.3189086"><ele>20.2</ele><time>2026-05-03T09:23:59.981Z</time></trkpt><trkpt lat="41.005319" lon="14.3189911"><ele>20.0</ele><time>2026-05-03T09:24:01.982Z</time></trkpt><trkpt lat="41.0052384" lon="14.3190636"><ele>20.4</ele><time>2026-05-03T09:24:03.981Z</time></trkpt><trkpt lat="41.0051431" lon="14.3191116"><ele>20.8</ele><time>2026-05-03T09:24:05.982Z</time></trkpt><trkpt lat="41.0050369" lon="14.3191401"><ele>21.200000000000003</ele><time>2026-05-03T09:24:07.981Z</time></trkpt><trkpt lat="41.0049292" lon="14.3191255"><ele>21.6</ele><time>2026-05-03T09:24:09.982Z</time></trkpt><trkpt lat="41.0048181" lon="14.3190917"><ele>22.0</ele><time>2026-05-03T09:24:11.981Z</time></trkpt><trkpt lat="41.0047031" lon="14.3190582"><ele>22.25</ele><time>2026-05-03T09:24:13.981Z</time></trkpt><trkpt lat="41.0045926" lon="14.3190119"><ele>22.5</ele><time>2026-05-03T09:24:15.982Z</time></trkpt><trkpt lat="41.0044772" lon="14.3189642"><ele>22.75</ele><time>2026-05-03T09:24:17.981Z</time></trkpt><trkpt lat="41.0043552" lon="14.3189256"><ele>23.0</ele><time>2026-05-03T09:24:19.982Z</time></trkpt><trkpt lat="41.0042352" lon="14.3188906"><ele>22.0</ele><time>2026-05-03T09:24:21.982Z</time></trkpt><trkpt lat="41.0041142" lon="14.3188626"><ele>21.0</ele><time>2026-05-03T09:24:23.981Z</time></trkpt><trkpt lat="41.0039954" lon="14.318836"><ele>20.0</ele><time>2026-05-03T09:24:25.981Z</time></trkpt><trkpt lat="41.0038741" lon="14.3188068"><ele>19.0</ele><time>2026-05-03T09:24:27.981Z</time></trkpt><trkpt lat="41.0037525" lon="14.3187857"><ele>19.0</ele><time>2026-05-03T09:24:29.981Z</time></trkpt><trkpt lat="41.0036899" lon="14.3187714"><ele>19.0</ele><time>2026-05-03T09:24:30.981Z</time></trkpt><trkpt lat="41.0035655" lon="14.3187548"><ele>19.0</ele><time>2026-05-03T09:24:32.982Z</time></trkpt><trkpt lat="41.0034411" lon="14.3187388"><ele>19.0</ele><time>2026-05-03T09:24:34.982Z</time></trkpt><trkpt lat="41.0033202" lon="14.3187258"><ele>19.0</ele><time>2026-05-03T09:24:36.981Z</time></trkpt><trkpt lat="41.0031955" lon="14.3187097"><ele>19.428571428571427</ele><time>2026-05-03T09:24:38.981Z</time></trkpt><trkpt lat="41.0031314" lon="14.3187034"><ele>19.857142857142858</ele><time>2026-05-03T09:24:39.981Z</time></trkpt><trkpt lat="41.0030667" lon="14.3186949"><ele>20.285714285714285</ele><time>2026-05-03T09:24:40.981Z</time></trkpt><trkpt lat="41.0030028" lon="14.3186863"><ele>20.714285714285715</ele><time>2026-05-03T09:24:41.981Z</time></trkpt><trkpt lat="41.0029348" lon="14.3186804"><ele>21.142857142857142</ele><time>2026-05-03T09:24:42.981Z</time></trkpt><trkpt lat="41.0028665" lon="14.3186761"><ele>21.571428571428573</ele><time>2026-05-03T09:24:43.981Z</time></trkpt><trkpt lat="41.0028008" lon="14.3186708"><ele>22.0</ele><time>2026-05-03T09:24:44.982Z</time></trkpt><trkpt lat="41.0027339" lon="14.3186657"><ele>22.0</ele><time>2026-05-03T09:24:45.981Z</time></trkpt><trkpt lat="41.0026678" lon="14.3186623"><ele>22.0</ele><time>2026-05-03T09:24:46.981Z</time></trkpt><trkpt lat="41.002602" lon="14.3186564"><ele>22.0</ele><time>2026-05-03T09:24:47.981Z</time></trkpt><trkpt lat="41.0025354" lon="14.3186537"><ele>22.0</ele><time>2026-05-03T09:24:48.981Z</time></trkpt><trkpt lat="41.0024699" lon="14.3186559"><ele>22.0</ele><time>2026-05-03T09:24:49.981Z</time></trkpt><trkpt lat="41.0024041" lon="14.318658"><ele>22.0</ele><time>2026-05-03T09:24:50.981Z</time></trkpt><trkpt lat="41.0023372" lon="14.3186641"><ele>22.0</ele><time>2026-05-03T09:24:51.981Z</time></trkpt><trkpt lat="41.0022145" lon="14.3187006"><ele>21.75</ele><time>2026-05-03T09:24:53.981Z</time></trkpt><trkpt lat="41.0021029" lon="14.3187581"><ele>21.5</ele><time>2026-05-03T09:24:55.982Z</time></trkpt><trkpt lat="41.0019864" lon="14.3187666"><ele>21.25</ele><time>2026-05-03T09:24:57.981Z</time></trkpt><trkpt lat="41.0018717" lon="14.3187101"><ele>21.0</ele><time>2026-05-03T09:24:59.981Z</time></trkpt><trkpt lat="41.0017527" lon="14.3186784"><ele>21.0</ele><time>2026-05-03T09:25:01.981Z</time></trkpt><trkpt lat="41.0016353" lon="14.3186981"><ele>21.0</ele><time>2026-05-03T09:25:03.982Z</time></trkpt><trkpt lat="41.0015266" lon="14.3187045"><ele>21.0</ele><time>2026-05-03T09:25:05.982Z</time></trkpt><trkpt lat="41.0014214" lon="14.3186596"><ele>21.0</ele><time>2026-05-03T09:25:07.981Z</time></trkpt><trkpt lat="41.0013317" lon="14.3185904"><ele>21.0</ele><time>2026-05-03T09:25:09.981Z</time></trkpt><trkpt lat="41.0012348" lon="14.3185312"><ele>21.0</ele><time>2026-05-03T09:25:11.981Z</time></trkpt><trkpt lat="41.0011267" lon="14.3184956"><ele>21.0</ele><time>2026-05-03T09:25:13.981Z</time></trkpt><trkpt lat="41.0010105" lon="14.3184835"><ele>21.0</ele><time>2026-05-03T09:25:15.981Z</time></trkpt><trkpt lat="41.0008933" lon="14.3184635"><ele>21.0</ele><time>2026-05-03T09:25:17.981Z</time></trkpt><trkpt lat="41.0007731" lon="14.3184474"><ele>21.0</ele><time>2026-05-03T09:25:19.981Z</time></trkpt><trkpt lat="41.0007102" lon="14.3184395"><ele>21.0</ele><time>2026-05-03T09:25:20.981Z</time></trkpt><trkpt lat="41.0006455" lon="14.3184331"><ele>21.0</ele><time>2026-05-03T09:25:21.982Z</time></trkpt><trkpt lat="41.0005794" lon="14.3184263"><ele>21.0</ele><time>2026-05-03T09:25:22.981Z</time></trkpt><trkpt lat="41.0005133" lon="14.3184204"><ele>21.0</ele><time>2026-05-03T09:25:23.981Z</time></trkpt><trkpt lat="41.0004474" lon="14.3184109"><ele>21.0</ele><time>2026-05-03T09:25:24.981Z</time></trkpt><trkpt lat="41.0003791" lon="14.3184061"><ele>21.0</ele><time>2026-05-03T09:25:25.982Z</time></trkpt><trkpt lat="41.0003116" lon="14.3184047"><ele>21.0</ele><time>2026-05-03T09:25:26.982Z</time></trkpt><trkpt lat="41.0002414" lon="14.3183995"><ele>21.0</ele><time>2026-05-03T09:25:27.981Z</time></trkpt><trkpt lat="41.0001737" lon="14.3183903"><ele>21.0</ele><time>2026-05-03T09:25:28.981Z</time></trkpt><trkpt lat="41.0001065" lon="14.3183828"><ele>21.0</ele><time>2026-05-03T09:25:29.981Z</time></trkpt><trkpt lat="41.0000402" lon="14.3183737"><ele>21.0</ele><time>2026-05-03T09:25:30.981Z</time></trkpt><trkpt lat="40.9999719" lon="14.3183603"><ele>21.0</ele><time>2026-05-03T09:25:31.981Z</time></trkpt><trkpt lat="40.9999054" lon="14.3183508"><ele>21.0</ele><time>2026-05-03T09:25:32.981Z</time></trkpt><trkpt lat="40.9998394" lon="14.3183442"><ele>21.0</ele><time>2026-05-03T09:25:33.981Z</time></trkpt><trkpt lat="40.9997763" lon="14.3183406"><ele>21.0</ele><time>2026-05-03T09:25:34.982Z</time></trkpt><trkpt lat="40.9997117" lon="14.3183288"><ele>21.0</ele><time>2026-05-03T09:25:35.981Z</time></trkpt><trkpt lat="40.9996476" lon="14.31832"><ele>21.0</ele><time>2026-05-03T09:25:36.982Z</time></trkpt><trkpt lat="40.9995815" lon="14.318313"><ele>21.0</ele><time>2026-05-03T09:25:37.981Z</time></trkpt><trkpt lat="40.9995172" lon="14.3183094"><ele>21.0</ele><time>2026-05-03T09:25:38.981Z</time></trkpt><trkpt lat="40.9994523" lon="14.3183028"><ele>21.0</ele><time>2026-05-03T09:25:39.981Z</time></trkpt><trkpt lat="40.9993863" lon="14.3182976"><ele>21.0</ele><time>2026-05-03T09:25:40.981Z</time></trkpt><trkpt lat="40.9993201" lon="14.3182933"><ele>21.0</ele><time>2026-05-03T09:25:41.981Z</time></trkpt><trkpt lat="40.9992549" lon="14.3182847"><ele>21.0</ele><time>2026-05-03T09:25:42.981Z</time></trkpt><trkpt lat="40.9991903" lon="14.3182808"><ele>21.0</ele><time>2026-05-03T09:25:43.981Z</time></trkpt><trkpt lat="40.9991238" lon="14.3182757"><ele>21.0</ele><time>2026-05-03T09:25:44.981Z</time></trkpt><trkpt lat="40.9990605" lon="14.318271"><ele>21.0</ele><time>2026-05-03T09:25:45.982Z</time></trkpt><trkpt lat="40.9989982" lon="14.3182588"><ele>21.0</ele><time>2026-05-03T09:25:46.981Z</time></trkpt><trkpt lat="40.9988728" lon="14.3182437"><ele>21.0</ele><time>2026-05-03T09:25:48.982Z</time></trkpt><trkpt lat="40.9988091" lon="14.3182345"><ele>21.0</ele><time>2026-05-03T09:25:49.981Z</time></trkpt><trkpt lat="40.9987433" lon="14.3182277"><ele>21.0</ele><time>2026-05-03T09:25:50.981Z</time></trkpt><trkpt lat="40.9986139" lon="14.3182184"><ele>21.0</ele><time>2026-05-03T09:25:52.981Z</time></trkpt><trkpt lat="40.9985489" lon="14.3182108"><ele>21.0</ele><time>2026-05-03T09:25:53.981Z</time></trkpt><trkpt lat="40.9984807" lon="14.3182042"><ele>21.0</ele><time>2026-05-03T09:25:54.981Z</time></trkpt><trkpt lat="40.9984117" lon="14.3182012"><ele>21.0</ele><time>2026-05-03T09:25:55.981Z</time></trkpt><trkpt lat="40.998345" lon="14.3181946"><ele>21.0</ele><time>2026-05-03T09:25:56.981Z</time></trkpt><trkpt lat="40.9982774" lon="14.3181847"><ele>21.0</ele><time>2026-05-03T09:25:57.981Z</time></trkpt><trkpt lat="40.9982073" lon="14.3181759"><ele>21.0</ele><time>2026-05-03T09:25:58.981Z</time></trkpt><trkpt lat="40.9981387" lon="14.3181717"><ele>21.0</ele><time>2026-05-03T09:25:59.981Z</time></trkpt><trkpt lat="40.9980671" lon="14.3181657"><ele>21.0</ele><time>2026-05-03T09:26:00.981Z</time></trkpt><trkpt lat="40.9979959" lon="14.3181562"><ele>21.0</ele><time>2026-05-03T09:26:01.982Z</time></trkpt><trkpt lat="40.9979239" lon="14.318152"><ele>21.0</ele><time>2026-05-03T09:26:02.981Z</time></trkpt><trkpt lat="40.997846" lon="14.3181393"><ele>21.0</ele><time>2026-05-03T09:26:03.982Z</time></trkpt><trkpt lat="40.9977662" lon="14.3181333"><ele>21.0</ele><time>2026-05-03T09:26:04.981Z</time></trkpt><trkpt lat="40.9976813" lon="14.3181274"><ele>21.0</ele><time>2026-05-03T09:26:05.982Z</time></trkpt><trkpt lat="40.9975932" lon="14.318115"><ele>21.0</ele><time>2026-05-03T09:26:06.981Z</time></trkpt><trkpt lat="40.997508" lon="14.3181093"><ele>21.0</ele><time>2026-05-03T09:26:07.982Z</time></trkpt><trkpt lat="40.9974226" lon="14.3180988"><ele>21.0</ele><time>2026-05-03T09:26:08.981Z</time></trkpt><trkpt lat="40.9973402" lon="14.318088"><ele>21.0</ele><time>2026-05-03T09:26:09.981Z</time></trkpt><trkpt lat="40.997256" lon="14.3180817"><ele>21.0</ele><time>2026-05-03T09:26:10.981Z</time></trkpt><trkpt lat="40.9971716" lon="14.3180702"><ele>21.0</ele><time>2026-05-03T09:26:11.981Z</time></trkpt><trkpt lat="40.9970891" lon="14.3180634"><ele>21.0</ele><time>2026-05-03T09:26:12.982Z</time></trkpt><trkpt lat="40.9970068" lon="14.3180553"><ele>21.0</ele><time>2026-05-03T09:26:13.981Z</time></trkpt><trkpt lat="40.996924" lon="14.3180477"><ele>20.833333333333332</ele><time>2026-05-03T09:26:14.981Z</time></trkpt><trkpt lat="40.9968453" lon="14.3180372"><ele>20.666666666666668</ele><time>2026-05-03T09:26:15.982Z</time></trkpt><trkpt lat="40.9967666" lon="14.3180293"><ele>20.5</ele><time>2026-05-03T09:26:16.981Z</time></trkpt><trkpt lat="40.9966886" lon="14.3180219"><ele>20.333333333333336</ele><time>2026-05-03T09:26:17.982Z</time></trkpt><trkpt lat="40.9966113" lon="14.3180143"><ele>20.166666666666668</ele><time>2026-05-03T09:26:18.981Z</time></trkpt><trkpt lat="40.9965342" lon="14.3180036"><ele>20.0</ele><time>2026-05-03T09:26:19.981Z</time></trkpt><trkpt lat="40.9964579" lon="14.3179846"><ele>20.0</ele><time>2026-05-03T09:26:20.981Z</time></trkpt><trkpt lat="40.9963829" lon="14.3179814"><ele>20.0</ele><time>2026-05-03T09:26:21.981Z</time></trkpt><trkpt lat="40.9963097" lon="14.3179782"><ele>20.0</ele><time>2026-05-03T09:26:22.982Z</time></trkpt><trkpt lat="40.9962362" lon="14.3179724"><ele>20.0</ele><time>2026-05-03T09:26:23.981Z</time></trkpt><trkpt lat="40.9961638" lon="14.3179666"><ele>20.0</ele><time>2026-05-03T09:26:24.982Z</time></trkpt><trkpt lat="40.9960922" lon="14.3179573"><ele>20.0</ele><time>2026-05-03T09:26:25.981Z</time></trkpt><trkpt lat="40.9960202" lon="14.31795"><ele>20.0</ele><time>2026-05-03T09:26:26.981Z</time></trkpt><trkpt lat="40.9959499" lon="14.3179434"><ele>20.0</ele><time>2026-05-03T09:26:27.981Z</time></trkpt><trkpt lat="40.9958786" lon="14.3179337"><ele>20.0</ele><time>2026-05-03T09:26:28.981Z</time></trkpt><trkpt lat="40.9958076" lon="14.3179257"><ele>20.0</ele><time>2026-05-03T09:26:29.981Z</time></trkpt><trkpt lat="40.9957382" lon="14.3179197"><ele>20.0</ele><time>2026-05-03T09:26:30.982Z</time></trkpt><trkpt lat="40.9956675" lon="14.3179136"><ele>20.0</ele><time>2026-05-03T09:26:31.982Z</time></trkpt><trkpt lat="40.9955986" lon="14.3179116"><ele>20.0</ele><time>2026-05-03T09:26:32.981Z</time></trkpt><trkpt lat="40.9955308" lon="14.3179053"><ele>20.0</ele><time>2026-05-03T09:26:33.981Z</time></trkpt><trkpt lat="40.9954611" lon="14.3178971"><ele>19.857142857142858</ele><time>2026-05-03T09:26:34.981Z</time></trkpt><trkpt lat="40.9953931" lon="14.3178911"><ele>19.714285714285715</ele><time>2026-05-03T09:26:35.981Z</time></trkpt><trkpt lat="40.9953231" lon="14.3178829"><ele>19.57142857142857</ele><time>2026-05-03T09:26:36.981Z</time></trkpt><trkpt lat="40.995253" lon="14.3178726"><ele>19.42857142857143</ele><time>2026-05-03T09:26:37.982Z</time></trkpt><trkpt lat="40.995182" lon="14.3178649"><ele>19.28571428571429</ele><time>2026-05-03T09:26:38.981Z</time></trkpt><trkpt lat="40.9951141" lon="14.3178557"><ele>19.142857142857142</ele><time>2026-05-03T09:26:39.981Z</time></trkpt><trkpt lat="40.9950451" lon="14.3178465"><ele>19.0</ele><time>2026-05-03T09:26:40.981Z</time></trkpt><trkpt lat="40.9949753" lon="14.3178408"><ele>19.0</ele><time>2026-05-03T09:26:41.981Z</time></trkpt><trkpt lat="40.9949063" lon="14.3178353"><ele>19.0</ele><time>2026-05-03T09:26:42.982Z</time></trkpt><trkpt lat="40.9948376" lon="14.3178299"><ele>19.0</ele><time>2026-05-03T09:26:43.981Z</time></trkpt><trkpt lat="40.9947668" lon="14.317823"><ele>19.0</ele><time>2026-05-03T09:26:44.981Z</time></trkpt><trkpt lat="40.9946934" lon="14.3178181"><ele>19.0</ele><time>2026-05-03T09:26:45.981Z</time></trkpt><trkpt lat="40.9946232" lon="14.3178102"><ele>19.0</ele><time>2026-05-03T09:26:46.981Z</time></trkpt><trkpt lat="40.9945511" lon="14.3178053"><ele>19.0</ele><time>2026-05-03T09:26:47.981Z</time></trkpt><trkpt lat="40.9944817" lon="14.3177965"><ele>19.0</ele><time>2026-05-03T09:26:48.982Z</time></trkpt><trkpt lat="40.9944133" lon="14.3177888"><ele>19.0</ele><time>2026-05-03T09:26:49.981Z</time></trkpt><trkpt lat="40.9943429" lon="14.3177801"><ele>19.0</ele><time>2026-05-03T09:26:50.981Z</time></trkpt><trkpt lat="40.9942719" lon="14.3177729"><ele>19.0</ele><time>2026-05-03T09:26:51.981Z</time></trkpt><trkpt lat="40.9942042" lon="14.3177677"><ele>19.0</ele><time>2026-05-03T09:26:52.981Z</time></trkpt><trkpt lat="40.994135" lon="14.3177622"><ele>19.0</ele><time>2026-05-03T09:26:53.981Z</time></trkpt><trkpt lat="40.9940683" lon="14.3177534"><ele>19.0</ele><time>2026-05-03T09:26:54.981Z</time></trkpt><trkpt lat="40.9940019" lon="14.3177443"><ele>19.0</ele><time>2026-05-03T09:26:55.981Z</time></trkpt><trkpt lat="40.9939331" lon="14.317736"><ele>19.0</ele><time>2026-05-03T09:26:56.982Z</time></trkpt><trkpt lat="40.9938639" lon="14.3177278"><ele>19.0</ele><time>2026-05-03T09:26:57.981Z</time></trkpt><trkpt lat="40.9937954" lon="14.3177213"><ele>19.0</ele><time>2026-05-03T09:26:58.981Z</time></trkpt><trkpt lat="40.9937281" lon="14.3177144"><ele>19.0</ele><time>2026-05-03T09:26:59.982Z</time></trkpt><trkpt lat="40.993661" lon="14.3177084"><ele>19.0</ele><time>2026-05-03T09:27:00.981Z</time></trkpt><trkpt lat="40.9935949" lon="14.317701"><ele>19.0</ele><time>2026-05-03T09:27:01.981Z</time></trkpt><trkpt lat="40.9935262" lon="14.3176928"><ele>19.0</ele><time>2026-05-03T09:27:02.981Z</time></trkpt><trkpt lat="40.993462" lon="14.3176835"><ele>19.0</ele><time>2026-05-03T09:27:03.981Z</time></trkpt><trkpt lat="40.9933974" lon="14.3176737"><ele>19.0</ele><time>2026-05-03T09:27:04.981Z</time></trkpt><trkpt lat="40.9933334" lon="14.3176655"><ele>19.0</ele><time>2026-05-03T09:27:05.982Z</time></trkpt><trkpt lat="40.9932112" lon="14.3176452"><ele>19.0</ele><time>2026-05-03T09:27:07.981Z</time></trkpt><trkpt lat="40.9931486" lon="14.3176301"><ele>19.0</ele><time>2026-05-03T09:27:08.982Z</time></trkpt><trkpt lat="40.9930854" lon="14.3176125"><ele>19.0</ele><time>2026-05-03T09:27:09.981Z</time></trkpt><trkpt lat="40.992966" lon="14.3175669"><ele>19.0</ele><time>2026-05-03T09:27:11.982Z</time></trkpt><trkpt lat="40.9928461" lon="14.3175095"><ele>19.0</ele><time>2026-05-03T09:27:13.981Z</time></trkpt><trkpt lat="40.992787" lon="14.3174784"><ele>19.0</ele><time>2026-05-03T09:27:14.982Z</time></trkpt><trkpt lat="40.9927283" lon="14.3174445"><ele>19.0</ele><time>2026-05-03T09:27:15.981Z</time></trkpt><trkpt lat="40.9926218" lon="14.3173692"><ele>19.0</ele><time>2026-05-03T09:27:17.981Z</time></trkpt><trkpt lat="40.9925195" lon="14.3172911"><ele>19.166666666666664</ele><time>2026-05-03T09:27:19.982Z</time></trkpt><trkpt lat="40.9924204" lon="14.3171987"><ele>19.333333333333332</ele><time>2026-05-03T09:27:21.982Z</time></trkpt><trkpt lat="40.9923198" lon="14.3171013"><ele>19.5</ele><time>2026-05-03T09:27:23.981Z</time></trkpt><trkpt lat="40.9922674" lon="14.3170516"><ele>19.666666666666668</ele><time>2026-05-03T09:27:24.981Z</time></trkpt><trkpt lat="40.9922165" lon="14.3170007"><ele>19.833333333333336</ele><time>2026-05-03T09:27:25.981Z</time></trkpt><trkpt lat="40.9921622" lon="14.3169502"><ele>20.0</ele><time>2026-05-03T09:27:26.981Z</time></trkpt><trkpt lat="40.9921083" lon="14.3168964"><ele>20.0</ele><time>2026-05-03T09:27:27.982Z</time></trkpt><trkpt lat="40.9920548" lon="14.3168438"><ele>20.0</ele><time>2026-05-03T09:27:28.982Z</time></trkpt><trkpt lat="40.9920023" lon="14.3167888"><ele>20.0</ele><time>2026-05-03T09:27:29.981Z</time></trkpt><trkpt lat="40.9919489" lon="14.3167357"><ele>20.0</ele><time>2026-05-03T09:27:30.982Z</time></trkpt><trkpt lat="40.9918928" lon="14.3166847"><ele>20.0</ele><time>2026-05-03T09:27:31.982Z</time></trkpt><trkpt lat="40.9918415" lon="14.3166318"><ele>20.0</ele><time>2026-05-03T09:27:32.981Z</time></trkpt><trkpt lat="40.9917897" lon="14.3165799"><ele>20.0</ele><time>2026-05-03T09:27:33.982Z</time></trkpt><trkpt lat="40.9917378" lon="14.3165279"><ele>20.0</ele><time>2026-05-03T09:27:34.981Z</time></trkpt><trkpt lat="40.9916877" lon="14.3164749"><ele>20.0</ele><time>2026-05-03T09:27:35.982Z</time></trkpt><trkpt lat="40.991637" lon="14.3164247"><ele>20.0</ele><time>2026-05-03T09:27:36.981Z</time></trkpt><trkpt lat="40.9915366" lon="14.3163238"><ele>20.0</ele><time>2026-05-03T09:27:38.981Z</time></trkpt><trkpt lat="40.9914831" lon="14.3162743"><ele>20.0</ele><time>2026-05-03T09:27:39.981Z</time></trkpt><trkpt lat="40.9914321" lon="14.3162243"><ele>20.0</ele><time>2026-05-03T09:27:40.981Z</time></trkpt><trkpt lat="40.991382" lon="14.3161726"><ele>20.0</ele><time>2026-05-03T09:27:41.982Z</time></trkpt><trkpt lat="40.9912855" lon="14.3160719"><ele>19.75</ele><time>2026-05-03T09:27:43.981Z</time></trkpt><trkpt lat="40.9911903" lon="14.3159719"><ele>19.5</ele><time>2026-05-03T09:27:45.981Z</time></trkpt><trkpt lat="40.9910948" lon="14.3158717"><ele>19.25</ele><time>2026-05-03T09:27:47.981Z</time></trkpt><trkpt lat="40.9910002" lon="14.3157789"><ele>19.0</ele><time>2026-05-03T09:27:49.981Z</time></trkpt><trkpt lat="40.9909089" lon="14.31567"><ele>19.166666666666664</ele><time>2026-05-03T09:27:51.981Z</time></trkpt><trkpt lat="40.9908163" lon="14.315553"><ele>19.333333333333332</ele><time>2026-05-03T09:27:53.982Z</time></trkpt><trkpt lat="40.9907616" lon="14.3154916"><ele>19.5</ele><time>2026-05-03T09:27:54.981Z</time></trkpt><trkpt lat="40.9907059" lon="14.3154311"><ele>19.666666666666668</ele><time>2026-05-03T09:27:55.981Z</time></trkpt><trkpt lat="40.9906506" lon="14.3153661"><ele>19.833333333333336</ele><time>2026-05-03T09:27:56.981Z</time></trkpt><trkpt lat="40.9905926" lon="14.3153026"><ele>20.0</ele><time>2026-05-03T09:27:57.981Z</time></trkpt><trkpt lat="40.9905317" lon="14.3152375"><ele>20.0</ele><time>2026-05-03T09:27:58.982Z</time></trkpt><trkpt lat="40.9904679" lon="14.3151766"><ele>20.0</ele><time>2026-05-03T09:27:59.981Z</time></trkpt><trkpt lat="40.9904038" lon="14.3151157"><ele>20.0</ele><time>2026-05-03T09:28:00.981Z</time></trkpt><trkpt lat="40.9903386" lon="14.3150547"><ele>20.0</ele><time>2026-05-03T09:28:01.981Z</time></trkpt><trkpt lat="40.9902736" lon="14.3149946"><ele>20.0</ele><time>2026-05-03T09:28:02.981Z</time></trkpt><trkpt lat="40.99021" lon="14.3149326"><ele>20.0</ele><time>2026-05-03T09:28:03.981Z</time></trkpt><trkpt lat="40.9901493" lon="14.3148754"><ele>20.0</ele><time>2026-05-03T09:28:04.981Z</time></trkpt><trkpt lat="40.9900854" lon="14.3148188"><ele>20.0</ele><time>2026-05-03T09:28:05.981Z</time></trkpt><trkpt lat="40.9900275" lon="14.314758"><ele>20.0</ele><time>2026-05-03T09:28:06.981Z</time></trkpt><trkpt lat="40.9899711" lon="14.3147006"><ele>20.0</ele><time>2026-05-03T09:28:07.981Z</time></trkpt><trkpt lat="40.9899196" lon="14.3146448"><ele>20.0</ele><time>2026-05-03T09:28:08.982Z</time></trkpt><trkpt lat="40.9898676" lon="14.314592"><ele>20.0</ele><time>2026-05-03T09:28:09.981Z</time></trkpt><trkpt lat="40.9897712" lon="14.3144895"><ele>20.166666666666668</ele><time>2026-05-03T09:28:11.981Z</time></trkpt><trkpt lat="40.9896768" lon="14.3143859"><ele>20.333333333333336</ele><time>2026-05-03T09:28:13.981Z</time></trkpt><trkpt lat="40.9895806" lon="14.3142791"><ele>20.5</ele><time>2026-05-03T09:28:15.981Z</time></trkpt><trkpt lat="40.9895289" lon="14.3142275"><ele>20.666666666666668</ele><time>2026-05-03T09:28:16.981Z</time></trkpt><trkpt lat="40.9894785" lon="14.3141766"><ele>20.833333333333332</ele><time>2026-05-03T09:28:17.982Z</time></trkpt><trkpt lat="40.9894298" lon="14.3141204"><ele>21.0</ele><time>2026-05-03T09:28:18.981Z</time></trkpt><trkpt lat="40.9893808" lon="14.3140677"><ele>21.0</ele><time>2026-05-03T09:28:19.981Z</time></trkpt><trkpt lat="40.9893279" lon="14.3140182"><ele>21.0</ele><time>2026-05-03T09:28:20.981Z</time></trkpt><trkpt lat="40.9892773" lon="14.3139644"><ele>21.0</ele><time>2026-05-03T09:28:21.981Z</time></trkpt><trkpt lat="40.9892239" lon="14.3139091"><ele>21.0</ele><time>2026-05-03T09:28:22.982Z</time></trkpt><trkpt lat="40.9891696" lon="14.3138559"><ele>21.0</ele><time>2026-05-03T09:28:23.981Z</time></trkpt><trkpt lat="40.9891177" lon="14.3138001"><ele>21.0</ele><time>2026-05-03T09:28:24.981Z</time></trkpt><trkpt lat="40.9890636" lon="14.3137449"><ele>21.0</ele><time>2026-05-03T09:28:25.981Z</time></trkpt><trkpt lat="40.9890092" lon="14.3136878"><ele>21.0</ele><time>2026-05-03T09:28:26.982Z</time></trkpt><trkpt lat="40.9889572" lon="14.3136292"><ele>21.0</ele><time>2026-05-03T09:28:27.981Z</time></trkpt><trkpt lat="40.9889002" lon="14.3135739"><ele>21.0</ele><time>2026-05-03T09:28:28.982Z</time></trkpt><trkpt lat="40.9888446" lon="14.3135169"><ele>21.0</ele><time>2026-05-03T09:28:29.981Z</time></trkpt><trkpt lat="40.9887899" lon="14.3134593"><ele>21.0</ele><time>2026-05-03T09:28:30.981Z</time></trkpt><trkpt lat="40.988732" lon="14.3134"><ele>21.0</ele><time>2026-05-03T09:28:31.981Z</time></trkpt><trkpt lat="40.9886727" lon="14.3133422"><ele>21.0</ele><time>2026-05-03T09:28:32.981Z</time></trkpt><trkpt lat="40.9886136" lon="14.3132845"><ele>21.0</ele><time>2026-05-03T09:28:33.981Z</time></trkpt><trkpt lat="40.9885561" lon="14.3132271"><ele>21.0</ele><time>2026-05-03T09:28:34.981Z</time></trkpt><trkpt lat="40.9884974" lon="14.3131688"><ele>21.0</ele><time>2026-05-03T09:28:35.981Z</time></trkpt><trkpt lat="40.9884386" lon="14.3131108"><ele>21.0</ele><time>2026-05-03T09:28:36.981Z</time></trkpt><trkpt lat="40.9883818" lon="14.3130512"><ele>21.0</ele><time>2026-05-03T09:28:37.981Z</time></trkpt><trkpt lat="40.9883271" lon="14.3129929"><ele>21.0</ele><time>2026-05-03T09:28:38.981Z</time></trkpt><trkpt lat="40.9882712" lon="14.3129353"><ele>21.0</ele><time>2026-05-03T09:28:39.982Z</time></trkpt><trkpt lat="40.9882142" lon="14.3128779"><ele>20.714285714285715</ele><time>2026-05-03T09:28:40.981Z</time></trkpt><trkpt lat="40.9881566" lon="14.3128228"><ele>20.42857142857143</ele><time>2026-05-03T09:28:41.982Z</time></trkpt><trkpt lat="40.9881013" lon="14.3127687"><ele>20.142857142857142</ele><time>2026-05-03T09:28:42.981Z</time></trkpt><trkpt lat="40.9880441" lon="14.3127128"><ele>19.857142857142858</ele><time>2026-05-03T09:28:43.981Z</time></trkpt><trkpt lat="40.9879875" lon="14.3126579"><ele>19.571428571428573</ele><time>2026-05-03T09:28:44.982Z</time></trkpt><trkpt lat="40.9879314" lon="14.3126014"><ele>19.285714285714285</ele><time>2026-05-03T09:28:45.981Z</time></trkpt><trkpt lat="40.9878772" lon="14.312547"><ele>19.0</ele><time>2026-05-03T09:28:46.981Z</time></trkpt><trkpt lat="40.9878232" lon="14.312493"><ele>19.0</ele><time>2026-05-03T09:28:47.982Z</time></trkpt><trkpt lat="40.9877681" lon="14.3124367"><ele>19.0</ele><time>2026-05-03T09:28:48.981Z</time></trkpt><trkpt lat="40.9877135" lon="14.3123812"><ele>19.0</ele><time>2026-05-03T09:28:49.981Z</time></trkpt><trkpt lat="40.9876598" lon="14.3123262"><ele>19.0</ele><time>2026-05-03T09:28:50.981Z</time></trkpt><trkpt lat="40.9876059" lon="14.312271"><ele>19.0</ele><time>2026-05-03T09:28:51.981Z</time></trkpt><trkpt lat="40.9875507" lon="14.3122159"><ele>19.0</ele><time>2026-05-03T09:28:52.981Z</time></trkpt><trkpt lat="40.987493" lon="14.3121629"><ele>19.0</ele><time>2026-05-03T09:28:53.981Z</time></trkpt><trkpt lat="40.9874382" lon="14.312108"><ele>19.142857142857142</ele><time>2026-05-03T09:28:54.981Z</time></trkpt><trkpt lat="40.9873824" lon="14.3120532"><ele>19.28571428571429</ele><time>2026-05-03T09:28:55.982Z</time></trkpt><trkpt lat="40.987324" lon="14.3119981"><ele>19.42857142857143</ele><time>2026-05-03T09:28:56.982Z</time></trkpt><trkpt lat="40.9872708" lon="14.3119459"><ele>19.57142857142857</ele><time>2026-05-03T09:28:57.981Z</time></trkpt><trkpt lat="40.9872142" lon="14.3118973"><ele>19.714285714285715</ele><time>2026-05-03T09:28:58.981Z</time></trkpt><trkpt lat="40.9871547" lon="14.3118513"><ele>19.857142857142858</ele><time>2026-05-03T09:28:59.981Z</time></trkpt><trkpt lat="40.9870967" lon="14.3118134"><ele>20.0</ele><time>2026-05-03T09:29:00.981Z</time></trkpt><trkpt lat="40.9870349" lon="14.3117794"><ele>20.0</ele><time>2026-05-03T09:29:01.981Z</time></trkpt><trkpt lat="40.9869753" lon="14.3117503"><ele>20.0</ele><time>2026-05-03T09:29:02.981Z</time></trkpt><trkpt lat="40.9869147" lon="14.3117243"><ele>20.0</ele><time>2026-05-03T09:29:03.981Z</time></trkpt><trkpt lat="40.9867952" lon="14.3116882"><ele>20.0</ele><time>2026-05-03T09:29:05.981Z</time></trkpt><trkpt lat="40.9866698" lon="14.3116584"><ele>20.0</ele><time>2026-05-03T09:29:07.982Z</time></trkpt><trkpt lat="40.9865459" lon="14.311634"><ele>20.0</ele><time>2026-05-03T09:29:09.981Z</time></trkpt><trkpt lat="40.9864826" lon="14.3116238"><ele>20.0</ele><time>2026-05-03T09:29:10.981Z</time></trkpt><trkpt lat="40.9863559" lon="14.3116018"><ele>20.0</ele><time>2026-05-03T09:29:12.982Z</time></trkpt><trkpt lat="40.986292" lon="14.3115933"><ele>20.0</ele><time>2026-05-03T09:29:13.982Z</time></trkpt><trkpt lat="40.9862287" lon="14.3115817"><ele>20.0</ele><time>2026-05-03T09:29:14.981Z</time></trkpt><trkpt lat="40.9861645" lon="14.3115701"><ele>20.0</ele><time>2026-05-03T09:29:15.981Z</time></trkpt><trkpt lat="40.9860995" lon="14.3115572"><ele>20.0</ele><time>2026-05-03T09:29:16.982Z</time></trkpt><trkpt lat="40.9860329" lon="14.3115465"><ele>20.0</ele><time>2026-05-03T09:29:17.981Z</time></trkpt><trkpt lat="40.9859661" lon="14.3115385"><ele>20.0</ele><time>2026-05-03T09:29:18.981Z</time></trkpt><trkpt lat="40.9859011" lon="14.3115262"><ele>20.0</ele><time>2026-05-03T09:29:19.982Z</time></trkpt><trkpt lat="40.985835" lon="14.3115159"><ele>20.0</ele><time>2026-05-03T09:29:20.981Z</time></trkpt><trkpt lat="40.985768" lon="14.3115049"><ele>20.0</ele><time>2026-05-03T09:29:21.981Z</time></trkpt><trkpt lat="40.9857033" lon="14.3114954"><ele>20.0</ele><time>2026-05-03T09:29:22.981Z</time></trkpt><trkpt lat="40.9856391" lon="14.311485"><ele>20.0</ele><time>2026-05-03T09:29:23.981Z</time></trkpt><trkpt lat="40.9855745" lon="14.3114744"><ele>20.0</ele><time>2026-05-03T09:29:24.981Z</time></trkpt><trkpt lat="40.9854505" lon="14.3114542"><ele>20.0</ele><time>2026-05-03T09:29:26.982Z</time></trkpt><trkpt lat="40.9853253" lon="14.3114515"><ele>20.0</ele><time>2026-05-03T09:29:28.981Z</time></trkpt><trkpt lat="40.9852594" lon="14.311457"><ele>20.0</ele><time>2026-05-03T09:29:29.981Z</time></trkpt><trkpt lat="40.9851361" lon="14.3114809"><ele>20.0</ele><time>2026-05-03T09:29:31.982Z</time></trkpt><trkpt lat="40.9850733" lon="14.3114986"><ele>20.0</ele><time>2026-05-03T09:29:32.981Z</time></trkpt><trkpt lat="40.985008" lon="14.3115255"><ele>20.0</ele><time>2026-05-03T09:29:33.982Z</time></trkpt><trkpt lat="40.9848893" lon="14.3115794"><ele>20.0</ele><time>2026-05-03T09:29:35.982Z</time></trkpt><trkpt lat="40.9848279" lon="14.3116059"><ele>20.0</ele><time>2026-05-03T09:29:36.981Z</time></trkpt><trkpt lat="40.9847081" lon="14.3116587"><ele>20.0</ele><time>2026-05-03T09:29:38.981Z</time></trkpt><trkpt lat="40.9846476" lon="14.3116884"><ele>20.2</ele><time>2026-05-03T09:29:39.981Z</time></trkpt><trkpt lat="40.984588" lon="14.3117184"><ele>20.4</ele><time>2026-05-03T09:29:40.981Z</time></trkpt><trkpt lat="40.9845287" lon="14.3117465"><ele>20.6</ele><time>2026-05-03T09:29:41.982Z</time></trkpt><trkpt lat="40.9844126" lon="14.3118059"><ele>20.8</ele><time>2026-05-03T09:29:43.981Z</time></trkpt><trkpt lat="40.9842958" lon="14.3118652"><ele>21.0</ele><time>2026-05-03T09:29:45.982Z</time></trkpt><trkpt lat="40.9841817" lon="14.3119172"><ele>20.8</ele><time>2026-05-03T09:29:47.981Z</time></trkpt><trkpt lat="40.9841217" lon="14.3119453"><ele>20.6</ele><time>2026-05-03T09:29:48.982Z</time></trkpt><trkpt lat="40.9840091" lon="14.3120038"><ele>20.4</ele><time>2026-05-03T09:29:50.981Z</time></trkpt><trkpt lat="40.983895" lon="14.3120661"><ele>20.2</ele><time>2026-05-03T09:29:52.981Z</time></trkpt><trkpt lat="40.9837825" lon="14.3121225"><ele>20.0</ele><time>2026-05-03T09:29:54.981Z</time></trkpt><trkpt lat="40.9836648" lon="14.3121848"><ele>20.0</ele><time>2026-05-03T09:29:56.981Z</time></trkpt><trkpt lat="40.9836055" lon="14.3122168"><ele>20.0</ele><time>2026-05-03T09:29:57.982Z</time></trkpt><trkpt lat="40.9835407" lon="14.312246"><ele>20.0</ele><time>2026-05-03T09:29:58.981Z</time></trkpt><trkpt lat="40.9834772" lon="14.3122771"><ele>20.0</ele><time>2026-05-03T09:29:59.982Z</time></trkpt><trkpt lat="40.9834124" lon="14.3123055"><ele>20.0</ele><time>2026-05-03T09:30:00.982Z</time></trkpt><trkpt lat="40.9833479" lon="14.3123309"><ele>20.0</ele><time>2026-05-03T09:30:01.981Z</time></trkpt><trkpt lat="40.9832816" lon="14.3123583"><ele>20.0</ele><time>2026-05-03T09:30:02.981Z</time></trkpt><trkpt lat="40.9832168" lon="14.3123766"><ele>20.0</ele><time>2026-05-03T09:30:03.981Z</time></trkpt><trkpt lat="40.9831496" lon="14.3123911"><ele>20.0</ele><time>2026-05-03T09:30:04.981Z</time></trkpt><trkpt lat="40.9830843" lon="14.3124012"><ele>20.0</ele><time>2026-05-03T09:30:05.981Z</time></trkpt><trkpt lat="40.9830182" lon="14.3124061"><ele>20.0</ele><time>2026-05-03T09:30:06.982Z</time></trkpt><trkpt lat="40.9829527" lon="14.3124093"><ele>20.0</ele><time>2026-05-03T09:30:07.982Z</time></trkpt><trkpt lat="40.9828878" lon="14.3124139"><ele>20.0</ele><time>2026-05-03T09:30:08.982Z</time></trkpt><trkpt lat="40.9828244" lon="14.3124143"><ele>20.0</ele><time>2026-05-03T09:30:09.982Z</time></trkpt><trkpt lat="40.9827598" lon="14.3124167"><ele>20.0</ele><time>2026-05-03T09:30:10.982Z</time></trkpt><trkpt lat="40.9826958" lon="14.3124174"><ele>20.0</ele><time>2026-05-03T09:30:11.982Z</time></trkpt><trkpt lat="40.9826317" lon="14.3124165"><ele>20.0</ele><time>2026-05-03T09:30:12.982Z</time></trkpt><trkpt lat="40.9825068" lon="14.3124158"><ele>20.0</ele><time>2026-05-03T09:30:14.982Z</time></trkpt><trkpt lat="40.9823877" lon="14.3124148"><ele>20.0</ele><time>2026-05-03T09:30:16.981Z</time></trkpt><trkpt lat="40.9822688" lon="14.3124215"><ele>20.0</ele><time>2026-05-03T09:30:18.981Z</time></trkpt><trkpt lat="40.9821487" lon="14.3124215"><ele>20.0</ele><time>2026-05-03T09:30:20.981Z</time></trkpt><trkpt lat="40.9820321" lon="14.3124206"><ele>20.0</ele><time>2026-05-03T09:30:22.981Z</time></trkpt><trkpt lat="40.9819114" lon="14.3124265"><ele>20.0</ele><time>2026-05-03T09:30:24.981Z</time></trkpt><trkpt lat="40.9817916" lon="14.3124227"><ele>20.2</ele><time>2026-05-03T09:30:26.981Z</time></trkpt><trkpt lat="40.9816746" lon="14.3124139"><ele>20.4</ele><time>2026-05-03T09:30:28.981Z</time></trkpt><trkpt lat="40.9815549" lon="14.3123984"><ele>20.6</ele><time>2026-05-03T09:30:30.981Z</time></trkpt><trkpt lat="40.9814344" lon="14.3123657"><ele>20.8</ele><time>2026-05-03T09:30:32.981Z</time></trkpt><trkpt lat="40.9813734" lon="14.3123429"><ele>21.0</ele><time>2026-05-03T09:30:33.981Z</time></trkpt><trkpt lat="40.9812547" lon="14.3122947"><ele>21.0</ele><time>2026-05-03T09:30:35.982Z</time></trkpt><trkpt lat="40.9811938" lon="14.3122656"><ele>21.0</ele><time>2026-05-03T09:30:36.981Z</time></trkpt><trkpt lat="40.9811352" lon="14.3122336"><ele>21.0</ele><time>2026-05-03T09:30:37.981Z</time></trkpt><trkpt lat="40.9810739" lon="14.3122027"><ele>21.0</ele><time>2026-05-03T09:30:38.981Z</time></trkpt><trkpt lat="40.9810107" lon="14.3121705"><ele>21.0</ele><time>2026-05-03T09:30:39.981Z</time></trkpt><trkpt lat="40.9809481" lon="14.312133"><ele>21.0</ele><time>2026-05-03T09:30:40.982Z</time></trkpt><trkpt lat="40.9808853" lon="14.3120981"><ele>21.0</ele><time>2026-05-03T09:30:41.982Z</time></trkpt><trkpt lat="40.9808239" lon="14.3120608"><ele>21.285714285714285</ele><time>2026-05-03T09:30:42.981Z</time></trkpt><trkpt lat="40.9807635" lon="14.3120261"><ele>21.57142857142857</ele><time>2026-05-03T09:30:43.981Z</time></trkpt><trkpt lat="40.9807012" lon="14.311989"><ele>21.857142857142858</ele><time>2026-05-03T09:30:44.982Z</time></trkpt><trkpt lat="40.9806417" lon="14.3119524"><ele>22.142857142857142</ele><time>2026-05-03T09:30:45.981Z</time></trkpt><trkpt lat="40.9805837" lon="14.3119184"><ele>22.428571428571427</ele><time>2026-05-03T09:30:46.981Z</time></trkpt><trkpt lat="40.9805269" lon="14.3118809"><ele>22.714285714285715</ele><time>2026-05-03T09:30:47.981Z</time></trkpt><trkpt lat="40.9804681" lon="14.3118415"><ele>23.0</ele><time>2026-05-03T09:30:48.981Z</time></trkpt><trkpt lat="40.9803566" lon="14.3117677"><ele>23.0</ele><time>2026-05-03T09:30:50.982Z</time></trkpt><trkpt lat="40.9802998" lon="14.3117295"><ele>23.0</ele><time>2026-05-03T09:30:51.982Z</time></trkpt><trkpt lat="40.9802429" lon="14.3116909"><ele>23.0</ele><time>2026-05-03T09:30:52.982Z</time></trkpt><trkpt lat="40.9801345" lon="14.3116188"><ele>23.0</ele><time>2026-05-03T09:30:54.981Z</time></trkpt><trkpt lat="40.9800278" lon="14.3115359"><ele>23.0</ele><time>2026-05-03T09:30:56.982Z</time></trkpt><trkpt lat="40.9799714" lon="14.3114941"><ele>23.0</ele><time>2026-05-03T09:30:57.982Z</time></trkpt><trkpt lat="40.9798666" lon="14.3114131"><ele>22.5</ele><time>2026-05-03T09:30:59.981Z</time></trkpt><trkpt lat="40.979764" lon="14.3113269"><ele>22.0</ele><time>2026-05-03T09:31:01.981Z</time></trkpt><trkpt lat="40.9796597" lon="14.3112473"><ele>21.5</ele><time>2026-05-03T09:31:03.981Z</time></trkpt><trkpt lat="40.9795625" lon="14.3111616"><ele>21.0</ele><time>2026-05-03T09:31:05.981Z</time></trkpt><trkpt lat="40.9794631" lon="14.3110772"><ele>21.0</ele><time>2026-05-03T09:31:07.982Z</time></trkpt><trkpt lat="40.9793643" lon="14.3109875"><ele>21.0</ele><time>2026-05-03T09:31:09.981Z</time></trkpt><trkpt lat="40.9792663" lon="14.3109027"><ele>21.0</ele><time>2026-05-03T09:31:11.981Z</time></trkpt><trkpt lat="40.9791708" lon="14.3108127"><ele>21.0</ele><time>2026-05-03T09:31:13.982Z</time></trkpt><trkpt lat="40.9791155" lon="14.3107656"><ele>21.0</ele><time>2026-05-03T09:31:14.981Z</time></trkpt><trkpt lat="40.9790136" lon="14.310674"><ele>21.0</ele><time>2026-05-03T09:31:16.982Z</time></trkpt><trkpt lat="40.9789142" lon="14.3105774"><ele>21.0</ele><time>2026-05-03T09:31:18.981Z</time></trkpt><trkpt lat="40.9788146" lon="14.3104782"><ele>21.0</ele><time>2026-05-03T09:31:20.981Z</time></trkpt><trkpt lat="40.978713" lon="14.3103813"><ele>21.0</ele><time>2026-05-03T09:31:22.981Z</time></trkpt><trkpt lat="40.9786127" lon="14.3102844"><ele>20.8</ele><time>2026-05-03T09:31:24.981Z</time></trkpt><trkpt lat="40.9785134" lon="14.3101838"><ele>20.6</ele><time>2026-05-03T09:31:26.982Z</time></trkpt><trkpt lat="40.9784628" lon="14.3101341"><ele>20.4</ele><time>2026-05-03T09:31:27.982Z</time></trkpt><trkpt lat="40.9784101" lon="14.3100833"><ele>20.2</ele><time>2026-05-03T09:31:28.981Z</time></trkpt><trkpt lat="40.9783146" lon="14.3099825"><ele>20.0</ele><time>2026-05-03T09:31:30.981Z</time></trkpt><trkpt lat="40.9782195" lon="14.3098829"><ele>20.0</ele><time>2026-05-03T09:31:32.981Z</time></trkpt><trkpt lat="40.9781325" lon="14.3097765"><ele>20.0</ele><time>2026-05-03T09:31:34.981Z</time></trkpt><trkpt lat="40.9780412" lon="14.3096711"><ele>20.0</ele><time>2026-05-03T09:31:36.981Z</time></trkpt><trkpt lat="40.9779554" lon="14.3095658"><ele>20.0</ele><time>2026-05-03T09:31:38.981Z</time></trkpt><trkpt lat="40.9778691" lon="14.3094587"><ele>20.0</ele><time>2026-05-03T09:31:40.982Z</time></trkpt><trkpt lat="40.9777834" lon="14.3093447"><ele>20.0</ele><time>2026-05-03T09:31:42.981Z</time></trkpt><trkpt lat="40.977702" lon="14.3092344"><ele>20.0</ele><time>2026-05-03T09:31:44.982Z</time></trkpt><trkpt lat="40.9776107" lon="14.3091301"><ele>20.0</ele><time>2026-05-03T09:31:46.982Z</time></trkpt><trkpt lat="40.9775156" lon="14.3090438"><ele>20.0</ele><time>2026-05-03T09:31:48.982Z</time></trkpt><trkpt lat="40.9774115" lon="14.3089741"><ele>20.0</ele><time>2026-05-03T09:31:50.981Z</time></trkpt><trkpt lat="40.9772953" lon="14.3089383"><ele>20.0</ele><time>2026-05-03T09:31:52.982Z</time></trkpt><trkpt lat="40.9771764" lon="14.3089305"><ele>20.0</ele><time>2026-05-03T09:31:54.982Z</time></trkpt><trkpt lat="40.9770615" lon="14.3089438"><ele>20.0</ele><time>2026-05-03T09:31:56.981Z</time></trkpt><trkpt lat="40.976952" lon="14.30898"><ele>20.0</ele><time>2026-05-03T09:31:58.981Z</time></trkpt><trkpt lat="40.9768439" lon="14.3090312"><ele>20.0</ele><time>2026-05-03T09:32:00.981Z</time></trkpt><trkpt lat="40.9767354" lon="14.309084"><ele>20.0</ele><time>2026-05-03T09:32:02.982Z</time></trkpt><trkpt lat="40.9766256" lon="14.3091441"><ele>20.5</ele><time>2026-05-03T09:32:04.981Z</time></trkpt><trkpt lat="40.9765137" lon="14.3092068"><ele>21.0</ele><time>2026-05-03T09:32:06.982Z</time></trkpt><trkpt lat="40.9763999" lon="14.3092723"><ele>21.5</ele><time>2026-05-03T09:32:08.981Z</time></trkpt><trkpt lat="40.9762869" lon="14.3093314"><ele>22.0</ele><time>2026-05-03T09:32:10.981Z</time></trkpt><trkpt lat="40.9761751" lon="14.3094011"><ele>22.0</ele><time>2026-05-03T09:32:12.981Z</time></trkpt><trkpt lat="40.9760617" lon="14.309461"><ele>22.0</ele><time>2026-05-03T09:32:14.982Z</time></trkpt><trkpt lat="40.9759472" lon="14.3095234"><ele>22.0</ele><time>2026-05-03T09:32:16.982Z</time></trkpt><trkpt lat="40.9758313" lon="14.3095828"><ele>22.0</ele><time>2026-05-03T09:32:18.981Z</time></trkpt><trkpt lat="40.9757719" lon="14.3096112"><ele>22.0</ele><time>2026-05-03T09:32:19.981Z</time></trkpt><trkpt lat="40.9756549" lon="14.3096678"><ele>22.0</ele><time>2026-05-03T09:32:21.982Z</time></trkpt><trkpt lat="40.9755937" lon="14.3096905"><ele>22.0</ele><time>2026-05-03T09:32:22.981Z</time></trkpt><trkpt lat="40.9754683" lon="14.309718"><ele>22.0</ele><time>2026-05-03T09:32:24.981Z</time></trkpt><trkpt lat="40.9754048" lon="14.3097296"><ele>22.0</ele><time>2026-05-03T09:32:25.981Z</time></trkpt><trkpt lat="40.9753409" lon="14.3097412"><ele>22.0</ele><time>2026-05-03T09:32:26.981Z</time></trkpt><trkpt lat="40.975276" lon="14.3097483"><ele>22.0</ele><time>2026-05-03T09:32:27.981Z</time></trkpt><trkpt lat="40.9752122" lon="14.3097508"><ele>22.0</ele><time>2026-05-03T09:32:28.981Z</time></trkpt><trkpt lat="40.9750875" lon="14.3097539"><ele>22.0</ele><time>2026-05-03T09:32:30.981Z</time></trkpt><trkpt lat="40.9749624" lon="14.3097596"><ele>22.0</ele><time>2026-05-03T09:32:32.981Z</time></trkpt><trkpt lat="40.9748372" lon="14.3097633"><ele>22.0</ele><time>2026-05-03T09:32:34.981Z</time></trkpt><trkpt lat="40.9747739" lon="14.3097638"><ele>22.0</ele><time>2026-05-03T09:32:35.981Z</time></trkpt><trkpt lat="40.9747107" lon="14.3097642"><ele>22.0</ele><time>2026-05-03T09:32:36.982Z</time></trkpt><trkpt lat="40.974645" lon="14.3097631"><ele>22.0</ele><time>2026-05-03T09:32:37.981Z</time></trkpt><trkpt lat="40.9745206" lon="14.3097746"><ele>22.0</ele><time>2026-05-03T09:32:39.981Z</time></trkpt><trkpt lat="40.9744569" lon="14.3097753"><ele>22.0</ele><time>2026-05-03T09:32:40.982Z</time></trkpt><trkpt lat="40.974393" lon="14.3097746"><ele>22.0</ele><time>2026-05-03T09:32:41.982Z</time></trkpt><trkpt lat="40.9743297" lon="14.309778"><ele>22.0</ele><time>2026-05-03T09:32:42.981Z</time></trkpt><trkpt lat="40.9742035" lon="14.3097796"><ele>22.0</ele><time>2026-05-03T09:32:44.981Z</time></trkpt><trkpt lat="40.9740807" lon="14.3097833"><ele>22.0</ele><time>2026-05-03T09:32:46.981Z</time></trkpt><trkpt lat="40.9739595" lon="14.3097873"><ele>22.0</ele><time>2026-05-03T09:32:48.981Z</time></trkpt><trkpt lat="40.9738363" lon="14.3097796"><ele>22.0</ele><time>2026-05-03T09:32:50.981Z</time></trkpt><trkpt lat="40.9737725" lon="14.3097773"><ele>22.0</ele><time>2026-05-03T09:32:51.982Z</time></trkpt><trkpt lat="40.9736461" lon="14.3097585"><ele>22.0</ele><time>2026-05-03T09:32:53.982Z</time></trkpt><trkpt lat="40.9735838" lon="14.3097457"><ele>22.0</ele><time>2026-05-03T09:32:54.981Z</time></trkpt><trkpt lat="40.973461" lon="14.3097147"><ele>22.0</ele><time>2026-05-03T09:32:56.981Z</time></trkpt><trkpt lat="40.9733987" lon="14.3096969"><ele>22.0</ele><time>2026-05-03T09:32:57.982Z</time></trkpt><trkpt lat="40.9732794" lon="14.3096569"><ele>22.0</ele><time>2026-05-03T09:32:59.981Z</time></trkpt><trkpt lat="40.9731616" lon="14.3096125"><ele>22.0</ele><time>2026-05-03T09:33:01.981Z</time></trkpt><trkpt lat="40.9730456" lon="14.309563"><ele>22.0</ele><time>2026-05-03T09:33:03.981Z</time></trkpt><trkpt lat="40.9729287" lon="14.3095151"><ele>22.0</ele><time>2026-05-03T09:33:05.981Z</time></trkpt><trkpt lat="40.9728678" lon="14.3094914"><ele>22.0</ele><time>2026-05-03T09:33:06.981Z</time></trkpt><trkpt lat="40.972806" lon="14.3094703"><ele>22.0</ele><time>2026-05-03T09:33:07.981Z</time></trkpt><trkpt lat="40.9726911" lon="14.3094232"><ele>22.0</ele><time>2026-05-03T09:33:09.981Z</time></trkpt><trkpt lat="40.9725739" lon="14.3093786"><ele>22.0</ele><time>2026-05-03T09:33:11.981Z</time></trkpt><trkpt lat="40.9724558" lon="14.3093329"><ele>22.25</ele><time>2026-05-03T09:33:13.981Z</time></trkpt><trkpt lat="40.9723374" lon="14.3092887"><ele>22.5</ele><time>2026-05-03T09:33:15.981Z</time></trkpt><trkpt lat="40.9722231" lon="14.3092482"><ele>22.75</ele><time>2026-05-03T09:33:17.981Z</time></trkpt><trkpt lat="40.9721072" lon="14.3092092"><ele>23.0</ele><time>2026-05-03T09:33:19.981Z</time></trkpt><trkpt lat="40.9719893" lon="14.3091621"><ele>23.0</ele><time>2026-05-03T09:33:21.981Z</time></trkpt><trkpt lat="40.9718736" lon="14.3091047"><ele>23.0</ele><time>2026-05-03T09:33:23.982Z</time></trkpt><trkpt lat="40.97176" lon="14.3090403"><ele>23.0</ele><time>2026-05-03T09:33:25.981Z</time></trkpt><trkpt lat="40.9717032" lon="14.3090009"><ele>23.0</ele><time>2026-05-03T09:33:26.981Z</time></trkpt><trkpt lat="40.9716465" lon="14.3089627"><ele>23.0</ele><time>2026-05-03T09:33:27.981Z</time></trkpt><trkpt lat="40.9715332" lon="14.3088891"><ele>23.2</ele><time>2026-05-03T09:33:29.982Z</time></trkpt><trkpt lat="40.9714191" lon="14.3088145"><ele>23.4</ele><time>2026-05-03T09:33:31.981Z</time></trkpt><trkpt lat="40.9713626" lon="14.3087764"><ele>23.599999999999998</ele><time>2026-05-03T09:33:32.982Z</time></trkpt><trkpt lat="40.9713066" lon="14.3087369"><ele>23.799999999999997</ele><time>2026-05-03T09:33:33.981Z</time></trkpt><trkpt lat="40.9711936" lon="14.3086686"><ele>24.0</ele><time>2026-05-03T09:33:35.982Z</time></trkpt><trkpt lat="40.9710868" lon="14.308602"><ele>24.0</ele><time>2026-05-03T09:33:37.981Z</time></trkpt><trkpt lat="40.9709831" lon="14.3085445"><ele>24.0</ele><time>2026-05-03T09:33:39.981Z</time></trkpt><trkpt lat="40.9708881" lon="14.3084935"><ele>24.0</ele><time>2026-05-03T09:33:41.981Z</time></trkpt><trkpt lat="40.9707856" lon="14.3084413"><ele>24.0</ele><time>2026-05-03T09:33:43.981Z</time></trkpt><trkpt lat="40.9706738" lon="14.3083916"><ele>24.0</ele><time>2026-05-03T09:33:45.981Z</time></trkpt><trkpt lat="40.9705533" lon="14.308349"><ele>23.857142857142854</ele><time>2026-05-03T09:33:47.981Z</time></trkpt><trkpt lat="40.9704904" lon="14.3083277"><ele>23.714285714285715</ele><time>2026-05-03T09:33:48.981Z</time></trkpt><trkpt lat="40.9704287" lon="14.3083092"><ele>23.57142857142857</ele><time>2026-05-03T09:33:49.982Z</time></trkpt><trkpt lat="40.970364" lon="14.3082978"><ele>23.428571428571427</ele><time>2026-05-03T09:33:50.981Z</time></trkpt><trkpt lat="40.9702998" lon="14.3082834"><ele>23.285714285714285</ele><time>2026-05-03T09:33:51.981Z</time></trkpt><trkpt lat="40.970235" lon="14.3082734"><ele>23.142857142857142</ele><time>2026-05-03T09:33:52.981Z</time></trkpt><trkpt lat="40.9701701" lon="14.308267"><ele>23.0</ele><time>2026-05-03T09:33:53.981Z</time></trkpt><trkpt lat="40.9701051" lon="14.3082582"><ele>23.0</ele><time>2026-05-03T09:33:54.981Z</time></trkpt><trkpt lat="40.9700411" lon="14.308252"><ele>23.0</ele><time>2026-05-03T09:33:55.981Z</time></trkpt><trkpt lat="40.9699747" lon="14.3082467"><ele>23.0</ele><time>2026-05-03T09:33:56.981Z</time></trkpt><trkpt lat="40.9699098" lon="14.308242"><ele>23.0</ele><time>2026-05-03T09:33:57.981Z</time></trkpt><trkpt lat="40.9698447" lon="14.3082327"><ele>23.0</ele><time>2026-05-03T09:33:58.981Z</time></trkpt><trkpt lat="40.9697799" lon="14.308223"><ele>23.0</ele><time>2026-05-03T09:33:59.981Z</time></trkpt><trkpt lat="40.9697162" lon="14.3082197"><ele>23.0</ele><time>2026-05-03T09:34:00.981Z</time></trkpt><trkpt lat="40.9696532" lon="14.3082137"><ele>23.2</ele><time>2026-05-03T09:34:01.981Z</time></trkpt><trkpt lat="40.9695262" lon="14.3082058"><ele>23.4</ele><time>2026-05-03T09:34:03.982Z</time></trkpt><trkpt lat="40.9694631" lon="14.3082087"><ele>23.599999999999998</ele><time>2026-05-03T09:34:04.981Z</time></trkpt><trkpt lat="40.9693407" lon="14.3081929"><ele>23.799999999999997</ele><time>2026-05-03T09:34:06.981Z</time></trkpt><trkpt lat="40.9692207" lon="14.3081853"><ele>24.0</ele><time>2026-05-03T09:34:08.982Z</time></trkpt><trkpt lat="40.9691042" lon="14.3081703"><ele>24.2</ele><time>2026-05-03T09:34:10.981Z</time></trkpt><trkpt lat="40.9689832" lon="14.3081574"><ele>24.4</ele><time>2026-05-03T09:34:12.981Z</time></trkpt><trkpt lat="40.968857" lon="14.3081427"><ele>24.6</ele><time>2026-05-03T09:34:14.981Z</time></trkpt><trkpt lat="40.9687322" lon="14.308119"><ele>24.8</ele><time>2026-05-03T09:34:16.981Z</time></trkpt><trkpt lat="40.9686685" lon="14.3081033"><ele>25.0</ele><time>2026-05-03T09:34:17.981Z</time></trkpt><trkpt lat="40.9685443" lon="14.3080712"><ele>25.000000000000004</ele><time>2026-05-03T09:34:19.981Z</time></trkpt><trkpt lat="40.9684815" lon="14.3080487"><ele>25.0</ele><time>2026-05-03T09:34:20.981Z</time></trkpt><trkpt lat="40.9684201" lon="14.3080254"><ele>25.0</ele><time>2026-05-03T09:34:21.981Z</time></trkpt><trkpt lat="40.9683592" lon="14.3080028"><ele>25.0</ele><time>2026-05-03T09:34:22.981Z</time></trkpt><trkpt lat="40.9682962" lon="14.3079797"><ele>25.0</ele><time>2026-05-03T09:34:23.981Z</time></trkpt><trkpt lat="40.9682354" lon="14.3079521"><ele>25.000000000000004</ele><time>2026-05-03T09:34:24.981Z</time></trkpt><trkpt lat="40.9681738" lon="14.3079279"><ele>25.0</ele><time>2026-05-03T09:34:25.981Z</time></trkpt><trkpt lat="40.9681102" lon="14.3079165"><ele>25.2</ele><time>2026-05-03T09:34:26.981Z</time></trkpt><trkpt lat="40.9679936" lon="14.3078912"><ele>25.4</ele><time>2026-05-03T09:34:28.981Z</time></trkpt><trkpt lat="40.9678935" lon="14.307827"><ele>25.6</ele><time>2026-05-03T09:34:30.981Z</time></trkpt><trkpt lat="40.9677922" lon="14.3077695"><ele>25.8</ele><time>2026-05-03T09:34:32.981Z</time></trkpt><trkpt lat="40.9677195" lon="14.3077148"><ele>26.0</ele><time>2026-05-03T09:34:34.982Z</time></trkpt><trkpt lat="40.9676626" lon="14.3076396"><ele>25.999999999999996</ele><time>2026-05-03T09:34:37.981Z</time></trkpt><trkpt lat="40.9676906" lon="14.3075292"><ele>26.0</ele><time>2026-05-03T09:34:40.981Z</time></trkpt><trkpt lat="40.9677014" lon="14.3074443"><ele>26.0</ele><time>2026-05-03T09:34:42.981Z</time></trkpt><trkpt lat="40.9676411" lon="14.3073963"><ele>26.0</ele><time>2026-05-03T09:34:45.981Z</time></trkpt><trkpt lat="40.9675726" lon="14.3074909"><ele>25.999999999999996</ele><time>2026-05-03T09:34:47.981Z</time></trkpt><trkpt lat="40.9674808" lon="14.3075468"><ele>26.0</ele><time>2026-05-03T09:34:49.981Z</time></trkpt><trkpt lat="40.967369" lon="14.3075545"><ele>25.5</ele><time>2026-05-03T09:34:51.982Z</time></trkpt><trkpt lat="40.9672559" lon="14.3075119"><ele>25.0</ele><time>2026-05-03T09:34:53.981Z</time></trkpt><trkpt lat="40.96714" lon="14.3074526"><ele>24.5</ele><time>2026-05-03T09:34:55.981Z</time></trkpt><trkpt lat="40.9670288" lon="14.3073987"><ele>24.0</ele><time>2026-05-03T09:34:57.981Z</time></trkpt><trkpt lat="40.9669203" lon="14.3073466"><ele>24.0</ele><time>2026-05-03T09:34:59.981Z</time></trkpt><trkpt lat="40.9668129" lon="14.3072968"><ele>24.0</ele><time>2026-05-03T09:35:01.981Z</time></trkpt><trkpt lat="40.9667174" lon="14.3072449"><ele>24.0</ele><time>2026-05-03T09:35:03.981Z</time></trkpt><trkpt lat="40.9666335" lon="14.3071976"><ele>24.0</ele><time>2026-05-03T09:35:05.981Z</time></trkpt><trkpt lat="40.9665629" lon="14.3071693"><ele>24.0</ele><time>2026-05-03T09:35:07.981Z</time></trkpt><trkpt lat="40.9665006" lon="14.3071395"><ele>24.0</ele><time>2026-05-03T09:35:09.981Z</time></trkpt><trkpt lat="40.9664347" lon="14.3071029"><ele>24.166666666666668</ele><time>2026-05-03T09:35:11.981Z</time></trkpt><trkpt lat="40.966367" lon="14.3070661"><ele>24.333333333333336</ele><time>2026-05-03T09:35:13.981Z</time></trkpt><trkpt lat="40.9663037" lon="14.3070306"><ele>24.5</ele><time>2026-05-03T09:35:15.981Z</time></trkpt><trkpt lat="40.9662371" lon="14.3069914"><ele>24.666666666666668</ele><time>2026-05-03T09:35:17.982Z</time></trkpt><trkpt lat="40.9661663" lon="14.3069435"><ele>24.833333333333336</ele><time>2026-05-03T09:35:19.981Z</time></trkpt><trkpt lat="40.9660857" lon="14.3069043"><ele>25.0</ele><time>2026-05-03T09:35:21.981Z</time></trkpt><trkpt lat="40.9660019" lon="14.3068741"><ele>25.0</ele><time>2026-05-03T09:35:23.982Z</time></trkpt><trkpt lat="40.9659127" lon="14.3068536"><ele>25.0</ele><time>2026-05-03T09:35:25.982Z</time></trkpt><trkpt lat="40.9658208" lon="14.3068375"><ele>25.0</ele><time>2026-05-03T09:35:27.981Z</time></trkpt><trkpt lat="40.9657225" lon="14.3068338"><ele>25.0</ele><time>2026-05-03T09:35:29.981Z</time></trkpt><trkpt lat="40.9656287" lon="14.3068327"><ele>25.0</ele><time>2026-05-03T09:35:31.981Z</time></trkpt><trkpt lat="40.9655329" lon="14.306845"><ele>25.0</ele><time>2026-05-03T09:35:33.981Z</time></trkpt><trkpt lat="40.9654333" lon="14.3068714"><ele>25.0</ele><time>2026-05-03T09:35:35.981Z</time></trkpt><trkpt lat="40.9653341" lon="14.3068971"><ele>25.0</ele><time>2026-05-03T09:35:37.981Z</time></trkpt><trkpt lat="40.965236" lon="14.306913"><ele>25.0</ele><time>2026-05-03T09:35:39.981Z</time></trkpt><trkpt lat="40.9651415" lon="14.3069401"><ele>25.0</ele><time>2026-05-03T09:35:41.982Z</time></trkpt><trkpt lat="40.9650391" lon="14.3069596"><ele>25.0</ele><time>2026-05-03T09:35:43.981Z</time></trkpt><trkpt lat="40.9649359" lon="14.306988"><ele>25.0</ele><time>2026-05-03T09:35:45.981Z</time></trkpt><trkpt lat="40.9648281" lon="14.3070122"><ele>25.0</ele><time>2026-05-03T09:35:47.982Z</time></trkpt><trkpt lat="40.9647236" lon="14.3070273"><ele>25.0</ele><time>2026-05-03T09:35:49.981Z</time></trkpt><trkpt lat="40.9646133" lon="14.3070469"><ele>25.0</ele><time>2026-05-03T09:35:51.981Z</time></trkpt><trkpt lat="40.9645021" lon="14.3070556"><ele>25.0</ele><time>2026-05-03T09:35:53.981Z</time></trkpt><trkpt lat="40.9643913" lon="14.3070705"><ele>25.0</ele><time>2026-05-03T09:35:55.981Z</time></trkpt><trkpt lat="40.9642794" lon="14.3070783"><ele>25.0</ele><time>2026-05-03T09:35:57.981Z</time></trkpt><trkpt lat="40.9641732" lon="14.307088"><ele>25.0</ele><time>2026-05-03T09:35:59.981Z</time></trkpt><trkpt lat="40.9640642" lon="14.3071078"><ele>25.0</ele><time>2026-05-03T09:36:01.982Z</time></trkpt><trkpt lat="40.9639612" lon="14.307117"><ele>24.666666666666668</ele><time>2026-05-03T09:36:03.981Z</time></trkpt><trkpt lat="40.9638635" lon="14.3071275"><ele>24.333333333333336</ele><time>2026-05-03T09:36:05.982Z</time></trkpt><trkpt lat="40.9637729" lon="14.3071403"><ele>24.0</ele><time>2026-05-03T09:36:07.981Z</time></trkpt><trkpt lat="40.9637041" lon="14.3071426"><ele>23.666666666666668</ele><time>2026-05-03T09:36:09.981Z</time></trkpt><trkpt lat="40.9636312" lon="14.3071373"><ele>23.333333333333336</ele><time>2026-05-03T09:36:13.981Z</time></trkpt><trkpt lat="40.9635648" lon="14.3071447"><ele>23.0</ele><time>2026-05-03T09:36:15.981Z</time></trkpt><trkpt lat="40.9634706" lon="14.3071587"><ele>23.0</ele><time>2026-05-03T09:36:17.981Z</time></trkpt><trkpt lat="40.9633647" lon="14.3071803"><ele>23.0</ele><time>2026-05-03T09:36:19.982Z</time></trkpt><trkpt lat="40.9632663" lon="14.3071996"><ele>23.0</ele><time>2026-05-03T09:36:21.981Z</time></trkpt><trkpt lat="40.9631633" lon="14.3072166"><ele>23.0</ele><time>2026-05-03T09:36:23.981Z</time></trkpt><trkpt lat="40.9630703" lon="14.3072296"><ele>23.0</ele><time>2026-05-03T09:36:25.981Z</time></trkpt><trkpt lat="40.9629861" lon="14.307237"><ele>23.599999999999998</ele><time>2026-05-03T09:36:27.981Z</time></trkpt><trkpt lat="40.9628998" lon="14.3072516"><ele>24.2</ele><time>2026-05-03T09:36:29.981Z</time></trkpt><trkpt lat="40.962814" lon="14.3072607"><ele>24.8</ele><time>2026-05-03T09:36:31.981Z</time></trkpt><trkpt lat="40.9627262" lon="14.3072636"><ele>25.4</ele><time>2026-05-03T09:36:33.981Z</time></trkpt><trkpt lat="40.962631" lon="14.3072711"><ele>26.0</ele><time>2026-05-03T09:36:35.981Z</time></trkpt><trkpt lat="40.9625322" lon="14.307268"><ele>26.200000000000003</ele><time>2026-05-03T09:36:37.981Z</time></trkpt><trkpt lat="40.9624296" lon="14.3072644"><ele>26.400000000000002</ele><time>2026-05-03T09:36:39.982Z</time></trkpt><trkpt lat="40.9623279" lon="14.307275"><ele>26.6</ele><time>2026-05-03T09:36:41.981Z</time></trkpt><trkpt lat="40.9622226" lon="14.3072858"><ele>26.8</ele><time>2026-05-03T09:36:43.981Z</time></trkpt><trkpt lat="40.9621196" lon="14.3072941"><ele>27.0</ele><time>2026-05-03T09:36:45.981Z</time></trkpt><trkpt lat="40.9620213" lon="14.3072992"><ele>27.0</ele><time>2026-05-03T09:36:47.981Z</time></trkpt><trkpt lat="40.9619264" lon="14.3072967"><ele>27.000000000000004</ele><time>2026-05-03T09:36:49.981Z</time></trkpt><trkpt lat="40.961827" lon="14.3072983"><ele>27.000000000000004</ele><time>2026-05-03T09:36:51.982Z</time></trkpt><trkpt lat="40.9617279" lon="14.3073006"><ele>27.0</ele><time>2026-05-03T09:36:53.981Z</time></trkpt><trkpt lat="40.9616299" lon="14.3073039"><ele>27.0</ele><time>2026-05-03T09:36:55.982Z</time></trkpt><trkpt lat="40.9615349" lon="14.3072958"><ele>27.0</ele><time>2026-05-03T09:36:57.982Z</time></trkpt><trkpt lat="40.9614356" lon="14.3072932"><ele>27.000000000000004</ele><time>2026-05-03T09:36:59.982Z</time></trkpt><trkpt lat="40.9613457" lon="14.307283"><ele>27.000000000000004</ele><time>2026-05-03T09:37:01.982Z</time></trkpt><trkpt lat="40.9612559" lon="14.3072669"><ele>27.0</ele><time>2026-05-03T09:37:03.981Z</time></trkpt><trkpt lat="40.9611647" lon="14.3072503"><ele>27.0</ele><time>2026-05-03T09:37:05.981Z</time></trkpt><trkpt lat="40.961081" lon="14.3072306"><ele>27.0</ele><time>2026-05-03T09:37:07.982Z</time></trkpt><trkpt lat="40.9609987" lon="14.3072129"><ele>27.0</ele><time>2026-05-03T09:37:09.981Z</time></trkpt><trkpt lat="40.9609189" lon="14.3071897"><ele>27.0</ele><time>2026-05-03T09:37:11.982Z</time></trkpt><trkpt lat="40.9608438" lon="14.3071503"><ele>27.0</ele><time>2026-05-03T09:37:13.981Z</time></trkpt><trkpt lat="40.9607735" lon="14.3071077"><ele>27.0</ele><time>2026-05-03T09:37:15.981Z</time></trkpt><trkpt lat="40.9606948" lon="14.3071012"><ele>27.0</ele><time>2026-05-03T09:37:17.981Z</time></trkpt><trkpt lat="40.9606095" lon="14.3071134"><ele>26.833333333333332</ele><time>2026-05-03T09:37:19.981Z</time></trkpt><trkpt lat="40.960524" lon="14.3071044"><ele>26.666666666666664</ele><time>2026-05-03T09:37:21.982Z</time></trkpt><trkpt lat="40.9604425" lon="14.3070877"><ele>26.5</ele><time>2026-05-03T09:37:23.981Z</time></trkpt><trkpt lat="40.9603647" lon="14.3070644"><ele>26.333333333333332</ele><time>2026-05-03T09:37:25.981Z</time></trkpt><trkpt lat="40.9602863" lon="14.3070404"><ele>26.166666666666664</ele><time>2026-05-03T09:37:27.981Z</time></trkpt><trkpt lat="40.9602043" lon="14.3070258"><ele>26.0</ele><time>2026-05-03T09:37:29.981Z</time></trkpt><trkpt lat="40.9601221" lon="14.3070041"><ele>25.6</ele><time>2026-05-03T09:37:31.982Z</time></trkpt><trkpt lat="40.9600307" lon="14.3069794"><ele>25.200000000000003</ele><time>2026-05-03T09:37:33.982Z</time></trkpt><trkpt lat="40.9599336" lon="14.3069631"><ele>24.799999999999997</ele><time>2026-05-03T09:37:35.981Z</time></trkpt><trkpt lat="40.9598394" lon="14.3069402"><ele>24.4</ele><time>2026-05-03T09:37:37.981Z</time></trkpt><trkpt lat="40.9597508" lon="14.3069203"><ele>24.0</ele><time>2026-05-03T09:37:39.981Z</time></trkpt><trkpt lat="40.9596654" lon="14.3068981"><ele>24.0</ele><time>2026-05-03T09:37:41.982Z</time></trkpt><trkpt lat="40.9595845" lon="14.306877"><ele>24.0</ele><time>2026-05-03T09:37:43.981Z</time></trkpt><trkpt lat="40.9594998" lon="14.3068539"><ele>24.0</ele><time>2026-05-03T09:37:45.981Z</time></trkpt><trkpt lat="40.9594171" lon="14.3068383"><ele>24.0</ele><time>2026-05-03T09:37:47.981Z</time></trkpt><trkpt lat="40.9593343" lon="14.3068192"><ele>24.0</ele><time>2026-05-03T09:37:49.981Z</time></trkpt><trkpt lat="40.9592454" lon="14.3067966"><ele>24.0</ele><time>2026-05-03T09:37:51.982Z</time></trkpt><trkpt lat="40.959155" lon="14.3067737"><ele>24.799999999999997</ele><time>2026-05-03T09:37:53.981Z</time></trkpt><trkpt lat="40.9590632" lon="14.3067503"><ele>25.599999999999998</ele><time>2026-05-03T09:37:55.981Z</time></trkpt><trkpt lat="40.9589696" lon="14.3067318"><ele>26.4</ele><time>2026-05-03T09:37:57.981Z</time></trkpt><trkpt lat="40.9588781" lon="14.3067041"><ele>27.2</ele><time>2026-05-03T09:37:59.981Z</time></trkpt><trkpt lat="40.9587828" lon="14.3066706"><ele>28.0</ele><time>2026-05-03T09:38:01.982Z</time></trkpt><trkpt lat="40.9586943" lon="14.3066314"><ele>28.0</ele><time>2026-05-03T09:38:03.981Z</time></trkpt><trkpt lat="40.9586071" lon="14.3065812"><ele>27.999999999999996</ele><time>2026-05-03T09:38:05.981Z</time></trkpt><trkpt lat="40.9585233" lon="14.3065209"><ele>27.999999999999996</ele><time>2026-05-03T09:38:07.981Z</time></trkpt><trkpt lat="40.9584374" lon="14.3064634"><ele>28.0</ele><time>2026-05-03T09:38:09.981Z</time></trkpt><trkpt lat="40.9583542" lon="14.3063977"><ele>28.0</ele><time>2026-05-03T09:38:11.981Z</time></trkpt><trkpt lat="40.958278" lon="14.3063242"><ele>28.2</ele><time>2026-05-03T09:38:13.982Z</time></trkpt><trkpt lat="40.9582029" lon="14.3062454"><ele>28.4</ele><time>2026-05-03T09:38:15.981Z</time></trkpt><trkpt lat="40.9581284" lon="14.3061635"><ele>28.599999999999998</ele><time>2026-05-03T09:38:17.981Z</time></trkpt><trkpt lat="40.9580538" lon="14.3060848"><ele>28.799999999999997</ele><time>2026-05-03T09:38:19.981Z</time></trkpt><trkpt lat="40.9579788" lon="14.306015"><ele>29.0</ele><time>2026-05-03T09:38:21.981Z</time></trkpt><trkpt lat="40.9579031" lon="14.3059426"><ele>28.999999999999996</ele><time>2026-05-03T09:38:23.981Z</time></trkpt><trkpt lat="40.9578346" lon="14.3058825"><ele>29.0</ele><time>2026-05-03T09:38:25.981Z</time></trkpt><trkpt lat="40.9577732" lon="14.3058135"><ele>29.0</ele><time>2026-05-03T09:38:27.981Z</time></trkpt><trkpt lat="40.9577074" lon="14.3057415"><ele>29.0</ele><time>2026-05-03T09:38:29.981Z</time></trkpt><trkpt lat="40.9576368" lon="14.3056748"><ele>28.999999999999996</ele><time>2026-05-03T09:38:31.981Z</time></trkpt><trkpt lat="40.9575672" lon="14.3055991"><ele>29.0</ele><time>2026-05-03T09:38:33.981Z</time></trkpt><trkpt lat="40.9574955" lon="14.305526"><ele>29.0</ele><time>2026-05-03T09:38:35.981Z</time></trkpt><trkpt lat="40.9574237" lon="14.305455"><ele>29.0</ele><time>2026-05-03T09:38:37.981Z</time></trkpt><trkpt lat="40.957348" lon="14.3053782"><ele>29.0</ele><time>2026-05-03T09:38:39.981Z</time></trkpt><trkpt lat="40.9572723" lon="14.3052953"><ele>29.0</ele><time>2026-05-03T09:38:41.981Z</time></trkpt><trkpt lat="40.9571927" lon="14.3052189"><ele>29.0</ele><time>2026-05-03T09:38:43.982Z</time></trkpt><trkpt lat="40.9571179" lon="14.3051482"><ele>28.999999999999996</ele><time>2026-05-03T09:38:45.981Z</time></trkpt><trkpt lat="40.9570394" lon="14.3050878"><ele>29.0</ele><time>2026-05-03T09:38:47.981Z</time></trkpt><trkpt lat="40.9569637" lon="14.3050276"><ele>29.0</ele><time>2026-05-03T09:38:49.981Z</time></trkpt><trkpt lat="40.9568939" lon="14.3049608"><ele>29.0</ele><time>2026-05-03T09:38:51.981Z</time></trkpt><trkpt lat="40.956823" lon="14.3049071"><ele>28.999999999999996</ele><time>2026-05-03T09:38:53.981Z</time></trkpt><trkpt lat="40.9567589" lon="14.3048534"><ele>29.0</ele><time>2026-05-03T09:38:55.982Z</time></trkpt><trkpt lat="40.9566918" lon="14.3048062"><ele>28.999999999999996</ele><time>2026-05-03T09:38:58.982Z</time></trkpt><trkpt lat="40.9566145" lon="14.3047561"><ele>29.0</ele><time>2026-05-03T09:39:02.981Z</time></trkpt><trkpt lat="40.9565395" lon="14.3047404"><ele>29.0</ele><time>2026-05-03T09:39:04.981Z</time></trkpt><trkpt lat="40.956462" lon="14.3047188"><ele>29.0</ele><time>2026-05-03T09:39:06.981Z</time></trkpt><trkpt lat="40.9563859" lon="14.3046836"><ele>28.999999999999996</ele><time>2026-05-03T09:39:08.981Z</time></trkpt><trkpt lat="40.9563022" lon="14.3046555"><ele>29.0</ele><time>2026-05-03T09:39:10.981Z</time></trkpt><trkpt lat="40.9562163" lon="14.3046286"><ele>29.0</ele><time>2026-05-03T09:39:12.981Z</time></trkpt><trkpt lat="40.9561239" lon="14.3046037"><ele>29.0</ele><time>2026-05-03T09:39:14.982Z</time></trkpt><trkpt lat="40.9560296" lon="14.3045727"><ele>29.0</ele><time>2026-05-03T09:39:16.981Z</time></trkpt><trkpt lat="40.9559306" lon="14.304546"><ele>29.0</ele><time>2026-05-03T09:39:18.981Z</time></trkpt><trkpt lat="40.9558339" lon="14.3045172"><ele>29.0</ele><time>2026-05-03T09:39:20.982Z</time></trkpt><trkpt lat="40.9557464" lon="14.3044892"><ele>28.999999999999996</ele><time>2026-05-03T09:39:22.981Z</time></trkpt><trkpt lat="40.9556665" lon="14.3044553"><ele>29.0</ele><time>2026-05-03T09:39:24.981Z</time></trkpt><trkpt lat="40.9556523" lon="14.3043592"><ele>29.0</ele><time>2026-05-03T09:39:26.981Z</time></trkpt><trkpt lat="40.95568" lon="14.3042501"><ele>29.0</ele><time>2026-05-03T09:39:28.982Z</time></trkpt><trkpt lat="40.9557075" lon="14.3041305"><ele>28.999999999999996</ele><time>2026-05-03T09:39:30.982Z</time></trkpt><trkpt lat="40.9557349" lon="14.3040077"><ele>29.0</ele><time>2026-05-03T09:39:32.981Z</time></trkpt><trkpt lat="40.9557654" lon="14.3038734"><ele>29.0</ele><time>2026-05-03T09:39:34.982Z</time></trkpt><trkpt lat="40.9557982" lon="14.303731"><ele>29.0</ele><time>2026-05-03T09:39:36.981Z</time></trkpt><trkpt lat="40.9558349" lon="14.3035909"><ele>29.0</ele><time>2026-05-03T09:39:38.981Z</time></trkpt><trkpt lat="40.9558778" lon="14.3034513"><ele>29.0</ele><time>2026-05-03T09:39:40.982Z</time></trkpt><trkpt lat="40.95591" lon="14.3033116"><ele>29.0</ele><time>2026-05-03T09:39:42.981Z</time></trkpt><trkpt lat="40.9559429" lon="14.3031953"><ele>28.999999999999996</ele><time>2026-05-03T09:39:44.981Z</time></trkpt><trkpt lat="40.955969" lon="14.3030965"><ele>29.0</ele><time>2026-05-03T09:39:46.981Z</time></trkpt><trkpt lat="40.9559899" lon="14.303"><ele>29.0</ele><time>2026-05-03T09:39:48.981Z</time></trkpt><trkpt lat="40.9560153" lon="14.3029012"><ele>29.0</ele><time>2026-05-03T09:39:50.981Z</time></trkpt><trkpt lat="40.9560354" lon="14.3027906"><ele>28.999999999999996</ele><time>2026-05-03T09:39:52.981Z</time></trkpt><trkpt lat="40.9560673" lon="14.3026758"><ele>29.0</ele><time>2026-05-03T09:39:54.981Z</time></trkpt><trkpt lat="40.9561059" lon="14.3025571"><ele>28.799999999999997</ele><time>2026-05-03T09:39:56.981Z</time></trkpt><trkpt lat="40.9561394" lon="14.3024386"><ele>28.599999999999998</ele><time>2026-05-03T09:39:58.981Z</time></trkpt><trkpt lat="40.9561604" lon="14.3023158"><ele>28.4</ele><time>2026-05-03T09:40:00.981Z</time></trkpt><trkpt lat="40.9561712" lon="14.302186"><ele>28.2</ele><time>2026-05-03T09:40:02.981Z</time></trkpt><trkpt lat="40.956205" lon="14.3020698"><ele>28.0</ele><time>2026-05-03T09:40:04.981Z</time></trkpt><trkpt lat="40.9562391" lon="14.3019534"><ele>28.000000000000004</ele><time>2026-05-03T09:40:06.981Z</time></trkpt><trkpt lat="40.9562654" lon="14.3018329"><ele>28.0</ele><time>2026-05-03T09:40:08.981Z</time></trkpt><trkpt lat="40.9562796" lon="14.301717"><ele>28.0</ele><time>2026-05-03T09:40:10.982Z</time></trkpt><trkpt lat="40.9563" lon="14.3016092"><ele>28.0</ele><time>2026-05-03T09:40:12.981Z</time></trkpt><trkpt lat="40.9562956" lon="14.3015012"><ele>28.000000000000004</ele><time>2026-05-03T09:40:15.982Z</time></trkpt><trkpt lat="40.9562313" lon="14.3014435"><ele>28.0</ele><time>2026-05-03T09:40:19.981Z</time></trkpt><trkpt lat="40.9561588" lon="14.3014364"><ele>28.166666666666668</ele><time>2026-05-03T09:40:24.981Z</time></trkpt><trkpt lat="40.9561256" lon="14.3013508"><ele>28.333333333333336</ele><time>2026-05-03T09:40:30.981Z</time></trkpt><trkpt lat="40.9561391" lon="14.3012531"><ele>28.5</ele><time>2026-05-03T09:40:34.982Z</time></trkpt><trkpt lat="40.956182" lon="14.3011622"><ele>28.666666666666664</ele><time>2026-05-03T09:44:08.981Z</time></trkpt><trkpt lat="40.9562212" lon="14.3010677"><ele>28.833333333333332</ele><time>2026-05-03T09:44:13.981Z</time></trkpt><trkpt lat="40.9562545" lon="14.3009817"><ele>29.0</ele><time>2026-05-03T09:44:16.982Z</time></trkpt><trkpt lat="40.9562899" lon="14.3008719"><ele>29.000000000000004</ele><time>2026-05-03T09:44:19.982Z</time></trkpt><trkpt lat="40.9563305" lon="14.3007634"><ele>29.0</ele><time>2026-05-03T09:44:22.982Z</time></trkpt><trkpt lat="40.9563819" lon="14.3006828"><ele>29.000000000000004</ele><time>2026-05-03T09:44:25.981Z</time></trkpt><trkpt lat="40.9564625" lon="14.300686"><ele>29.000000000000004</ele><time>2026-05-03T09:44:28.981Z</time></trkpt><trkpt lat="40.9565262" lon="14.3007036"><ele>29.0</ele><time>2026-05-03T09:44:31.981Z</time></trkpt><trkpt lat="40.9565396" lon="14.3007887"><ele>29.000000000000004</ele><time>2026-05-03T09:44:35.981Z</time></trkpt><trkpt lat="40.9565301" lon="14.3008754"><ele>29.000000000000004</ele><time>2026-05-03T09:44:38.981Z</time></trkpt><trkpt lat="40.9565262" lon="14.3009708"><ele>28.999999999999996</ele><time>2026-05-03T09:44:41.981Z</time></trkpt><trkpt lat="40.9565218" lon="14.3010903"><ele>29.0</ele><time>2026-05-03T09:44:44.981Z</time></trkpt><trkpt lat="40.956519" lon="14.3011803"><ele>29.0</ele><time>2026-05-03T09:44:46.981Z</time></trkpt><trkpt lat="40.9565114" lon="14.3012684"><ele>29.0</ele><time>2026-05-03T09:44:48.982Z</time></trkpt><trkpt lat="40.9564972" lon="14.3013921"><ele>28.999999999999996</ele><time>2026-05-03T09:44:51.981Z</time></trkpt><trkpt lat="40.9565045" lon="14.3015099"><ele>29.0</ele><time>2026-05-03T09:44:54.981Z</time></trkpt><trkpt lat="40.9565548" lon="14.3015642"><ele>28.85714285714286</ele><time>2026-05-03T09:44:56.982Z</time></trkpt><trkpt lat="40.9566192" lon="14.301589"><ele>28.714285714285715</ele><time>2026-05-03T09:44:58.981Z</time></trkpt><trkpt lat="40.9566885" lon="14.3016029"><ele>28.571428571428573</ele><time>2026-05-03T09:45:00.981Z</time></trkpt><trkpt lat="40.9567575" lon="14.3016065"><ele>28.42857142857143</ele><time>2026-05-03T09:45:02.982Z</time></trkpt><trkpt lat="40.9568264" lon="14.3016014"><ele>28.285714285714285</ele><time>2026-05-03T09:45:04.981Z</time></trkpt><trkpt lat="40.9568957" lon="14.3016005"><ele>28.142857142857142</ele><time>2026-05-03T09:45:06.981Z</time></trkpt><trkpt lat="40.9569585" lon="14.3015832"><ele>28.0</ele><time>2026-05-03T09:45:08.982Z</time></trkpt><trkpt lat="40.9569944" lon="14.3015127"><ele>28.0</ele><time>2026-05-03T09:45:10.981Z</time></trkpt><trkpt lat="40.9569861" lon="14.3014207"><ele>28.0</ele><time>2026-05-03T09:45:12.981Z</time></trkpt><trkpt lat="40.9569724" lon="14.301331"><ele>28.0</ele><time>2026-05-03T09:45:14.981Z</time></trkpt><trkpt lat="40.9569706" lon="14.3012403"><ele>28.0</ele><time>2026-05-03T09:45:16.981Z</time></trkpt><trkpt lat="40.9569726" lon="14.3011459"><ele>28.0</ele><time>2026-05-03T09:45:18.981Z</time></trkpt><trkpt lat="40.9569657" lon="14.3010525"><ele>28.0</ele><time>2026-05-03T09:45:20.982Z</time></trkpt><trkpt lat="40.9569652" lon="14.3009564"><ele>28.0</ele><time>2026-05-03T09:45:22.981Z</time></trkpt><trkpt lat="40.9569649" lon="14.3008614"><ele>27.857142857142858</ele><time>2026-05-03T09:45:24.981Z</time></trkpt><trkpt lat="40.9569621" lon="14.3007728"><ele>27.714285714285715</ele><time>2026-05-03T09:45:26.981Z</time></trkpt><trkpt lat="40.9569755" lon="14.3006885"><ele>27.57142857142857</ele><time>2026-05-03T09:45:28.981Z</time></trkpt><trkpt lat="40.957023" lon="14.3006299"><ele>27.42857142857143</ele><time>2026-05-03T09:45:30.981Z</time></trkpt><trkpt lat="40.9570914" lon="14.3006188"><ele>27.285714285714285</ele><time>2026-05-03T09:45:32.981Z</time></trkpt><trkpt lat="40.9571676" lon="14.3006195"><ele>27.142857142857142</ele><time>2026-05-03T09:45:34.982Z</time></trkpt><trkpt lat="40.9572527" lon="14.3006224"><ele>27.0</ele><time>2026-05-03T09:45:36.981Z</time></trkpt><trkpt lat="40.9573402" lon="14.3006236"><ele>27.0</ele><time>2026-05-03T09:45:38.981Z</time></trkpt><trkpt lat="40.9574373" lon="14.3006214"><ele>27.000000000000004</ele><time>2026-05-03T09:45:40.982Z</time></trkpt><trkpt lat="40.9575395" lon="14.3006066"><ele>27.000000000000004</ele><time>2026-05-03T09:45:42.981Z</time></trkpt><trkpt lat="40.9576389" lon="14.3005688"><ele>27.0</ele><time>2026-05-03T09:45:44.981Z</time></trkpt><trkpt lat="40.9577363" lon="14.3005166"><ele>27.0</ele><time>2026-05-03T09:45:46.981Z</time></trkpt><trkpt lat="40.9578216" lon="14.3004377"><ele>27.200000000000003</ele><time>2026-05-03T09:45:48.981Z</time></trkpt><trkpt lat="40.9578911" lon="14.3003379"><ele>27.400000000000002</ele><time>2026-05-03T09:45:50.982Z</time></trkpt><trkpt lat="40.9579564" lon="14.30024"><ele>27.599999999999998</ele><time>2026-05-03T09:45:52.982Z</time></trkpt><trkpt lat="40.9580123" lon="14.3001443"><ele>27.799999999999997</ele><time>2026-05-03T09:45:54.981Z</time></trkpt><trkpt lat="40.9580749" lon="14.3000666"><ele>28.0</ele><time>2026-05-03T09:45:56.981Z</time></trkpt><trkpt lat="40.958137" lon="14.3000002"><ele>28.0</ele><time>2026-05-03T09:45:58.981Z</time></trkpt><trkpt lat="40.9582018" lon="14.2999485"><ele>28.0</ele><time>2026-05-03T09:46:00.981Z</time></trkpt><trkpt lat="40.958268" lon="14.2999307"><ele>28.0</ele><time>2026-05-03T09:46:02.981Z</time></trkpt><trkpt lat="40.9583313" lon="14.2999046"><ele>28.0</ele><time>2026-05-03T09:46:04.981Z</time></trkpt><trkpt lat="40.9583933" lon="14.2998821"><ele>28.0</ele><time>2026-05-03T09:46:06.981Z</time></trkpt><trkpt lat="40.9584665" lon="14.2998627"><ele>28.0</ele><time>2026-05-03T09:46:08.981Z</time></trkpt><trkpt lat="40.9585468" lon="14.2998452"><ele>28.0</ele><time>2026-05-03T09:46:10.981Z</time></trkpt><trkpt lat="40.9586236" lon="14.299824"><ele>28.000000000000004</ele><time>2026-05-03T09:46:12.982Z</time></trkpt><trkpt lat="40.9587075" lon="14.2998027"><ele>28.0</ele><time>2026-05-03T09:46:14.981Z</time></trkpt><trkpt lat="40.9587927" lon="14.2997731"><ele>28.0</ele><time>2026-05-03T09:46:16.981Z</time></trkpt><trkpt lat="40.9588815" lon="14.2997447"><ele>28.0</ele><time>2026-05-03T09:46:18.981Z</time></trkpt><trkpt lat="40.9589738" lon="14.2997313"><ele>28.000000000000004</ele><time>2026-05-03T09:46:20.981Z</time></trkpt><trkpt lat="40.9590601" lon="14.2996991"><ele>28.0</ele><time>2026-05-03T09:46:22.981Z</time></trkpt><trkpt lat="40.9591371" lon="14.2996768"><ele>28.0</ele><time>2026-05-03T09:46:24.981Z</time></trkpt><trkpt lat="40.9591996" lon="14.2996511"><ele>28.0</ele><time>2026-05-03T09:46:26.981Z</time></trkpt><trkpt lat="40.9592488" lon="14.2995972"><ele>28.0</ele><time>2026-05-03T09:46:28.981Z</time></trkpt><trkpt lat="40.959289" lon="14.2995189"><ele>28.0</ele><time>2026-05-03T09:46:30.981Z</time></trkpt><trkpt lat="40.9593198" lon="14.2994142"><ele>28.0</ele><time>2026-05-03T09:46:32.982Z</time></trkpt><trkpt lat="40.959335" lon="14.2993045"><ele>28.0</ele><time>2026-05-03T09:46:34.981Z</time></trkpt><trkpt lat="40.9593431" lon="14.2992013"><ele>28.0</ele><time>2026-05-03T09:46:36.982Z</time></trkpt><trkpt lat="40.9593693" lon="14.299107"><ele>28.166666666666668</ele><time>2026-05-03T09:46:38.981Z</time></trkpt><trkpt lat="40.959388" lon="14.2990107"><ele>28.333333333333336</ele><time>2026-05-03T09:46:40.982Z</time></trkpt><trkpt lat="40.9594012" lon="14.2989085"><ele>28.5</ele><time>2026-05-03T09:46:42.981Z</time></trkpt><trkpt lat="40.9594014" lon="14.2988031"><ele>28.666666666666664</ele><time>2026-05-03T09:46:44.981Z</time></trkpt><trkpt lat="40.9594085" lon="14.2986927"><ele>28.833333333333332</ele><time>2026-05-03T09:46:46.982Z</time></trkpt><trkpt lat="40.9594134" lon="14.2985816"><ele>29.0</ele><time>2026-05-03T09:46:48.982Z</time></trkpt><trkpt lat="40.9594169" lon="14.2984806"><ele>28.999999999999996</ele><time>2026-05-03T09:46:50.982Z</time></trkpt><trkpt lat="40.9594258" lon="14.2983895"><ele>29.0</ele><time>2026-05-03T09:46:52.981Z</time></trkpt><trkpt lat="40.959426" lon="14.2983013"><ele>29.0</ele><time>2026-05-03T09:46:54.981Z</time></trkpt><trkpt lat="40.9594352" lon="14.2982045"><ele>29.0</ele><time>2026-05-03T09:46:56.981Z</time></trkpt><trkpt lat="40.9594441" lon="14.298098"><ele>28.999999999999996</ele><time>2026-05-03T09:46:58.981Z</time></trkpt><trkpt lat="40.9594446" lon="14.2979894"><ele>29.0</ele><time>2026-05-03T09:47:00.982Z</time></trkpt><trkpt lat="40.9594447" lon="14.2978796"><ele>29.0</ele><time>2026-05-03T09:47:02.981Z</time></trkpt><trkpt lat="40.9594546" lon="14.2977645"><ele>29.0</ele><time>2026-05-03T09:47:04.982Z</time></trkpt><trkpt lat="40.9594621" lon="14.2976477"><ele>29.0</ele><time>2026-05-03T09:47:06.981Z</time></trkpt><trkpt lat="40.9594692" lon="14.2975247"><ele>29.0</ele><time>2026-05-03T09:47:08.981Z</time></trkpt><trkpt lat="40.9594791" lon="14.2973979"><ele>29.0</ele><time>2026-05-03T09:47:10.982Z</time></trkpt><trkpt lat="40.9594849" lon="14.2972664"><ele>29.0</ele><time>2026-05-03T09:47:12.982Z</time></trkpt><trkpt lat="40.9594882" lon="14.2971321"><ele>29.0</ele><time>2026-05-03T09:47:14.981Z</time></trkpt><trkpt lat="40.9594962" lon="14.2969938"><ele>29.0</ele><time>2026-05-03T09:47:16.982Z</time></trkpt><trkpt lat="40.9595052" lon="14.2968549"><ele>29.0</ele><time>2026-05-03T09:47:18.982Z</time></trkpt><trkpt lat="40.9595111" lon="14.2967168"><ele>29.0</ele><time>2026-05-03T09:47:20.981Z</time></trkpt><trkpt lat="40.9595199" lon="14.2965798"><ele>29.0</ele><time>2026-05-03T09:47:22.981Z</time></trkpt><trkpt lat="40.9595322" lon="14.2964451"><ele>29.0</ele><time>2026-05-03T09:47:24.981Z</time></trkpt><trkpt lat="40.9595401" lon="14.2963069"><ele>29.0</ele><time>2026-05-03T09:47:26.981Z</time></trkpt><trkpt lat="40.95955" lon="14.2961707"><ele>29.0</ele><time>2026-05-03T09:47:28.981Z</time></trkpt><trkpt lat="40.959559" lon="14.2960361"><ele>29.0</ele><time>2026-05-03T09:47:30.981Z</time></trkpt><trkpt lat="40.9595627" lon="14.2959023"><ele>29.2</ele><time>2026-05-03T09:47:32.981Z</time></trkpt><trkpt lat="40.9595694" lon="14.295773"><ele>29.4</ele><time>2026-05-03T09:47:34.981Z</time></trkpt><trkpt lat="40.9595772" lon="14.2956431"><ele>29.6</ele><time>2026-05-03T09:47:36.982Z</time></trkpt><trkpt lat="40.9595888" lon="14.295509"><ele>29.8</ele><time>2026-05-03T09:47:38.981Z</time></trkpt><trkpt lat="40.9595939" lon="14.295382"><ele>30.0</ele><time>2026-05-03T09:47:40.981Z</time></trkpt><trkpt lat="40.9596007" lon="14.2952564"><ele>30.0</ele><time>2026-05-03T09:47:42.981Z</time></trkpt><trkpt lat="40.9596115" lon="14.2951343"><ele>30.0</ele><time>2026-05-03T09:47:44.981Z</time></trkpt><trkpt lat="40.9596337" lon="14.2950163"><ele>30.0</ele><time>2026-05-03T09:47:46.981Z</time></trkpt><trkpt lat="40.9596687" lon="14.2949042"><ele>30.0</ele><time>2026-05-03T09:47:48.981Z</time></trkpt><trkpt lat="40.9596887" lon="14.2947821"><ele>30.0</ele><time>2026-05-03T09:47:50.982Z</time></trkpt><trkpt lat="40.9596795" lon="14.2946536"><ele>30.2</ele><time>2026-05-03T09:47:52.981Z</time></trkpt><trkpt lat="40.9596625" lon="14.294519"><ele>30.4</ele><time>2026-05-03T09:47:54.981Z</time></trkpt><trkpt lat="40.9596599" lon="14.2943809"><ele>30.6</ele><time>2026-05-03T09:47:56.981Z</time></trkpt><trkpt lat="40.9596639" lon="14.2942463"><ele>30.8</ele><time>2026-05-03T09:47:58.981Z</time></trkpt><trkpt lat="40.959668" lon="14.2941087"><ele>31.0</ele><time>2026-05-03T09:48:00.981Z</time></trkpt><trkpt lat="40.9596766" lon="14.2939698"><ele>30.5</ele><time>2026-05-03T09:48:02.981Z</time></trkpt><trkpt lat="40.9596897" lon="14.2938297"><ele>30.0</ele><time>2026-05-03T09:48:04.981Z</time></trkpt><trkpt lat="40.9596953" lon="14.2936761"><ele>29.5</ele><time>2026-05-03T09:48:06.981Z</time></trkpt><trkpt lat="40.9597011" lon="14.2935194"><ele>29.0</ele><time>2026-05-03T09:48:08.981Z</time></trkpt><trkpt lat="40.9597096" lon="14.2933577"><ele>29.000000000000004</ele><time>2026-05-03T09:48:10.982Z</time></trkpt><trkpt lat="40.95971" lon="14.293274"><ele>29.0</ele><time>2026-05-03T09:48:11.981Z</time></trkpt><trkpt lat="40.9597171" lon="14.2931085"><ele>29.000000000000004</ele><time>2026-05-03T09:48:13.981Z</time></trkpt><trkpt lat="40.9597229" lon="14.2930242"><ele>29.000000000000004</ele><time>2026-05-03T09:48:14.981Z</time></trkpt><trkpt lat="40.9597306" lon="14.2929399"><ele>29.0</ele><time>2026-05-03T09:48:15.981Z</time></trkpt><trkpt lat="40.9597388" lon="14.2928565"><ele>29.000000000000004</ele><time>2026-05-03T09:48:16.981Z</time></trkpt><trkpt lat="40.9597429" lon="14.2927716"><ele>29.000000000000004</ele><time>2026-05-03T09:48:17.981Z</time></trkpt><trkpt lat="40.9597487" lon="14.2926862"><ele>29.0</ele><time>2026-05-03T09:48:18.981Z</time></trkpt><trkpt lat="40.9597546" lon="14.2926031"><ele>29.0</ele><time>2026-05-03T09:48:19.981Z</time></trkpt><trkpt lat="40.9597661" lon="14.2924367"><ele>29.0</ele><time>2026-05-03T09:48:21.981Z</time></trkpt><trkpt lat="40.9597755" lon="14.2922724"><ele>29.0</ele><time>2026-05-03T09:48:23.982Z</time></trkpt><trkpt lat="40.9597869" lon="14.2921154"><ele>29.0</ele><time>2026-05-03T09:48:25.981Z</time></trkpt><trkpt lat="40.9597951" lon="14.2919587"><ele>29.0</ele><time>2026-05-03T09:48:27.981Z</time></trkpt><trkpt lat="40.9598052" lon="14.2918009"><ele>29.0</ele><time>2026-05-03T09:48:29.981Z</time></trkpt><trkpt lat="40.9598127" lon="14.2916475"><ele>29.0</ele><time>2026-05-03T09:48:31.981Z</time></trkpt><trkpt lat="40.9598246" lon="14.2914992"><ele>29.0</ele><time>2026-05-03T09:48:33.981Z</time></trkpt><trkpt lat="40.9598309" lon="14.2913465"><ele>29.0</ele><time>2026-05-03T09:48:35.981Z</time></trkpt><trkpt lat="40.959837" lon="14.2911977"><ele>29.0</ele><time>2026-05-03T09:48:37.982Z</time></trkpt><trkpt lat="40.959847" lon="14.2910458"><ele>29.0</ele><time>2026-05-03T09:48:39.981Z</time></trkpt><trkpt lat="40.959856" lon="14.2908945"><ele>29.0</ele><time>2026-05-03T09:48:41.981Z</time></trkpt><trkpt lat="40.9598636" lon="14.2907422"><ele>29.0</ele><time>2026-05-03T09:48:43.981Z</time></trkpt><trkpt lat="40.9598702" lon="14.2905916"><ele>29.0</ele><time>2026-05-03T09:48:45.982Z</time></trkpt><trkpt lat="40.9598759" lon="14.2904395"><ele>29.0</ele><time>2026-05-03T09:48:47.981Z</time></trkpt><trkpt lat="40.9598814" lon="14.2902904"><ele>29.0</ele><time>2026-05-03T09:48:49.981Z</time></trkpt><trkpt lat="40.9598927" lon="14.2901438"><ele>29.2</ele><time>2026-05-03T09:48:51.981Z</time></trkpt><trkpt lat="40.9599013" lon="14.2899976"><ele>29.4</ele><time>2026-05-03T09:48:53.981Z</time></trkpt><trkpt lat="40.9599115" lon="14.289854"><ele>29.6</ele><time>2026-05-03T09:48:55.981Z</time></trkpt><trkpt lat="40.9599175" lon="14.289715"><ele>29.8</ele><time>2026-05-03T09:48:57.981Z</time></trkpt><trkpt lat="40.9599247" lon="14.2895779"><ele>30.0</ele><time>2026-05-03T09:48:59.981Z</time></trkpt><trkpt lat="40.9599099" lon="14.2894369"><ele>29.6</ele><time>2026-05-03T09:49:01.981Z</time></trkpt><trkpt lat="40.9599007" lon="14.2893004"><ele>29.2</ele><time>2026-05-03T09:49:03.981Z</time></trkpt><trkpt lat="40.959919" lon="14.2891629"><ele>28.799999999999997</ele><time>2026-05-03T09:49:05.982Z</time></trkpt><trkpt lat="40.9599347" lon="14.289031"><ele>28.4</ele><time>2026-05-03T09:49:07.981Z</time></trkpt><trkpt lat="40.9599453" lon="14.288898"><ele>28.0</ele><time>2026-05-03T09:49:09.981Z</time></trkpt><trkpt lat="40.9599557" lon="14.2887645"><ele>28.0</ele><time>2026-05-03T09:49:11.981Z</time></trkpt><trkpt lat="40.9599749" lon="14.2886292"><ele>27.999999999999996</ele><time>2026-05-03T09:49:13.982Z</time></trkpt><trkpt lat="40.9599866" lon="14.2884907"><ele>27.999999999999996</ele><time>2026-05-03T09:49:15.981Z</time></trkpt><trkpt lat="40.9599969" lon="14.288354"><ele>28.0</ele><time>2026-05-03T09:49:17.982Z</time></trkpt><trkpt lat="40.9600041" lon="14.2882144"><ele>28.0</ele><time>2026-05-03T09:49:19.981Z</time></trkpt><trkpt lat="40.9600158" lon="14.2880809"><ele>28.2</ele><time>2026-05-03T09:49:21.982Z</time></trkpt><trkpt lat="40.9600256" lon="14.2879471"><ele>28.4</ele><time>2026-05-03T09:49:23.981Z</time></trkpt><trkpt lat="40.9600305" lon="14.2878111"><ele>28.599999999999998</ele><time>2026-05-03T09:49:25.981Z</time></trkpt><trkpt lat="40.960041" lon="14.287678"><ele>28.799999999999997</ele><time>2026-05-03T09:49:27.981Z</time></trkpt><trkpt lat="40.9600515" lon="14.2875408"><ele>29.0</ele><time>2026-05-03T09:49:29.981Z</time></trkpt><trkpt lat="40.9600574" lon="14.2874014"><ele>29.25</ele><time>2026-05-03T09:49:31.981Z</time></trkpt><trkpt lat="40.9600641" lon="14.2872544"><ele>29.5</ele><time>2026-05-03T09:49:33.981Z</time></trkpt><trkpt lat="40.9600703" lon="14.2870969"><ele>29.75</ele><time>2026-05-03T09:49:35.982Z</time></trkpt><trkpt lat="40.9600766" lon="14.2869375"><ele>30.0</ele><time>2026-05-03T09:49:37.981Z</time></trkpt><trkpt lat="40.9600872" lon="14.2867762"><ele>30.0</ele><time>2026-05-03T09:49:39.982Z</time></trkpt><trkpt lat="40.9600904" lon="14.2866922"><ele>30.0</ele><time>2026-05-03T09:49:40.982Z</time></trkpt><trkpt lat="40.960094" lon="14.2866086"><ele>30.0</ele><time>2026-05-03T09:49:41.981Z</time></trkpt><trkpt lat="40.9601009" lon="14.2865243"><ele>30.0</ele><time>2026-05-03T09:49:42.981Z</time></trkpt><trkpt lat="40.9601052" lon="14.28644"><ele>30.0</ele><time>2026-05-03T09:49:43.981Z</time></trkpt><trkpt lat="40.9601104" lon="14.2863563"><ele>30.0</ele><time>2026-05-03T09:49:44.981Z</time></trkpt><trkpt lat="40.9601152" lon="14.2862683"><ele>30.0</ele><time>2026-05-03T09:49:45.981Z</time></trkpt><trkpt lat="40.9601188" lon="14.2861836"><ele>30.0</ele><time>2026-05-03T09:49:46.981Z</time></trkpt><trkpt lat="40.9601251" lon="14.2860965"><ele>30.166666666666668</ele><time>2026-05-03T09:49:47.981Z</time></trkpt><trkpt lat="40.9601284" lon="14.286009"><ele>30.333333333333336</ele><time>2026-05-03T09:49:48.981Z</time></trkpt><trkpt lat="40.9601356" lon="14.2859232"><ele>30.5</ele><time>2026-05-03T09:49:49.982Z</time></trkpt><trkpt lat="40.9601412" lon="14.2858373"><ele>30.666666666666668</ele><time>2026-05-03T09:49:50.981Z</time></trkpt><trkpt lat="40.960146" lon="14.2857498"><ele>30.833333333333336</ele><time>2026-05-03T09:49:51.981Z</time></trkpt><trkpt lat="40.9601521" lon="14.2856665"><ele>31.0</ele><time>2026-05-03T09:49:52.981Z</time></trkpt><trkpt lat="40.9601616" lon="14.2855025"><ele>32.0</ele><time>2026-05-03T09:49:54.981Z</time></trkpt><trkpt lat="40.9601715" lon="14.2853439"><ele>33.0</ele><time>2026-05-03T09:49:56.982Z</time></trkpt><trkpt lat="40.960184" lon="14.2851855"><ele>34.0</ele><time>2026-05-03T09:49:58.981Z</time></trkpt><trkpt lat="40.9601927" lon="14.2850288"><ele>35.0</ele><time>2026-05-03T09:50:00.981Z</time></trkpt><trkpt lat="40.9602012" lon="14.2848715"><ele>34.25</ele><time>2026-05-03T09:50:02.981Z</time></trkpt><trkpt lat="40.9602064" lon="14.2847157"><ele>33.5</ele><time>2026-05-03T09:50:04.981Z</time></trkpt><trkpt lat="40.9602165" lon="14.2845636"><ele>32.75</ele><time>2026-05-03T09:50:06.981Z</time></trkpt><trkpt lat="40.9602221" lon="14.2844113"><ele>32.0</ele><time>2026-05-03T09:50:08.981Z</time></trkpt><trkpt lat="40.9602331" lon="14.284261"><ele>32.0</ele><time>2026-05-03T09:50:10.982Z</time></trkpt><trkpt lat="40.9602422" lon="14.2841116"><ele>32.0</ele><time>2026-05-03T09:50:12.981Z</time></trkpt><trkpt lat="40.9602518" lon="14.2839606"><ele>32.0</ele><time>2026-05-03T09:50:14.981Z</time></trkpt><trkpt lat="40.9602578" lon="14.2838102"><ele>32.0</ele><time>2026-05-03T09:50:16.982Z</time></trkpt><trkpt lat="40.9602707" lon="14.2836664"><ele>31.8</ele><time>2026-05-03T09:50:18.981Z</time></trkpt><trkpt lat="40.9602769" lon="14.2835191"><ele>31.6</ele><time>2026-05-03T09:50:20.981Z</time></trkpt><trkpt lat="40.96029" lon="14.2833748"><ele>31.400000000000002</ele><time>2026-05-03T09:50:22.981Z</time></trkpt><trkpt lat="40.9602956" lon="14.2832282"><ele>31.200000000000003</ele><time>2026-05-03T09:50:24.981Z</time></trkpt><trkpt lat="40.9603059" lon="14.2830861"><ele>31.0</ele><time>2026-05-03T09:50:26.981Z</time></trkpt><trkpt lat="40.9603145" lon="14.2829425"><ele>31.0</ele><time>2026-05-03T09:50:28.981Z</time></trkpt><trkpt lat="40.9603242" lon="14.2827996"><ele>31.0</ele><time>2026-05-03T09:50:30.981Z</time></trkpt><trkpt lat="40.9603328" lon="14.2826548"><ele>31.0</ele><time>2026-05-03T09:50:32.981Z</time></trkpt><trkpt lat="40.9603425" lon="14.2825116"><ele>31.0</ele><time>2026-05-03T09:50:34.981Z</time></trkpt><trkpt lat="40.9603503" lon="14.2823704"><ele>31.0</ele><time>2026-05-03T09:50:36.981Z</time></trkpt><trkpt lat="40.9603579" lon="14.2822298"><ele>31.4</ele><time>2026-05-03T09:50:38.981Z</time></trkpt><trkpt lat="40.9603649" lon="14.2820869"><ele>31.8</ele><time>2026-05-03T09:50:40.982Z</time></trkpt><trkpt lat="40.9603718" lon="14.2819469"><ele>32.199999999999996</ele><time>2026-05-03T09:50:42.981Z</time></trkpt><trkpt lat="40.9603775" lon="14.2818119"><ele>32.6</ele><time>2026-05-03T09:50:44.982Z</time></trkpt><trkpt lat="40.9603834" lon="14.2816739"><ele>33.0</ele><time>2026-05-03T09:50:46.981Z</time></trkpt><trkpt lat="40.9603946" lon="14.2815371"><ele>32.8</ele><time>2026-05-03T09:50:48.981Z</time></trkpt><trkpt lat="40.9604008" lon="14.2813959"><ele>32.599999999999994</ele><time>2026-05-03T09:50:50.982Z</time></trkpt><trkpt lat="40.9604096" lon="14.2812576"><ele>32.400000000000006</ele><time>2026-05-03T09:50:52.981Z</time></trkpt><trkpt lat="40.9604171" lon="14.2811185"><ele>32.2</ele><time>2026-05-03T09:50:54.981Z</time></trkpt><trkpt lat="40.9604225" lon="14.2809804"><ele>32.0</ele><time>2026-05-03T09:50:56.981Z</time></trkpt><trkpt lat="40.9604288" lon="14.2808447"><ele>32.0</ele><time>2026-05-03T09:50:58.981Z</time></trkpt><trkpt lat="40.9604342" lon="14.2806991"><ele>32.0</ele><time>2026-05-03T09:51:00.982Z</time></trkpt><trkpt lat="40.9604395" lon="14.2805576"><ele>32.0</ele><time>2026-05-03T09:51:02.981Z</time></trkpt><trkpt lat="40.9604453" lon="14.2804156"><ele>32.0</ele><time>2026-05-03T09:51:04.982Z</time></trkpt><trkpt lat="40.9604573" lon="14.2802689"><ele>32.0</ele><time>2026-05-03T09:51:06.982Z</time></trkpt><trkpt lat="40.9604662" lon="14.2801202"><ele>32.0</ele><time>2026-05-03T09:51:08.981Z</time></trkpt><trkpt lat="40.9604721" lon="14.2799774"><ele>32.0</ele><time>2026-05-03T09:51:10.981Z</time></trkpt><trkpt lat="40.9604812" lon="14.2798386"><ele>32.0</ele><time>2026-05-03T09:51:12.981Z</time></trkpt><trkpt lat="40.9604935" lon="14.2797004"><ele>32.0</ele><time>2026-05-03T09:51:14.981Z</time></trkpt><trkpt lat="40.9605003" lon="14.2795583"><ele>32.0</ele><time>2026-05-03T09:51:16.981Z</time></trkpt><trkpt lat="40.960513" lon="14.2794188"><ele>32.2</ele><time>2026-05-03T09:51:18.981Z</time></trkpt><trkpt lat="40.9605148" lon="14.2792753"><ele>32.400000000000006</ele><time>2026-05-03T09:51:20.981Z</time></trkpt><trkpt lat="40.9605172" lon="14.2791323"><ele>32.599999999999994</ele><time>2026-05-03T09:51:22.981Z</time></trkpt><trkpt lat="40.9605283" lon="14.2789914"><ele>32.8</ele><time>2026-05-03T09:51:24.981Z</time></trkpt><trkpt lat="40.9605384" lon="14.2788566"><ele>33.0</ele><time>2026-05-03T09:51:26.981Z</time></trkpt><trkpt lat="40.9605498" lon="14.2787304"><ele>33.166666666666664</ele><time>2026-05-03T09:51:28.981Z</time></trkpt><trkpt lat="40.9605604" lon="14.2786087"><ele>33.333333333333336</ele><time>2026-05-03T09:51:30.982Z</time></trkpt><trkpt lat="40.9605667" lon="14.278492"><ele>33.5</ele><time>2026-05-03T09:51:32.981Z</time></trkpt><trkpt lat="40.960576" lon="14.2783873"><ele>33.66666666666667</ele><time>2026-05-03T09:51:34.981Z</time></trkpt><trkpt lat="40.9605777" lon="14.2782882"><ele>33.833333333333336</ele><time>2026-05-03T09:51:36.982Z</time></trkpt><trkpt lat="40.9605794" lon="14.2781951"><ele>34.0</ele><time>2026-05-03T09:51:38.982Z</time></trkpt><trkpt lat="40.9605965" lon="14.2781056"><ele>34.333333333333336</ele><time>2026-05-03T09:51:40.982Z</time></trkpt><trkpt lat="40.9606416" lon="14.2780281"><ele>34.66666666666667</ele><time>2026-05-03T09:51:42.981Z</time></trkpt><trkpt lat="40.9607037" lon="14.2779746"><ele>35.0</ele><time>2026-05-03T09:51:44.981Z</time></trkpt><trkpt lat="40.9607676" lon="14.2779107"><ele>35.333333333333336</ele><time>2026-05-03T09:51:46.981Z</time></trkpt><trkpt lat="40.9608429" lon="14.2778533"><ele>35.666666666666664</ele><time>2026-05-03T09:51:48.981Z</time></trkpt><trkpt lat="40.9609235" lon="14.2778023"><ele>36.0</ele><time>2026-05-03T09:51:50.982Z</time></trkpt><trkpt lat="40.9610036" lon="14.2777511"><ele>36.0</ele><time>2026-05-03T09:51:52.981Z</time></trkpt><trkpt lat="40.961077" lon="14.277682"><ele>36.0</ele><time>2026-05-03T09:51:54.981Z</time></trkpt><trkpt lat="40.9611512" lon="14.2776228"><ele>36.0</ele><time>2026-05-03T09:51:56.981Z</time></trkpt><trkpt lat="40.9612212" lon="14.2775495"><ele>36.0</ele><time>2026-05-03T09:51:58.982Z</time></trkpt><trkpt lat="40.9612954" lon="14.2774846"><ele>36.0</ele><time>2026-05-03T09:52:00.981Z</time></trkpt><trkpt lat="40.9613721" lon="14.2774216"><ele>36.0</ele><time>2026-05-03T09:52:02.981Z</time></trkpt><trkpt lat="40.9614462" lon="14.2773615"><ele>36.0</ele><time>2026-05-03T09:52:04.981Z</time></trkpt><trkpt lat="40.9615224" lon="14.2773044"><ele>36.0</ele><time>2026-05-03T09:52:06.981Z</time></trkpt><trkpt lat="40.9616004" lon="14.2772394"><ele>36.0</ele><time>2026-05-03T09:52:08.981Z</time></trkpt><trkpt lat="40.9616872" lon="14.2771761"><ele>36.0</ele><time>2026-05-03T09:52:10.981Z</time></trkpt><trkpt lat="40.9617736" lon="14.2771099"><ele>36.0</ele><time>2026-05-03T09:52:12.981Z</time></trkpt><trkpt lat="40.9618601" lon="14.2770446"><ele>35.8</ele><time>2026-05-03T09:52:14.981Z</time></trkpt><trkpt lat="40.9619504" lon="14.2769817"><ele>35.6</ele><time>2026-05-03T09:52:16.981Z</time></trkpt><trkpt lat="40.9620309" lon="14.2769059"><ele>35.4</ele><time>2026-05-03T09:52:18.981Z</time></trkpt><trkpt lat="40.9621147" lon="14.2768383"><ele>35.2</ele><time>2026-05-03T09:52:20.982Z</time></trkpt><trkpt lat="40.9621946" lon="14.2767723"><ele>35.0</ele><time>2026-05-03T09:52:22.981Z</time></trkpt><trkpt lat="40.9622668" lon="14.2767049"><ele>35.0</ele><time>2026-05-03T09:52:24.981Z</time></trkpt><trkpt lat="40.9623384" lon="14.2766538"><ele>35.0</ele><time>2026-05-03T09:52:26.981Z</time></trkpt><trkpt lat="40.9624079" lon="14.2765969"><ele>35.0</ele><time>2026-05-03T09:52:28.981Z</time></trkpt><trkpt lat="40.9624789" lon="14.2765338"><ele>35.0</ele><time>2026-05-03T09:52:30.981Z</time></trkpt><trkpt lat="40.9625555" lon="14.2764817"><ele>35.0</ele><time>2026-05-03T09:52:32.981Z</time></trkpt><trkpt lat="40.9626335" lon="14.2764281"><ele>35.0</ele><time>2026-05-03T09:52:34.981Z</time></trkpt><trkpt lat="40.9627134" lon="14.2763704"><ele>34.666666666666664</ele><time>2026-05-03T09:52:36.981Z</time></trkpt><trkpt lat="40.9627854" lon="14.2762981"><ele>34.33333333333333</ele><time>2026-05-03T09:52:38.981Z</time></trkpt><trkpt lat="40.9628594" lon="14.2762313"><ele>34.0</ele><time>2026-05-03T09:52:40.981Z</time></trkpt><trkpt lat="40.9629332" lon="14.2761726"><ele>33.666666666666664</ele><time>2026-05-03T09:52:42.981Z</time></trkpt><trkpt lat="40.9630028" lon="14.276111"><ele>33.333333333333336</ele><time>2026-05-03T09:52:44.981Z</time></trkpt><trkpt lat="40.9630782" lon="14.2760636"><ele>33.0</ele><time>2026-05-03T09:52:47.982Z</time></trkpt><trkpt lat="40.9631552" lon="14.2760785"><ele>33.0</ele><time>2026-05-03T09:52:50.981Z</time></trkpt><trkpt lat="40.9632134" lon="14.2761502"><ele>33.0</ele><time>2026-05-03T09:52:52.981Z</time></trkpt><trkpt lat="40.9632823" lon="14.2762553"><ele>33.0</ele><time>2026-05-03T09:52:54.981Z</time></trkpt><trkpt lat="40.9633596" lon="14.2763419"><ele>33.0</ele><time>2026-05-03T09:52:56.982Z</time></trkpt><trkpt lat="40.9634419" lon="14.2764357"><ele>33.0</ele><time>2026-05-03T09:52:58.981Z</time></trkpt><trkpt lat="40.9635278" lon="14.276519"><ele>33.0</ele><time>2026-05-03T09:53:00.981Z</time></trkpt><trkpt lat="40.9636287" lon="14.2765778"><ele>33.0</ele><time>2026-05-03T09:53:02.981Z</time></trkpt><trkpt lat="40.9637377" lon="14.276611"><ele>33.0</ele><time>2026-05-03T09:53:04.981Z</time></trkpt><trkpt lat="40.9638507" lon="14.2765992"><ele>33.0</ele><time>2026-05-03T09:53:06.981Z</time></trkpt><trkpt lat="40.9639624" lon="14.2765437"><ele>33.0</ele><time>2026-05-03T09:53:08.981Z</time></trkpt><trkpt lat="40.96407" lon="14.2764666"><ele>33.0</ele><time>2026-05-03T09:53:10.982Z</time></trkpt><trkpt lat="40.9641798" lon="14.2763871"><ele>33.0</ele><time>2026-05-03T09:53:12.981Z</time></trkpt><trkpt lat="40.9642375" lon="14.2763484"><ele>33.0</ele><time>2026-05-03T09:53:13.982Z</time></trkpt><trkpt lat="40.9642977" lon="14.276308"><ele>33.0</ele><time>2026-05-03T09:53:14.981Z</time></trkpt><trkpt lat="40.9643532" lon="14.2762649"><ele>33.0</ele><time>2026-05-03T09:53:15.981Z</time></trkpt><trkpt lat="40.9644099" lon="14.2762231"><ele>33.0</ele><time>2026-05-03T09:53:16.982Z</time></trkpt><trkpt lat="40.9644663" lon="14.276183"><ele>33.0</ele><time>2026-05-03T09:53:17.981Z</time></trkpt><trkpt lat="40.9645231" lon="14.276143"><ele>33.0</ele><time>2026-05-03T09:53:18.982Z</time></trkpt><trkpt lat="40.9645782" lon="14.2761012"><ele>33.0</ele><time>2026-05-03T09:53:19.982Z</time></trkpt><trkpt lat="40.9646368" lon="14.2760584"><ele>33.0</ele><time>2026-05-03T09:53:20.981Z</time></trkpt><trkpt lat="40.9646946" lon="14.2760155"><ele>33.0</ele><time>2026-05-03T09:53:21.981Z</time></trkpt><trkpt lat="40.9647517" lon="14.2759738"><ele>33.0</ele><time>2026-05-03T09:53:22.981Z</time></trkpt><trkpt lat="40.9648084" lon="14.2759328"><ele>33.0</ele><time>2026-05-03T09:53:23.981Z</time></trkpt><trkpt lat="40.9649155" lon="14.2758493"><ele>33.0</ele><time>2026-05-03T09:53:25.981Z</time></trkpt><trkpt lat="40.9650205" lon="14.2757733"><ele>33.0</ele><time>2026-05-03T09:53:27.981Z</time></trkpt><trkpt lat="40.9651263" lon="14.2756979"><ele>33.0</ele><time>2026-05-03T09:53:29.982Z</time></trkpt><trkpt lat="40.9651791" lon="14.2756523"><ele>33.0</ele><time>2026-05-03T09:53:30.981Z</time></trkpt><trkpt lat="40.9652813" lon="14.2755795"><ele>33.0</ele><time>2026-05-03T09:53:32.981Z</time></trkpt><trkpt lat="40.9653778" lon="14.2755091"><ele>33.0</ele><time>2026-05-03T09:53:34.981Z</time></trkpt><trkpt lat="40.9654729" lon="14.2754437"><ele>33.0</ele><time>2026-05-03T09:53:36.981Z</time></trkpt><trkpt lat="40.9655657" lon="14.2753611"><ele>33.0</ele><time>2026-05-03T09:53:38.981Z</time></trkpt><trkpt lat="40.9656576" lon="14.2752841"><ele>33.0</ele><time>2026-05-03T09:53:40.982Z</time></trkpt><trkpt lat="40.9657399" lon="14.2751836"><ele>33.0</ele><time>2026-05-03T09:53:42.981Z</time></trkpt><trkpt lat="40.9658362" lon="14.2751098"><ele>33.0</ele><time>2026-05-03T09:53:44.982Z</time></trkpt><trkpt lat="40.9659153" lon="14.2750159"><ele>33.0</ele><time>2026-05-03T09:53:46.982Z</time></trkpt><trkpt lat="40.9659748" lon="14.2749511"><ele>33.0</ele><time>2026-05-03T09:53:48.981Z</time></trkpt><trkpt lat="40.9660173" lon="14.2748854"><ele>33.0</ele><time>2026-05-03T09:53:50.981Z</time></trkpt><trkpt lat="40.9660678" lon="14.2748156"><ele>33.0</ele><time>2026-05-03T09:53:52.981Z</time></trkpt><trkpt lat="40.9661362" lon="14.2747355"><ele>33.0</ele><time>2026-05-03T09:53:54.981Z</time></trkpt><trkpt lat="40.9662151" lon="14.2746616"><ele>33.0</ele><time>2026-05-03T09:53:56.982Z</time></trkpt><trkpt lat="40.9662923" lon="14.274566"><ele>33.0</ele><time>2026-05-03T09:53:58.982Z</time></trkpt><trkpt lat="40.9663687" lon="14.274471"><ele>33.0</ele><time>2026-05-03T09:54:00.981Z</time></trkpt><trkpt lat="40.966437" lon="14.2743701"><ele>33.0</ele><time>2026-05-03T09:54:02.981Z</time></trkpt><trkpt lat="40.9665122" lon="14.2742884"><ele>33.0</ele><time>2026-05-03T09:54:04.981Z</time></trkpt><trkpt lat="40.9665778" lon="14.2741898"><ele>33.0</ele><time>2026-05-03T09:54:06.981Z</time></trkpt><trkpt lat="40.9666407" lon="14.2740967"><ele>33.0</ele><time>2026-05-03T09:54:08.981Z</time></trkpt><trkpt lat="40.9667073" lon="14.2740118"><ele>33.0</ele><time>2026-05-03T09:54:10.981Z</time></trkpt><trkpt lat="40.9667678" lon="14.2739357"><ele>33.0</ele><time>2026-05-03T09:54:12.982Z</time></trkpt><trkpt lat="40.966826" lon="14.273843"><ele>32.5</ele><time>2026-05-03T09:54:15.981Z</time></trkpt><trkpt lat="40.9668815" lon="14.2737821"><ele>32.0</ele><time>2026-05-03T09:54:17.981Z</time></trkpt><trkpt lat="40.9669387" lon="14.2737112"><ele>31.5</ele><time>2026-05-03T09:54:19.982Z</time></trkpt><trkpt lat="40.9669921" lon="14.2736284"><ele>31.0</ele><time>2026-05-03T09:54:21.981Z</time></trkpt><trkpt lat="40.9670532" lon="14.2735478"><ele>30.5</ele><time>2026-05-03T09:54:23.981Z</time></trkpt><trkpt lat="40.9671155" lon="14.2734667"><ele>30.0</ele><time>2026-05-03T09:54:25.981Z</time></trkpt><trkpt lat="40.9671699" lon="14.2733786"><ele>30.0</ele><time>2026-05-03T09:54:27.981Z</time></trkpt><trkpt lat="40.9672292" lon="14.2732858"><ele>30.0</ele><time>2026-05-03T09:54:29.981Z</time></trkpt><trkpt lat="40.9672896" lon="14.2731835"><ele>30.0</ele><time>2026-05-03T09:54:31.981Z</time></trkpt><trkpt lat="40.9673531" lon="14.2730796"><ele>30.0</ele><time>2026-05-03T09:54:33.982Z</time></trkpt><trkpt lat="40.9674137" lon="14.27297"><ele>30.0</ele><time>2026-05-03T09:54:35.981Z</time></trkpt><trkpt lat="40.9674739" lon="14.2728602"><ele>29.2</ele><time>2026-05-03T09:54:37.981Z</time></trkpt><trkpt lat="40.9675364" lon="14.2727508"><ele>28.4</ele><time>2026-05-03T09:54:39.982Z</time></trkpt><trkpt lat="40.9675965" lon="14.2726416"><ele>27.6</ele><time>2026-05-03T09:54:41.981Z</time></trkpt><trkpt lat="40.9676562" lon="14.2725209"><ele>26.8</ele><time>2026-05-03T09:54:43.981Z</time></trkpt><trkpt lat="40.9677173" lon="14.2724177"><ele>26.0</ele><time>2026-05-03T09:54:45.982Z</time></trkpt><trkpt lat="40.9677954" lon="14.2723315"><ele>26.8</ele><time>2026-05-03T09:54:47.981Z</time></trkpt><trkpt lat="40.9678769" lon="14.2722545"><ele>27.6</ele><time>2026-05-03T09:54:49.981Z</time></trkpt><trkpt lat="40.9679655" lon="14.2722111"><ele>28.4</ele><time>2026-05-03T09:54:51.981Z</time></trkpt><trkpt lat="40.9680419" lon="14.2722685"><ele>29.2</ele><time>2026-05-03T09:54:53.982Z</time></trkpt><trkpt lat="40.9681311" lon="14.2722605"><ele>30.0</ele><time>2026-05-03T09:54:55.982Z</time></trkpt><trkpt lat="40.9682173" lon="14.2722273"><ele>30.0</ele><time>2026-05-03T09:54:57.982Z</time></trkpt><trkpt lat="40.9683041" lon="14.2721946"><ele>30.0</ele><time>2026-05-03T09:54:59.981Z</time></trkpt><trkpt lat="40.9683959" lon="14.2721728"><ele>30.0</ele><time>2026-05-03T09:55:01.981Z</time></trkpt><trkpt lat="40.96849" lon="14.2721805"><ele>30.0</ele><time>2026-05-03T09:55:03.982Z</time></trkpt><trkpt lat="40.9685829" lon="14.2721991"><ele>30.0</ele><time>2026-05-03T09:55:05.981Z</time></trkpt><trkpt lat="40.968672" lon="14.2722507"><ele>29.6</ele><time>2026-05-03T09:55:07.981Z</time></trkpt><trkpt lat="40.9687557" lon="14.2723223"><ele>29.2</ele><time>2026-05-03T09:55:09.981Z</time></trkpt><trkpt lat="40.9688422" lon="14.2724016"><ele>28.799999999999997</ele><time>2026-05-03T09:55:11.981Z</time></trkpt><trkpt lat="40.9689303" lon="14.2724864"><ele>28.4</ele><time>2026-05-03T09:55:13.981Z</time></trkpt><trkpt lat="40.9690179" lon="14.2725708"><ele>28.0</ele><time>2026-05-03T09:55:15.981Z</time></trkpt><trkpt lat="40.9691085" lon="14.272651"><ele>28.4</ele><time>2026-05-03T09:55:17.982Z</time></trkpt><trkpt lat="40.9691943" lon="14.272734"><ele>28.799999999999997</ele><time>2026-05-03T09:55:19.981Z</time></trkpt><trkpt lat="40.9692803" lon="14.2728092"><ele>29.2</ele><time>2026-05-03T09:55:21.981Z</time></trkpt><trkpt lat="40.9693677" lon="14.2728846"><ele>29.6</ele><time>2026-05-03T09:55:23.981Z</time></trkpt><trkpt lat="40.9694464" lon="14.2729615"><ele>30.0</ele><time>2026-05-03T09:55:25.982Z</time></trkpt><trkpt lat="40.9695275" lon="14.273026"><ele>30.0</ele><time>2026-05-03T09:55:27.981Z</time></trkpt><trkpt lat="40.9696026" lon="14.2730985"><ele>30.0</ele><time>2026-05-03T09:55:29.981Z</time></trkpt><trkpt lat="40.9696864" lon="14.2731652"><ele>30.0</ele><time>2026-05-03T09:55:31.982Z</time></trkpt><trkpt lat="40.9697656" lon="14.2732379"><ele>30.0</ele><time>2026-05-03T09:55:33.981Z</time></trkpt><trkpt lat="40.9698486" lon="14.2733147"><ele>30.0</ele><time>2026-05-03T09:55:35.982Z</time></trkpt><trkpt lat="40.9699285" lon="14.2733944"><ele>29.6</ele><time>2026-05-03T09:55:37.981Z</time></trkpt><trkpt lat="40.970009" lon="14.2734725"><ele>29.2</ele><time>2026-05-03T09:55:39.982Z</time></trkpt><trkpt lat="40.970094" lon="14.2735468"><ele>28.799999999999997</ele><time>2026-05-03T09:55:41.981Z</time></trkpt><trkpt lat="40.9701798" lon="14.2736225"><ele>28.4</ele><time>2026-05-03T09:55:43.982Z</time></trkpt><trkpt lat="40.9702724" lon="14.273626"><ele>28.0</ele><time>2026-05-03T09:55:45.981Z</time></trkpt><trkpt lat="40.970347" lon="14.2735262"><ele>28.0</ele><time>2026-05-03T09:55:47.981Z</time></trkpt><trkpt lat="40.9704158" lon="14.273431"><ele>27.999999999999996</ele><time>2026-05-03T09:55:49.981Z</time></trkpt><trkpt lat="40.970491" lon="14.273329"><ele>27.999999999999996</ele><time>2026-05-03T09:55:51.981Z</time></trkpt><trkpt lat="40.9705532" lon="14.2732198"><ele>28.0</ele><time>2026-05-03T09:55:53.982Z</time></trkpt><trkpt lat="40.9706119" lon="14.2731101"><ele>28.0</ele><time>2026-05-03T09:55:55.982Z</time></trkpt><trkpt lat="40.9706709" lon="14.2729999"><ele>28.0</ele><time>2026-05-03T09:55:57.981Z</time></trkpt><trkpt lat="40.9707219" lon="14.2728851"><ele>27.999999999999996</ele><time>2026-05-03T09:55:59.982Z</time></trkpt><trkpt lat="40.9707704" lon="14.2727654"><ele>27.999999999999996</ele><time>2026-05-03T09:56:01.981Z</time></trkpt><trkpt lat="40.9708417" lon="14.2726753"><ele>28.0</ele><time>2026-05-03T09:56:03.981Z</time></trkpt><trkpt lat="40.9708944" lon="14.2725523"><ele>28.0</ele><time>2026-05-03T09:56:05.982Z</time></trkpt><trkpt lat="40.9709558" lon="14.2724271"><ele>28.0</ele><time>2026-05-03T09:56:07.981Z</time></trkpt><trkpt lat="40.9710213" lon="14.2723156"><ele>27.999999999999996</ele><time>2026-05-03T09:56:09.981Z</time></trkpt><trkpt lat="40.9710723" lon="14.2721969"><ele>27.999999999999996</ele><time>2026-05-03T09:56:11.981Z</time></trkpt><trkpt lat="40.9711219" lon="14.2720875"><ele>28.0</ele><time>2026-05-03T09:56:13.981Z</time></trkpt><trkpt lat="40.9711592" lon="14.2719862"><ele>28.0</ele><time>2026-05-03T09:56:15.981Z</time></trkpt><trkpt lat="40.9712145" lon="14.2719419"><ele>27.833333333333336</ele><time>2026-05-03T09:56:17.982Z</time></trkpt><trkpt lat="40.9712849" lon="14.2719986"><ele>27.666666666666668</ele><time>2026-05-03T09:56:20.981Z</time></trkpt><trkpt lat="40.971324" lon="14.2721066"><ele>27.5</ele><time>2026-05-03T09:57:53.981Z</time></trkpt><trkpt lat="40.9713625" lon="14.2720166"><ele>27.333333333333336</ele><time>2026-05-03T09:59:19.981Z</time></trkpt><trkpt lat="40.9713891" lon="14.2719276"><ele>27.166666666666668</ele><time>2026-05-03T09:59:25.981Z</time></trkpt><trkpt lat="40.9714165" lon="14.2718333"><ele>27.0</ele><time>2026-05-03T09:59:27.981Z</time></trkpt><trkpt lat="40.9714551" lon="14.2717581"><ele>27.0</ele><time>2026-05-03T09:59:45.981Z</time></trkpt><trkpt lat="40.9714035" lon="14.2718496"><ele>27.0</ele><time>2026-05-03T09:59:49.982Z</time></trkpt><trkpt lat="40.9713675" lon="14.271934"><ele>27.0</ele><time>2026-05-03T09:59:52.981Z</time></trkpt><trkpt lat="40.9714269" lon="14.2719709"><ele>27.0</ele><time>2026-05-03T10:00:16.981Z</time></trkpt><trkpt lat="40.9714659" lon="14.271884"><ele>27.0</ele><time>2026-05-03T10:00:21.981Z</time></trkpt><trkpt lat="40.9713826" lon="14.2720333"><ele>27.0</ele><time>2026-05-03T10:00:58.981Z</time></trkpt></trkseg></trk></gpx>